<?xml version="1.0" encoding="UTF-8" standalone="no" ?>
<gpx xmlns="http://www.topografix.com/GPX/1/1" xmlns:xsi="http://www.w3.org/2001/XMLSchema-instance" xsi:schemaLocation="http://www.topografix.com/GPX/1/1 http://www.topografix.com/GPX/1/1/gpx.xsd" version="1.1" creator="VisuGPX - https://www.visugpx.com">
  <metadata>
    <name>Marseille  de l'Estaque à La Redonne</name>
    <desc><![CDATA[Chemin très technique - Chaussures adéquates , bâtons et attention extrême conseillée. Contre indiqué pour les personnes ayant le vertige]]></desc>
  </metadata>
  <trk>
    <name><![CDATA[SityTrail - Marseille  Estaque à Redonne]]></name>
    <desc><![CDATA[Chemin très technique - Chaussures adéquates , bâtons et attention extrême conseillée. Contre indiqué pour les personnes ayant le vertige]]></desc>
    <trkseg>
      <trkpt lat="43.36194" lon="5.30326">
        <ele>10</ele>
        <time>2024-11-26T07:32:02.877+00:00</time>
      </trkpt>
      <trkpt lat="43.36194" lon="5.30326">
        <ele>10</ele>
        <time>2024-11-26T07:32:02.877+00:00</time>
      </trkpt>
      <trkpt lat="43.36196" lon="5.30322">
        <ele>10</ele>
        <time>2024-11-26T07:33:34.877+00:00</time>
      </trkpt>
      <trkpt lat="43.36195" lon="5.30315">
        <ele>8</ele>
        <time>2024-11-26T07:33:39.877+00:00</time>
      </trkpt>
      <trkpt lat="43.36196" lon="5.30308">
        <ele>8</ele>
        <time>2024-11-26T07:33:44.877+00:00</time>
      </trkpt>
      <trkpt lat="43.36197" lon="5.30302">
        <ele>8</ele>
        <time>2024-11-26T07:33:49.759+00:00</time>
      </trkpt>
      <trkpt lat="43.36195" lon="5.30296">
        <ele>8</ele>
        <time>2024-11-26T07:33:54.120+00:00</time>
      </trkpt>
      <trkpt lat="43.36195" lon="5.3029">
        <ele>9</ele>
        <time>2024-11-26T07:33:58.404+00:00</time>
      </trkpt>
      <trkpt lat="43.36191" lon="5.30289">
        <ele>9</ele>
        <time>2024-11-26T07:34:02.679+00:00</time>
      </trkpt>
      <trkpt lat="43.36186" lon="5.30292">
        <ele>8</ele>
        <time>2024-11-26T07:34:06.829+00:00</time>
      </trkpt>
      <trkpt lat="43.36181" lon="5.30291">
        <ele>9</ele>
        <time>2024-11-26T07:34:10.877+00:00</time>
      </trkpt>
      <trkpt lat="43.36177" lon="5.30285">
        <ele>5</ele>
        <time>2024-11-26T07:34:15.240+00:00</time>
      </trkpt>
      <trkpt lat="43.36173" lon="5.30281">
        <ele>5</ele>
        <time>2024-11-26T07:34:19.838+00:00</time>
      </trkpt>
      <trkpt lat="43.3617" lon="5.30275">
        <ele>5</ele>
        <time>2024-11-26T07:34:23.877+00:00</time>
      </trkpt>
      <trkpt lat="43.36169" lon="5.3027">
        <ele>5</ele>
        <time>2024-11-26T07:34:27.877+00:00</time>
      </trkpt>
      <trkpt lat="43.36169" lon="5.30264">
        <ele>6</ele>
        <time>2024-11-26T07:34:32.165+00:00</time>
      </trkpt>
      <trkpt lat="43.36167" lon="5.30257">
        <ele>6</ele>
        <time>2024-11-26T07:34:36.206+00:00</time>
      </trkpt>
      <trkpt lat="43.36168" lon="5.3025">
        <ele>6</ele>
        <time>2024-11-26T07:34:40.877+00:00</time>
      </trkpt>
      <trkpt lat="43.36168" lon="5.30242">
        <ele>6</ele>
        <time>2024-11-26T07:34:45.198+00:00</time>
      </trkpt>
      <trkpt lat="43.3617" lon="5.30237">
        <ele>6</ele>
        <time>2024-11-26T07:34:49.227+00:00</time>
      </trkpt>
      <trkpt lat="43.3617" lon="5.30229">
        <ele>8</ele>
        <time>2024-11-26T07:34:53.800+00:00</time>
      </trkpt>
      <trkpt lat="43.3617" lon="5.30223">
        <ele>8</ele>
        <time>2024-11-26T07:34:57.877+00:00</time>
      </trkpt>
      <trkpt lat="43.36169" lon="5.30214">
        <ele>8</ele>
        <time>2024-11-26T07:35:02.563+00:00</time>
      </trkpt>
      <trkpt lat="43.36169" lon="5.30208">
        <ele>10</ele>
        <time>2024-11-26T07:35:06.702+00:00</time>
      </trkpt>
      <trkpt lat="43.3617" lon="5.30202">
        <ele>10</ele>
        <time>2024-11-26T07:35:10.747+00:00</time>
      </trkpt>
      <trkpt lat="43.36168" lon="5.30195">
        <ele>10</ele>
        <time>2024-11-26T07:35:15.244+00:00</time>
      </trkpt>
      <trkpt lat="43.36167" lon="5.30189">
        <ele>10</ele>
        <time>2024-11-26T07:35:19.620+00:00</time>
      </trkpt>
      <trkpt lat="43.36165" lon="5.30182">
        <ele>10</ele>
        <time>2024-11-26T07:35:24.023+00:00</time>
      </trkpt>
      <trkpt lat="43.36163" lon="5.30175">
        <ele>13</ele>
        <time>2024-11-26T07:35:28.563+00:00</time>
      </trkpt>
      <trkpt lat="43.36161" lon="5.30169">
        <ele>13</ele>
        <time>2024-11-26T07:35:32.877+00:00</time>
      </trkpt>
      <trkpt lat="43.36158" lon="5.30162">
        <ele>13</ele>
        <time>2024-11-26T07:35:37.343+00:00</time>
      </trkpt>
      <trkpt lat="43.36156" lon="5.30155">
        <ele>13</ele>
        <time>2024-11-26T07:35:41.781+00:00</time>
      </trkpt>
      <trkpt lat="43.36154" lon="5.30147">
        <ele>21</ele>
        <time>2024-11-26T07:35:46.459+00:00</time>
      </trkpt>
      <trkpt lat="43.3615" lon="5.3014">
        <ele>11</ele>
        <time>2024-11-26T07:35:51.038+00:00</time>
      </trkpt>
      <trkpt lat="43.36147" lon="5.30133">
        <ele>11</ele>
        <time>2024-11-26T07:35:55.544+00:00</time>
      </trkpt>
      <trkpt lat="43.36145" lon="5.30126">
        <ele>11</ele>
        <time>2024-11-26T07:35:59.836+00:00</time>
      </trkpt>
      <trkpt lat="43.36142" lon="5.30119">
        <ele>14</ele>
        <time>2024-11-26T07:36:03.877+00:00</time>
      </trkpt>
      <trkpt lat="43.3614" lon="5.30112">
        <ele>14</ele>
        <time>2024-11-26T07:36:07.977+00:00</time>
      </trkpt>
      <trkpt lat="43.36137" lon="5.30105">
        <ele>14</ele>
        <time>2024-11-26T07:36:12.557+00:00</time>
      </trkpt>
      <trkpt lat="43.36133" lon="5.30099">
        <ele>14</ele>
        <time>2024-11-26T07:36:16.816+00:00</time>
      </trkpt>
      <trkpt lat="43.3613" lon="5.30092">
        <ele>17</ele>
        <time>2024-11-26T07:36:21.083+00:00</time>
      </trkpt>
      <trkpt lat="43.36125" lon="5.30086">
        <ele>17</ele>
        <time>2024-11-26T07:36:25.279+00:00</time>
      </trkpt>
      <trkpt lat="43.36122" lon="5.30079">
        <ele>6</ele>
        <time>2024-11-26T07:36:29.597+00:00</time>
      </trkpt>
      <trkpt lat="43.36119" lon="5.30072">
        <ele>6</ele>
        <time>2024-11-26T07:36:34+00:00</time>
      </trkpt>
      <trkpt lat="43.36117" lon="5.30065">
        <ele>9</ele>
        <time>2024-11-26T07:36:38.340+00:00</time>
      </trkpt>
      <trkpt lat="43.36114" lon="5.30058">
        <ele>9</ele>
        <time>2024-11-26T07:36:42.519+00:00</time>
      </trkpt>
      <trkpt lat="43.3611" lon="5.30052">
        <ele>9</ele>
        <time>2024-11-26T07:36:46.877+00:00</time>
      </trkpt>
      <trkpt lat="43.36111" lon="5.30044">
        <ele>9</ele>
        <time>2024-11-26T07:36:51.077+00:00</time>
      </trkpt>
      <trkpt lat="43.36107" lon="5.30038">
        <ele>13</ele>
        <time>2024-11-26T07:36:55.438+00:00</time>
      </trkpt>
      <trkpt lat="43.36103" lon="5.30032">
        <ele>13</ele>
        <time>2024-11-26T07:36:59.739+00:00</time>
      </trkpt>
      <trkpt lat="43.361" lon="5.30025">
        <ele>13</ele>
        <time>2024-11-26T07:37:04.155+00:00</time>
      </trkpt>
      <trkpt lat="43.36097" lon="5.30018">
        <ele>5</ele>
        <time>2024-11-26T07:37:08.478+00:00</time>
      </trkpt>
      <trkpt lat="43.36094" lon="5.3001">
        <ele>7</ele>
        <time>2024-11-26T07:37:13.358+00:00</time>
      </trkpt>
      <trkpt lat="43.3609" lon="5.30004">
        <ele>7</ele>
        <time>2024-11-26T07:37:17.877+00:00</time>
      </trkpt>
      <trkpt lat="43.36089" lon="5.29999">
        <ele>7</ele>
        <time>2024-11-26T07:37:21.876+00:00</time>
      </trkpt>
      <trkpt lat="43.36086" lon="5.29995">
        <ele>7</ele>
        <time>2024-11-26T07:37:26.362+00:00</time>
      </trkpt>
      <trkpt lat="43.36083" lon="5.29989">
        <ele>7</ele>
        <time>2024-11-26T07:37:30.877+00:00</time>
      </trkpt>
      <trkpt lat="43.36079" lon="5.29981">
        <ele>9</ele>
        <time>2024-11-26T07:37:35.501+00:00</time>
      </trkpt>
      <trkpt lat="43.36074" lon="5.29976">
        <ele>9</ele>
        <time>2024-11-26T07:37:39.743+00:00</time>
      </trkpt>
      <trkpt lat="43.36072" lon="5.2997">
        <ele>9</ele>
        <time>2024-11-26T07:37:43.877+00:00</time>
      </trkpt>
      <trkpt lat="43.3607" lon="5.29963">
        <ele>9</ele>
        <time>2024-11-26T07:37:48.161+00:00</time>
      </trkpt>
      <trkpt lat="43.36066" lon="5.29955">
        <ele>6</ele>
        <time>2024-11-26T07:37:52.404+00:00</time>
      </trkpt>
      <trkpt lat="43.36063" lon="5.29949">
        <ele>6</ele>
        <time>2024-11-26T07:37:56.666+00:00</time>
      </trkpt>
      <trkpt lat="43.36068" lon="5.29949">
        <ele>6</ele>
        <time>2024-11-26T07:38:00.878+00:00</time>
      </trkpt>
      <trkpt lat="43.36065" lon="5.29941">
        <ele>6</ele>
        <time>2024-11-26T07:38:05.447+00:00</time>
      </trkpt>
      <trkpt lat="43.36062" lon="5.29934">
        <ele>6</ele>
        <time>2024-11-26T07:38:09.781+00:00</time>
      </trkpt>
      <trkpt lat="43.36059" lon="5.29928">
        <ele>8</ele>
        <time>2024-11-26T07:38:14.181+00:00</time>
      </trkpt>
      <trkpt lat="43.36055" lon="5.29922">
        <ele>8</ele>
        <time>2024-11-26T07:38:18.621+00:00</time>
      </trkpt>
      <trkpt lat="43.36049" lon="5.29916">
        <ele>8</ele>
        <time>2024-11-26T07:38:22.876+00:00</time>
      </trkpt>
      <trkpt lat="43.36045" lon="5.29908">
        <ele>8</ele>
        <time>2024-11-26T07:38:27.705+00:00</time>
      </trkpt>
      <trkpt lat="43.36045" lon="5.29899">
        <ele>10</ele>
        <time>2024-11-26T07:38:31.877+00:00</time>
      </trkpt>
      <trkpt lat="43.36046" lon="5.2989">
        <ele>10</ele>
        <time>2024-11-26T07:38:36.876+00:00</time>
      </trkpt>
      <trkpt lat="43.36042" lon="5.29881">
        <ele>10</ele>
        <time>2024-11-26T07:38:41.204+00:00</time>
      </trkpt>
      <trkpt lat="43.36041" lon="5.29875">
        <ele>4</ele>
        <time>2024-11-26T07:38:45.481+00:00</time>
      </trkpt>
      <trkpt lat="43.36038" lon="5.29868">
        <ele>5</ele>
        <time>2024-11-26T07:38:49.617+00:00</time>
      </trkpt>
      <trkpt lat="43.36036" lon="5.29859">
        <ele>5</ele>
        <time>2024-11-26T07:38:54.564+00:00</time>
      </trkpt>
      <trkpt lat="43.36035" lon="5.29851">
        <ele>5</ele>
        <time>2024-11-26T07:38:58.724+00:00</time>
      </trkpt>
      <trkpt lat="43.36033" lon="5.29843">
        <ele>4</ele>
        <time>2024-11-26T07:39:02.823+00:00</time>
      </trkpt>
      <trkpt lat="43.36033" lon="5.29836">
        <ele>4</ele>
        <time>2024-11-26T07:39:07.104+00:00</time>
      </trkpt>
      <trkpt lat="43.36033" lon="5.29827">
        <ele>4</ele>
        <time>2024-11-26T07:39:11.785+00:00</time>
      </trkpt>
      <trkpt lat="43.36033" lon="5.2982">
        <ele>4</ele>
        <time>2024-11-26T07:39:15.877+00:00</time>
      </trkpt>
      <trkpt lat="43.36032" lon="5.29811">
        <ele>2</ele>
        <time>2024-11-26T07:39:20.877+00:00</time>
      </trkpt>
      <trkpt lat="43.36032" lon="5.29802">
        <ele>2</ele>
        <time>2024-11-26T07:39:25.219+00:00</time>
      </trkpt>
      <trkpt lat="43.36033" lon="5.29794">
        <ele>2</ele>
        <time>2024-11-26T07:39:29.824+00:00</time>
      </trkpt>
      <trkpt lat="43.36035" lon="5.29788">
        <ele>4</ele>
        <time>2024-11-26T07:39:33.877+00:00</time>
      </trkpt>
      <trkpt lat="43.36035" lon="5.29778">
        <ele>4</ele>
        <time>2024-11-26T07:39:38.476+00:00</time>
      </trkpt>
      <trkpt lat="43.36035" lon="5.29771">
        <ele>4</ele>
        <time>2024-11-26T07:39:42.640+00:00</time>
      </trkpt>
      <trkpt lat="43.36035" lon="5.29763">
        <ele>6</ele>
        <time>2024-11-26T07:39:46.877+00:00</time>
      </trkpt>
      <trkpt lat="43.36035" lon="5.29756">
        <ele>6</ele>
        <time>2024-11-26T07:39:50.876+00:00</time>
      </trkpt>
      <trkpt lat="43.36036" lon="5.29748">
        <ele>6</ele>
        <time>2024-11-26T07:39:55.457+00:00</time>
      </trkpt>
      <trkpt lat="43.36038" lon="5.29741">
        <ele>6</ele>
        <time>2024-11-26T07:39:59.620+00:00</time>
      </trkpt>
      <trkpt lat="43.36039" lon="5.29733">
        <ele>8</ele>
        <time>2024-11-26T07:40:03.877+00:00</time>
      </trkpt>
      <trkpt lat="43.36041" lon="5.29725">
        <ele>8</ele>
        <time>2024-11-26T07:40:08.221+00:00</time>
      </trkpt>
      <trkpt lat="43.36042" lon="5.29717">
        <ele>8</ele>
        <time>2024-11-26T07:40:12.401+00:00</time>
      </trkpt>
      <trkpt lat="43.36043" lon="5.29708">
        <ele>19</ele>
        <time>2024-11-26T07:40:16.619+00:00</time>
      </trkpt>
      <trkpt lat="43.36044" lon="5.29701">
        <ele>19</ele>
        <time>2024-11-26T07:40:20.877+00:00</time>
      </trkpt>
      <trkpt lat="43.36046" lon="5.29693">
        <ele>19</ele>
        <time>2024-11-26T07:40:25.244+00:00</time>
      </trkpt>
      <trkpt lat="43.36048" lon="5.29687">
        <ele>19</ele>
        <time>2024-11-26T07:40:29.321+00:00</time>
      </trkpt>
      <trkpt lat="43.36049" lon="5.29679">
        <ele>18</ele>
        <time>2024-11-26T07:40:33.383+00:00</time>
      </trkpt>
      <trkpt lat="43.3605" lon="5.29671">
        <ele>18</ele>
        <time>2024-11-26T07:40:37.802+00:00</time>
      </trkpt>
      <trkpt lat="43.3605" lon="5.29665">
        <ele>18</ele>
        <time>2024-11-26T07:40:41.877+00:00</time>
      </trkpt>
      <trkpt lat="43.36051" lon="5.29658">
        <ele>18</ele>
        <time>2024-11-26T07:40:46.403+00:00</time>
      </trkpt>
      <trkpt lat="43.36051" lon="5.29649">
        <ele>18</ele>
        <time>2024-11-26T07:40:50.704+00:00</time>
      </trkpt>
      <trkpt lat="43.36049" lon="5.29641">
        <ele>18</ele>
        <time>2024-11-26T07:40:55.038+00:00</time>
      </trkpt>
      <trkpt lat="43.36047" lon="5.29633">
        <ele>18</ele>
        <time>2024-11-26T07:40:59.363+00:00</time>
      </trkpt>
      <trkpt lat="43.36046" lon="5.29625">
        <ele>20</ele>
        <time>2024-11-26T07:41:03.664+00:00</time>
      </trkpt>
      <trkpt lat="43.36043" lon="5.29617">
        <ele>20</ele>
        <time>2024-11-26T07:41:07.801+00:00</time>
      </trkpt>
      <trkpt lat="43.36041" lon="5.2961">
        <ele>11</ele>
        <time>2024-11-26T07:41:12.059+00:00</time>
      </trkpt>
      <trkpt lat="43.36039" lon="5.29601">
        <ele>11</ele>
        <time>2024-11-26T07:41:16.861+00:00</time>
      </trkpt>
      <trkpt lat="43.36039" lon="5.29592">
        <ele>12</ele>
        <time>2024-11-26T07:41:20.876+00:00</time>
      </trkpt>
      <trkpt lat="43.36039" lon="5.29584">
        <ele>12</ele>
        <time>2024-11-26T07:41:25.300+00:00</time>
      </trkpt>
      <trkpt lat="43.36038" lon="5.29577">
        <ele>12</ele>
        <time>2024-11-26T07:41:29.584+00:00</time>
      </trkpt>
      <trkpt lat="43.36036" lon="5.29569">
        <ele>18</ele>
        <time>2024-11-26T07:41:33.876+00:00</time>
      </trkpt>
      <trkpt lat="43.36036" lon="5.29561">
        <ele>18</ele>
        <time>2024-11-26T07:41:38.047+00:00</time>
      </trkpt>
      <trkpt lat="43.36035" lon="5.29554">
        <ele>18</ele>
        <time>2024-11-26T07:41:42.826+00:00</time>
      </trkpt>
      <trkpt lat="43.36036" lon="5.29545">
        <ele>18</ele>
        <time>2024-11-26T07:41:47.509+00:00</time>
      </trkpt>
      <trkpt lat="43.36037" lon="5.29537">
        <ele>20</ele>
        <time>2024-11-26T07:41:51.826+00:00</time>
      </trkpt>
      <trkpt lat="43.36038" lon="5.29528">
        <ele>20</ele>
        <time>2024-11-26T07:41:56.272+00:00</time>
      </trkpt>
      <trkpt lat="43.36038" lon="5.2952">
        <ele>20</ele>
        <time>2024-11-26T07:42:00.571+00:00</time>
      </trkpt>
      <trkpt lat="43.36037" lon="5.29514">
        <ele>20</ele>
        <time>2024-11-26T07:42:04.875+00:00</time>
      </trkpt>
      <trkpt lat="43.36036" lon="5.29506">
        <ele>23</ele>
        <time>2024-11-26T07:42:09.248+00:00</time>
      </trkpt>
      <trkpt lat="43.36035" lon="5.29499">
        <ele>23</ele>
        <time>2024-11-26T07:42:13.530+00:00</time>
      </trkpt>
      <trkpt lat="43.36035" lon="5.2949">
        <ele>23</ele>
        <time>2024-11-26T07:42:17.967+00:00</time>
      </trkpt>
      <trkpt lat="43.36035" lon="5.29482">
        <ele>30</ele>
        <time>2024-11-26T07:42:22.430+00:00</time>
      </trkpt>
      <trkpt lat="43.36036" lon="5.29473">
        <ele>30</ele>
        <time>2024-11-26T07:42:26.805+00:00</time>
      </trkpt>
      <trkpt lat="43.36037" lon="5.29465">
        <ele>30</ele>
        <time>2024-11-26T07:42:31.345+00:00</time>
      </trkpt>
      <trkpt lat="43.36035" lon="5.29457">
        <ele>37</ele>
        <time>2024-11-26T07:42:35.867+00:00</time>
      </trkpt>
      <trkpt lat="43.36034" lon="5.29449">
        <ele>37</ele>
        <time>2024-11-26T07:42:40.405+00:00</time>
      </trkpt>
      <trkpt lat="43.36033" lon="5.29442">
        <ele>37</ele>
        <time>2024-11-26T07:42:44.875+00:00</time>
      </trkpt>
      <trkpt lat="43.36032" lon="5.29434">
        <ele>37</ele>
        <time>2024-11-26T07:42:49.171+00:00</time>
      </trkpt>
      <trkpt lat="43.36029" lon="5.29427">
        <ele>43</ele>
        <time>2024-11-26T07:42:53.570+00:00</time>
      </trkpt>
      <trkpt lat="43.36028" lon="5.2942">
        <ele>43</ele>
        <time>2024-11-26T07:42:57.604+00:00</time>
      </trkpt>
      <trkpt lat="43.36025" lon="5.29415">
        <ele>43</ele>
        <time>2024-11-26T07:43:01.876+00:00</time>
      </trkpt>
      <trkpt lat="43.3602" lon="5.29407">
        <ele>43</ele>
        <time>2024-11-26T07:43:06.876+00:00</time>
      </trkpt>
      <trkpt lat="43.36016" lon="5.29401">
        <ele>50</ele>
        <time>2024-11-26T07:43:11.324+00:00</time>
      </trkpt>
      <trkpt lat="43.3601" lon="5.29397">
        <ele>22</ele>
        <time>2024-11-26T07:43:15.845+00:00</time>
      </trkpt>
      <trkpt lat="43.36004" lon="5.29393">
        <ele>22</ele>
        <time>2024-11-26T07:43:20.026+00:00</time>
      </trkpt>
      <trkpt lat="43.36" lon="5.29389">
        <ele>22</ele>
        <time>2024-11-26T07:43:24.428+00:00</time>
      </trkpt>
      <trkpt lat="43.35995" lon="5.29384">
        <ele>22</ele>
        <time>2024-11-26T07:43:28.831+00:00</time>
      </trkpt>
      <trkpt lat="43.3599" lon="5.29378">
        <ele>22</ele>
        <time>2024-11-26T07:43:33.179+00:00</time>
      </trkpt>
      <trkpt lat="43.35987" lon="5.29371">
        <ele>31</ele>
        <time>2024-11-26T07:43:37.644+00:00</time>
      </trkpt>
      <trkpt lat="43.35982" lon="5.29367">
        <ele>18</ele>
        <time>2024-11-26T07:43:42.165+00:00</time>
      </trkpt>
      <trkpt lat="43.35978" lon="5.29362">
        <ele>18</ele>
        <time>2024-11-26T07:43:46.179+00:00</time>
      </trkpt>
      <trkpt lat="43.35974" lon="5.29355">
        <ele>18</ele>
        <time>2024-11-26T07:43:50.510+00:00</time>
      </trkpt>
      <trkpt lat="43.35971" lon="5.29346">
        <ele>30</ele>
        <time>2024-11-26T07:43:54.876+00:00</time>
      </trkpt>
      <trkpt lat="43.35965" lon="5.29339">
        <ele>30</ele>
        <time>2024-11-26T07:43:59.510+00:00</time>
      </trkpt>
      <trkpt lat="43.35959" lon="5.29335">
        <ele>30</ele>
        <time>2024-11-26T07:44:03.972+00:00</time>
      </trkpt>
      <trkpt lat="43.35953" lon="5.29333">
        <ele>25</ele>
        <time>2024-11-26T07:44:08.306+00:00</time>
      </trkpt>
      <trkpt lat="43.35948" lon="5.29329">
        <ele>25</ele>
        <time>2024-11-26T07:44:12.606+00:00</time>
      </trkpt>
      <trkpt lat="43.35945" lon="5.29328">
        <ele>25</ele>
        <time>2024-11-26T07:44:16.876+00:00</time>
      </trkpt>
      <trkpt lat="43.3594" lon="5.29326">
        <ele>25</ele>
        <time>2024-11-26T07:44:21.350+00:00</time>
      </trkpt>
      <trkpt lat="43.35935" lon="5.29322">
        <ele>25</ele>
        <time>2024-11-26T07:44:39.876+00:00</time>
      </trkpt>
      <trkpt lat="43.35931" lon="5.29311">
        <ele>38</ele>
        <time>2024-11-26T07:44:44.754+00:00</time>
      </trkpt>
      <trkpt lat="43.35927" lon="5.29306">
        <ele>24</ele>
        <time>2024-11-26T07:44:48.875+00:00</time>
      </trkpt>
      <trkpt lat="43.35923" lon="5.29304">
        <ele>24</ele>
        <time>2024-11-26T07:44:53.876+00:00</time>
      </trkpt>
      <trkpt lat="43.35919" lon="5.29298">
        <ele>24</ele>
        <time>2024-11-26T07:44:58.393+00:00</time>
      </trkpt>
      <trkpt lat="43.35915" lon="5.29292">
        <ele>30</ele>
        <time>2024-11-26T07:45:02.648+00:00</time>
      </trkpt>
      <trkpt lat="43.35912" lon="5.29286">
        <ele>30</ele>
        <time>2024-11-26T07:45:06.876+00:00</time>
      </trkpt>
      <trkpt lat="43.35907" lon="5.29279">
        <ele>30</ele>
        <time>2024-11-26T07:45:11.852+00:00</time>
      </trkpt>
      <trkpt lat="43.35902" lon="5.29272">
        <ele>14</ele>
        <time>2024-11-26T07:45:16.876+00:00</time>
      </trkpt>
      <trkpt lat="43.35901" lon="5.29273">
        <ele>14</ele>
        <time>2024-11-26T07:45:20.876+00:00</time>
      </trkpt>
      <trkpt lat="43.35898" lon="5.29265">
        <ele>14</ele>
        <time>2024-11-26T07:45:25.106+00:00</time>
      </trkpt>
      <trkpt lat="43.35894" lon="5.29261">
        <ele>21</ele>
        <time>2024-11-26T07:45:29.391+00:00</time>
      </trkpt>
      <trkpt lat="43.35891" lon="5.29254">
        <ele>21</ele>
        <time>2024-11-26T07:45:33.876+00:00</time>
      </trkpt>
      <trkpt lat="43.35889" lon="5.29252">
        <ele>21</ele>
        <time>2024-11-26T07:45:38.876+00:00</time>
      </trkpt>
      <trkpt lat="43.35886" lon="5.29249">
        <ele>21</ele>
        <time>2024-11-26T07:45:43.876+00:00</time>
      </trkpt>
      <trkpt lat="43.35882" lon="5.29244">
        <ele>21</ele>
        <time>2024-11-26T07:45:48.876+00:00</time>
      </trkpt>
      <trkpt lat="43.35881" lon="5.29235">
        <ele>30</ele>
        <time>2024-11-26T07:45:53.751+00:00</time>
      </trkpt>
      <trkpt lat="43.35876" lon="5.29228">
        <ele>30</ele>
        <time>2024-11-26T07:45:58.074+00:00</time>
      </trkpt>
      <trkpt lat="43.35874" lon="5.29221">
        <ele>14</ele>
        <time>2024-11-26T07:46:02.564+00:00</time>
      </trkpt>
      <trkpt lat="43.35871" lon="5.29216">
        <ele>14</ele>
        <time>2024-11-26T07:46:06.876+00:00</time>
      </trkpt>
      <trkpt lat="43.35867" lon="5.29212">
        <ele>14</ele>
        <time>2024-11-26T07:46:11.876+00:00</time>
      </trkpt>
      <trkpt lat="43.35868" lon="5.29211">
        <ele>14</ele>
        <time>2024-11-26T07:46:16.850+00:00</time>
      </trkpt>
      <trkpt lat="43.35867" lon="5.29201">
        <ele>18</ele>
        <time>2024-11-26T07:46:21.073+00:00</time>
      </trkpt>
      <trkpt lat="43.35865" lon="5.29195">
        <ele>18</ele>
        <time>2024-11-26T07:46:25.131+00:00</time>
      </trkpt>
      <trkpt lat="43.35862" lon="5.29195">
        <ele>18</ele>
        <time>2024-11-26T07:46:29.388+00:00</time>
      </trkpt>
      <trkpt lat="43.35864" lon="5.292">
        <ele>18</ele>
        <time>2024-11-26T07:46:33.876+00:00</time>
      </trkpt>
      <trkpt lat="43.35862" lon="5.29203">
        <ele>18</ele>
        <time>2024-11-26T07:46:37.930+00:00</time>
      </trkpt>
      <trkpt lat="43.3586" lon="5.29201">
        <ele>18</ele>
        <time>2024-11-26T07:46:42.545+00:00</time>
      </trkpt>
      <trkpt lat="43.35857" lon="5.2919">
        <ele>18</ele>
        <time>2024-11-26T07:46:46.769+00:00</time>
      </trkpt>
      <trkpt lat="43.35855" lon="5.29182">
        <ele>18</ele>
        <time>2024-11-26T07:46:50.876+00:00</time>
      </trkpt>
      <trkpt lat="43.35852" lon="5.29177">
        <ele>27</ele>
        <time>2024-11-26T07:46:55.284+00:00</time>
      </trkpt>
      <trkpt lat="43.35848" lon="5.29172">
        <ele>27</ele>
        <time>2024-11-26T07:46:59.465+00:00</time>
      </trkpt>
      <trkpt lat="43.35848" lon="5.29163">
        <ele>27</ele>
        <time>2024-11-26T07:47:03.808+00:00</time>
      </trkpt>
      <trkpt lat="43.35844" lon="5.2916">
        <ele>14</ele>
        <time>2024-11-26T07:47:07.875+00:00</time>
      </trkpt>
      <trkpt lat="43.35843" lon="5.29151">
        <ele>19</ele>
        <time>2024-11-26T07:47:12.711+00:00</time>
      </trkpt>
      <trkpt lat="43.35842" lon="5.29142">
        <ele>19</ele>
        <time>2024-11-26T07:47:17.468+00:00</time>
      </trkpt>
      <trkpt lat="43.3584" lon="5.29134">
        <ele>19</ele>
        <time>2024-11-26T07:47:21.876+00:00</time>
      </trkpt>
      <trkpt lat="43.35838" lon="5.29126">
        <ele>19</ele>
        <time>2024-11-26T07:47:26.809+00:00</time>
      </trkpt>
      <trkpt lat="43.35836" lon="5.29119">
        <ele>24</ele>
        <time>2024-11-26T07:47:31.273+00:00</time>
      </trkpt>
      <trkpt lat="43.35834" lon="5.29112">
        <ele>24</ele>
        <time>2024-11-26T07:47:35.427+00:00</time>
      </trkpt>
      <trkpt lat="43.35831" lon="5.29105">
        <ele>24</ele>
        <time>2024-11-26T07:47:39.489+00:00</time>
      </trkpt>
      <trkpt lat="43.35828" lon="5.29104">
        <ele>24</ele>
        <time>2024-11-26T07:47:43.876+00:00</time>
      </trkpt>
      <trkpt lat="43.35828" lon="5.29103">
        <ele>24</ele>
        <time>2024-11-26T07:47:48.430+00:00</time>
      </trkpt>
      <trkpt lat="43.35825" lon="5.29088">
        <ele>30</ele>
        <time>2024-11-26T07:47:52.876+00:00</time>
      </trkpt>
      <trkpt lat="43.35822" lon="5.29079">
        <ele>30</ele>
        <time>2024-11-26T07:47:57.715+00:00</time>
      </trkpt>
      <trkpt lat="43.35819" lon="5.29071">
        <ele>17</ele>
        <time>2024-11-26T07:48:02.576+00:00</time>
      </trkpt>
      <trkpt lat="43.35815" lon="5.29062">
        <ele>19</ele>
        <time>2024-11-26T07:48:07.368+00:00</time>
      </trkpt>
      <trkpt lat="43.35813" lon="5.29055">
        <ele>19</ele>
        <time>2024-11-26T07:48:11.370+00:00</time>
      </trkpt>
      <trkpt lat="43.35812" lon="5.29046">
        <ele>19</ele>
        <time>2024-11-26T07:48:15.446+00:00</time>
      </trkpt>
      <trkpt lat="43.35808" lon="5.29038">
        <ele>21</ele>
        <time>2024-11-26T07:48:19.875+00:00</time>
      </trkpt>
      <trkpt lat="43.35808" lon="5.29033">
        <ele>21</ele>
        <time>2024-11-26T07:48:22.371+00:00</time>
      </trkpt>
      <trkpt lat="43.35805" lon="5.29022">
        <ele>21</ele>
        <time>2024-11-26T07:48:28.875+00:00</time>
      </trkpt>
      <trkpt lat="43.35805" lon="5.29014">
        <ele>21</ele>
        <time>2024-11-26T07:48:33.670+00:00</time>
      </trkpt>
      <trkpt lat="43.35802" lon="5.29006">
        <ele>24</ele>
        <time>2024-11-26T07:48:37.771+00:00</time>
      </trkpt>
      <trkpt lat="43.35801" lon="5.28998">
        <ele>24</ele>
        <time>2024-11-26T07:48:41.846+00:00</time>
      </trkpt>
      <trkpt lat="43.358" lon="5.28991">
        <ele>24</ele>
        <time>2024-11-26T07:48:45.858+00:00</time>
      </trkpt>
      <trkpt lat="43.35799" lon="5.28983">
        <ele>26</ele>
        <time>2024-11-26T07:48:49.876+00:00</time>
      </trkpt>
      <trkpt lat="43.35797" lon="5.28975">
        <ele>26</ele>
        <time>2024-11-26T07:48:54.876+00:00</time>
      </trkpt>
      <trkpt lat="43.35796" lon="5.28968">
        <ele>26</ele>
        <time>2024-11-26T07:48:59.590+00:00</time>
      </trkpt>
      <trkpt lat="43.35796" lon="5.28959">
        <ele>26</ele>
        <time>2024-11-26T07:49:03.876+00:00</time>
      </trkpt>
      <trkpt lat="43.35797" lon="5.2895">
        <ele>26</ele>
        <time>2024-11-26T07:49:08.627+00:00</time>
      </trkpt>
      <trkpt lat="43.35796" lon="5.28941">
        <ele>26</ele>
        <time>2024-11-26T07:49:12.876+00:00</time>
      </trkpt>
      <trkpt lat="43.35796" lon="5.28932">
        <ele>26</ele>
        <time>2024-11-26T07:49:17.750+00:00</time>
      </trkpt>
      <trkpt lat="43.35796" lon="5.28924">
        <ele>29</ele>
        <time>2024-11-26T07:49:21.989+00:00</time>
      </trkpt>
      <trkpt lat="43.35796" lon="5.28922">
        <ele>29</ele>
        <time>2024-11-26T07:49:23.155+00:00</time>
      </trkpt>
      <trkpt lat="43.35797" lon="5.28908">
        <ele>29</ele>
        <time>2024-11-26T07:49:30.409+00:00</time>
      </trkpt>
      <trkpt lat="43.35798" lon="5.28892">
        <ele>31</ele>
        <time>2024-11-26T07:49:39.351+00:00</time>
      </trkpt>
      <trkpt lat="43.35798" lon="5.28884">
        <ele>31</ele>
        <time>2024-11-26T07:49:43.876+00:00</time>
      </trkpt>
      <trkpt lat="43.35802" lon="5.28877">
        <ele>31</ele>
        <time>2024-11-26T07:49:48.396+00:00</time>
      </trkpt>
      <trkpt lat="43.35804" lon="5.28869">
        <ele>31</ele>
        <time>2024-11-26T07:49:52.733+00:00</time>
      </trkpt>
      <trkpt lat="43.35803" lon="5.28861">
        <ele>31</ele>
        <time>2024-11-26T07:49:57.142+00:00</time>
      </trkpt>
      <trkpt lat="43.35801" lon="5.28853">
        <ele>31</ele>
        <time>2024-11-26T07:50:01.491+00:00</time>
      </trkpt>
      <trkpt lat="43.35798" lon="5.28845">
        <ele>30</ele>
        <time>2024-11-26T07:50:05.647+00:00</time>
      </trkpt>
      <trkpt lat="43.35796" lon="5.28831">
        <ele>30</ele>
        <time>2024-11-26T07:50:18.876+00:00</time>
      </trkpt>
      <trkpt lat="43.35796" lon="5.28831">
        <ele>30</ele>
        <time>2024-11-26T07:50:23.448+00:00</time>
      </trkpt>
      <trkpt lat="43.35787" lon="5.28825">
        <ele>23</ele>
        <time>2024-11-26T07:50:27.768+00:00</time>
      </trkpt>
      <trkpt lat="43.35782" lon="5.28821">
        <ele>23</ele>
        <time>2024-11-26T07:50:31.876+00:00</time>
      </trkpt>
      <trkpt lat="43.35778" lon="5.28817">
        <ele>25</ele>
        <time>2024-11-26T07:50:36.625+00:00</time>
      </trkpt>
      <trkpt lat="43.35769" lon="5.28801">
        <ele>25</ele>
        <time>2024-11-26T07:50:58.066+00:00</time>
      </trkpt>
      <trkpt lat="43.35766" lon="5.28805">
        <ele>25</ele>
        <time>2024-11-26T07:51:01.683+00:00</time>
      </trkpt>
      <trkpt lat="43.35759" lon="5.28804">
        <ele>23</ele>
        <time>2024-11-26T07:51:08.452+00:00</time>
      </trkpt>
      <trkpt lat="43.35754" lon="5.28808">
        <ele>23</ele>
        <time>2024-11-26T07:51:12.806+00:00</time>
      </trkpt>
      <trkpt lat="43.35746" lon="5.28808">
        <ele>23</ele>
        <time>2024-11-26T07:51:16.871+00:00</time>
      </trkpt>
      <trkpt lat="43.35743" lon="5.28814">
        <ele>23</ele>
        <time>2024-11-26T07:51:21.226+00:00</time>
      </trkpt>
      <trkpt lat="43.35738" lon="5.28824">
        <ele>24</ele>
        <time>2024-11-26T07:51:25.552+00:00</time>
      </trkpt>
      <trkpt lat="43.35735" lon="5.2883">
        <ele>18</ele>
        <time>2024-11-26T07:51:29.875+00:00</time>
      </trkpt>
      <trkpt lat="43.35733" lon="5.28837">
        <ele>18</ele>
        <time>2024-11-26T07:51:34.711+00:00</time>
      </trkpt>
      <trkpt lat="43.35732" lon="5.28839">
        <ele>18</ele>
        <time>2024-11-26T07:51:38.875+00:00</time>
      </trkpt>
      <trkpt lat="43.35734" lon="5.28834">
        <ele>18</ele>
        <time>2024-11-26T07:51:42.874+00:00</time>
      </trkpt>
      <trkpt lat="43.35735" lon="5.28824">
        <ele>18</ele>
        <time>2024-11-26T07:51:47.875+00:00</time>
      </trkpt>
      <trkpt lat="43.35731" lon="5.28819">
        <ele>19</ele>
        <time>2024-11-26T07:51:52.127+00:00</time>
      </trkpt>
      <trkpt lat="43.35726" lon="5.28817">
        <ele>19</ele>
        <time>2024-11-26T07:51:56.602+00:00</time>
      </trkpt>
      <trkpt lat="43.35721" lon="5.28817">
        <ele>19</ele>
        <time>2024-11-26T07:52:00.875+00:00</time>
      </trkpt>
      <trkpt lat="43.3572" lon="5.28811">
        <ele>19</ele>
        <time>2024-11-26T07:52:05.806+00:00</time>
      </trkpt>
      <trkpt lat="43.35718" lon="5.28806">
        <ele>19</ele>
        <time>2024-11-26T07:52:09.926+00:00</time>
      </trkpt>
      <trkpt lat="43.35709" lon="5.28799">
        <ele>19</ele>
        <time>2024-11-26T07:52:27.875+00:00</time>
      </trkpt>
      <trkpt lat="43.35706" lon="5.28799">
        <ele>17</ele>
        <time>2024-11-26T07:52:31.988+00:00</time>
      </trkpt>
      <trkpt lat="43.35704" lon="5.28795">
        <ele>17</ele>
        <time>2024-11-26T07:52:36.506+00:00</time>
      </trkpt>
      <trkpt lat="43.35701" lon="5.2879">
        <ele>22</ele>
        <time>2024-11-26T07:52:40.875+00:00</time>
      </trkpt>
      <trkpt lat="43.35703" lon="5.28785">
        <ele>22</ele>
        <time>2024-11-26T07:52:45.875+00:00</time>
      </trkpt>
      <trkpt lat="43.35709" lon="5.28784">
        <ele>23</ele>
        <time>2024-11-26T07:52:59.532+00:00</time>
      </trkpt>
      <trkpt lat="43.35711" lon="5.28777">
        <ele>23</ele>
        <time>2024-11-26T07:53:03.669+00:00</time>
      </trkpt>
      <trkpt lat="43.35713" lon="5.28771">
        <ele>23</ele>
        <time>2024-11-26T07:53:08.228+00:00</time>
      </trkpt>
      <trkpt lat="43.35713" lon="5.28767">
        <ele>23</ele>
        <time>2024-11-26T07:53:12.651+00:00</time>
      </trkpt>
      <trkpt lat="43.35715" lon="5.28761">
        <ele>31</ele>
        <time>2024-11-26T07:53:17.203+00:00</time>
      </trkpt>
      <trkpt lat="43.35712" lon="5.28757">
        <ele>31</ele>
        <time>2024-11-26T07:53:21.406+00:00</time>
      </trkpt>
      <trkpt lat="43.35708" lon="5.28758">
        <ele>29</ele>
        <time>2024-11-26T07:53:25.519+00:00</time>
      </trkpt>
      <trkpt lat="43.35703" lon="5.28759">
        <ele>29</ele>
        <time>2024-11-26T07:53:29.875+00:00</time>
      </trkpt>
      <trkpt lat="43.35698" lon="5.28762">
        <ele>29</ele>
        <time>2024-11-26T07:53:34.875+00:00</time>
      </trkpt>
      <trkpt lat="43.35698" lon="5.28762">
        <ele>29</ele>
        <time>2024-11-26T07:53:39.071+00:00</time>
      </trkpt>
      <trkpt lat="43.357" lon="5.28758">
        <ele>29</ele>
        <time>2024-11-26T07:53:43.141+00:00</time>
      </trkpt>
      <trkpt lat="43.35702" lon="5.28753">
        <ele>29</ele>
        <time>2024-11-26T07:53:47.875+00:00</time>
      </trkpt>
      <trkpt lat="43.357" lon="5.28749">
        <ele>29</ele>
        <time>2024-11-26T07:53:52.545+00:00</time>
      </trkpt>
      <trkpt lat="43.35701" lon="5.28744">
        <ele>29</ele>
        <time>2024-11-26T07:53:56.875+00:00</time>
      </trkpt>
      <trkpt lat="43.35703" lon="5.28737">
        <ele>29</ele>
        <time>2024-11-26T07:54:01.085+00:00</time>
      </trkpt>
      <trkpt lat="43.35708" lon="5.28733">
        <ele>36</ele>
        <time>2024-11-26T07:54:05.668+00:00</time>
      </trkpt>
      <trkpt lat="43.35712" lon="5.2873">
        <ele>39</ele>
        <time>2024-11-26T07:54:10.207+00:00</time>
      </trkpt>
      <trkpt lat="43.35719" lon="5.28713">
        <ele>39</ele>
        <time>2024-11-26T07:54:28.363+00:00</time>
      </trkpt>
      <trkpt lat="43.35711" lon="5.28712">
        <ele>39</ele>
        <time>2024-11-26T07:54:32.884+00:00</time>
      </trkpt>
      <trkpt lat="43.35705" lon="5.28709">
        <ele>36</ele>
        <time>2024-11-26T07:54:37.875+00:00</time>
      </trkpt>
      <trkpt lat="43.35699" lon="5.28706">
        <ele>41</ele>
        <time>2024-11-26T07:54:42.107+00:00</time>
      </trkpt>
      <trkpt lat="43.35693" lon="5.28703">
        <ele>41</ele>
        <time>2024-11-26T07:54:46.265+00:00</time>
      </trkpt>
      <trkpt lat="43.35689" lon="5.28698">
        <ele>41</ele>
        <time>2024-11-26T07:54:50.588+00:00</time>
      </trkpt>
      <trkpt lat="43.35685" lon="5.28693">
        <ele>41</ele>
        <time>2024-11-26T07:54:54.875+00:00</time>
      </trkpt>
      <trkpt lat="43.35682" lon="5.28687">
        <ele>41</ele>
        <time>2024-11-26T07:54:59.402+00:00</time>
      </trkpt>
      <trkpt lat="43.35678" lon="5.28682">
        <ele>40</ele>
        <time>2024-11-26T07:55:03.582+00:00</time>
      </trkpt>
      <trkpt lat="43.35673" lon="5.28678">
        <ele>42</ele>
        <time>2024-11-26T07:55:07.875+00:00</time>
      </trkpt>
      <trkpt lat="43.35669" lon="5.28673">
        <ele>42</ele>
        <time>2024-11-26T07:55:12.446+00:00</time>
      </trkpt>
      <trkpt lat="43.35664" lon="5.28667">
        <ele>42</ele>
        <time>2024-11-26T07:55:16.790+00:00</time>
      </trkpt>
      <trkpt lat="43.35661" lon="5.28662">
        <ele>42</ele>
        <time>2024-11-26T07:55:20.875+00:00</time>
      </trkpt>
      <trkpt lat="43.35656" lon="5.28656">
        <ele>42</ele>
        <time>2024-11-26T07:55:25.184+00:00</time>
      </trkpt>
      <trkpt lat="43.35652" lon="5.28651">
        <ele>42</ele>
        <time>2024-11-26T07:55:29.469+00:00</time>
      </trkpt>
      <trkpt lat="43.35648" lon="5.28645">
        <ele>42</ele>
        <time>2024-11-26T07:55:33.766+00:00</time>
      </trkpt>
      <trkpt lat="43.35644" lon="5.28639">
        <ele>42</ele>
        <time>2024-11-26T07:55:37.875+00:00</time>
      </trkpt>
      <trkpt lat="43.35639" lon="5.28634">
        <ele>42</ele>
        <time>2024-11-26T07:55:42.247+00:00</time>
      </trkpt>
      <trkpt lat="43.35636" lon="5.28628">
        <ele>42</ele>
        <time>2024-11-26T07:55:46.828+00:00</time>
      </trkpt>
      <trkpt lat="43.35633" lon="5.28621">
        <ele>42</ele>
        <time>2024-11-26T07:55:50.875+00:00</time>
      </trkpt>
      <trkpt lat="43.35629" lon="5.28617">
        <ele>42</ele>
        <time>2024-11-26T07:55:54.875+00:00</time>
      </trkpt>
      <trkpt lat="43.35625" lon="5.28611">
        <ele>42</ele>
        <time>2024-11-26T07:55:59.804+00:00</time>
      </trkpt>
      <trkpt lat="43.35621" lon="5.28607">
        <ele>42</ele>
        <time>2024-11-26T07:56:03.887+00:00</time>
      </trkpt>
      <trkpt lat="43.35616" lon="5.28601">
        <ele>42</ele>
        <time>2024-11-26T07:56:08.583+00:00</time>
      </trkpt>
      <trkpt lat="43.35612" lon="5.28595">
        <ele>41</ele>
        <time>2024-11-26T07:56:12.875+00:00</time>
      </trkpt>
      <trkpt lat="43.35608" lon="5.28589">
        <ele>41</ele>
        <time>2024-11-26T07:56:17.524+00:00</time>
      </trkpt>
      <trkpt lat="43.35604" lon="5.28584">
        <ele>41</ele>
        <time>2024-11-26T07:56:21.867+00:00</time>
      </trkpt>
      <trkpt lat="43.35598" lon="5.28579">
        <ele>41</ele>
        <time>2024-11-26T07:56:26.781+00:00</time>
      </trkpt>
      <trkpt lat="43.35594" lon="5.28573">
        <ele>37</ele>
        <time>2024-11-26T07:56:30.875+00:00</time>
      </trkpt>
      <trkpt lat="43.35589" lon="5.28566">
        <ele>39</ele>
        <time>2024-11-26T07:56:35.287+00:00</time>
      </trkpt>
      <trkpt lat="43.35586" lon="5.28559">
        <ele>39</ele>
        <time>2024-11-26T07:56:39.544+00:00</time>
      </trkpt>
      <trkpt lat="43.35581" lon="5.28554">
        <ele>39</ele>
        <time>2024-11-26T07:56:43.725+00:00</time>
      </trkpt>
      <trkpt lat="43.35577" lon="5.28548">
        <ele>39</ele>
        <time>2024-11-26T07:56:47.899+00:00</time>
      </trkpt>
      <trkpt lat="43.35573" lon="5.28542">
        <ele>39</ele>
        <time>2024-11-26T07:56:52.222+00:00</time>
      </trkpt>
      <trkpt lat="43.35569" lon="5.28536">
        <ele>34</ele>
        <time>2024-11-26T07:56:56.444+00:00</time>
      </trkpt>
      <trkpt lat="43.35565" lon="5.2853">
        <ele>34</ele>
        <time>2024-11-26T07:57:00.789+00:00</time>
      </trkpt>
      <trkpt lat="43.35561" lon="5.28524">
        <ele>34</ele>
        <time>2024-11-26T07:57:05.223+00:00</time>
      </trkpt>
      <trkpt lat="43.35556" lon="5.2852">
        <ele>34</ele>
        <time>2024-11-26T07:57:09.609+00:00</time>
      </trkpt>
      <trkpt lat="43.35553" lon="5.28514">
        <ele>34</ele>
        <time>2024-11-26T07:57:13.875+00:00</time>
      </trkpt>
      <trkpt lat="43.35548" lon="5.28507">
        <ele>37</ele>
        <time>2024-11-26T07:57:18.233+00:00</time>
      </trkpt>
      <trkpt lat="43.35545" lon="5.28501">
        <ele>37</ele>
        <time>2024-11-26T07:57:22.557+00:00</time>
      </trkpt>
      <trkpt lat="43.35541" lon="5.28495">
        <ele>35</ele>
        <time>2024-11-26T07:57:26.875+00:00</time>
      </trkpt>
      <trkpt lat="43.35538" lon="5.28488">
        <ele>35</ele>
        <time>2024-11-26T07:57:31.174+00:00</time>
      </trkpt>
      <trkpt lat="43.35534" lon="5.28482">
        <ele>38</ele>
        <time>2024-11-26T07:57:35.398+00:00</time>
      </trkpt>
      <trkpt lat="43.35531" lon="5.28476">
        <ele>38</ele>
        <time>2024-11-26T07:57:39.798+00:00</time>
      </trkpt>
      <trkpt lat="43.35527" lon="5.28469">
        <ele>38</ele>
        <time>2024-11-26T07:57:44.133+00:00</time>
      </trkpt>
      <trkpt lat="43.35524" lon="5.28464">
        <ele>38</ele>
        <time>2024-11-26T07:57:48.535+00:00</time>
      </trkpt>
      <trkpt lat="43.3552" lon="5.28456">
        <ele>38</ele>
        <time>2024-11-26T07:57:53.101+00:00</time>
      </trkpt>
      <trkpt lat="43.35517" lon="5.2845">
        <ele>38</ele>
        <time>2024-11-26T07:57:57.518+00:00</time>
      </trkpt>
      <trkpt lat="43.35513" lon="5.28444">
        <ele>34</ele>
        <time>2024-11-26T07:58:01.896+00:00</time>
      </trkpt>
      <trkpt lat="43.35509" lon="5.28438">
        <ele>34</ele>
        <time>2024-11-26T07:58:06.357+00:00</time>
      </trkpt>
      <trkpt lat="43.35505" lon="5.28432">
        <ele>34</ele>
        <time>2024-11-26T07:58:10.673+00:00</time>
      </trkpt>
      <trkpt lat="43.35502" lon="5.28426">
        <ele>37</ele>
        <time>2024-11-26T07:58:14.875+00:00</time>
      </trkpt>
      <trkpt lat="43.35499" lon="5.2842">
        <ele>37</ele>
        <time>2024-11-26T07:58:19.017+00:00</time>
      </trkpt>
      <trkpt lat="43.35495" lon="5.28413">
        <ele>37</ele>
        <time>2024-11-26T07:58:23.478+00:00</time>
      </trkpt>
      <trkpt lat="43.35492" lon="5.28407">
        <ele>37</ele>
        <time>2024-11-26T07:58:27.878+00:00</time>
      </trkpt>
      <trkpt lat="43.35489" lon="5.28401">
        <ele>40</ele>
        <time>2024-11-26T07:58:32.239+00:00</time>
      </trkpt>
      <trkpt lat="43.35486" lon="5.28396">
        <ele>34</ele>
        <time>2024-11-26T07:58:36.317+00:00</time>
      </trkpt>
      <trkpt lat="43.35482" lon="5.28391">
        <ele>34</ele>
        <time>2024-11-26T07:58:40.453+00:00</time>
      </trkpt>
      <trkpt lat="43.3548" lon="5.28385">
        <ele>34</ele>
        <time>2024-11-26T07:58:44.599+00:00</time>
      </trkpt>
      <trkpt lat="43.35476" lon="5.28379">
        <ele>34</ele>
        <time>2024-11-26T07:58:48.874+00:00</time>
      </trkpt>
      <trkpt lat="43.35473" lon="5.28372">
        <ele>36</ele>
        <time>2024-11-26T07:58:53.258+00:00</time>
      </trkpt>
      <trkpt lat="43.3547" lon="5.28365">
        <ele>36</ele>
        <time>2024-11-26T07:58:57.455+00:00</time>
      </trkpt>
      <trkpt lat="43.35466" lon="5.28359">
        <ele>36</ele>
        <time>2024-11-26T07:59:01.739+00:00</time>
      </trkpt>
      <trkpt lat="43.35465" lon="5.28348">
        <ele>36</ele>
        <time>2024-11-26T07:59:06.754+00:00</time>
      </trkpt>
      <trkpt lat="43.35462" lon="5.28339">
        <ele>38</ele>
        <time>2024-11-26T07:59:11.795+00:00</time>
      </trkpt>
      <trkpt lat="43.35459" lon="5.28333">
        <ele>38</ele>
        <time>2024-11-26T07:59:16.035+00:00</time>
      </trkpt>
      <trkpt lat="43.35455" lon="5.28325">
        <ele>31</ele>
        <time>2024-11-26T07:59:20.752+00:00</time>
      </trkpt>
      <trkpt lat="43.35452" lon="5.28319">
        <ele>33</ele>
        <time>2024-11-26T07:59:25.095+00:00</time>
      </trkpt>
      <trkpt lat="43.35448" lon="5.28311">
        <ele>33</ele>
        <time>2024-11-26T07:59:29.718+00:00</time>
      </trkpt>
      <trkpt lat="43.35445" lon="5.28303">
        <ele>33</ele>
        <time>2024-11-26T07:59:34.538+00:00</time>
      </trkpt>
      <trkpt lat="43.35441" lon="5.28296">
        <ele>33</ele>
        <time>2024-11-26T07:59:38.875+00:00</time>
      </trkpt>
      <trkpt lat="43.35439" lon="5.28289">
        <ele>34</ele>
        <time>2024-11-26T07:59:43.358+00:00</time>
      </trkpt>
      <trkpt lat="43.35435" lon="5.28283">
        <ele>34</ele>
        <time>2024-11-26T07:59:47.857+00:00</time>
      </trkpt>
      <trkpt lat="43.35433" lon="5.28275">
        <ele>34</ele>
        <time>2024-11-26T07:59:52.179+00:00</time>
      </trkpt>
      <trkpt lat="43.3543" lon="5.28268">
        <ele>21</ele>
        <time>2024-11-26T07:59:56.598+00:00</time>
      </trkpt>
      <trkpt lat="43.35428" lon="5.28261">
        <ele>24</ele>
        <time>2024-11-26T08:00:00.758+00:00</time>
      </trkpt>
      <trkpt lat="43.35427" lon="5.28255">
        <ele>24</ele>
        <time>2024-11-26T08:00:04.901+00:00</time>
      </trkpt>
      <trkpt lat="43.35426" lon="5.28249">
        <ele>24</ele>
        <time>2024-11-26T08:00:09.159+00:00</time>
      </trkpt>
      <trkpt lat="43.35425" lon="5.28242">
        <ele>24</ele>
        <time>2024-11-26T08:00:13.362+00:00</time>
      </trkpt>
      <trkpt lat="43.35423" lon="5.28234">
        <ele>28</ele>
        <time>2024-11-26T08:00:17.780+00:00</time>
      </trkpt>
      <trkpt lat="43.35422" lon="5.28227">
        <ele>28</ele>
        <time>2024-11-26T08:00:22.327+00:00</time>
      </trkpt>
      <trkpt lat="43.35421" lon="5.28219">
        <ele>28</ele>
        <time>2024-11-26T08:00:26.455+00:00</time>
      </trkpt>
      <trkpt lat="43.3542" lon="5.28212">
        <ele>28</ele>
        <time>2024-11-26T08:00:30.815+00:00</time>
      </trkpt>
      <trkpt lat="43.35421" lon="5.28204">
        <ele>35</ele>
        <time>2024-11-26T08:00:35.258+00:00</time>
      </trkpt>
      <trkpt lat="43.35422" lon="5.28196">
        <ele>35</ele>
        <time>2024-11-26T08:00:39.659+00:00</time>
      </trkpt>
      <trkpt lat="43.35424" lon="5.28188">
        <ele>35</ele>
        <time>2024-11-26T08:00:44.054+00:00</time>
      </trkpt>
      <trkpt lat="43.35425" lon="5.2818">
        <ele>36</ele>
        <time>2024-11-26T08:00:48.482+00:00</time>
      </trkpt>
      <trkpt lat="43.35426" lon="5.28173">
        <ele>36</ele>
        <time>2024-11-26T08:00:52.814+00:00</time>
      </trkpt>
      <trkpt lat="43.35427" lon="5.28166">
        <ele>36</ele>
        <time>2024-11-26T08:00:57.379+00:00</time>
      </trkpt>
      <trkpt lat="43.35427" lon="5.28159">
        <ele>36</ele>
        <time>2024-11-26T08:01:01.875+00:00</time>
      </trkpt>
      <trkpt lat="43.35423" lon="5.28154">
        <ele>36</ele>
        <time>2024-11-26T08:01:06.292+00:00</time>
      </trkpt>
      <trkpt lat="43.35418" lon="5.2815">
        <ele>37</ele>
        <time>2024-11-26T08:01:10.498+00:00</time>
      </trkpt>
      <trkpt lat="43.35413" lon="5.28148">
        <ele>37</ele>
        <time>2024-11-26T08:01:14.738+00:00</time>
      </trkpt>
      <trkpt lat="43.35408" lon="5.28145">
        <ele>37</ele>
        <time>2024-11-26T08:01:18.874+00:00</time>
      </trkpt>
      <trkpt lat="43.35402" lon="5.2814">
        <ele>28</ele>
        <time>2024-11-26T08:01:23.739+00:00</time>
      </trkpt>
      <trkpt lat="43.35398" lon="5.28136">
        <ele>28</ele>
        <time>2024-11-26T08:01:28.054+00:00</time>
      </trkpt>
      <trkpt lat="43.35392" lon="5.28132">
        <ele>28</ele>
        <time>2024-11-26T08:01:32.498+00:00</time>
      </trkpt>
      <trkpt lat="43.35388" lon="5.28127">
        <ele>28</ele>
        <time>2024-11-26T08:01:36.875+00:00</time>
      </trkpt>
      <trkpt lat="43.35383" lon="5.28123">
        <ele>33</ele>
        <time>2024-11-26T08:01:41.258+00:00</time>
      </trkpt>
      <trkpt lat="43.35379" lon="5.28118">
        <ele>33</ele>
        <time>2024-11-26T08:01:45.661+00:00</time>
      </trkpt>
      <trkpt lat="43.35374" lon="5.28112">
        <ele>24</ele>
        <time>2024-11-26T08:01:49.875+00:00</time>
      </trkpt>
      <trkpt lat="43.3537" lon="5.28106">
        <ele>24</ele>
        <time>2024-11-26T08:01:54.378+00:00</time>
      </trkpt>
      <trkpt lat="43.35367" lon="5.281">
        <ele>24</ele>
        <time>2024-11-26T08:01:58.720+00:00</time>
      </trkpt>
      <trkpt lat="43.35364" lon="5.28094">
        <ele>32</ele>
        <time>2024-11-26T08:02:03.169+00:00</time>
      </trkpt>
      <trkpt lat="43.35362" lon="5.28086">
        <ele>32</ele>
        <time>2024-11-26T08:02:07.473+00:00</time>
      </trkpt>
      <trkpt lat="43.3536" lon="5.2808">
        <ele>32</ele>
        <time>2024-11-26T08:02:11.816+00:00</time>
      </trkpt>
      <trkpt lat="43.35358" lon="5.28073">
        <ele>32</ele>
        <time>2024-11-26T08:02:16.199+00:00</time>
      </trkpt>
      <trkpt lat="43.35355" lon="5.28065">
        <ele>44</ele>
        <time>2024-11-26T08:02:20.618+00:00</time>
      </trkpt>
      <trkpt lat="43.35353" lon="5.28058">
        <ele>44</ele>
        <time>2024-11-26T08:02:24.960+00:00</time>
      </trkpt>
      <trkpt lat="43.35348" lon="5.28053">
        <ele>44</ele>
        <time>2024-11-26T08:02:29.499+00:00</time>
      </trkpt>
      <trkpt lat="43.35345" lon="5.28046">
        <ele>35</ele>
        <time>2024-11-26T08:02:33.559+00:00</time>
      </trkpt>
      <trkpt lat="43.35342" lon="5.28039">
        <ele>42</ele>
        <time>2024-11-26T08:02:37.893+00:00</time>
      </trkpt>
      <trkpt lat="43.3534" lon="5.28031">
        <ele>42</ele>
        <time>2024-11-26T08:02:42.698+00:00</time>
      </trkpt>
      <trkpt lat="43.35336" lon="5.28025">
        <ele>42</ele>
        <time>2024-11-26T08:02:46.875+00:00</time>
      </trkpt>
      <trkpt lat="43.35332" lon="5.2802">
        <ele>42</ele>
        <time>2024-11-26T08:02:51.414+00:00</time>
      </trkpt>
      <trkpt lat="43.35327" lon="5.28013">
        <ele>50</ele>
        <time>2024-11-26T08:02:55.678+00:00</time>
      </trkpt>
      <trkpt lat="43.35322" lon="5.28008">
        <ele>50</ele>
        <time>2024-11-26T08:03:00.080+00:00</time>
      </trkpt>
      <trkpt lat="43.35318" lon="5.28004">
        <ele>39</ele>
        <time>2024-11-26T08:03:04.098+00:00</time>
      </trkpt>
      <trkpt lat="43.35313" lon="5.27999">
        <ele>39</ele>
        <time>2024-11-26T08:03:08.320+00:00</time>
      </trkpt>
      <trkpt lat="43.35309" lon="5.27994">
        <ele>39</ele>
        <time>2024-11-26T08:03:12.679+00:00</time>
      </trkpt>
      <trkpt lat="43.35304" lon="5.27987">
        <ele>39</ele>
        <time>2024-11-26T08:03:17.593+00:00</time>
      </trkpt>
      <trkpt lat="43.35299" lon="5.27982">
        <ele>46</ele>
        <time>2024-11-26T08:03:21.875+00:00</time>
      </trkpt>
      <trkpt lat="43.35295" lon="5.27977">
        <ele>46</ele>
        <time>2024-11-26T08:03:26.202+00:00</time>
      </trkpt>
      <trkpt lat="43.3529" lon="5.27972">
        <ele>36</ele>
        <time>2024-11-26T08:03:30.594+00:00</time>
      </trkpt>
      <trkpt lat="43.35286" lon="5.27966">
        <ele>36</ele>
        <time>2024-11-26T08:03:34.877+00:00</time>
      </trkpt>
      <trkpt lat="43.35282" lon="5.27961">
        <ele>36</ele>
        <time>2024-11-26T08:03:39.115+00:00</time>
      </trkpt>
      <trkpt lat="43.35278" lon="5.27955">
        <ele>43</ele>
        <time>2024-11-26T08:03:43.440+00:00</time>
      </trkpt>
      <trkpt lat="43.35274" lon="5.27949">
        <ele>43</ele>
        <time>2024-11-26T08:03:47.699+00:00</time>
      </trkpt>
      <trkpt lat="43.3527" lon="5.27943">
        <ele>43</ele>
        <time>2024-11-26T08:03:51.938+00:00</time>
      </trkpt>
      <trkpt lat="43.35268" lon="5.27935">
        <ele>43</ele>
        <time>2024-11-26T08:03:56.655+00:00</time>
      </trkpt>
      <trkpt lat="43.35266" lon="5.27929">
        <ele>47</ele>
        <time>2024-11-26T08:04:00.874+00:00</time>
      </trkpt>
      <trkpt lat="43.35265" lon="5.27923">
        <ele>47</ele>
        <time>2024-11-26T08:04:05.058+00:00</time>
      </trkpt>
      <trkpt lat="43.35264" lon="5.27915">
        <ele>41</ele>
        <time>2024-11-26T08:04:09.164+00:00</time>
      </trkpt>
      <trkpt lat="43.35262" lon="5.27907">
        <ele>41</ele>
        <time>2024-11-26T08:04:13.418+00:00</time>
      </trkpt>
      <trkpt lat="43.35262" lon="5.27899">
        <ele>43</ele>
        <time>2024-11-26T08:04:17.799+00:00</time>
      </trkpt>
      <trkpt lat="43.35264" lon="5.27891">
        <ele>45</ele>
        <time>2024-11-26T08:04:22.058+00:00</time>
      </trkpt>
      <trkpt lat="43.35267" lon="5.27884">
        <ele>45</ele>
        <time>2024-11-26T08:04:26.417+00:00</time>
      </trkpt>
      <trkpt lat="43.3527" lon="5.27878">
        <ele>45</ele>
        <time>2024-11-26T08:04:30.874+00:00</time>
      </trkpt>
      <trkpt lat="43.35272" lon="5.27871">
        <ele>43</ele>
        <time>2024-11-26T08:04:35.536+00:00</time>
      </trkpt>
      <trkpt lat="43.35275" lon="5.27865">
        <ele>43</ele>
        <time>2024-11-26T08:04:39.874+00:00</time>
      </trkpt>
      <trkpt lat="43.35278" lon="5.27858">
        <ele>43</ele>
        <time>2024-11-26T08:04:44.058+00:00</time>
      </trkpt>
      <trkpt lat="43.3528" lon="5.27852">
        <ele>43</ele>
        <time>2024-11-26T08:04:48.493+00:00</time>
      </trkpt>
      <trkpt lat="43.35285" lon="5.27847">
        <ele>43</ele>
        <time>2024-11-26T08:04:52.656+00:00</time>
      </trkpt>
      <trkpt lat="43.35289" lon="5.27843">
        <ele>40</ele>
        <time>2024-11-26T08:04:56.875+00:00</time>
      </trkpt>
      <trkpt lat="43.35293" lon="5.27838">
        <ele>44</ele>
        <time>2024-11-26T08:05:01.118+00:00</time>
      </trkpt>
      <trkpt lat="43.35299" lon="5.27835">
        <ele>44</ele>
        <time>2024-11-26T08:05:05.399+00:00</time>
      </trkpt>
      <trkpt lat="43.35304" lon="5.27832">
        <ele>44</ele>
        <time>2024-11-26T08:05:09.614+00:00</time>
      </trkpt>
      <trkpt lat="43.35309" lon="5.27828">
        <ele>44</ele>
        <time>2024-11-26T08:05:13.875+00:00</time>
      </trkpt>
      <trkpt lat="43.35314" lon="5.27824">
        <ele>44</ele>
        <time>2024-11-26T08:05:18.314+00:00</time>
      </trkpt>
      <trkpt lat="43.35319" lon="5.27821">
        <ele>44</ele>
        <time>2024-11-26T08:05:22.769+00:00</time>
      </trkpt>
      <trkpt lat="43.35325" lon="5.27818">
        <ele>42</ele>
        <time>2024-11-26T08:05:27.221+00:00</time>
      </trkpt>
      <trkpt lat="43.3533" lon="5.27817">
        <ele>42</ele>
        <time>2024-11-26T08:05:31.666+00:00</time>
      </trkpt>
      <trkpt lat="43.35335" lon="5.27815">
        <ele>42</ele>
        <time>2024-11-26T08:05:36.170+00:00</time>
      </trkpt>
      <trkpt lat="43.35341" lon="5.27812">
        <ele>42</ele>
        <time>2024-11-26T08:05:40.529+00:00</time>
      </trkpt>
      <trkpt lat="43.35346" lon="5.27808">
        <ele>42</ele>
        <time>2024-11-26T08:05:44.854+00:00</time>
      </trkpt>
      <trkpt lat="43.35351" lon="5.27804">
        <ele>40</ele>
        <time>2024-11-26T08:05:49.034+00:00</time>
      </trkpt>
      <trkpt lat="43.35356" lon="5.27799">
        <ele>40</ele>
        <time>2024-11-26T08:05:53.436+00:00</time>
      </trkpt>
      <trkpt lat="43.3536" lon="5.27794">
        <ele>40</ele>
        <time>2024-11-26T08:05:57.650+00:00</time>
      </trkpt>
      <trkpt lat="43.35365" lon="5.27789">
        <ele>39</ele>
        <time>2024-11-26T08:06:02.009+00:00</time>
      </trkpt>
      <trkpt lat="43.3537" lon="5.27786">
        <ele>39</ele>
        <time>2024-11-26T08:06:06.351+00:00</time>
      </trkpt>
      <trkpt lat="43.35375" lon="5.27781">
        <ele>39</ele>
        <time>2024-11-26T08:06:10.636+00:00</time>
      </trkpt>
      <trkpt lat="43.3538" lon="5.27779">
        <ele>39</ele>
        <time>2024-11-26T08:06:14.875+00:00</time>
      </trkpt>
      <trkpt lat="43.35386" lon="5.27776">
        <ele>39</ele>
        <time>2024-11-26T08:06:19.172+00:00</time>
      </trkpt>
      <trkpt lat="43.3539" lon="5.27772">
        <ele>39</ele>
        <time>2024-11-26T08:06:23.455+00:00</time>
      </trkpt>
      <trkpt lat="43.35395" lon="5.27771">
        <ele>39</ele>
        <time>2024-11-26T08:06:27.875+00:00</time>
      </trkpt>
      <trkpt lat="43.35395" lon="5.2776">
        <ele>40</ele>
        <time>2024-11-26T08:06:32.336+00:00</time>
      </trkpt>
      <trkpt lat="43.3539" lon="5.27754">
        <ele>40</ele>
        <time>2024-11-26T08:06:36.875+00:00</time>
      </trkpt>
      <trkpt lat="43.35388" lon="5.27751">
        <ele>40</ele>
        <time>2024-11-26T08:06:41.874+00:00</time>
      </trkpt>
      <trkpt lat="43.35386" lon="5.27751">
        <ele>40</ele>
        <time>2024-11-26T08:06:50.874+00:00</time>
      </trkpt>
      <trkpt lat="43.35386" lon="5.27748">
        <ele>40</ele>
        <time>2024-11-26T08:06:54.874+00:00</time>
      </trkpt>
      <trkpt lat="43.35387" lon="5.27746">
        <ele>40</ele>
        <time>2024-11-26T08:07:00.037+00:00</time>
      </trkpt>
      <trkpt lat="43.35383" lon="5.27744">
        <ele>40</ele>
        <time>2024-11-26T08:07:04.874+00:00</time>
      </trkpt>
      <trkpt lat="43.3538" lon="5.2774">
        <ele>40</ele>
        <time>2024-11-26T08:07:09.874+00:00</time>
      </trkpt>
      <trkpt lat="43.35375" lon="5.2774">
        <ele>40</ele>
        <time>2024-11-26T08:07:14.874+00:00</time>
      </trkpt>
      <trkpt lat="43.3537" lon="5.27737">
        <ele>43</ele>
        <time>2024-11-26T08:07:19.873+00:00</time>
      </trkpt>
      <trkpt lat="43.35367" lon="5.27733">
        <ele>51</ele>
        <time>2024-11-26T08:07:24.323+00:00</time>
      </trkpt>
      <trkpt lat="43.35363" lon="5.27731">
        <ele>51</ele>
        <time>2024-11-26T08:07:28.779+00:00</time>
      </trkpt>
      <trkpt lat="43.3536" lon="5.27725">
        <ele>51</ele>
        <time>2024-11-26T08:12:09.874+00:00</time>
      </trkpt>
      <trkpt lat="43.3536" lon="5.27725">
        <ele>51</ele>
        <time>2024-11-26T08:12:17.873+00:00</time>
      </trkpt>
      <trkpt lat="43.35358" lon="5.27723">
        <ele>51</ele>
        <time>2024-11-26T08:12:22.874+00:00</time>
      </trkpt>
      <trkpt lat="43.35355" lon="5.2772">
        <ele>51</ele>
        <time>2024-11-26T08:12:26.874+00:00</time>
      </trkpt>
      <trkpt lat="43.35353" lon="5.27716">
        <ele>51</ele>
        <time>2024-11-26T08:12:31.413+00:00</time>
      </trkpt>
      <trkpt lat="43.35347" lon="5.27713">
        <ele>49</ele>
        <time>2024-11-26T08:12:35.578+00:00</time>
      </trkpt>
      <trkpt lat="43.35344" lon="5.27711">
        <ele>49</ele>
        <time>2024-11-26T08:12:39.604+00:00</time>
      </trkpt>
      <trkpt lat="43.35339" lon="5.27705">
        <ele>61</ele>
        <time>2024-11-26T08:12:44.417+00:00</time>
      </trkpt>
      <trkpt lat="43.35337" lon="5.27702">
        <ele>61</ele>
        <time>2024-11-26T08:12:48.494+00:00</time>
      </trkpt>
      <trkpt lat="43.35334" lon="5.27699">
        <ele>61</ele>
        <time>2024-11-26T08:12:52.650+00:00</time>
      </trkpt>
      <trkpt lat="43.3533" lon="5.27695">
        <ele>61</ele>
        <time>2024-11-26T08:12:56.874+00:00</time>
      </trkpt>
      <trkpt lat="43.35327" lon="5.2769">
        <ele>61</ele>
        <time>2024-11-26T08:13:01.711+00:00</time>
      </trkpt>
      <trkpt lat="43.35324" lon="5.27687">
        <ele>61</ele>
        <time>2024-11-26T08:13:05.755+00:00</time>
      </trkpt>
      <trkpt lat="43.35323" lon="5.27685">
        <ele>61</ele>
        <time>2024-11-26T08:13:09.705+00:00</time>
      </trkpt>
      <trkpt lat="43.35321" lon="5.2768">
        <ele>72</ele>
        <time>2024-11-26T08:13:13.874+00:00</time>
      </trkpt>
      <trkpt lat="43.35318" lon="5.27677">
        <ele>66</ele>
        <time>2024-11-26T08:13:18.732+00:00</time>
      </trkpt>
      <trkpt lat="43.35314" lon="5.27675">
        <ele>66</ele>
        <time>2024-11-26T08:13:23.492+00:00</time>
      </trkpt>
      <trkpt lat="43.35311" lon="5.27674">
        <ele>66</ele>
        <time>2024-11-26T08:13:27.874+00:00</time>
      </trkpt>
      <trkpt lat="43.35308" lon="5.27677">
        <ele>66</ele>
        <time>2024-11-26T08:13:32.874+00:00</time>
      </trkpt>
      <trkpt lat="43.35304" lon="5.27681">
        <ele>58</ele>
        <time>2024-11-26T08:13:37.441+00:00</time>
      </trkpt>
      <trkpt lat="43.35301" lon="5.2768">
        <ele>66</ele>
        <time>2024-11-26T08:13:41.579+00:00</time>
      </trkpt>
      <trkpt lat="43.35298" lon="5.27682">
        <ele>58</ele>
        <time>2024-11-26T08:13:45.874+00:00</time>
      </trkpt>
      <trkpt lat="43.35296" lon="5.27686">
        <ele>58</ele>
        <time>2024-11-26T08:13:50.564+00:00</time>
      </trkpt>
      <trkpt lat="43.35294" lon="5.27691">
        <ele>58</ele>
        <time>2024-11-26T08:13:54.958+00:00</time>
      </trkpt>
      <trkpt lat="43.35292" lon="5.27695">
        <ele>58</ele>
        <time>2024-11-26T08:13:59.615+00:00</time>
      </trkpt>
      <trkpt lat="43.35288" lon="5.27697">
        <ele>62</ele>
        <time>2024-11-26T08:14:04.239+00:00</time>
      </trkpt>
      <trkpt lat="43.35285" lon="5.27693">
        <ele>62</ele>
        <time>2024-11-26T08:14:08.718+00:00</time>
      </trkpt>
      <trkpt lat="43.35282" lon="5.2769">
        <ele>62</ele>
        <time>2024-11-26T08:14:12.873+00:00</time>
      </trkpt>
      <trkpt lat="43.35278" lon="5.27689">
        <ele>62</ele>
        <time>2024-11-26T08:14:17.874+00:00</time>
      </trkpt>
      <trkpt lat="43.35268" lon="5.2769">
        <ele>62</ele>
        <time>2024-11-26T08:14:58.378+00:00</time>
      </trkpt>
      <trkpt lat="43.35266" lon="5.27686">
        <ele>62</ele>
        <time>2024-11-26T08:15:02.886+00:00</time>
      </trkpt>
      <trkpt lat="43.35263" lon="5.27685">
        <ele>75</ele>
        <time>2024-11-26T08:15:06.874+00:00</time>
      </trkpt>
      <trkpt lat="43.35261" lon="5.27686">
        <ele>75</ele>
        <time>2024-11-26T08:15:11.381+00:00</time>
      </trkpt>
      <trkpt lat="43.35258" lon="5.27685">
        <ele>75</ele>
        <time>2024-11-26T08:15:15.874+00:00</time>
      </trkpt>
      <trkpt lat="43.35256" lon="5.27685">
        <ele>75</ele>
        <time>2024-11-26T08:15:19.874+00:00</time>
      </trkpt>
      <trkpt lat="43.35253" lon="5.27687">
        <ele>75</ele>
        <time>2024-11-26T08:15:24.874+00:00</time>
      </trkpt>
      <trkpt lat="43.3525" lon="5.27688">
        <ele>75</ele>
        <time>2024-11-26T08:15:29.861+00:00</time>
      </trkpt>
      <trkpt lat="43.35247" lon="5.27689">
        <ele>75</ele>
        <time>2024-11-26T08:15:34.408+00:00</time>
      </trkpt>
      <trkpt lat="43.35243" lon="5.27689">
        <ele>75</ele>
        <time>2024-11-26T08:15:38.874+00:00</time>
      </trkpt>
      <trkpt lat="43.3524" lon="5.2769">
        <ele>75</ele>
        <time>2024-11-26T08:15:43.201+00:00</time>
      </trkpt>
      <trkpt lat="43.35239" lon="5.27691">
        <ele>75</ele>
        <time>2024-11-26T08:15:47.874+00:00</time>
      </trkpt>
      <trkpt lat="43.35237" lon="5.27692">
        <ele>75</ele>
        <time>2024-11-26T08:15:52.482+00:00</time>
      </trkpt>
      <trkpt lat="43.35234" lon="5.27694">
        <ele>80</ele>
        <time>2024-11-26T08:15:56.874+00:00</time>
      </trkpt>
      <trkpt lat="43.35232" lon="5.27699">
        <ele>80</ele>
        <time>2024-11-26T08:16:01.874+00:00</time>
      </trkpt>
      <trkpt lat="43.35228" lon="5.27697">
        <ele>80</ele>
        <time>2024-11-26T08:16:05.980+00:00</time>
      </trkpt>
      <trkpt lat="43.35226" lon="5.27696">
        <ele>80</ele>
        <time>2024-11-26T08:16:10.520+00:00</time>
      </trkpt>
      <trkpt lat="43.35223" lon="5.27697">
        <ele>80</ele>
        <time>2024-11-26T08:16:14.874+00:00</time>
      </trkpt>
      <trkpt lat="43.35222" lon="5.27702">
        <ele>80</ele>
        <time>2024-11-26T08:16:19.563+00:00</time>
      </trkpt>
      <trkpt lat="43.35216" lon="5.27704">
        <ele>80</ele>
        <time>2024-11-26T08:16:48.801+00:00</time>
      </trkpt>
      <trkpt lat="43.35215" lon="5.27703">
        <ele>80</ele>
        <time>2024-11-26T08:16:52.874+00:00</time>
      </trkpt>
      <trkpt lat="43.35214" lon="5.27702">
        <ele>80</ele>
        <time>2024-11-26T08:16:56.874+00:00</time>
      </trkpt>
      <trkpt lat="43.35213" lon="5.27701">
        <ele>80</ele>
        <time>2024-11-26T08:17:01.804+00:00</time>
      </trkpt>
      <trkpt lat="43.35211" lon="5.277">
        <ele>80</ele>
        <time>2024-11-26T08:17:06.495+00:00</time>
      </trkpt>
      <trkpt lat="43.35208" lon="5.277">
        <ele>80</ele>
        <time>2024-11-26T08:17:15.598+00:00</time>
      </trkpt>
      <trkpt lat="43.35206" lon="5.27701">
        <ele>80</ele>
        <time>2024-11-26T08:17:19.882+00:00</time>
      </trkpt>
      <trkpt lat="43.35203" lon="5.27701">
        <ele>80</ele>
        <time>2024-11-26T08:17:24.873+00:00</time>
      </trkpt>
      <trkpt lat="43.35202" lon="5.27699">
        <ele>80</ele>
        <time>2024-11-26T08:17:29.181+00:00</time>
      </trkpt>
      <trkpt lat="43.352" lon="5.27697">
        <ele>80</ele>
        <time>2024-11-26T08:17:33.660+00:00</time>
      </trkpt>
      <trkpt lat="43.35197" lon="5.27692">
        <ele>80</ele>
        <time>2024-11-26T08:17:53.873+00:00</time>
      </trkpt>
      <trkpt lat="43.35197" lon="5.27691">
        <ele>80</ele>
        <time>2024-11-26T08:17:58.879+00:00</time>
      </trkpt>
      <trkpt lat="43.35195" lon="5.2769">
        <ele>80</ele>
        <time>2024-11-26T08:18:03.520+00:00</time>
      </trkpt>
      <trkpt lat="43.35193" lon="5.27689">
        <ele>80</ele>
        <time>2024-11-26T08:18:07.873+00:00</time>
      </trkpt>
      <trkpt lat="43.35191" lon="5.27687">
        <ele>80</ele>
        <time>2024-11-26T08:18:11.873+00:00</time>
      </trkpt>
      <trkpt lat="43.35191" lon="5.27688">
        <ele>80</ele>
        <time>2024-11-26T08:18:17.873+00:00</time>
      </trkpt>
      <trkpt lat="43.35189" lon="5.27689">
        <ele>80</ele>
        <time>2024-11-26T08:18:22.873+00:00</time>
      </trkpt>
      <trkpt lat="43.35186" lon="5.27689">
        <ele>80</ele>
        <time>2024-11-26T08:18:27.563+00:00</time>
      </trkpt>
      <trkpt lat="43.35182" lon="5.27688">
        <ele>80</ele>
        <time>2024-11-26T08:18:31.873+00:00</time>
      </trkpt>
      <trkpt lat="43.35181" lon="5.27691">
        <ele>80</ele>
        <time>2024-11-26T08:18:36.873+00:00</time>
      </trkpt>
      <trkpt lat="43.35178" lon="5.27691">
        <ele>75</ele>
        <time>2024-11-26T08:18:41.442+00:00</time>
      </trkpt>
      <trkpt lat="43.35176" lon="5.2769">
        <ele>75</ele>
        <time>2024-11-26T08:18:45.873+00:00</time>
      </trkpt>
      <trkpt lat="43.35173" lon="5.27686">
        <ele>75</ele>
        <time>2024-11-26T08:18:50.742+00:00</time>
      </trkpt>
      <trkpt lat="43.35173" lon="5.27686">
        <ele>75</ele>
        <time>2024-11-26T08:18:54.872+00:00</time>
      </trkpt>
      <trkpt lat="43.35164" lon="5.27683">
        <ele>75</ele>
        <time>2024-11-26T08:19:11.841+00:00</time>
      </trkpt>
      <trkpt lat="43.35164" lon="5.27682">
        <ele>75</ele>
        <time>2024-11-26T08:19:15.873+00:00</time>
      </trkpt>
      <trkpt lat="43.35163" lon="5.27682">
        <ele>75</ele>
        <time>2024-11-26T08:19:20.873+00:00</time>
      </trkpt>
      <trkpt lat="43.35163" lon="5.27682">
        <ele>75</ele>
        <time>2024-11-26T08:19:25.340+00:00</time>
      </trkpt>
      <trkpt lat="43.35162" lon="5.2768">
        <ele>76</ele>
        <time>2024-11-26T08:19:29.475+00:00</time>
      </trkpt>
      <trkpt lat="43.35159" lon="5.27679">
        <ele>76</ele>
        <time>2024-11-26T08:19:52.538+00:00</time>
      </trkpt>
      <trkpt lat="43.35158" lon="5.27676">
        <ele>76</ele>
        <time>2024-11-26T08:19:56.572+00:00</time>
      </trkpt>
      <trkpt lat="43.35156" lon="5.27673">
        <ele>76</ele>
        <time>2024-11-26T08:20:01.105+00:00</time>
      </trkpt>
      <trkpt lat="43.35157" lon="5.27671">
        <ele>76</ele>
        <time>2024-11-26T08:20:05.642+00:00</time>
      </trkpt>
      <trkpt lat="43.35156" lon="5.27667">
        <ele>76</ele>
        <time>2024-11-26T08:20:09.873+00:00</time>
      </trkpt>
      <trkpt lat="43.3516" lon="5.2766">
        <ele>76</ele>
        <time>2024-11-26T08:20:33.873+00:00</time>
      </trkpt>
      <trkpt lat="43.3516" lon="5.2766">
        <ele>76</ele>
        <time>2024-11-26T08:20:38.873+00:00</time>
      </trkpt>
      <trkpt lat="43.3516" lon="5.2766">
        <ele>76</ele>
        <time>2024-11-26T08:20:43.307+00:00</time>
      </trkpt>
      <trkpt lat="43.3516" lon="5.27656">
        <ele>76</ele>
        <time>2024-11-26T08:20:47.829+00:00</time>
      </trkpt>
      <trkpt lat="43.35157" lon="5.27654">
        <ele>76</ele>
        <time>2024-11-26T08:20:52.487+00:00</time>
      </trkpt>
      <trkpt lat="43.35151" lon="5.27638">
        <ele>73</ele>
        <time>2024-11-26T08:21:40.527+00:00</time>
      </trkpt>
      <trkpt lat="43.35154" lon="5.27632">
        <ele>77</ele>
        <time>2024-11-26T08:21:44.845+00:00</time>
      </trkpt>
      <trkpt lat="43.35156" lon="5.27629">
        <ele>77</ele>
        <time>2024-11-26T08:21:49.384+00:00</time>
      </trkpt>
      <trkpt lat="43.3516" lon="5.27627">
        <ele>77</ele>
        <time>2024-11-26T08:21:54.750+00:00</time>
      </trkpt>
      <trkpt lat="43.35163" lon="5.27626">
        <ele>77</ele>
        <time>2024-11-26T08:21:58.873+00:00</time>
      </trkpt>
      <trkpt lat="43.35165" lon="5.27624">
        <ele>78</ele>
        <time>2024-11-26T08:22:02.873+00:00</time>
      </trkpt>
      <trkpt lat="43.35167" lon="5.27621">
        <ele>78</ele>
        <time>2024-11-26T08:22:07.488+00:00</time>
      </trkpt>
      <trkpt lat="43.35167" lon="5.27616">
        <ele>78</ele>
        <time>2024-11-26T08:22:11.873+00:00</time>
      </trkpt>
      <trkpt lat="43.3517" lon="5.27615">
        <ele>78</ele>
        <time>2024-11-26T08:22:16.369+00:00</time>
      </trkpt>
      <trkpt lat="43.35173" lon="5.27614">
        <ele>78</ele>
        <time>2024-11-26T08:22:20.873+00:00</time>
      </trkpt>
      <trkpt lat="43.35177" lon="5.27613">
        <ele>78</ele>
        <time>2024-11-26T08:22:25.865+00:00</time>
      </trkpt>
      <trkpt lat="43.3518" lon="5.2761">
        <ele>78</ele>
        <time>2024-11-26T08:22:29.873+00:00</time>
      </trkpt>
      <trkpt lat="43.35183" lon="5.27608">
        <ele>81</ele>
        <time>2024-11-26T08:22:34.464+00:00</time>
      </trkpt>
      <trkpt lat="43.35186" lon="5.27609">
        <ele>81</ele>
        <time>2024-11-26T08:22:38.873+00:00</time>
      </trkpt>
      <trkpt lat="43.35189" lon="5.27607">
        <ele>81</ele>
        <time>2024-11-26T08:22:43.448+00:00</time>
      </trkpt>
      <trkpt lat="43.35193" lon="5.27605">
        <ele>81</ele>
        <time>2024-11-26T08:22:47.873+00:00</time>
      </trkpt>
      <trkpt lat="43.35196" lon="5.27603">
        <ele>81</ele>
        <time>2024-11-26T08:22:52.569+00:00</time>
      </trkpt>
      <trkpt lat="43.352" lon="5.27604">
        <ele>81</ele>
        <time>2024-11-26T08:22:56.842+00:00</time>
      </trkpt>
      <trkpt lat="43.35202" lon="5.27602">
        <ele>81</ele>
        <time>2024-11-26T08:23:01.407+00:00</time>
      </trkpt>
      <trkpt lat="43.35205" lon="5.276">
        <ele>81</ele>
        <time>2024-11-26T08:23:05.647+00:00</time>
      </trkpt>
      <trkpt lat="43.35208" lon="5.27598">
        <ele>81</ele>
        <time>2024-11-26T08:23:09.873+00:00</time>
      </trkpt>
      <trkpt lat="43.35212" lon="5.27596">
        <ele>84</ele>
        <time>2024-11-26T08:23:14.588+00:00</time>
      </trkpt>
      <trkpt lat="43.35215" lon="5.27591">
        <ele>84</ele>
        <time>2024-11-26T08:23:18.656+00:00</time>
      </trkpt>
      <trkpt lat="43.35217" lon="5.27586">
        <ele>84</ele>
        <time>2024-11-26T08:23:22.669+00:00</time>
      </trkpt>
      <trkpt lat="43.35218" lon="5.27581">
        <ele>84</ele>
        <time>2024-11-26T08:23:26.747+00:00</time>
      </trkpt>
      <trkpt lat="43.35221" lon="5.27577">
        <ele>84</ele>
        <time>2024-11-26T08:23:31.389+00:00</time>
      </trkpt>
      <trkpt lat="43.35231" lon="5.27578">
        <ele>84</ele>
        <time>2024-11-26T08:23:54.603+00:00</time>
      </trkpt>
      <trkpt lat="43.35233" lon="5.27578">
        <ele>84</ele>
        <time>2024-11-26T08:23:58.698+00:00</time>
      </trkpt>
      <trkpt lat="43.35234" lon="5.27577">
        <ele>84</ele>
        <time>2024-11-26T08:24:02.873+00:00</time>
      </trkpt>
      <trkpt lat="43.35234" lon="5.27577">
        <ele>84</ele>
        <time>2024-11-26T08:24:07.872+00:00</time>
      </trkpt>
      <trkpt lat="43.35234" lon="5.27577">
        <ele>84</ele>
        <time>2024-11-26T08:24:14.873+00:00</time>
      </trkpt>
      <trkpt lat="43.35234" lon="5.27577">
        <ele>84</ele>
        <time>2024-11-26T08:24:24.873+00:00</time>
      </trkpt>
      <trkpt lat="43.35234" lon="5.27576">
        <ele>84</ele>
        <time>2024-11-26T08:24:29.873+00:00</time>
      </trkpt>
      <trkpt lat="43.35234" lon="5.27573">
        <ele>84</ele>
        <time>2024-11-26T08:24:34.567+00:00</time>
      </trkpt>
      <trkpt lat="43.35234" lon="5.27568">
        <ele>85</ele>
        <time>2024-11-26T08:24:38.874+00:00</time>
      </trkpt>
      <trkpt lat="43.35234" lon="5.27564">
        <ele>85</ele>
        <time>2024-11-26T08:24:43.347+00:00</time>
      </trkpt>
      <trkpt lat="43.35234" lon="5.2756">
        <ele>85</ele>
        <time>2024-11-26T08:24:47.873+00:00</time>
      </trkpt>
      <trkpt lat="43.35233" lon="5.27554">
        <ele>85</ele>
        <time>2024-11-26T08:24:52.873+00:00</time>
      </trkpt>
      <trkpt lat="43.35233" lon="5.27547">
        <ele>85</ele>
        <time>2024-11-26T08:24:57.873+00:00</time>
      </trkpt>
      <trkpt lat="43.35233" lon="5.27541">
        <ele>89</ele>
        <time>2024-11-26T08:25:02.323+00:00</time>
      </trkpt>
      <trkpt lat="43.35233" lon="5.27535">
        <ele>89</ele>
        <time>2024-11-26T08:25:06.784+00:00</time>
      </trkpt>
      <trkpt lat="43.35231" lon="5.27529">
        <ele>89</ele>
        <time>2024-11-26T08:25:11.502+00:00</time>
      </trkpt>
      <trkpt lat="43.35227" lon="5.27526">
        <ele>89</ele>
        <time>2024-11-26T08:25:15.828+00:00</time>
      </trkpt>
      <trkpt lat="43.35223" lon="5.27525">
        <ele>89</ele>
        <time>2024-11-26T08:25:20.623+00:00</time>
      </trkpt>
      <trkpt lat="43.35219" lon="5.27526">
        <ele>89</ele>
        <time>2024-11-26T08:25:24.873+00:00</time>
      </trkpt>
      <trkpt lat="43.35216" lon="5.27531">
        <ele>89</ele>
        <time>2024-11-26T08:25:29.650+00:00</time>
      </trkpt>
      <trkpt lat="43.35214" lon="5.27535">
        <ele>89</ele>
        <time>2024-11-26T08:25:33.822+00:00</time>
      </trkpt>
      <trkpt lat="43.35213" lon="5.27539">
        <ele>89</ele>
        <time>2024-11-26T08:25:37.873+00:00</time>
      </trkpt>
      <trkpt lat="43.35211" lon="5.27542">
        <ele>85</ele>
        <time>2024-11-26T08:25:42.567+00:00</time>
      </trkpt>
      <trkpt lat="43.35207" lon="5.27543">
        <ele>82</ele>
        <time>2024-11-26T08:25:46.873+00:00</time>
      </trkpt>
      <trkpt lat="43.35203" lon="5.27543">
        <ele>82</ele>
        <time>2024-11-26T08:25:51.586+00:00</time>
      </trkpt>
      <trkpt lat="43.352" lon="5.27544">
        <ele>82</ele>
        <time>2024-11-26T08:25:55.724+00:00</time>
      </trkpt>
      <trkpt lat="43.35197" lon="5.27544">
        <ele>82</ele>
        <time>2024-11-26T08:25:59.768+00:00</time>
      </trkpt>
      <trkpt lat="43.35194" lon="5.27544">
        <ele>82</ele>
        <time>2024-11-26T08:26:03.873+00:00</time>
      </trkpt>
      <trkpt lat="43.35191" lon="5.27544">
        <ele>82</ele>
        <time>2024-11-26T08:26:08.873+00:00</time>
      </trkpt>
      <trkpt lat="43.35188" lon="5.27543">
        <ele>82</ele>
        <time>2024-11-26T08:26:13.772+00:00</time>
      </trkpt>
      <trkpt lat="43.35185" lon="5.27543">
        <ele>82</ele>
        <time>2024-11-26T08:26:17.873+00:00</time>
      </trkpt>
      <trkpt lat="43.35181" lon="5.27544">
        <ele>82</ele>
        <time>2024-11-26T08:26:22.873+00:00</time>
      </trkpt>
      <trkpt lat="43.35177" lon="5.27543">
        <ele>87</ele>
        <time>2024-11-26T08:26:27.710+00:00</time>
      </trkpt>
      <trkpt lat="43.35174" lon="5.27543">
        <ele>87</ele>
        <time>2024-11-26T08:26:31.873+00:00</time>
      </trkpt>
      <trkpt lat="43.3517" lon="5.27542">
        <ele>87</ele>
        <time>2024-11-26T08:26:36.847+00:00</time>
      </trkpt>
      <trkpt lat="43.35168" lon="5.2754">
        <ele>95</ele>
        <time>2024-11-26T08:26:40.873+00:00</time>
      </trkpt>
      <trkpt lat="43.35166" lon="5.27538">
        <ele>95</ele>
        <time>2024-11-26T08:26:45.183+00:00</time>
      </trkpt>
      <trkpt lat="43.35164" lon="5.27536">
        <ele>95</ele>
        <time>2024-11-26T08:26:49.577+00:00</time>
      </trkpt>
      <trkpt lat="43.35161" lon="5.27535">
        <ele>95</ele>
        <time>2024-11-26T08:26:53.664+00:00</time>
      </trkpt>
      <trkpt lat="43.35159" lon="5.27533">
        <ele>95</ele>
        <time>2024-11-26T08:26:58.289+00:00</time>
      </trkpt>
      <trkpt lat="43.35157" lon="5.2753">
        <ele>95</ele>
        <time>2024-11-26T08:27:02.470+00:00</time>
      </trkpt>
      <trkpt lat="43.35154" lon="5.27528">
        <ele>95</ele>
        <time>2024-11-26T08:27:06.805+00:00</time>
      </trkpt>
      <trkpt lat="43.35152" lon="5.27527">
        <ele>105</ele>
        <time>2024-11-26T08:27:10.873+00:00</time>
      </trkpt>
      <trkpt lat="43.35149" lon="5.27525">
        <ele>105</ele>
        <time>2024-11-26T08:27:15.873+00:00</time>
      </trkpt>
      <trkpt lat="43.35146" lon="5.27523">
        <ele>105</ele>
        <time>2024-11-26T08:27:20.787+00:00</time>
      </trkpt>
      <trkpt lat="43.35143" lon="5.27521">
        <ele>105</ele>
        <time>2024-11-26T08:27:25.309+00:00</time>
      </trkpt>
      <trkpt lat="43.35141" lon="5.27521">
        <ele>105</ele>
        <time>2024-11-26T08:27:29.711+00:00</time>
      </trkpt>
      <trkpt lat="43.35138" lon="5.2752">
        <ele>105</ele>
        <time>2024-11-26T08:27:34.449+00:00</time>
      </trkpt>
      <trkpt lat="43.35135" lon="5.27519">
        <ele>105</ele>
        <time>2024-11-26T08:27:38.748+00:00</time>
      </trkpt>
      <trkpt lat="43.35127" lon="5.27526">
        <ele>105</ele>
        <time>2024-11-26T08:27:51.873+00:00</time>
      </trkpt>
      <trkpt lat="43.35128" lon="5.27528">
        <ele>105</ele>
        <time>2024-11-26T08:27:57.873+00:00</time>
      </trkpt>
      <trkpt lat="43.35127" lon="5.27528">
        <ele>105</ele>
        <time>2024-11-26T08:28:03.761+00:00</time>
      </trkpt>
      <trkpt lat="43.35126" lon="5.27528">
        <ele>105</ele>
        <time>2024-11-26T08:28:07.873+00:00</time>
      </trkpt>
      <trkpt lat="43.35122" lon="5.27532">
        <ele>108</ele>
        <time>2024-11-26T08:28:12.873+00:00</time>
      </trkpt>
      <trkpt lat="43.35119" lon="5.27534">
        <ele>108</ele>
        <time>2024-11-26T08:28:17.208+00:00</time>
      </trkpt>
      <trkpt lat="43.35115" lon="5.27537">
        <ele>108</ele>
        <time>2024-11-26T08:28:21.807+00:00</time>
      </trkpt>
      <trkpt lat="43.35113" lon="5.27543">
        <ele>102</ele>
        <time>2024-11-26T08:28:26.448+00:00</time>
      </trkpt>
      <trkpt lat="43.35111" lon="5.27548">
        <ele>102</ele>
        <time>2024-11-26T08:28:30.868+00:00</time>
      </trkpt>
      <trkpt lat="43.35105" lon="5.27556">
        <ele>102</ele>
        <time>2024-11-26T08:30:06.871+00:00</time>
      </trkpt>
      <trkpt lat="43.35101" lon="5.27556">
        <ele>102</ele>
        <time>2024-11-26T08:30:11.872+00:00</time>
      </trkpt>
      <trkpt lat="43.35101" lon="5.27557">
        <ele>102</ele>
        <time>2024-11-26T08:30:16.872+00:00</time>
      </trkpt>
      <trkpt lat="43.35101" lon="5.27558">
        <ele>102</ele>
        <time>2024-11-26T08:30:21.872+00:00</time>
      </trkpt>
      <trkpt lat="43.35096" lon="5.27556">
        <ele>103</ele>
        <time>2024-11-26T08:30:26.847+00:00</time>
      </trkpt>
      <trkpt lat="43.35088" lon="5.27554">
        <ele>103</ele>
        <time>2024-11-26T08:30:44.807+00:00</time>
      </trkpt>
      <trkpt lat="43.35087" lon="5.27554">
        <ele>103</ele>
        <time>2024-11-26T08:30:49.872+00:00</time>
      </trkpt>
      <trkpt lat="43.35085" lon="5.27554">
        <ele>103</ele>
        <time>2024-11-26T08:30:54.448+00:00</time>
      </trkpt>
      <trkpt lat="43.35082" lon="5.27554">
        <ele>103</ele>
        <time>2024-11-26T08:30:58.872+00:00</time>
      </trkpt>
      <trkpt lat="43.3508" lon="5.27554">
        <ele>103</ele>
        <time>2024-11-26T08:31:03.210+00:00</time>
      </trkpt>
      <trkpt lat="43.35078" lon="5.27556">
        <ele>103</ele>
        <time>2024-11-26T08:31:07.348+00:00</time>
      </trkpt>
      <trkpt lat="43.35075" lon="5.27555">
        <ele>103</ele>
        <time>2024-11-26T08:31:11.648+00:00</time>
      </trkpt>
      <trkpt lat="43.35073" lon="5.27553">
        <ele>103</ele>
        <time>2024-11-26T08:31:15.872+00:00</time>
      </trkpt>
      <trkpt lat="43.3507" lon="5.27552">
        <ele>103</ele>
        <time>2024-11-26T08:31:20.283+00:00</time>
      </trkpt>
      <trkpt lat="43.35067" lon="5.27552">
        <ele>99</ele>
        <time>2024-11-26T08:31:24.548+00:00</time>
      </trkpt>
      <trkpt lat="43.35064" lon="5.27551">
        <ele>99</ele>
        <time>2024-11-26T08:31:28.686+00:00</time>
      </trkpt>
      <trkpt lat="43.35061" lon="5.27549">
        <ele>99</ele>
        <time>2024-11-26T08:31:32.872+00:00</time>
      </trkpt>
      <trkpt lat="43.35057" lon="5.27548">
        <ele>99</ele>
        <time>2024-11-26T08:31:37.047+00:00</time>
      </trkpt>
      <trkpt lat="43.35054" lon="5.27546">
        <ele>99</ele>
        <time>2024-11-26T08:31:41.509+00:00</time>
      </trkpt>
      <trkpt lat="43.35053" lon="5.27545">
        <ele>99</ele>
        <time>2024-11-26T08:31:54.872+00:00</time>
      </trkpt>
      <trkpt lat="43.35052" lon="5.27545">
        <ele>99</ele>
        <time>2024-11-26T08:32:00.872+00:00</time>
      </trkpt>
      <trkpt lat="43.35052" lon="5.27545">
        <ele>99</ele>
        <time>2024-11-26T08:32:05.288+00:00</time>
      </trkpt>
      <trkpt lat="43.35049" lon="5.27544">
        <ele>99</ele>
        <time>2024-11-26T08:32:09.629+00:00</time>
      </trkpt>
      <trkpt lat="43.35044" lon="5.27544">
        <ele>99</ele>
        <time>2024-11-26T08:32:13.888+00:00</time>
      </trkpt>
      <trkpt lat="43.35043" lon="5.27548">
        <ele>99</ele>
        <time>2024-11-26T08:34:49.525+00:00</time>
      </trkpt>
      <trkpt lat="43.35044" lon="5.27547">
        <ele>99</ele>
        <time>2024-11-26T08:34:53.872+00:00</time>
      </trkpt>
      <trkpt lat="43.35046" lon="5.27545">
        <ele>99</ele>
        <time>2024-11-26T08:34:58.348+00:00</time>
      </trkpt>
      <trkpt lat="43.35052" lon="5.27543">
        <ele>99</ele>
        <time>2024-11-26T08:35:02.872+00:00</time>
      </trkpt>
      <trkpt lat="43.35054" lon="5.2754">
        <ele>100</ele>
        <time>2024-11-26T08:35:07.043+00:00</time>
      </trkpt>
      <trkpt lat="43.3506" lon="5.27534">
        <ele>100</ele>
        <time>2024-11-26T08:35:20.789+00:00</time>
      </trkpt>
      <trkpt lat="43.35061" lon="5.27533">
        <ele>100</ele>
        <time>2024-11-26T08:35:24.872+00:00</time>
      </trkpt>
      <trkpt lat="43.35064" lon="5.2753">
        <ele>100</ele>
        <time>2024-11-26T08:35:29.569+00:00</time>
      </trkpt>
      <trkpt lat="43.35067" lon="5.27525">
        <ele>100</ele>
        <time>2024-11-26T08:35:33.872+00:00</time>
      </trkpt>
      <trkpt lat="43.35068" lon="5.27519">
        <ele>100</ele>
        <time>2024-11-26T08:35:38.636+00:00</time>
      </trkpt>
      <trkpt lat="43.3507" lon="5.27513">
        <ele>106</ele>
        <time>2024-11-26T08:35:42.872+00:00</time>
      </trkpt>
      <trkpt lat="43.3507" lon="5.27507">
        <ele>106</ele>
        <time>2024-11-26T08:35:47.204+00:00</time>
      </trkpt>
      <trkpt lat="43.35069" lon="5.27502">
        <ele>100</ele>
        <time>2024-11-26T08:35:51.829+00:00</time>
      </trkpt>
      <trkpt lat="43.35065" lon="5.27498">
        <ele>100</ele>
        <time>2024-11-26T08:35:56.318+00:00</time>
      </trkpt>
      <trkpt lat="43.35065" lon="5.27492">
        <ele>100</ele>
        <time>2024-11-26T08:36:00.609+00:00</time>
      </trkpt>
      <trkpt lat="43.35062" lon="5.27488">
        <ele>100</ele>
        <time>2024-11-26T08:36:04.747+00:00</time>
      </trkpt>
      <trkpt lat="43.35059" lon="5.27482">
        <ele>100</ele>
        <time>2024-11-26T08:36:09.763+00:00</time>
      </trkpt>
      <trkpt lat="43.35058" lon="5.27478">
        <ele>100</ele>
        <time>2024-11-26T08:36:14.107+00:00</time>
      </trkpt>
      <trkpt lat="43.35055" lon="5.27474">
        <ele>100</ele>
        <time>2024-11-26T08:36:18.510+00:00</time>
      </trkpt>
      <trkpt lat="43.35052" lon="5.27473">
        <ele>100</ele>
        <time>2024-11-26T08:36:22.528+00:00</time>
      </trkpt>
      <trkpt lat="43.3505" lon="5.27468">
        <ele>100</ele>
        <time>2024-11-26T08:36:26.872+00:00</time>
      </trkpt>
      <trkpt lat="43.35048" lon="5.27464">
        <ele>100</ele>
        <time>2024-11-26T08:36:32.348+00:00</time>
      </trkpt>
      <trkpt lat="43.35045" lon="5.2746">
        <ele>100</ele>
        <time>2024-11-26T08:36:36.872+00:00</time>
      </trkpt>
      <trkpt lat="43.35043" lon="5.27456">
        <ele>101</ele>
        <time>2024-11-26T08:36:41.366+00:00</time>
      </trkpt>
      <trkpt lat="43.35042" lon="5.27452">
        <ele>88</ele>
        <time>2024-11-26T08:36:45.471+00:00</time>
      </trkpt>
      <trkpt lat="43.35039" lon="5.27447">
        <ele>88</ele>
        <time>2024-11-26T08:36:49.729+00:00</time>
      </trkpt>
      <trkpt lat="43.35036" lon="5.27442">
        <ele>88</ele>
        <time>2024-11-26T08:36:54.397+00:00</time>
      </trkpt>
      <trkpt lat="43.35034" lon="5.27439">
        <ele>88</ele>
        <time>2024-11-26T08:36:58.611+00:00</time>
      </trkpt>
      <trkpt lat="43.35032" lon="5.27436">
        <ele>88</ele>
        <time>2024-11-26T08:37:02.645+00:00</time>
      </trkpt>
      <trkpt lat="43.3503" lon="5.27432">
        <ele>88</ele>
        <time>2024-11-26T08:37:06.872+00:00</time>
      </trkpt>
      <trkpt lat="43.35029" lon="5.27428">
        <ele>89</ele>
        <time>2024-11-26T08:37:11.426+00:00</time>
      </trkpt>
      <trkpt lat="43.35023" lon="5.27429">
        <ele>89</ele>
        <time>2024-11-26T08:37:41.715+00:00</time>
      </trkpt>
      <trkpt lat="43.35024" lon="5.2743">
        <ele>89</ele>
        <time>2024-11-26T08:37:45.871+00:00</time>
      </trkpt>
      <trkpt lat="43.35026" lon="5.27441">
        <ele>88</ele>
        <time>2024-11-26T08:37:49.871+00:00</time>
      </trkpt>
      <trkpt lat="43.35025" lon="5.27448">
        <ele>88</ele>
        <time>2024-11-26T08:37:54.722+00:00</time>
      </trkpt>
      <trkpt lat="43.35022" lon="5.27452">
        <ele>88</ele>
        <time>2024-11-26T08:37:59.083+00:00</time>
      </trkpt>
      <trkpt lat="43.35019" lon="5.27455">
        <ele>88</ele>
        <time>2024-11-26T08:38:03.871+00:00</time>
      </trkpt>
      <trkpt lat="43.35018" lon="5.2746">
        <ele>90</ele>
        <time>2024-11-26T08:38:08.811+00:00</time>
      </trkpt>
      <trkpt lat="43.35018" lon="5.27464">
        <ele>90</ele>
        <time>2024-11-26T08:38:13.605+00:00</time>
      </trkpt>
      <trkpt lat="43.35015" lon="5.27466">
        <ele>90</ele>
        <time>2024-11-26T08:38:17.829+00:00</time>
      </trkpt>
      <trkpt lat="43.35012" lon="5.27466">
        <ele>80</ele>
        <time>2024-11-26T08:38:21.851+00:00</time>
      </trkpt>
      <trkpt lat="43.35008" lon="5.2747">
        <ele>80</ele>
        <time>2024-11-26T08:38:26.404+00:00</time>
      </trkpt>
      <trkpt lat="43.35006" lon="5.27472">
        <ele>80</ele>
        <time>2024-11-26T08:38:30.628+00:00</time>
      </trkpt>
      <trkpt lat="43.35003" lon="5.27469">
        <ele>80</ele>
        <time>2024-11-26T08:38:34.723+00:00</time>
      </trkpt>
      <trkpt lat="43.35" lon="5.27467">
        <ele>80</ele>
        <time>2024-11-26T08:38:38.871+00:00</time>
      </trkpt>
      <trkpt lat="43.34999" lon="5.27466">
        <ele>80</ele>
        <time>2024-11-26T08:38:43.351+00:00</time>
      </trkpt>
      <trkpt lat="43.34997" lon="5.27464">
        <ele>80</ele>
        <time>2024-11-26T08:38:47.531+00:00</time>
      </trkpt>
      <trkpt lat="43.34996" lon="5.27461">
        <ele>80</ele>
        <time>2024-11-26T08:38:51.566+00:00</time>
      </trkpt>
      <trkpt lat="43.34993" lon="5.27458">
        <ele>80</ele>
        <time>2024-11-26T08:38:55.645+00:00</time>
      </trkpt>
      <trkpt lat="43.34991" lon="5.27456">
        <ele>76</ele>
        <time>2024-11-26T08:39:00.166+00:00</time>
      </trkpt>
      <trkpt lat="43.34989" lon="5.27453">
        <ele>76</ele>
        <time>2024-11-26T08:39:04.587+00:00</time>
      </trkpt>
      <trkpt lat="43.34989" lon="5.27449">
        <ele>76</ele>
        <time>2024-11-26T08:39:09.228+00:00</time>
      </trkpt>
      <trkpt lat="43.34993" lon="5.27446">
        <ele>76</ele>
        <time>2024-11-26T08:39:13.409+00:00</time>
      </trkpt>
      <trkpt lat="43.34994" lon="5.27441">
        <ele>76</ele>
        <time>2024-11-26T08:39:17.871+00:00</time>
      </trkpt>
      <trkpt lat="43.34995" lon="5.27436">
        <ele>76</ele>
        <time>2024-11-26T08:39:22.206+00:00</time>
      </trkpt>
      <trkpt lat="43.34994" lon="5.27432">
        <ele>76</ele>
        <time>2024-11-26T08:39:26.871+00:00</time>
      </trkpt>
      <trkpt lat="43.34991" lon="5.2743">
        <ele>75</ele>
        <time>2024-11-26T08:39:31.565+00:00</time>
      </trkpt>
      <trkpt lat="43.34989" lon="5.2743">
        <ele>75</ele>
        <time>2024-11-26T08:39:35.871+00:00</time>
      </trkpt>
      <trkpt lat="43.34984" lon="5.2743">
        <ele>61</ele>
        <time>2024-11-26T08:39:40.871+00:00</time>
      </trkpt>
      <trkpt lat="43.3498" lon="5.27429">
        <ele>61</ele>
        <time>2024-11-26T08:39:45.626+00:00</time>
      </trkpt>
      <trkpt lat="43.34977" lon="5.27426">
        <ele>61</ele>
        <time>2024-11-26T08:39:50.313+00:00</time>
      </trkpt>
      <trkpt lat="43.34974" lon="5.27426">
        <ele>61</ele>
        <time>2024-11-26T08:39:54.644+00:00</time>
      </trkpt>
      <trkpt lat="43.34969" lon="5.27425">
        <ele>61</ele>
        <time>2024-11-26T08:39:59.449+00:00</time>
      </trkpt>
      <trkpt lat="43.34966" lon="5.27426">
        <ele>61</ele>
        <time>2024-11-26T08:40:03.511+00:00</time>
      </trkpt>
      <trkpt lat="43.34963" lon="5.27427">
        <ele>61</ele>
        <time>2024-11-26T08:40:07.648+00:00</time>
      </trkpt>
      <trkpt lat="43.34961" lon="5.27425">
        <ele>61</ele>
        <time>2024-11-26T08:40:11.667+00:00</time>
      </trkpt>
      <trkpt lat="43.34959" lon="5.27421">
        <ele>61</ele>
        <time>2024-11-26T08:40:15.871+00:00</time>
      </trkpt>
      <trkpt lat="43.34956" lon="5.27419">
        <ele>53</ele>
        <time>2024-11-26T08:40:20.694+00:00</time>
      </trkpt>
      <trkpt lat="43.34952" lon="5.27417">
        <ele>53</ele>
        <time>2024-11-26T08:40:25.871+00:00</time>
      </trkpt>
      <trkpt lat="43.34951" lon="5.27415">
        <ele>53</ele>
        <time>2024-11-26T08:40:30.309+00:00</time>
      </trkpt>
      <trkpt lat="43.34954" lon="5.27414">
        <ele>53</ele>
        <time>2024-11-26T08:40:35.147+00:00</time>
      </trkpt>
      <trkpt lat="43.34959" lon="5.2741">
        <ele>61</ele>
        <time>2024-11-26T08:40:39.332+00:00</time>
      </trkpt>
      <trkpt lat="43.34963" lon="5.27408">
        <ele>61</ele>
        <time>2024-11-26T08:40:43.871+00:00</time>
      </trkpt>
      <trkpt lat="43.34963" lon="5.27406">
        <ele>61</ele>
        <time>2024-11-26T08:40:48.686+00:00</time>
      </trkpt>
      <trkpt lat="43.34966" lon="5.274">
        <ele>64</ele>
        <time>2024-11-26T08:40:53.224+00:00</time>
      </trkpt>
      <trkpt lat="43.34965" lon="5.27394">
        <ele>64</ele>
        <time>2024-11-26T08:40:57.669+00:00</time>
      </trkpt>
      <trkpt lat="43.34962" lon="5.27389">
        <ele>64</ele>
        <time>2024-11-26T08:41:01.748+00:00</time>
      </trkpt>
      <trkpt lat="43.34953" lon="5.27377">
        <ele>55</ele>
        <time>2024-11-26T08:42:11.194+00:00</time>
      </trkpt>
      <trkpt lat="43.34953" lon="5.27376">
        <ele>55</ele>
        <time>2024-11-26T08:42:16.870+00:00</time>
      </trkpt>
      <trkpt lat="43.34953" lon="5.27375">
        <ele>55</ele>
        <time>2024-11-26T08:42:21.447+00:00</time>
      </trkpt>
      <trkpt lat="43.34953" lon="5.27375">
        <ele>62</ele>
        <time>2024-11-26T08:42:25.468+00:00</time>
      </trkpt>
      <trkpt lat="43.34953" lon="5.27374">
        <ele>62</ele>
        <time>2024-11-26T08:42:29.881+00:00</time>
      </trkpt>
      <trkpt lat="43.34947" lon="5.27372">
        <ele>62</ele>
        <time>2024-11-26T08:42:47.870+00:00</time>
      </trkpt>
      <trkpt lat="43.34946" lon="5.27371">
        <ele>62</ele>
        <time>2024-11-26T08:42:52.871+00:00</time>
      </trkpt>
      <trkpt lat="43.34943" lon="5.27369">
        <ele>62</ele>
        <time>2024-11-26T08:42:57.507+00:00</time>
      </trkpt>
      <trkpt lat="43.34941" lon="5.2737">
        <ele>62</ele>
        <time>2024-11-26T08:43:01.808+00:00</time>
      </trkpt>
      <trkpt lat="43.34939" lon="5.27371">
        <ele>62</ele>
        <time>2024-11-26T08:43:05.871+00:00</time>
      </trkpt>
      <trkpt lat="43.34936" lon="5.2737">
        <ele>62</ele>
        <time>2024-11-26T08:43:14.871+00:00</time>
      </trkpt>
      <trkpt lat="43.34935" lon="5.27368">
        <ele>62</ele>
        <time>2024-11-26T08:43:19.871+00:00</time>
      </trkpt>
      <trkpt lat="43.34934" lon="5.27367">
        <ele>62</ele>
        <time>2024-11-26T08:43:23.871+00:00</time>
      </trkpt>
      <trkpt lat="43.34932" lon="5.27363">
        <ele>62</ele>
        <time>2024-11-26T08:43:28.709+00:00</time>
      </trkpt>
      <trkpt lat="43.3493" lon="5.27361">
        <ele>57</ele>
        <time>2024-11-26T08:43:32.947+00:00</time>
      </trkpt>
      <trkpt lat="43.34923" lon="5.27357">
        <ele>57</ele>
        <time>2024-11-26T08:43:57.871+00:00</time>
      </trkpt>
      <trkpt lat="43.34922" lon="5.27356">
        <ele>57</ele>
        <time>2024-11-26T08:44:02.865+00:00</time>
      </trkpt>
      <trkpt lat="43.34922" lon="5.27355">
        <ele>57</ele>
        <time>2024-11-26T08:44:06.871+00:00</time>
      </trkpt>
      <trkpt lat="43.34922" lon="5.27353">
        <ele>57</ele>
        <time>2024-11-26T08:44:11.513+00:00</time>
      </trkpt>
      <trkpt lat="43.34923" lon="5.27347">
        <ele>66</ele>
        <time>2024-11-26T08:44:16.187+00:00</time>
      </trkpt>
      <trkpt lat="43.34921" lon="5.27342">
        <ele>66</ele>
        <time>2024-11-26T08:44:20.775+00:00</time>
      </trkpt>
      <trkpt lat="43.3492" lon="5.27341">
        <ele>66</ele>
        <time>2024-11-26T08:44:24.871+00:00</time>
      </trkpt>
      <trkpt lat="43.34917" lon="5.27339">
        <ele>66</ele>
        <time>2024-11-26T08:44:29.427+00:00</time>
      </trkpt>
      <trkpt lat="43.34915" lon="5.27338">
        <ele>66</ele>
        <time>2024-11-26T08:44:33.871+00:00</time>
      </trkpt>
      <trkpt lat="43.34912" lon="5.27338">
        <ele>66</ele>
        <time>2024-11-26T08:44:38.357+00:00</time>
      </trkpt>
      <trkpt lat="43.34909" lon="5.27338">
        <ele>66</ele>
        <time>2024-11-26T08:44:42.871+00:00</time>
      </trkpt>
      <trkpt lat="43.34907" lon="5.27336">
        <ele>66</ele>
        <time>2024-11-26T08:44:47.732+00:00</time>
      </trkpt>
      <trkpt lat="43.34905" lon="5.27333">
        <ele>66</ele>
        <time>2024-11-26T08:44:51.871+00:00</time>
      </trkpt>
      <trkpt lat="43.34903" lon="5.2733">
        <ele>66</ele>
        <time>2024-11-26T08:44:56.526+00:00</time>
      </trkpt>
      <trkpt lat="43.34901" lon="5.27329">
        <ele>70</ele>
        <time>2024-11-26T08:45:01.414+00:00</time>
      </trkpt>
      <trkpt lat="43.34895" lon="5.27331">
        <ele>70</ele>
        <time>2024-11-26T08:45:46.870+00:00</time>
      </trkpt>
      <trkpt lat="43.34895" lon="5.2733">
        <ele>70</ele>
        <time>2024-11-26T08:45:50.870+00:00</time>
      </trkpt>
      <trkpt lat="43.34894" lon="5.27329">
        <ele>70</ele>
        <time>2024-11-26T08:45:55.374+00:00</time>
      </trkpt>
      <trkpt lat="43.34889" lon="5.27328">
        <ele>70</ele>
        <time>2024-11-26T08:45:59.829+00:00</time>
      </trkpt>
      <trkpt lat="43.34886" lon="5.27325">
        <ele>70</ele>
        <time>2024-11-26T08:46:03.870+00:00</time>
      </trkpt>
      <trkpt lat="43.34883" lon="5.27321">
        <ele>70</ele>
        <time>2024-11-26T08:46:08.870+00:00</time>
      </trkpt>
      <trkpt lat="43.34881" lon="5.27319">
        <ele>72</ele>
        <time>2024-11-26T08:46:17.869+00:00</time>
      </trkpt>
      <trkpt lat="43.3488" lon="5.27316">
        <ele>72</ele>
        <time>2024-11-26T08:46:22.496+00:00</time>
      </trkpt>
      <trkpt lat="43.34877" lon="5.27313">
        <ele>72</ele>
        <time>2024-11-26T08:46:26.945+00:00</time>
      </trkpt>
      <trkpt lat="43.34873" lon="5.2731">
        <ele>79</ele>
        <time>2024-11-26T08:46:31.391+00:00</time>
      </trkpt>
      <trkpt lat="43.34874" lon="5.27311">
        <ele>79</ele>
        <time>2024-11-26T08:46:51.870+00:00</time>
      </trkpt>
      <trkpt lat="43.34872" lon="5.27309">
        <ele>79</ele>
        <time>2024-11-26T08:46:56.870+00:00</time>
      </trkpt>
      <trkpt lat="43.34869" lon="5.27306">
        <ele>79</ele>
        <time>2024-11-26T08:47:01.870+00:00</time>
      </trkpt>
      <trkpt lat="43.34865" lon="5.27304">
        <ele>79</ele>
        <time>2024-11-26T08:47:06.768+00:00</time>
      </trkpt>
      <trkpt lat="43.34864" lon="5.27299">
        <ele>79</ele>
        <time>2024-11-26T08:47:11.352+00:00</time>
      </trkpt>
      <trkpt lat="43.34856" lon="5.27291">
        <ele>76</ele>
        <time>2024-11-26T08:48:29.870+00:00</time>
      </trkpt>
      <trkpt lat="43.34856" lon="5.27291">
        <ele>76</ele>
        <time>2024-11-26T08:48:48.870+00:00</time>
      </trkpt>
      <trkpt lat="43.34856" lon="5.27292">
        <ele>76</ele>
        <time>2024-11-26T08:48:58.870+00:00</time>
      </trkpt>
      <trkpt lat="43.34855" lon="5.27291">
        <ele>76</ele>
        <time>2024-11-26T08:49:03.870+00:00</time>
      </trkpt>
      <trkpt lat="43.34851" lon="5.2729">
        <ele>76</ele>
        <time>2024-11-26T08:49:08.870+00:00</time>
      </trkpt>
      <trkpt lat="43.34849" lon="5.27286">
        <ele>76</ele>
        <time>2024-11-26T08:49:13.332+00:00</time>
      </trkpt>
      <trkpt lat="43.34846" lon="5.27283">
        <ele>80</ele>
        <time>2024-11-26T08:49:17.870+00:00</time>
      </trkpt>
      <trkpt lat="43.34844" lon="5.27279">
        <ele>80</ele>
        <time>2024-11-26T08:49:21.870+00:00</time>
      </trkpt>
      <trkpt lat="43.34842" lon="5.27274">
        <ele>80</ele>
        <time>2024-11-26T08:49:26.269+00:00</time>
      </trkpt>
      <trkpt lat="43.34843" lon="5.27269">
        <ele>80</ele>
        <time>2024-11-26T08:49:30.390+00:00</time>
      </trkpt>
      <trkpt lat="43.34841" lon="5.27268">
        <ele>80</ele>
        <time>2024-11-26T08:49:34.489+00:00</time>
      </trkpt>
      <trkpt lat="43.34841" lon="5.27262">
        <ele>80</ele>
        <time>2024-11-26T08:49:38.869+00:00</time>
      </trkpt>
      <trkpt lat="43.34829" lon="5.27277">
        <ele>80</ele>
        <time>2024-11-26T08:49:43.686+00:00</time>
      </trkpt>
      <trkpt lat="43.34822" lon="5.27275">
        <ele>80</ele>
        <time>2024-11-26T08:49:48.612+00:00</time>
      </trkpt>
      <trkpt lat="43.34817" lon="5.27272">
        <ele>82</ele>
        <time>2024-11-26T08:49:53.345+00:00</time>
      </trkpt>
      <trkpt lat="43.34812" lon="5.27273">
        <ele>82</ele>
        <time>2024-11-26T08:49:57.850+00:00</time>
      </trkpt>
      <trkpt lat="43.34808" lon="5.27274">
        <ele>82</ele>
        <time>2024-11-26T08:50:02.870+00:00</time>
      </trkpt>
      <trkpt lat="43.34802" lon="5.27261">
        <ele>84</ele>
        <time>2024-11-26T08:50:24.473+00:00</time>
      </trkpt>
      <trkpt lat="43.34802" lon="5.27261">
        <ele>84</ele>
        <time>2024-11-26T08:50:28.870+00:00</time>
      </trkpt>
      <trkpt lat="43.34801" lon="5.27261">
        <ele>84</ele>
        <time>2024-11-26T08:50:33.870+00:00</time>
      </trkpt>
      <trkpt lat="43.348" lon="5.27261">
        <ele>84</ele>
        <time>2024-11-26T08:50:38.562+00:00</time>
      </trkpt>
      <trkpt lat="43.34798" lon="5.27256">
        <ele>84</ele>
        <time>2024-11-26T08:50:42.870+00:00</time>
      </trkpt>
      <trkpt lat="43.34798" lon="5.27256">
        <ele>84</ele>
        <time>2024-11-26T08:50:48.869+00:00</time>
      </trkpt>
      <trkpt lat="43.34798" lon="5.27255">
        <ele>84</ele>
        <time>2024-11-26T08:50:53.367+00:00</time>
      </trkpt>
      <trkpt lat="43.34797" lon="5.27251">
        <ele>84</ele>
        <time>2024-11-26T08:50:57.869+00:00</time>
      </trkpt>
      <trkpt lat="43.34792" lon="5.27245">
        <ele>84</ele>
        <time>2024-11-26T08:51:02.869+00:00</time>
      </trkpt>
      <trkpt lat="43.34788" lon="5.2724">
        <ele>82</ele>
        <time>2024-11-26T08:51:07.748+00:00</time>
      </trkpt>
      <trkpt lat="43.34786" lon="5.27236">
        <ele>84</ele>
        <time>2024-11-26T08:51:11.869+00:00</time>
      </trkpt>
      <trkpt lat="43.34785" lon="5.27231">
        <ele>84</ele>
        <time>2024-11-26T08:51:16.869+00:00</time>
      </trkpt>
      <trkpt lat="43.34785" lon="5.2723">
        <ele>84</ele>
        <time>2024-11-26T08:51:21.590+00:00</time>
      </trkpt>
      <trkpt lat="43.34784" lon="5.27227">
        <ele>84</ele>
        <time>2024-11-26T08:51:25.688+00:00</time>
      </trkpt>
      <trkpt lat="43.34782" lon="5.27223">
        <ele>84</ele>
        <time>2024-11-26T08:51:29.869+00:00</time>
      </trkpt>
      <trkpt lat="43.34781" lon="5.2722">
        <ele>84</ele>
        <time>2024-11-26T08:51:34.365+00:00</time>
      </trkpt>
      <trkpt lat="43.34779" lon="5.27217">
        <ele>84</ele>
        <time>2024-11-26T08:51:38.572+00:00</time>
      </trkpt>
      <trkpt lat="43.34778" lon="5.27212">
        <ele>84</ele>
        <time>2024-11-26T08:51:42.868+00:00</time>
      </trkpt>
      <trkpt lat="43.34775" lon="5.27206">
        <ele>84</ele>
        <time>2024-11-26T08:51:47.388+00:00</time>
      </trkpt>
      <trkpt lat="43.34772" lon="5.27196">
        <ele>84</ele>
        <time>2024-11-26T08:51:56.869+00:00</time>
      </trkpt>
      <trkpt lat="43.34772" lon="5.27195">
        <ele>84</ele>
        <time>2024-11-26T08:52:01.869+00:00</time>
      </trkpt>
      <trkpt lat="43.34773" lon="5.27192">
        <ele>84</ele>
        <time>2024-11-26T08:52:06.869+00:00</time>
      </trkpt>
      <trkpt lat="43.34774" lon="5.2719">
        <ele>84</ele>
        <time>2024-11-26T08:52:11.868+00:00</time>
      </trkpt>
      <trkpt lat="43.34776" lon="5.27188">
        <ele>84</ele>
        <time>2024-11-26T08:52:16.373+00:00</time>
      </trkpt>
      <trkpt lat="43.34775" lon="5.27185">
        <ele>84</ele>
        <time>2024-11-26T08:52:30.828+00:00</time>
      </trkpt>
      <trkpt lat="43.34772" lon="5.27185">
        <ele>84</ele>
        <time>2024-11-26T08:52:35.726+00:00</time>
      </trkpt>
      <trkpt lat="43.3477" lon="5.27182">
        <ele>84</ele>
        <time>2024-11-26T08:52:40.531+00:00</time>
      </trkpt>
      <trkpt lat="43.34768" lon="5.27182">
        <ele>84</ele>
        <time>2024-11-26T08:52:44.653+00:00</time>
      </trkpt>
      <trkpt lat="43.34765" lon="5.27181">
        <ele>84</ele>
        <time>2024-11-26T08:52:48.709+00:00</time>
      </trkpt>
      <trkpt lat="43.34764" lon="5.27179">
        <ele>86</ele>
        <time>2024-11-26T08:52:52.853+00:00</time>
      </trkpt>
      <trkpt lat="43.34764" lon="5.27178">
        <ele>81</ele>
        <time>2024-11-26T08:52:56.869+00:00</time>
      </trkpt>
      <trkpt lat="43.34763" lon="5.27173">
        <ele>81</ele>
        <time>2024-11-26T08:53:01.490+00:00</time>
      </trkpt>
      <trkpt lat="43.34762" lon="5.27168">
        <ele>81</ele>
        <time>2024-11-26T08:53:05.868+00:00</time>
      </trkpt>
      <trkpt lat="43.34759" lon="5.27165">
        <ele>81</ele>
        <time>2024-11-26T08:53:10.390+00:00</time>
      </trkpt>
      <trkpt lat="43.34756" lon="5.27163">
        <ele>81</ele>
        <time>2024-11-26T08:53:14.869+00:00</time>
      </trkpt>
      <trkpt lat="43.34754" lon="5.27157">
        <ele>81</ele>
        <time>2024-11-26T08:53:19.368+00:00</time>
      </trkpt>
      <trkpt lat="43.34752" lon="5.27153">
        <ele>81</ele>
        <time>2024-11-26T08:53:23.532+00:00</time>
      </trkpt>
      <trkpt lat="43.34748" lon="5.27155">
        <ele>81</ele>
        <time>2024-11-26T08:53:27.869+00:00</time>
      </trkpt>
      <trkpt lat="43.3474" lon="5.27159">
        <ele>81</ele>
        <time>2024-11-26T08:54:05.833+00:00</time>
      </trkpt>
      <trkpt lat="43.34739" lon="5.27159">
        <ele>81</ele>
        <time>2024-11-26T08:54:09.869+00:00</time>
      </trkpt>
      <trkpt lat="43.34736" lon="5.27159">
        <ele>73</ele>
        <time>2024-11-26T08:54:14.572+00:00</time>
      </trkpt>
      <trkpt lat="43.34734" lon="5.27161">
        <ele>73</ele>
        <time>2024-11-26T08:54:18.729+00:00</time>
      </trkpt>
      <trkpt lat="43.34733" lon="5.27164">
        <ele>73</ele>
        <time>2024-11-26T08:54:22.772+00:00</time>
      </trkpt>
      <trkpt lat="43.34735" lon="5.27166">
        <ele>73</ele>
        <time>2024-11-26T08:54:27.169+00:00</time>
      </trkpt>
      <trkpt lat="43.34733" lon="5.27172">
        <ele>73</ele>
        <time>2024-11-26T08:54:31.588+00:00</time>
      </trkpt>
      <trkpt lat="43.34734" lon="5.27175">
        <ele>73</ele>
        <time>2024-11-26T08:54:35.632+00:00</time>
      </trkpt>
      <trkpt lat="43.34733" lon="5.27175">
        <ele>73</ele>
        <time>2024-11-26T08:54:39.868+00:00</time>
      </trkpt>
      <trkpt lat="43.34731" lon="5.27179">
        <ele>73</ele>
        <time>2024-11-26T08:54:44.730+00:00</time>
      </trkpt>
      <trkpt lat="43.34726" lon="5.27175">
        <ele>73</ele>
        <time>2024-11-26T08:55:02.869+00:00</time>
      </trkpt>
      <trkpt lat="43.34724" lon="5.27177">
        <ele>73</ele>
        <time>2024-11-26T08:55:07.869+00:00</time>
      </trkpt>
      <trkpt lat="43.34722" lon="5.27176">
        <ele>73</ele>
        <time>2024-11-26T08:55:12.692+00:00</time>
      </trkpt>
      <trkpt lat="43.34722" lon="5.27176">
        <ele>73</ele>
        <time>2024-11-26T08:55:16.868+00:00</time>
      </trkpt>
      <trkpt lat="43.34721" lon="5.27174">
        <ele>73</ele>
        <time>2024-11-26T08:55:21.173+00:00</time>
      </trkpt>
      <trkpt lat="43.34718" lon="5.27166">
        <ele>73</ele>
        <time>2024-11-26T08:55:36.869+00:00</time>
      </trkpt>
      <trkpt lat="43.34718" lon="5.27166">
        <ele>73</ele>
        <time>2024-11-26T08:55:41.329+00:00</time>
      </trkpt>
      <trkpt lat="43.34717" lon="5.27165">
        <ele>73</ele>
        <time>2024-11-26T08:55:45.888+00:00</time>
      </trkpt>
      <trkpt lat="43.34711" lon="5.27163">
        <ele>73</ele>
        <time>2024-11-26T08:55:50.869+00:00</time>
      </trkpt>
      <trkpt lat="43.34707" lon="5.27161">
        <ele>61</ele>
        <time>2024-11-26T08:55:55.247+00:00</time>
      </trkpt>
      <trkpt lat="43.34705" lon="5.27154">
        <ele>61</ele>
        <time>2024-11-26T08:55:59.869+00:00</time>
      </trkpt>
      <trkpt lat="43.34702" lon="5.27149">
        <ele>68</ele>
        <time>2024-11-26T08:56:04.327+00:00</time>
      </trkpt>
      <trkpt lat="43.34699" lon="5.27146">
        <ele>68</ele>
        <time>2024-11-26T08:56:08.869+00:00</time>
      </trkpt>
      <trkpt lat="43.34695" lon="5.27146">
        <ele>68</ele>
        <time>2024-11-26T08:56:13.550+00:00</time>
      </trkpt>
      <trkpt lat="43.34692" lon="5.27146">
        <ele>68</ele>
        <time>2024-11-26T08:56:17.869+00:00</time>
      </trkpt>
      <trkpt lat="43.34688" lon="5.27145">
        <ele>68</ele>
        <time>2024-11-26T08:56:22.869+00:00</time>
      </trkpt>
      <trkpt lat="43.34684" lon="5.27145">
        <ele>68</ele>
        <time>2024-11-26T08:56:27.185+00:00</time>
      </trkpt>
      <trkpt lat="43.34682" lon="5.27147">
        <ele>68</ele>
        <time>2024-11-26T08:56:31.333+00:00</time>
      </trkpt>
      <trkpt lat="43.34675" lon="5.27145">
        <ele>57</ele>
        <time>2024-11-26T08:56:55.587+00:00</time>
      </trkpt>
      <trkpt lat="43.34673" lon="5.27144">
        <ele>57</ele>
        <time>2024-11-26T08:56:59.867+00:00</time>
      </trkpt>
      <trkpt lat="43.34672" lon="5.27143">
        <ele>57</ele>
        <time>2024-11-26T08:57:04.868+00:00</time>
      </trkpt>
      <trkpt lat="43.34671" lon="5.27143">
        <ele>57</ele>
        <time>2024-11-26T08:57:10.392+00:00</time>
      </trkpt>
      <trkpt lat="43.34669" lon="5.27141">
        <ele>57</ele>
        <time>2024-11-26T08:57:14.412+00:00</time>
      </trkpt>
      <trkpt lat="43.34667" lon="5.2714">
        <ele>57</ele>
        <time>2024-11-26T08:57:18.868+00:00</time>
      </trkpt>
      <trkpt lat="43.34664" lon="5.27137">
        <ele>57</ele>
        <time>2024-11-26T08:57:23.501+00:00</time>
      </trkpt>
      <trkpt lat="43.34661" lon="5.27134">
        <ele>57</ele>
        <time>2024-11-26T08:57:27.750+00:00</time>
      </trkpt>
      <trkpt lat="43.34657" lon="5.27127">
        <ele>57</ele>
        <time>2024-11-26T08:57:32.750+00:00</time>
      </trkpt>
      <trkpt lat="43.34654" lon="5.27121">
        <ele>67</ele>
        <time>2024-11-26T08:57:37.828+00:00</time>
      </trkpt>
      <trkpt lat="43.34652" lon="5.27117">
        <ele>58</ele>
        <time>2024-11-26T08:57:42.249+00:00</time>
      </trkpt>
      <trkpt lat="43.34648" lon="5.27116">
        <ele>58</ele>
        <time>2024-11-26T08:57:46.868+00:00</time>
      </trkpt>
      <trkpt lat="43.34645" lon="5.27118">
        <ele>58</ele>
        <time>2024-11-26T08:57:51.868+00:00</time>
      </trkpt>
      <trkpt lat="43.34642" lon="5.27121">
        <ele>58</ele>
        <time>2024-11-26T08:57:56.868+00:00</time>
      </trkpt>
      <trkpt lat="43.34638" lon="5.27119">
        <ele>58</ele>
        <time>2024-11-26T08:58:01.551+00:00</time>
      </trkpt>
      <trkpt lat="43.34635" lon="5.2712">
        <ele>58</ele>
        <time>2024-11-26T08:58:05.852+00:00</time>
      </trkpt>
      <trkpt lat="43.34632" lon="5.2712">
        <ele>58</ele>
        <time>2024-11-26T08:58:10.868+00:00</time>
      </trkpt>
      <trkpt lat="43.3463" lon="5.27122">
        <ele>58</ele>
        <time>2024-11-26T08:58:15.868+00:00</time>
      </trkpt>
      <trkpt lat="43.34627" lon="5.27122">
        <ele>58</ele>
        <time>2024-11-26T08:58:20.868+00:00</time>
      </trkpt>
      <trkpt lat="43.34621" lon="5.27124">
        <ele>56</ele>
        <time>2024-11-26T08:58:25.868+00:00</time>
      </trkpt>
      <trkpt lat="43.34619" lon="5.27126">
        <ele>42</ele>
        <time>2024-11-26T08:58:30.447+00:00</time>
      </trkpt>
      <trkpt lat="43.34611" lon="5.27125">
        <ele>56</ele>
        <time>2024-11-26T08:58:34.868+00:00</time>
      </trkpt>
      <trkpt lat="43.34608" lon="5.27126">
        <ele>42</ele>
        <time>2024-11-26T08:58:39.404+00:00</time>
      </trkpt>
      <trkpt lat="43.34604" lon="5.27126">
        <ele>42</ele>
        <time>2024-11-26T08:58:43.867+00:00</time>
      </trkpt>
      <trkpt lat="43.346" lon="5.27126">
        <ele>42</ele>
        <time>2024-11-26T08:58:48.246+00:00</time>
      </trkpt>
      <trkpt lat="43.34597" lon="5.27125">
        <ele>56</ele>
        <time>2024-11-26T08:58:52.753+00:00</time>
      </trkpt>
      <trkpt lat="43.34595" lon="5.27126">
        <ele>33</ele>
        <time>2024-11-26T08:58:56.805+00:00</time>
      </trkpt>
      <trkpt lat="43.34593" lon="5.27125">
        <ele>33</ele>
        <time>2024-11-26T08:59:00.851+00:00</time>
      </trkpt>
      <trkpt lat="43.3459" lon="5.27125">
        <ele>47</ele>
        <time>2024-11-26T08:59:05.391+00:00</time>
      </trkpt>
      <trkpt lat="43.34587" lon="5.27125">
        <ele>33</ele>
        <time>2024-11-26T08:59:09.691+00:00</time>
      </trkpt>
      <trkpt lat="43.34582" lon="5.27125">
        <ele>33</ele>
        <time>2024-11-26T08:59:13.868+00:00</time>
      </trkpt>
      <trkpt lat="43.34578" lon="5.27119">
        <ele>47</ele>
        <time>2024-11-26T08:59:18.233+00:00</time>
      </trkpt>
      <trkpt lat="43.34575" lon="5.27115">
        <ele>47</ele>
        <time>2024-11-26T08:59:22.868+00:00</time>
      </trkpt>
      <trkpt lat="43.34571" lon="5.27114">
        <ele>47</ele>
        <time>2024-11-26T08:59:27.834+00:00</time>
      </trkpt>
      <trkpt lat="43.34566" lon="5.27107">
        <ele>36</ele>
        <time>2024-11-26T08:59:36.342+00:00</time>
      </trkpt>
      <trkpt lat="43.34567" lon="5.27105">
        <ele>36</ele>
        <time>2024-11-26T08:59:40.771+00:00</time>
      </trkpt>
      <trkpt lat="43.34568" lon="5.27102">
        <ele>36</ele>
        <time>2024-11-26T08:59:44.868+00:00</time>
      </trkpt>
      <trkpt lat="43.34568" lon="5.27098">
        <ele>36</ele>
        <time>2024-11-26T08:59:49.868+00:00</time>
      </trkpt>
      <trkpt lat="43.34568" lon="5.27097">
        <ele>55</ele>
        <time>2024-11-26T08:59:55.868+00:00</time>
      </trkpt>
      <trkpt lat="43.34567" lon="5.2709">
        <ele>55</ele>
        <time>2024-11-26T09:01:27.868+00:00</time>
      </trkpt>
      <trkpt lat="43.34565" lon="5.2709">
        <ele>55</ele>
        <time>2024-11-26T09:01:32.273+00:00</time>
      </trkpt>
      <trkpt lat="43.34564" lon="5.2709">
        <ele>55</ele>
        <time>2024-11-26T09:01:36.868+00:00</time>
      </trkpt>
      <trkpt lat="43.34562" lon="5.27091">
        <ele>55</ele>
        <time>2024-11-26T09:01:41.868+00:00</time>
      </trkpt>
      <trkpt lat="43.34559" lon="5.27091">
        <ele>55</ele>
        <time>2024-11-26T09:01:45.867+00:00</time>
      </trkpt>
      <trkpt lat="43.34555" lon="5.27097">
        <ele>55</ele>
        <time>2024-11-26T09:03:28.867+00:00</time>
      </trkpt>
      <trkpt lat="43.34554" lon="5.27096">
        <ele>55</ele>
        <time>2024-11-26T09:03:33.167+00:00</time>
      </trkpt>
      <trkpt lat="43.34549" lon="5.2709">
        <ele>55</ele>
        <time>2024-11-26T09:03:37.441+00:00</time>
      </trkpt>
      <trkpt lat="43.34548" lon="5.2709">
        <ele>55</ele>
        <time>2024-11-26T09:03:41.435+00:00</time>
      </trkpt>
      <trkpt lat="43.34547" lon="5.27086">
        <ele>55</ele>
        <time>2024-11-26T09:03:45.499+00:00</time>
      </trkpt>
      <trkpt lat="43.34536" lon="5.27083">
        <ele>37</ele>
        <time>2024-11-26T09:04:40.699+00:00</time>
      </trkpt>
      <trkpt lat="43.34536" lon="5.27082">
        <ele>37</ele>
        <time>2024-11-26T09:04:45.639+00:00</time>
      </trkpt>
      <trkpt lat="43.34534" lon="5.2708">
        <ele>37</ele>
        <time>2024-11-26T09:04:49.866+00:00</time>
      </trkpt>
      <trkpt lat="43.34533" lon="5.27075">
        <ele>37</ele>
        <time>2024-11-26T09:04:54.121+00:00</time>
      </trkpt>
      <trkpt lat="43.34532" lon="5.27073">
        <ele>37</ele>
        <time>2024-11-26T09:04:58.568+00:00</time>
      </trkpt>
      <trkpt lat="43.34527" lon="5.2707">
        <ele>37</ele>
        <time>2024-11-26T09:05:49.866+00:00</time>
      </trkpt>
      <trkpt lat="43.34526" lon="5.27069">
        <ele>51</ele>
        <time>2024-11-26T09:05:54.568+00:00</time>
      </trkpt>
      <trkpt lat="43.34525" lon="5.27068">
        <ele>51</ele>
        <time>2024-11-26T09:05:58.689+00:00</time>
      </trkpt>
      <trkpt lat="43.34525" lon="5.27068">
        <ele>51</ele>
        <time>2024-11-26T09:06:02.867+00:00</time>
      </trkpt>
      <trkpt lat="43.34523" lon="5.27067">
        <ele>51</ele>
        <time>2024-11-26T09:06:07.307+00:00</time>
      </trkpt>
      <trkpt lat="43.34518" lon="5.27061">
        <ele>51</ele>
        <time>2024-11-26T09:07:24.867+00:00</time>
      </trkpt>
      <trkpt lat="43.34518" lon="5.2706">
        <ele>51</ele>
        <time>2024-11-26T09:07:28.867+00:00</time>
      </trkpt>
      <trkpt lat="43.34518" lon="5.2706">
        <ele>51</ele>
        <time>2024-11-26T09:07:33.866+00:00</time>
      </trkpt>
      <trkpt lat="43.34517" lon="5.27057">
        <ele>51</ele>
        <time>2024-11-26T09:07:38.825+00:00</time>
      </trkpt>
      <trkpt lat="43.34518" lon="5.27052">
        <ele>51</ele>
        <time>2024-11-26T09:07:43.306+00:00</time>
      </trkpt>
      <trkpt lat="43.34516" lon="5.27047">
        <ele>51</ele>
        <time>2024-11-26T09:07:47.828+00:00</time>
      </trkpt>
      <trkpt lat="43.34515" lon="5.27045">
        <ele>51</ele>
        <time>2024-11-26T09:07:52.867+00:00</time>
      </trkpt>
      <trkpt lat="43.34513" lon="5.27045">
        <ele>28</ele>
        <time>2024-11-26T09:07:57.642+00:00</time>
      </trkpt>
      <trkpt lat="43.34508" lon="5.27046">
        <ele>28</ele>
        <time>2024-11-26T09:08:01.867+00:00</time>
      </trkpt>
      <trkpt lat="43.34506" lon="5.27047">
        <ele>28</ele>
        <time>2024-11-26T09:08:05.867+00:00</time>
      </trkpt>
      <trkpt lat="43.34504" lon="5.27044">
        <ele>28</ele>
        <time>2024-11-26T09:08:24.480+00:00</time>
      </trkpt>
      <trkpt lat="43.34504" lon="5.27042">
        <ele>28</ele>
        <time>2024-11-26T09:08:28.888+00:00</time>
      </trkpt>
      <trkpt lat="43.34504" lon="5.27041">
        <ele>37</ele>
        <time>2024-11-26T09:08:33.530+00:00</time>
      </trkpt>
      <trkpt lat="43.34501" lon="5.27035">
        <ele>37</ele>
        <time>2024-11-26T09:08:38.343+00:00</time>
      </trkpt>
      <trkpt lat="43.34501" lon="5.27031">
        <ele>37</ele>
        <time>2024-11-26T09:08:42.867+00:00</time>
      </trkpt>
      <trkpt lat="43.345" lon="5.27028">
        <ele>37</ele>
        <time>2024-11-26T09:08:47.867+00:00</time>
      </trkpt>
      <trkpt lat="43.345" lon="5.27025">
        <ele>37</ele>
        <time>2024-11-26T09:08:52.287+00:00</time>
      </trkpt>
      <trkpt lat="43.34501" lon="5.27022">
        <ele>37</ele>
        <time>2024-11-26T09:08:56.587+00:00</time>
      </trkpt>
      <trkpt lat="43.34501" lon="5.27021">
        <ele>37</ele>
        <time>2024-11-26T09:09:01.562+00:00</time>
      </trkpt>
      <trkpt lat="43.345" lon="5.27015">
        <ele>37</ele>
        <time>2024-11-26T09:09:05.866+00:00</time>
      </trkpt>
      <trkpt lat="43.34492" lon="5.27017">
        <ele>37</ele>
        <time>2024-11-26T09:09:23.706+00:00</time>
      </trkpt>
      <trkpt lat="43.34491" lon="5.27012">
        <ele>46</ele>
        <time>2024-11-26T09:09:28.263+00:00</time>
      </trkpt>
      <trkpt lat="43.34489" lon="5.27008">
        <ele>46</ele>
        <time>2024-11-26T09:09:32.591+00:00</time>
      </trkpt>
      <trkpt lat="43.34487" lon="5.27003">
        <ele>46</ele>
        <time>2024-11-26T09:09:36.626+00:00</time>
      </trkpt>
      <trkpt lat="43.34486" lon="5.27">
        <ele>29</ele>
        <time>2024-11-26T09:09:40.866+00:00</time>
      </trkpt>
      <trkpt lat="43.34485" lon="5.27">
        <ele>29</ele>
        <time>2024-11-26T09:09:43.866+00:00</time>
      </trkpt>
      <trkpt lat="43.34484" lon="5.26998">
        <ele>29</ele>
        <time>2024-11-26T09:09:52.566+00:00</time>
      </trkpt>
      <trkpt lat="43.3448" lon="5.26994">
        <ele>29</ele>
        <time>2024-11-26T09:09:56.688+00:00</time>
      </trkpt>
      <trkpt lat="43.34476" lon="5.26992">
        <ele>29</ele>
        <time>2024-11-26T09:10:00.866+00:00</time>
      </trkpt>
      <trkpt lat="43.34473" lon="5.26992">
        <ele>29</ele>
        <time>2024-11-26T09:10:05.323+00:00</time>
      </trkpt>
      <trkpt lat="43.3447" lon="5.26991">
        <ele>29</ele>
        <time>2024-11-26T09:10:09.866+00:00</time>
      </trkpt>
      <trkpt lat="43.34467" lon="5.26989">
        <ele>29</ele>
        <time>2024-11-26T09:10:14.866+00:00</time>
      </trkpt>
      <trkpt lat="43.34463" lon="5.26987">
        <ele>29</ele>
        <time>2024-11-26T09:10:19.121+00:00</time>
      </trkpt>
      <trkpt lat="43.34465" lon="5.26988">
        <ele>29</ele>
        <time>2024-11-26T09:10:23.865+00:00</time>
      </trkpt>
      <trkpt lat="43.34465" lon="5.26987">
        <ele>29</ele>
        <time>2024-11-26T09:10:27.866+00:00</time>
      </trkpt>
      <trkpt lat="43.34461" lon="5.26985">
        <ele>38</ele>
        <time>2024-11-26T09:10:32.502+00:00</time>
      </trkpt>
      <trkpt lat="43.34459" lon="5.26979">
        <ele>38</ele>
        <time>2024-11-26T09:10:36.866+00:00</time>
      </trkpt>
      <trkpt lat="43.34457" lon="5.26971">
        <ele>25</ele>
        <time>2024-11-26T09:11:09.486+00:00</time>
      </trkpt>
      <trkpt lat="43.34457" lon="5.26969">
        <ele>25</ele>
        <time>2024-11-26T09:11:14.648+00:00</time>
      </trkpt>
      <trkpt lat="43.34456" lon="5.26968">
        <ele>25</ele>
        <time>2024-11-26T09:11:18.808+00:00</time>
      </trkpt>
      <trkpt lat="43.34456" lon="5.26966">
        <ele>25</ele>
        <time>2024-11-26T09:11:22.866+00:00</time>
      </trkpt>
      <trkpt lat="43.34457" lon="5.26961">
        <ele>25</ele>
        <time>2024-11-26T09:11:27.532+00:00</time>
      </trkpt>
      <trkpt lat="43.34453" lon="5.26947">
        <ele>28</ele>
        <time>2024-11-26T09:13:33.772+00:00</time>
      </trkpt>
      <trkpt lat="43.34453" lon="5.26943">
        <ele>28</ele>
        <time>2024-11-26T09:13:38.676+00:00</time>
      </trkpt>
      <trkpt lat="43.34453" lon="5.2694">
        <ele>28</ele>
        <time>2024-11-26T09:13:42.866+00:00</time>
      </trkpt>
      <trkpt lat="43.34453" lon="5.26939">
        <ele>28</ele>
        <time>2024-11-26T09:13:46.866+00:00</time>
      </trkpt>
      <trkpt lat="43.34453" lon="5.26938">
        <ele>28</ele>
        <time>2024-11-26T09:13:50.866+00:00</time>
      </trkpt>
      <trkpt lat="43.34452" lon="5.26936">
        <ele>28</ele>
        <time>2024-11-26T09:14:32.866+00:00</time>
      </trkpt>
      <trkpt lat="43.34451" lon="5.26936">
        <ele>28</ele>
        <time>2024-11-26T09:14:37.746+00:00</time>
      </trkpt>
      <trkpt lat="43.34451" lon="5.26938">
        <ele>28</ele>
        <time>2024-11-26T09:14:41.866+00:00</time>
      </trkpt>
      <trkpt lat="43.34452" lon="5.26944">
        <ele>28</ele>
        <time>2024-11-26T09:14:45.866+00:00</time>
      </trkpt>
      <trkpt lat="43.34456" lon="5.2695">
        <ele>28</ele>
        <time>2024-11-26T09:14:50.766+00:00</time>
      </trkpt>
      <trkpt lat="43.34461" lon="5.26952">
        <ele>44</ele>
        <time>2024-11-26T09:14:55.749+00:00</time>
      </trkpt>
      <trkpt lat="43.34461" lon="5.26954">
        <ele>44</ele>
        <time>2024-11-26T09:15:00.724+00:00</time>
      </trkpt>
      <trkpt lat="43.34466" lon="5.26948">
        <ele>44</ele>
        <time>2024-11-26T09:15:04.865+00:00</time>
      </trkpt>
      <trkpt lat="43.3447" lon="5.26939">
        <ele>44</ele>
        <time>2024-11-26T09:15:09.643+00:00</time>
      </trkpt>
      <trkpt lat="43.34475" lon="5.2694">
        <ele>44</ele>
        <time>2024-11-26T09:15:13.688+00:00</time>
      </trkpt>
      <trkpt lat="43.34476" lon="5.26944">
        <ele>44</ele>
        <time>2024-11-26T09:15:18.067+00:00</time>
      </trkpt>
      <trkpt lat="43.34478" lon="5.26951">
        <ele>44</ele>
        <time>2024-11-26T09:15:22.503+00:00</time>
      </trkpt>
      <trkpt lat="43.34477" lon="5.26954">
        <ele>44</ele>
        <time>2024-11-26T09:15:26.805+00:00</time>
      </trkpt>
      <trkpt lat="43.34476" lon="5.26951">
        <ele>44</ele>
        <time>2024-11-26T09:15:56.809+00:00</time>
      </trkpt>
      <trkpt lat="43.34473" lon="5.26951">
        <ele>44</ele>
        <time>2024-11-26T09:16:01.446+00:00</time>
      </trkpt>
      <trkpt lat="43.3447" lon="5.26953">
        <ele>44</ele>
        <time>2024-11-26T09:16:06.865+00:00</time>
      </trkpt>
      <trkpt lat="43.34468" lon="5.26953">
        <ele>44</ele>
        <time>2024-11-26T09:16:11.470+00:00</time>
      </trkpt>
      <trkpt lat="43.34467" lon="5.26953">
        <ele>44</ele>
        <time>2024-11-26T09:16:15.865+00:00</time>
      </trkpt>
      <trkpt lat="43.34469" lon="5.26953">
        <ele>44</ele>
        <time>2024-11-26T09:22:58.864+00:00</time>
      </trkpt>
      <trkpt lat="43.34468" lon="5.26955">
        <ele>44</ele>
        <time>2024-11-26T09:23:03.299+00:00</time>
      </trkpt>
      <trkpt lat="43.34462" lon="5.26958">
        <ele>44</ele>
        <time>2024-11-26T09:23:07.344+00:00</time>
      </trkpt>
      <trkpt lat="43.34459" lon="5.26954">
        <ele>44</ele>
        <time>2024-11-26T09:23:11.864+00:00</time>
      </trkpt>
      <trkpt lat="43.34457" lon="5.26953">
        <ele>28</ele>
        <time>2024-11-26T09:23:16.526+00:00</time>
      </trkpt>
      <trkpt lat="43.34452" lon="5.26956">
        <ele>28</ele>
        <time>2024-11-26T09:23:20.698+00:00</time>
      </trkpt>
      <trkpt lat="43.34449" lon="5.26955">
        <ele>28</ele>
        <time>2024-11-26T09:23:24.864+00:00</time>
      </trkpt>
      <trkpt lat="43.34444" lon="5.26953">
        <ele>28</ele>
        <time>2024-11-26T09:23:29.325+00:00</time>
      </trkpt>
      <trkpt lat="43.34442" lon="5.26948">
        <ele>28</ele>
        <time>2024-11-26T09:23:33.387+00:00</time>
      </trkpt>
      <trkpt lat="43.34444" lon="5.26949">
        <ele>28</ele>
        <time>2024-11-26T09:23:37.864+00:00</time>
      </trkpt>
      <trkpt lat="43.34444" lon="5.26949">
        <ele>28</ele>
        <time>2024-11-26T09:23:42.499+00:00</time>
      </trkpt>
      <trkpt lat="43.34442" lon="5.26949">
        <ele>28</ele>
        <time>2024-11-26T09:23:46.864+00:00</time>
      </trkpt>
      <trkpt lat="43.34443" lon="5.26925">
        <ele>29</ele>
        <time>2024-11-26T09:23:51.383+00:00</time>
      </trkpt>
      <trkpt lat="43.34444" lon="5.26918">
        <ele>29</ele>
        <time>2024-11-26T09:23:55.623+00:00</time>
      </trkpt>
      <trkpt lat="43.34443" lon="5.26913">
        <ele>29</ele>
        <time>2024-11-26T09:24:00.419+00:00</time>
      </trkpt>
      <trkpt lat="43.34443" lon="5.26908">
        <ele>29</ele>
        <time>2024-11-26T09:24:04.626+00:00</time>
      </trkpt>
      <trkpt lat="43.34445" lon="5.26906">
        <ele>29</ele>
        <time>2024-11-26T09:24:09.864+00:00</time>
      </trkpt>
      <trkpt lat="43.34446" lon="5.26905">
        <ele>29</ele>
        <time>2024-11-26T09:24:14.379+00:00</time>
      </trkpt>
      <trkpt lat="43.34447" lon="5.26902">
        <ele>28</ele>
        <time>2024-11-26T09:24:18.483+00:00</time>
      </trkpt>
      <trkpt lat="43.34446" lon="5.26898">
        <ele>28</ele>
        <time>2024-11-26T09:24:22.864+00:00</time>
      </trkpt>
      <trkpt lat="43.34447" lon="5.26896">
        <ele>28</ele>
        <time>2024-11-26T09:24:27.684+00:00</time>
      </trkpt>
      <trkpt lat="43.34448" lon="5.26892">
        <ele>28</ele>
        <time>2024-11-26T09:24:32.204+00:00</time>
      </trkpt>
      <trkpt lat="43.34449" lon="5.26887">
        <ele>28</ele>
        <time>2024-11-26T09:24:36.864+00:00</time>
      </trkpt>
      <trkpt lat="43.34451" lon="5.26885">
        <ele>28</ele>
        <time>2024-11-26T09:24:41.300+00:00</time>
      </trkpt>
      <trkpt lat="43.34452" lon="5.26882">
        <ele>28</ele>
        <time>2024-11-26T09:24:45.345+00:00</time>
      </trkpt>
      <trkpt lat="43.34453" lon="5.2688">
        <ele>28</ele>
        <time>2024-11-26T09:24:49.738+00:00</time>
      </trkpt>
      <trkpt lat="43.34454" lon="5.26876">
        <ele>28</ele>
        <time>2024-11-26T09:24:53.758+00:00</time>
      </trkpt>
      <trkpt lat="43.34454" lon="5.26871">
        <ele>27</ele>
        <time>2024-11-26T09:24:58.341+00:00</time>
      </trkpt>
      <trkpt lat="43.34456" lon="5.26868">
        <ele>27</ele>
        <time>2024-11-26T09:25:07.822+00:00</time>
      </trkpt>
      <trkpt lat="43.34458" lon="5.26867">
        <ele>27</ele>
        <time>2024-11-26T09:25:11.864+00:00</time>
      </trkpt>
      <trkpt lat="43.34459" lon="5.26865">
        <ele>41</ele>
        <time>2024-11-26T09:25:16.226+00:00</time>
      </trkpt>
      <trkpt lat="43.34462" lon="5.26861">
        <ele>41</ele>
        <time>2024-11-26T09:25:20.864+00:00</time>
      </trkpt>
      <trkpt lat="43.34463" lon="5.26855">
        <ele>41</ele>
        <time>2024-11-26T09:25:25.782+00:00</time>
      </trkpt>
      <trkpt lat="43.34461" lon="5.2685">
        <ele>41</ele>
        <time>2024-11-26T09:25:30.680+00:00</time>
      </trkpt>
      <trkpt lat="43.34461" lon="5.26843">
        <ele>47</ele>
        <time>2024-11-26T09:25:35.864+00:00</time>
      </trkpt>
      <trkpt lat="43.34459" lon="5.26842">
        <ele>47</ele>
        <time>2024-11-26T09:25:40.864+00:00</time>
      </trkpt>
      <trkpt lat="43.3446" lon="5.26841">
        <ele>47</ele>
        <time>2024-11-26T09:25:45.383+00:00</time>
      </trkpt>
      <trkpt lat="43.34458" lon="5.26834">
        <ele>47</ele>
        <time>2024-11-26T09:25:49.864+00:00</time>
      </trkpt>
      <trkpt lat="43.34457" lon="5.26826">
        <ele>27</ele>
        <time>2024-11-26T09:25:54.864+00:00</time>
      </trkpt>
      <trkpt lat="43.34457" lon="5.26821">
        <ele>27</ele>
        <time>2024-11-26T09:25:59.864+00:00</time>
      </trkpt>
      <trkpt lat="43.34457" lon="5.26814">
        <ele>33</ele>
        <time>2024-11-26T09:26:04.719+00:00</time>
      </trkpt>
      <trkpt lat="43.34457" lon="5.2681">
        <ele>33</ele>
        <time>2024-11-26T09:26:09.104+00:00</time>
      </trkpt>
      <trkpt lat="43.34457" lon="5.26804">
        <ele>33</ele>
        <time>2024-11-26T09:26:13.678+00:00</time>
      </trkpt>
      <trkpt lat="43.34457" lon="5.268">
        <ele>33</ele>
        <time>2024-11-26T09:26:17.739+00:00</time>
      </trkpt>
      <trkpt lat="43.34455" lon="5.26793">
        <ele>33</ele>
        <time>2024-11-26T09:26:22.799+00:00</time>
      </trkpt>
      <trkpt lat="43.34453" lon="5.26789">
        <ele>40</ele>
        <time>2024-11-26T09:26:26.864+00:00</time>
      </trkpt>
      <trkpt lat="43.3445" lon="5.26778">
        <ele>40</ele>
        <time>2024-11-26T09:26:46.864+00:00</time>
      </trkpt>
      <trkpt lat="43.3445" lon="5.26777">
        <ele>40</ele>
        <time>2024-11-26T09:26:51.864+00:00</time>
      </trkpt>
      <trkpt lat="43.34449" lon="5.26776">
        <ele>40</ele>
        <time>2024-11-26T09:27:05.863+00:00</time>
      </trkpt>
      <trkpt lat="43.34445" lon="5.26775">
        <ele>40</ele>
        <time>2024-11-26T09:27:10.523+00:00</time>
      </trkpt>
      <trkpt lat="43.34442" lon="5.26772">
        <ele>40</ele>
        <time>2024-11-26T09:27:14.864+00:00</time>
      </trkpt>
      <trkpt lat="43.34439" lon="5.2677">
        <ele>40</ele>
        <time>2024-11-26T09:27:19.338+00:00</time>
      </trkpt>
      <trkpt lat="43.34437" lon="5.2677">
        <ele>40</ele>
        <time>2024-11-26T09:27:23.864+00:00</time>
      </trkpt>
      <trkpt lat="43.34435" lon="5.2677">
        <ele>40</ele>
        <time>2024-11-26T09:27:28.161+00:00</time>
      </trkpt>
      <trkpt lat="43.34432" lon="5.26768">
        <ele>40</ele>
        <time>2024-11-26T09:27:32.864+00:00</time>
      </trkpt>
      <trkpt lat="43.3443" lon="5.26765">
        <ele>24</ele>
        <time>2024-11-26T09:27:37.405+00:00</time>
      </trkpt>
      <trkpt lat="43.34431" lon="5.26765">
        <ele>40</ele>
        <time>2024-11-26T09:27:46.864+00:00</time>
      </trkpt>
      <trkpt lat="43.34427" lon="5.26764">
        <ele>29</ele>
        <time>2024-11-26T09:27:51.702+00:00</time>
      </trkpt>
      <trkpt lat="43.34425" lon="5.26765">
        <ele>24</ele>
        <time>2024-11-26T09:27:55.864+00:00</time>
      </trkpt>
      <trkpt lat="43.34422" lon="5.26762">
        <ele>29</ele>
        <time>2024-11-26T09:28:00.482+00:00</time>
      </trkpt>
      <trkpt lat="43.3442" lon="5.26761">
        <ele>29</ele>
        <time>2024-11-26T09:28:04.528+00:00</time>
      </trkpt>
      <trkpt lat="43.3441" lon="5.26758">
        <ele>29</ele>
        <time>2024-11-26T09:28:31.864+00:00</time>
      </trkpt>
      <trkpt lat="43.34409" lon="5.26757">
        <ele>29</ele>
        <time>2024-11-26T09:28:36.559+00:00</time>
      </trkpt>
      <trkpt lat="43.34406" lon="5.26755">
        <ele>29</ele>
        <time>2024-11-26T09:28:40.864+00:00</time>
      </trkpt>
      <trkpt lat="43.34404" lon="5.26754">
        <ele>29</ele>
        <time>2024-11-26T09:28:45.144+00:00</time>
      </trkpt>
      <trkpt lat="43.34403" lon="5.2675">
        <ele>29</ele>
        <time>2024-11-26T09:28:49.478+00:00</time>
      </trkpt>
      <trkpt lat="43.34406" lon="5.26744">
        <ele>29</ele>
        <time>2024-11-26T09:28:53.701+00:00</time>
      </trkpt>
      <trkpt lat="43.34408" lon="5.26739">
        <ele>29</ele>
        <time>2024-11-26T09:28:57.864+00:00</time>
      </trkpt>
      <trkpt lat="43.34412" lon="5.26731">
        <ele>34</ele>
        <time>2024-11-26T09:29:02.643+00:00</time>
      </trkpt>
      <trkpt lat="43.34412" lon="5.26723">
        <ele>34</ele>
        <time>2024-11-26T09:29:06.722+00:00</time>
      </trkpt>
      <trkpt lat="43.3441" lon="5.26715">
        <ele>34</ele>
        <time>2024-11-26T09:29:11.363+00:00</time>
      </trkpt>
      <trkpt lat="43.3441" lon="5.26709">
        <ele>34</ele>
        <time>2024-11-26T09:29:15.863+00:00</time>
      </trkpt>
      <trkpt lat="43.3441" lon="5.26702">
        <ele>40</ele>
        <time>2024-11-26T09:29:20.400+00:00</time>
      </trkpt>
      <trkpt lat="43.34408" lon="5.26698">
        <ele>40</ele>
        <time>2024-11-26T09:29:24.581+00:00</time>
      </trkpt>
      <trkpt lat="43.34407" lon="5.26692">
        <ele>40</ele>
        <time>2024-11-26T09:29:28.805+00:00</time>
      </trkpt>
      <trkpt lat="43.34405" lon="5.26684">
        <ele>40</ele>
        <time>2024-11-26T09:29:33.745+00:00</time>
      </trkpt>
      <trkpt lat="43.34403" lon="5.26678">
        <ele>46</ele>
        <time>2024-11-26T09:29:38.702+00:00</time>
      </trkpt>
      <trkpt lat="43.34401" lon="5.26671">
        <ele>30</ele>
        <time>2024-11-26T09:29:42.824+00:00</time>
      </trkpt>
      <trkpt lat="43.34399" lon="5.26665">
        <ele>30</ele>
        <time>2024-11-26T09:29:47.184+00:00</time>
      </trkpt>
      <trkpt lat="43.34396" lon="5.26659">
        <ele>30</ele>
        <time>2024-11-26T09:29:51.863+00:00</time>
      </trkpt>
      <trkpt lat="43.34392" lon="5.26653">
        <ele>30</ele>
        <time>2024-11-26T09:29:56.863+00:00</time>
      </trkpt>
      <trkpt lat="43.34392" lon="5.26648">
        <ele>37</ele>
        <time>2024-11-26T09:30:01.366+00:00</time>
      </trkpt>
      <trkpt lat="43.34383" lon="5.2664">
        <ele>37</ele>
        <time>2024-11-26T09:30:19.463+00:00</time>
      </trkpt>
      <trkpt lat="43.34381" lon="5.2664">
        <ele>37</ele>
        <time>2024-11-26T09:30:23.863+00:00</time>
      </trkpt>
      <trkpt lat="43.3438" lon="5.2664">
        <ele>37</ele>
        <time>2024-11-26T09:30:28.798+00:00</time>
      </trkpt>
      <trkpt lat="43.34379" lon="5.2664">
        <ele>37</ele>
        <time>2024-11-26T09:30:33.098+00:00</time>
      </trkpt>
      <trkpt lat="43.34378" lon="5.26641">
        <ele>37</ele>
        <time>2024-11-26T09:30:37.862+00:00</time>
      </trkpt>
      <trkpt lat="43.34373" lon="5.26634">
        <ele>23</ele>
        <time>2024-11-26T09:30:55.863+00:00</time>
      </trkpt>
      <trkpt lat="43.34374" lon="5.26632">
        <ele>23</ele>
        <time>2024-11-26T09:31:00.862+00:00</time>
      </trkpt>
      <trkpt lat="43.34372" lon="5.26626">
        <ele>23</ele>
        <time>2024-11-26T09:31:05.863+00:00</time>
      </trkpt>
      <trkpt lat="43.34369" lon="5.26624">
        <ele>25</ele>
        <time>2024-11-26T09:31:10.863+00:00</time>
      </trkpt>
      <trkpt lat="43.34366" lon="5.26623">
        <ele>25</ele>
        <time>2024-11-26T09:31:15.863+00:00</time>
      </trkpt>
      <trkpt lat="43.34365" lon="5.2662">
        <ele>25</ele>
        <time>2024-11-26T09:31:38.862+00:00</time>
      </trkpt>
      <trkpt lat="43.34365" lon="5.2662">
        <ele>25</ele>
        <time>2024-11-26T09:31:43.019+00:00</time>
      </trkpt>
      <trkpt lat="43.34364" lon="5.2662">
        <ele>25</ele>
        <time>2024-11-26T09:31:47.863+00:00</time>
      </trkpt>
      <trkpt lat="43.34363" lon="5.26618">
        <ele>25</ele>
        <time>2024-11-26T09:31:52.722+00:00</time>
      </trkpt>
      <trkpt lat="43.3436" lon="5.26614">
        <ele>25</ele>
        <time>2024-11-26T09:31:56.863+00:00</time>
      </trkpt>
      <trkpt lat="43.34356" lon="5.26611">
        <ele>25</ele>
        <time>2024-11-26T09:32:05.863+00:00</time>
      </trkpt>
      <trkpt lat="43.34357" lon="5.26609">
        <ele>25</ele>
        <time>2024-11-26T09:32:10.863+00:00</time>
      </trkpt>
      <trkpt lat="43.34357" lon="5.26607">
        <ele>25</ele>
        <time>2024-11-26T09:32:15.514+00:00</time>
      </trkpt>
      <trkpt lat="43.34358" lon="5.26604">
        <ele>25</ele>
        <time>2024-11-26T09:32:19.721+00:00</time>
      </trkpt>
      <trkpt lat="43.34359" lon="5.26599">
        <ele>25</ele>
        <time>2024-11-26T09:32:23.862+00:00</time>
      </trkpt>
      <trkpt lat="43.3436" lon="5.26598">
        <ele>25</ele>
        <time>2024-11-26T09:32:39.312+00:00</time>
      </trkpt>
      <trkpt lat="43.34361" lon="5.26597">
        <ele>27</ele>
        <time>2024-11-26T09:32:44.185+00:00</time>
      </trkpt>
      <trkpt lat="43.34361" lon="5.26595">
        <ele>27</ele>
        <time>2024-11-26T09:32:48.863+00:00</time>
      </trkpt>
      <trkpt lat="43.34362" lon="5.26587">
        <ele>27</ele>
        <time>2024-11-26T09:32:53.324+00:00</time>
      </trkpt>
      <trkpt lat="43.34358" lon="5.26577">
        <ele>27</ele>
        <time>2024-11-26T09:32:57.582+00:00</time>
      </trkpt>
      <trkpt lat="43.34351" lon="5.26567">
        <ele>31</ele>
        <time>2024-11-26T09:33:50.524+00:00</time>
      </trkpt>
      <trkpt lat="43.34351" lon="5.26566">
        <ele>31</ele>
        <time>2024-11-26T09:33:54.823+00:00</time>
      </trkpt>
      <trkpt lat="43.34348" lon="5.26566">
        <ele>31</ele>
        <time>2024-11-26T09:33:59.098+00:00</time>
      </trkpt>
      <trkpt lat="43.34345" lon="5.26565">
        <ele>22</ele>
        <time>2024-11-26T09:34:03.381+00:00</time>
      </trkpt>
      <trkpt lat="43.34342" lon="5.26563">
        <ele>22</ele>
        <time>2024-11-26T09:34:07.665+00:00</time>
      </trkpt>
      <trkpt lat="43.34339" lon="5.26563">
        <ele>22</ele>
        <time>2024-11-26T09:34:12.239+00:00</time>
      </trkpt>
      <trkpt lat="43.34338" lon="5.26564">
        <ele>22</ele>
        <time>2024-11-26T09:34:16.863+00:00</time>
      </trkpt>
      <trkpt lat="43.34336" lon="5.26564">
        <ele>22</ele>
        <time>2024-11-26T09:34:20.863+00:00</time>
      </trkpt>
      <trkpt lat="43.34335" lon="5.26562">
        <ele>22</ele>
        <time>2024-11-26T09:34:25.259+00:00</time>
      </trkpt>
      <trkpt lat="43.3433" lon="5.26563">
        <ele>22</ele>
        <time>2024-11-26T09:34:29.825+00:00</time>
      </trkpt>
      <trkpt lat="43.34326" lon="5.26559">
        <ele>22</ele>
        <time>2024-11-26T09:34:34.083+00:00</time>
      </trkpt>
      <trkpt lat="43.34325" lon="5.2656">
        <ele>22</ele>
        <time>2024-11-26T09:34:38.863+00:00</time>
      </trkpt>
      <trkpt lat="43.34324" lon="5.26561">
        <ele>22</ele>
        <time>2024-11-26T09:34:43.444+00:00</time>
      </trkpt>
      <trkpt lat="43.34321" lon="5.26563">
        <ele>22</ele>
        <time>2024-11-26T09:34:47.862+00:00</time>
      </trkpt>
      <trkpt lat="43.34317" lon="5.26563">
        <ele>15</ele>
        <time>2024-11-26T09:34:52.452+00:00</time>
      </trkpt>
      <trkpt lat="43.34317" lon="5.26563">
        <ele>15</ele>
        <time>2024-11-26T09:35:11.339+00:00</time>
      </trkpt>
      <trkpt lat="43.34317" lon="5.26557">
        <ele>15</ele>
        <time>2024-11-26T09:35:15.442+00:00</time>
      </trkpt>
      <trkpt lat="43.34315" lon="5.26552">
        <ele>15</ele>
        <time>2024-11-26T09:35:19.597+00:00</time>
      </trkpt>
      <trkpt lat="43.34312" lon="5.26549">
        <ele>15</ele>
        <time>2024-11-26T09:35:23.863+00:00</time>
      </trkpt>
      <trkpt lat="43.34309" lon="5.26545">
        <ele>15</ele>
        <time>2024-11-26T09:35:27.968+00:00</time>
      </trkpt>
      <trkpt lat="43.34311" lon="5.26534">
        <ele>19</ele>
        <time>2024-11-26T09:36:14.611+00:00</time>
      </trkpt>
      <trkpt lat="43.3431" lon="5.26533">
        <ele>19</ele>
        <time>2024-11-26T09:36:19.862+00:00</time>
      </trkpt>
      <trkpt lat="43.34311" lon="5.26533">
        <ele>19</ele>
        <time>2024-11-26T09:36:23.862+00:00</time>
      </trkpt>
      <trkpt lat="43.34311" lon="5.26532">
        <ele>19</ele>
        <time>2024-11-26T09:36:27.862+00:00</time>
      </trkpt>
      <trkpt lat="43.34312" lon="5.26531">
        <ele>19</ele>
        <time>2024-11-26T09:36:32.862+00:00</time>
      </trkpt>
      <trkpt lat="43.34312" lon="5.26529">
        <ele>19</ele>
        <time>2024-11-26T09:38:17.862+00:00</time>
      </trkpt>
      <trkpt lat="43.3431" lon="5.26527">
        <ele>19</ele>
        <time>2024-11-26T09:38:22.862+00:00</time>
      </trkpt>
      <trkpt lat="43.34307" lon="5.26523">
        <ele>19</ele>
        <time>2024-11-26T09:38:27.862+00:00</time>
      </trkpt>
      <trkpt lat="43.34303" lon="5.26521">
        <ele>19</ele>
        <time>2024-11-26T09:38:32.862+00:00</time>
      </trkpt>
      <trkpt lat="43.34301" lon="5.2652">
        <ele>19</ele>
        <time>2024-11-26T09:38:37.862+00:00</time>
      </trkpt>
      <trkpt lat="43.34299" lon="5.26521">
        <ele>19</ele>
        <time>2024-11-26T09:38:41.862+00:00</time>
      </trkpt>
      <trkpt lat="43.34298" lon="5.26518">
        <ele>19</ele>
        <time>2024-11-26T09:38:46.862+00:00</time>
      </trkpt>
      <trkpt lat="43.34293" lon="5.26517">
        <ele>19</ele>
        <time>2024-11-26T09:38:51.862+00:00</time>
      </trkpt>
      <trkpt lat="43.34291" lon="5.26517">
        <ele>24</ele>
        <time>2024-11-26T09:38:55.862+00:00</time>
      </trkpt>
      <trkpt lat="43.3429" lon="5.26517">
        <ele>24</ele>
        <time>2024-11-26T09:39:00.862+00:00</time>
      </trkpt>
      <trkpt lat="43.34286" lon="5.26515">
        <ele>24</ele>
        <time>2024-11-26T09:39:11.862+00:00</time>
      </trkpt>
      <trkpt lat="43.34285" lon="5.26515">
        <ele>24</ele>
        <time>2024-11-26T09:39:16.862+00:00</time>
      </trkpt>
      <trkpt lat="43.34283" lon="5.26515">
        <ele>24</ele>
        <time>2024-11-26T09:39:21.862+00:00</time>
      </trkpt>
      <trkpt lat="43.3428" lon="5.26516">
        <ele>24</ele>
        <time>2024-11-26T09:39:26.862+00:00</time>
      </trkpt>
      <trkpt lat="43.34278" lon="5.26516">
        <ele>24</ele>
        <time>2024-11-26T09:39:31.862+00:00</time>
      </trkpt>
      <trkpt lat="43.34279" lon="5.26522">
        <ele>24</ele>
        <time>2024-11-26T09:40:12.862+00:00</time>
      </trkpt>
      <trkpt lat="43.34278" lon="5.26522">
        <ele>24</ele>
        <time>2024-11-26T09:40:19.862+00:00</time>
      </trkpt>
      <trkpt lat="43.34277" lon="5.26523">
        <ele>24</ele>
        <time>2024-11-26T09:40:23.862+00:00</time>
      </trkpt>
      <trkpt lat="43.34275" lon="5.26527">
        <ele>24</ele>
        <time>2024-11-26T09:40:28.862+00:00</time>
      </trkpt>
      <trkpt lat="43.34272" lon="5.26528">
        <ele>24</ele>
        <time>2024-11-26T09:40:33.862+00:00</time>
      </trkpt>
      <trkpt lat="43.34265" lon="5.26529">
        <ele>24</ele>
        <time>2024-11-26T09:42:11.862+00:00</time>
      </trkpt>
      <trkpt lat="43.34264" lon="5.26534">
        <ele>24</ele>
        <time>2024-11-26T09:42:16.862+00:00</time>
      </trkpt>
      <trkpt lat="43.34263" lon="5.26536">
        <ele>35</ele>
        <time>2024-11-26T09:42:21.862+00:00</time>
      </trkpt>
      <trkpt lat="43.34262" lon="5.26544">
        <ele>25</ele>
        <time>2024-11-26T09:42:26.132+00:00</time>
      </trkpt>
      <trkpt lat="43.3426" lon="5.26552">
        <ele>25</ele>
        <time>2024-11-26T09:42:30.673+00:00</time>
      </trkpt>
      <trkpt lat="43.34259" lon="5.26554">
        <ele>25</ele>
        <time>2024-11-26T09:42:34.862+00:00</time>
      </trkpt>
      <trkpt lat="43.34258" lon="5.26559">
        <ele>25</ele>
        <time>2024-11-26T09:42:39.350+00:00</time>
      </trkpt>
      <trkpt lat="43.34256" lon="5.26563">
        <ele>25</ele>
        <time>2024-11-26T09:42:43.532+00:00</time>
      </trkpt>
      <trkpt lat="43.34254" lon="5.26568">
        <ele>25</ele>
        <time>2024-11-26T09:42:48.293+00:00</time>
      </trkpt>
      <trkpt lat="43.3425" lon="5.2657">
        <ele>16</ele>
        <time>2024-11-26T09:42:56.862+00:00</time>
      </trkpt>
      <trkpt lat="43.34248" lon="5.2657">
        <ele>16</ele>
        <time>2024-11-26T09:43:02.862+00:00</time>
      </trkpt>
      <trkpt lat="43.34246" lon="5.26568">
        <ele>25</ele>
        <time>2024-11-26T09:43:07.510+00:00</time>
      </trkpt>
      <trkpt lat="43.34244" lon="5.26564">
        <ele>25</ele>
        <time>2024-11-26T09:43:11.861+00:00</time>
      </trkpt>
      <trkpt lat="43.34241" lon="5.26563">
        <ele>25</ele>
        <time>2024-11-26T09:43:16.589+00:00</time>
      </trkpt>
      <trkpt lat="43.3423" lon="5.26554">
        <ele>27</ele>
        <time>2024-11-26T09:43:48.861+00:00</time>
      </trkpt>
      <trkpt lat="43.3423" lon="5.26554">
        <ele>27</ele>
        <time>2024-11-26T09:43:53.588+00:00</time>
      </trkpt>
      <trkpt lat="43.34227" lon="5.2655">
        <ele>27</ele>
        <time>2024-11-26T09:43:58.291+00:00</time>
      </trkpt>
      <trkpt lat="43.34225" lon="5.26551">
        <ele>27</ele>
        <time>2024-11-26T09:44:02.352+00:00</time>
      </trkpt>
      <trkpt lat="43.34222" lon="5.26553">
        <ele>27</ele>
        <time>2024-11-26T09:44:06.652+00:00</time>
      </trkpt>
      <trkpt lat="43.34219" lon="5.26553">
        <ele>27</ele>
        <time>2024-11-26T09:44:10.587+00:00</time>
      </trkpt>
      <trkpt lat="43.34214" lon="5.26551">
        <ele>27</ele>
        <time>2024-11-26T09:44:14.860+00:00</time>
      </trkpt>
      <trkpt lat="43.34213" lon="5.26546">
        <ele>27</ele>
        <time>2024-11-26T09:44:19.548+00:00</time>
      </trkpt>
      <trkpt lat="43.34211" lon="5.26544">
        <ele>27</ele>
        <time>2024-11-26T09:44:23.861+00:00</time>
      </trkpt>
      <trkpt lat="43.34211" lon="5.26544">
        <ele>27</ele>
        <time>2024-11-26T09:44:33.861+00:00</time>
      </trkpt>
      <trkpt lat="43.34211" lon="5.26544">
        <ele>27</ele>
        <time>2024-11-26T09:44:38.428+00:00</time>
      </trkpt>
      <trkpt lat="43.3421" lon="5.2654">
        <ele>31</ele>
        <time>2024-11-26T09:44:42.861+00:00</time>
      </trkpt>
      <trkpt lat="43.34209" lon="5.26536">
        <ele>31</ele>
        <time>2024-11-26T09:44:47.510+00:00</time>
      </trkpt>
      <trkpt lat="43.34211" lon="5.26529">
        <ele>31</ele>
        <time>2024-11-26T09:44:51.861+00:00</time>
      </trkpt>
      <trkpt lat="43.34211" lon="5.26524">
        <ele>31</ele>
        <time>2024-11-26T09:44:56.385+00:00</time>
      </trkpt>
      <trkpt lat="43.34212" lon="5.26516">
        <ele>31</ele>
        <time>2024-11-26T09:45:00.861+00:00</time>
      </trkpt>
      <trkpt lat="43.34211" lon="5.26511">
        <ele>36</ele>
        <time>2024-11-26T09:45:05.712+00:00</time>
      </trkpt>
      <trkpt lat="43.34208" lon="5.2651">
        <ele>22</ele>
        <time>2024-11-26T09:45:09.861+00:00</time>
      </trkpt>
      <trkpt lat="43.3421" lon="5.26509">
        <ele>36</ele>
        <time>2024-11-26T09:45:29.860+00:00</time>
      </trkpt>
      <trkpt lat="43.3421" lon="5.26508">
        <ele>36</ele>
        <time>2024-11-26T09:45:34.892+00:00</time>
      </trkpt>
      <trkpt lat="43.34206" lon="5.26504">
        <ele>22</ele>
        <time>2024-11-26T09:45:39.486+00:00</time>
      </trkpt>
      <trkpt lat="43.34203" lon="5.265">
        <ele>22</ele>
        <time>2024-11-26T09:45:44.190+00:00</time>
      </trkpt>
      <trkpt lat="43.34202" lon="5.26495">
        <ele>22</ele>
        <time>2024-11-26T09:45:48.807+00:00</time>
      </trkpt>
      <trkpt lat="43.342" lon="5.26488">
        <ele>22</ele>
        <time>2024-11-26T09:45:53.226+00:00</time>
      </trkpt>
      <trkpt lat="43.34199" lon="5.26483">
        <ele>29</ele>
        <time>2024-11-26T09:45:57.331+00:00</time>
      </trkpt>
      <trkpt lat="43.34196" lon="5.26482">
        <ele>29</ele>
        <time>2024-11-26T09:46:01.452+00:00</time>
      </trkpt>
      <trkpt lat="43.34193" lon="5.26478">
        <ele>29</ele>
        <time>2024-11-26T09:46:05.861+00:00</time>
      </trkpt>
      <trkpt lat="43.34191" lon="5.26473">
        <ele>29</ele>
        <time>2024-11-26T09:46:10.861+00:00</time>
      </trkpt>
      <trkpt lat="43.3419" lon="5.26467">
        <ele>29</ele>
        <time>2024-11-26T09:46:15.861+00:00</time>
      </trkpt>
      <trkpt lat="43.34193" lon="5.26463">
        <ele>29</ele>
        <time>2024-11-26T09:46:20.473+00:00</time>
      </trkpt>
      <trkpt lat="43.34196" lon="5.26459">
        <ele>29</ele>
        <time>2024-11-26T09:46:24.861+00:00</time>
      </trkpt>
      <trkpt lat="43.34197" lon="5.26452">
        <ele>31</ele>
        <time>2024-11-26T09:46:29.313+00:00</time>
      </trkpt>
      <trkpt lat="43.34198" lon="5.26446">
        <ele>31</ele>
        <time>2024-11-26T09:46:33.861+00:00</time>
      </trkpt>
      <trkpt lat="43.342" lon="5.2644">
        <ele>31</ele>
        <time>2024-11-26T09:46:38.486+00:00</time>
      </trkpt>
      <trkpt lat="43.34201" lon="5.26434">
        <ele>31</ele>
        <time>2024-11-26T09:46:42.548+00:00</time>
      </trkpt>
      <trkpt lat="43.34203" lon="5.26428">
        <ele>28</ele>
        <time>2024-11-26T09:46:46.861+00:00</time>
      </trkpt>
      <trkpt lat="43.34202" lon="5.2642">
        <ele>28</ele>
        <time>2024-11-26T09:46:51.831+00:00</time>
      </trkpt>
      <trkpt lat="43.34202" lon="5.26414">
        <ele>28</ele>
        <time>2024-11-26T09:46:56.132+00:00</time>
      </trkpt>
      <trkpt lat="43.34204" lon="5.26409">
        <ele>28</ele>
        <time>2024-11-26T09:47:00.228+00:00</time>
      </trkpt>
      <trkpt lat="43.34206" lon="5.26404">
        <ele>28</ele>
        <time>2024-11-26T09:47:04.811+00:00</time>
      </trkpt>
      <trkpt lat="43.34205" lon="5.26399">
        <ele>25</ele>
        <time>2024-11-26T09:47:08.860+00:00</time>
      </trkpt>
      <trkpt lat="43.34205" lon="5.26396">
        <ele>25</ele>
        <time>2024-11-26T09:47:13.326+00:00</time>
      </trkpt>
      <trkpt lat="43.34205" lon="5.26392">
        <ele>25</ele>
        <time>2024-11-26T09:47:17.730+00:00</time>
      </trkpt>
      <trkpt lat="43.34207" lon="5.26389">
        <ele>25</ele>
        <time>2024-11-26T09:47:21.953+00:00</time>
      </trkpt>
      <trkpt lat="43.34208" lon="5.26386">
        <ele>25</ele>
        <time>2024-11-26T09:47:26.459+00:00</time>
      </trkpt>
      <trkpt lat="43.34208" lon="5.26384">
        <ele>40</ele>
        <time>2024-11-26T09:47:30.861+00:00</time>
      </trkpt>
      <trkpt lat="43.34209" lon="5.2638">
        <ele>40</ele>
        <time>2024-11-26T09:47:35.861+00:00</time>
      </trkpt>
      <trkpt lat="43.34211" lon="5.26376">
        <ele>40</ele>
        <time>2024-11-26T09:47:40.632+00:00</time>
      </trkpt>
      <trkpt lat="43.34215" lon="5.26373">
        <ele>39</ele>
        <time>2024-11-26T09:47:49.591+00:00</time>
      </trkpt>
      <trkpt lat="43.34216" lon="5.26373">
        <ele>39</ele>
        <time>2024-11-26T09:47:53.861+00:00</time>
      </trkpt>
      <trkpt lat="43.34216" lon="5.26372">
        <ele>39</ele>
        <time>2024-11-26T09:47:58.747+00:00</time>
      </trkpt>
      <trkpt lat="43.34215" lon="5.26368">
        <ele>39</ele>
        <time>2024-11-26T09:48:03.192+00:00</time>
      </trkpt>
      <trkpt lat="43.34216" lon="5.26361">
        <ele>39</ele>
        <time>2024-11-26T09:48:07.853+00:00</time>
      </trkpt>
      <trkpt lat="43.34205" lon="5.26342">
        <ele>19</ele>
        <time>2024-11-26T09:50:25.860+00:00</time>
      </trkpt>
      <trkpt lat="43.34204" lon="5.26342">
        <ele>19</ele>
        <time>2024-11-26T09:50:36.860+00:00</time>
      </trkpt>
      <trkpt lat="43.34204" lon="5.26341">
        <ele>19</ele>
        <time>2024-11-26T09:50:41.859+00:00</time>
      </trkpt>
      <trkpt lat="43.34203" lon="5.26341">
        <ele>19</ele>
        <time>2024-11-26T09:50:45.860+00:00</time>
      </trkpt>
      <trkpt lat="43.34204" lon="5.2634">
        <ele>19</ele>
        <time>2024-11-26T09:50:50.860+00:00</time>
      </trkpt>
      <trkpt lat="43.34203" lon="5.26336">
        <ele>19</ele>
        <time>2024-11-26T09:51:05.860+00:00</time>
      </trkpt>
      <trkpt lat="43.34201" lon="5.26333">
        <ele>19</ele>
        <time>2024-11-26T09:51:10.860+00:00</time>
      </trkpt>
      <trkpt lat="43.34201" lon="5.26333">
        <ele>19</ele>
        <time>2024-11-26T09:51:15.859+00:00</time>
      </trkpt>
      <trkpt lat="43.342" lon="5.26328">
        <ele>19</ele>
        <time>2024-11-26T09:51:20.860+00:00</time>
      </trkpt>
      <trkpt lat="43.342" lon="5.26323">
        <ele>19</ele>
        <time>2024-11-26T09:51:25.860+00:00</time>
      </trkpt>
      <trkpt lat="43.34198" lon="5.26318">
        <ele>18</ele>
        <time>2024-11-26T09:51:29.860+00:00</time>
      </trkpt>
      <trkpt lat="43.34196" lon="5.26315">
        <ele>18</ele>
        <time>2024-11-26T09:51:34.860+00:00</time>
      </trkpt>
      <trkpt lat="43.34195" lon="5.26309">
        <ele>18</ele>
        <time>2024-11-26T09:51:39.667+00:00</time>
      </trkpt>
      <trkpt lat="43.34195" lon="5.26305">
        <ele>18</ele>
        <time>2024-11-26T09:51:44.353+00:00</time>
      </trkpt>
      <trkpt lat="43.34194" lon="5.263">
        <ele>18</ele>
        <time>2024-11-26T09:51:48.860+00:00</time>
      </trkpt>
      <trkpt lat="43.34194" lon="5.26294">
        <ele>18</ele>
        <time>2024-11-26T09:51:53.748+00:00</time>
      </trkpt>
      <trkpt lat="43.34193" lon="5.26291">
        <ele>17</ele>
        <time>2024-11-26T09:51:57.860+00:00</time>
      </trkpt>
      <trkpt lat="43.34194" lon="5.26287">
        <ele>17</ele>
        <time>2024-11-26T09:52:02.709+00:00</time>
      </trkpt>
      <trkpt lat="43.34195" lon="5.26281">
        <ele>17</ele>
        <time>2024-11-26T09:52:21.860+00:00</time>
      </trkpt>
      <trkpt lat="43.34195" lon="5.2628">
        <ele>17</ele>
        <time>2024-11-26T09:52:26.860+00:00</time>
      </trkpt>
      <trkpt lat="43.34197" lon="5.26279">
        <ele>17</ele>
        <time>2024-11-26T09:52:31.628+00:00</time>
      </trkpt>
      <trkpt lat="43.342" lon="5.26276">
        <ele>17</ele>
        <time>2024-11-26T09:52:36.035+00:00</time>
      </trkpt>
      <trkpt lat="43.34203" lon="5.26271">
        <ele>17</ele>
        <time>2024-11-26T09:52:40.860+00:00</time>
      </trkpt>
      <trkpt lat="43.34204" lon="5.26267">
        <ele>17</ele>
        <time>2024-11-26T09:52:44.860+00:00</time>
      </trkpt>
      <trkpt lat="43.34205" lon="5.26264">
        <ele>17</ele>
        <time>2024-11-26T09:52:48.859+00:00</time>
      </trkpt>
      <trkpt lat="43.34208" lon="5.26258">
        <ele>17</ele>
        <time>2024-11-26T09:52:53.654+00:00</time>
      </trkpt>
      <trkpt lat="43.34211" lon="5.26258">
        <ele>31</ele>
        <time>2024-11-26T09:52:57.860+00:00</time>
      </trkpt>
      <trkpt lat="43.34218" lon="5.26258">
        <ele>31</ele>
        <time>2024-11-26T09:53:52.393+00:00</time>
      </trkpt>
      <trkpt lat="43.34219" lon="5.26257">
        <ele>31</ele>
        <time>2024-11-26T09:53:56.860+00:00</time>
      </trkpt>
      <trkpt lat="43.3422" lon="5.26257">
        <ele>31</ele>
        <time>2024-11-26T09:54:00.860+00:00</time>
      </trkpt>
      <trkpt lat="43.34221" lon="5.26257">
        <ele>31</ele>
        <time>2024-11-26T09:54:05.859+00:00</time>
      </trkpt>
      <trkpt lat="43.34223" lon="5.26255">
        <ele>31</ele>
        <time>2024-11-26T09:54:10.313+00:00</time>
      </trkpt>
      <trkpt lat="43.34225" lon="5.26251">
        <ele>31</ele>
        <time>2024-11-26T09:54:14.860+00:00</time>
      </trkpt>
      <trkpt lat="43.34227" lon="5.26247">
        <ele>31</ele>
        <time>2024-11-26T09:54:19.860+00:00</time>
      </trkpt>
      <trkpt lat="43.3423" lon="5.26244">
        <ele>31</ele>
        <time>2024-11-26T09:54:24.429+00:00</time>
      </trkpt>
      <trkpt lat="43.34232" lon="5.26242">
        <ele>31</ele>
        <time>2024-11-26T09:54:28.860+00:00</time>
      </trkpt>
      <trkpt lat="43.34234" lon="5.26238">
        <ele>31</ele>
        <time>2024-11-26T09:54:33.672+00:00</time>
      </trkpt>
      <trkpt lat="43.34235" lon="5.26235">
        <ele>26</ele>
        <time>2024-11-26T09:54:37.860+00:00</time>
      </trkpt>
      <trkpt lat="43.34236" lon="5.26232">
        <ele>38</ele>
        <time>2024-11-26T09:54:42.232+00:00</time>
      </trkpt>
      <trkpt lat="43.34238" lon="5.26228">
        <ele>38</ele>
        <time>2024-11-26T09:54:46.860+00:00</time>
      </trkpt>
      <trkpt lat="43.3424" lon="5.26228">
        <ele>38</ele>
        <time>2024-11-26T09:54:51.860+00:00</time>
      </trkpt>
      <trkpt lat="43.34244" lon="5.26226">
        <ele>38</ele>
        <time>2024-11-26T09:54:56.493+00:00</time>
      </trkpt>
      <trkpt lat="43.34248" lon="5.26222">
        <ele>38</ele>
        <time>2024-11-26T09:55:00.752+00:00</time>
      </trkpt>
      <trkpt lat="43.34252" lon="5.26217">
        <ele>38</ele>
        <time>2024-11-26T09:55:05.711+00:00</time>
      </trkpt>
      <trkpt lat="43.34253" lon="5.26215">
        <ele>38</ele>
        <time>2024-11-26T09:55:09.859+00:00</time>
      </trkpt>
      <trkpt lat="43.34254" lon="5.26213">
        <ele>38</ele>
        <time>2024-11-26T09:55:14.468+00:00</time>
      </trkpt>
      <trkpt lat="43.34254" lon="5.26206">
        <ele>36</ele>
        <time>2024-11-26T09:55:18.860+00:00</time>
      </trkpt>
      <trkpt lat="43.34256" lon="5.26201">
        <ele>36</ele>
        <time>2024-11-26T09:55:23.194+00:00</time>
      </trkpt>
      <trkpt lat="43.34254" lon="5.26195">
        <ele>36</ele>
        <time>2024-11-26T09:55:27.576+00:00</time>
      </trkpt>
      <trkpt lat="43.34254" lon="5.26189">
        <ele>36</ele>
        <time>2024-11-26T09:55:31.617+00:00</time>
      </trkpt>
      <trkpt lat="43.34255" lon="5.26183">
        <ele>36</ele>
        <time>2024-11-26T09:55:35.662+00:00</time>
      </trkpt>
      <trkpt lat="43.34256" lon="5.26181">
        <ele>36</ele>
        <time>2024-11-26T09:55:39.938+00:00</time>
      </trkpt>
      <trkpt lat="43.34256" lon="5.26175">
        <ele>33</ele>
        <time>2024-11-26T09:55:44.113+00:00</time>
      </trkpt>
      <trkpt lat="43.34249" lon="5.26169">
        <ele>33</ele>
        <time>2024-11-26T09:56:01.859+00:00</time>
      </trkpt>
      <trkpt lat="43.34249" lon="5.26169">
        <ele>33</ele>
        <time>2024-11-26T09:56:06.858+00:00</time>
      </trkpt>
      <trkpt lat="43.34248" lon="5.26165">
        <ele>33</ele>
        <time>2024-11-26T09:56:10.859+00:00</time>
      </trkpt>
      <trkpt lat="43.34248" lon="5.26162">
        <ele>33</ele>
        <time>2024-11-26T09:56:15.859+00:00</time>
      </trkpt>
      <trkpt lat="43.34249" lon="5.2616">
        <ele>33</ele>
        <time>2024-11-26T09:56:19.859+00:00</time>
      </trkpt>
      <trkpt lat="43.34248" lon="5.26154">
        <ele>33</ele>
        <time>2024-11-26T09:56:23.859+00:00</time>
      </trkpt>
      <trkpt lat="43.3425" lon="5.26145">
        <ele>28</ele>
        <time>2024-11-26T09:56:28.852+00:00</time>
      </trkpt>
      <trkpt lat="43.34248" lon="5.2614">
        <ele>28</ele>
        <time>2024-11-26T09:56:32.859+00:00</time>
      </trkpt>
      <trkpt lat="43.34246" lon="5.26135">
        <ele>28</ele>
        <time>2024-11-26T09:56:37.859+00:00</time>
      </trkpt>
      <trkpt lat="43.34249" lon="5.26133">
        <ele>28</ele>
        <time>2024-11-26T09:57:05.859+00:00</time>
      </trkpt>
      <trkpt lat="43.34249" lon="5.26133">
        <ele>28</ele>
        <time>2024-11-26T09:57:11.859+00:00</time>
      </trkpt>
      <trkpt lat="43.34252" lon="5.26137">
        <ele>28</ele>
        <time>2024-11-26T09:57:16.859+00:00</time>
      </trkpt>
      <trkpt lat="43.34253" lon="5.26133">
        <ele>28</ele>
        <time>2024-11-26T09:57:22.858+00:00</time>
      </trkpt>
      <trkpt lat="43.34255" lon="5.26134">
        <ele>28</ele>
        <time>2024-11-26T09:57:26.858+00:00</time>
      </trkpt>
      <trkpt lat="43.34259" lon="5.26129">
        <ele>28</ele>
        <time>2024-11-26T09:58:07.859+00:00</time>
      </trkpt>
      <trkpt lat="43.34261" lon="5.26132">
        <ele>28</ele>
        <time>2024-11-26T09:58:11.859+00:00</time>
      </trkpt>
      <trkpt lat="43.34263" lon="5.26136">
        <ele>28</ele>
        <time>2024-11-26T09:58:16.434+00:00</time>
      </trkpt>
      <trkpt lat="43.34265" lon="5.26139">
        <ele>37</ele>
        <time>2024-11-26T09:58:20.859+00:00</time>
      </trkpt>
      <trkpt lat="43.34266" lon="5.26141">
        <ele>37</ele>
        <time>2024-11-26T09:58:25.309+00:00</time>
      </trkpt>
      <trkpt lat="43.34271" lon="5.26129">
        <ele>37</ele>
        <time>2024-11-26T09:59:45.859+00:00</time>
      </trkpt>
      <trkpt lat="43.34271" lon="5.26127">
        <ele>37</ele>
        <time>2024-11-26T09:59:50.530+00:00</time>
      </trkpt>
      <trkpt lat="43.34271" lon="5.26121">
        <ele>28</ele>
        <time>2024-11-26T09:59:54.552+00:00</time>
      </trkpt>
      <trkpt lat="43.3427" lon="5.26119">
        <ele>28</ele>
        <time>2024-11-26T09:59:58.858+00:00</time>
      </trkpt>
      <trkpt lat="43.3427" lon="5.26118">
        <ele>28</ele>
        <time>2024-11-26T10:00:02.858+00:00</time>
      </trkpt>
      <trkpt lat="43.3427" lon="5.26116">
        <ele>28</ele>
        <time>2024-11-26T10:00:07.275+00:00</time>
      </trkpt>
      <trkpt lat="43.34272" lon="5.26112">
        <ele>28</ele>
        <time>2024-11-26T10:00:11.859+00:00</time>
      </trkpt>
      <trkpt lat="43.34274" lon="5.26108">
        <ele>28</ele>
        <time>2024-11-26T10:00:15.895+00:00</time>
      </trkpt>
      <trkpt lat="43.34275" lon="5.26104">
        <ele>28</ele>
        <time>2024-11-26T10:00:20.554+00:00</time>
      </trkpt>
      <trkpt lat="43.34274" lon="5.26095">
        <ele>19</ele>
        <time>2024-11-26T10:01:21.394+00:00</time>
      </trkpt>
      <trkpt lat="43.34275" lon="5.26093">
        <ele>19</ele>
        <time>2024-11-26T10:01:26.512+00:00</time>
      </trkpt>
      <trkpt lat="43.34276" lon="5.26091">
        <ele>19</ele>
        <time>2024-11-26T10:01:30.847+00:00</time>
      </trkpt>
      <trkpt lat="43.34274" lon="5.26089">
        <ele>19</ele>
        <time>2024-11-26T10:01:34.876+00:00</time>
      </trkpt>
      <trkpt lat="43.34275" lon="5.26087">
        <ele>19</ele>
        <time>2024-11-26T10:01:39.541+00:00</time>
      </trkpt>
      <trkpt lat="43.34276" lon="5.26086">
        <ele>19</ele>
        <time>2024-11-26T10:01:49.230+00:00</time>
      </trkpt>
      <trkpt lat="43.34276" lon="5.26083">
        <ele>19</ele>
        <time>2024-11-26T10:01:53.675+00:00</time>
      </trkpt>
      <trkpt lat="43.34276" lon="5.2608">
        <ele>19</ele>
        <time>2024-11-26T10:01:57.858+00:00</time>
      </trkpt>
      <trkpt lat="43.34276" lon="5.26077">
        <ele>19</ele>
        <time>2024-11-26T10:02:02.312+00:00</time>
      </trkpt>
      <trkpt lat="43.34275" lon="5.26073">
        <ele>19</ele>
        <time>2024-11-26T10:02:06.573+00:00</time>
      </trkpt>
      <trkpt lat="43.34267" lon="5.26063">
        <ele>15</ele>
        <time>2024-11-26T10:02:47.858+00:00</time>
      </trkpt>
      <trkpt lat="43.34267" lon="5.26063">
        <ele>15</ele>
        <time>2024-11-26T10:02:52.311+00:00</time>
      </trkpt>
      <trkpt lat="43.34262" lon="5.26064">
        <ele>7</ele>
        <time>2024-11-26T10:02:56.432+00:00</time>
      </trkpt>
      <trkpt lat="43.34259" lon="5.2606">
        <ele>7</ele>
        <time>2024-11-26T10:03:00.852+00:00</time>
      </trkpt>
      <trkpt lat="43.3426" lon="5.26057">
        <ele>7</ele>
        <time>2024-11-26T10:03:05.094+00:00</time>
      </trkpt>
      <trkpt lat="43.34258" lon="5.26053">
        <ele>7</ele>
        <time>2024-11-26T10:03:09.711+00:00</time>
      </trkpt>
      <trkpt lat="43.34254" lon="5.26051">
        <ele>7</ele>
        <time>2024-11-26T10:03:14.573+00:00</time>
      </trkpt>
      <trkpt lat="43.34253" lon="5.26058">
        <ele>7</ele>
        <time>2024-11-26T10:03:19.335+00:00</time>
      </trkpt>
      <trkpt lat="43.3425" lon="5.26061">
        <ele>7</ele>
        <time>2024-11-26T10:03:23.355+00:00</time>
      </trkpt>
      <trkpt lat="43.34249" lon="5.26059">
        <ele>7</ele>
        <time>2024-11-26T10:03:27.715+00:00</time>
      </trkpt>
      <trkpt lat="43.34247" lon="5.26058">
        <ele>7</ele>
        <time>2024-11-26T10:03:31.811+00:00</time>
      </trkpt>
      <trkpt lat="43.34243" lon="5.26057">
        <ele>7</ele>
        <time>2024-11-26T10:03:35.858+00:00</time>
      </trkpt>
      <trkpt lat="43.34238" lon="5.26059">
        <ele>7</ele>
        <time>2024-11-26T10:03:40.472+00:00</time>
      </trkpt>
      <trkpt lat="43.34229" lon="5.26051">
        <ele>8</ele>
        <time>2024-11-26T10:05:37.381+00:00</time>
      </trkpt>
      <trkpt lat="43.34229" lon="5.26049">
        <ele>8</ele>
        <time>2024-11-26T10:05:41.574+00:00</time>
      </trkpt>
      <trkpt lat="43.34224" lon="5.26045">
        <ele>8</ele>
        <time>2024-11-26T10:05:45.637+00:00</time>
      </trkpt>
      <trkpt lat="43.34217" lon="5.26044">
        <ele>8</ele>
        <time>2024-11-26T10:05:49.775+00:00</time>
      </trkpt>
      <trkpt lat="43.34214" lon="5.26043">
        <ele>8</ele>
        <time>2024-11-26T10:05:54.128+00:00</time>
      </trkpt>
      <trkpt lat="43.34209" lon="5.26044">
        <ele>8</ele>
        <time>2024-11-26T10:05:58.351+00:00</time>
      </trkpt>
      <trkpt lat="43.34203" lon="5.26048">
        <ele>15</ele>
        <time>2024-11-26T10:06:02.858+00:00</time>
      </trkpt>
      <trkpt lat="43.34198" lon="5.26051">
        <ele>15</ele>
        <time>2024-11-26T10:06:07.578+00:00</time>
      </trkpt>
      <trkpt lat="43.34195" lon="5.26057">
        <ele>15</ele>
        <time>2024-11-26T10:06:11.673+00:00</time>
      </trkpt>
      <trkpt lat="43.34193" lon="5.26063">
        <ele>15</ele>
        <time>2024-11-26T10:06:16.857+00:00</time>
      </trkpt>
      <trkpt lat="43.34188" lon="5.26065">
        <ele>15</ele>
        <time>2024-11-26T10:06:21.150+00:00</time>
      </trkpt>
      <trkpt lat="43.34185" lon="5.26068">
        <ele>15</ele>
        <time>2024-11-26T10:06:25.858+00:00</time>
      </trkpt>
      <trkpt lat="43.34182" lon="5.26075">
        <ele>12</ele>
        <time>2024-11-26T10:06:30.778+00:00</time>
      </trkpt>
      <trkpt lat="43.34178" lon="5.26079">
        <ele>15</ele>
        <time>2024-11-26T10:06:45.232+00:00</time>
      </trkpt>
      <trkpt lat="43.34174" lon="5.26081">
        <ele>15</ele>
        <time>2024-11-26T10:06:49.355+00:00</time>
      </trkpt>
      <trkpt lat="43.34169" lon="5.26084">
        <ele>15</ele>
        <time>2024-11-26T10:06:53.792+00:00</time>
      </trkpt>
      <trkpt lat="43.34165" lon="5.26088">
        <ele>15</ele>
        <time>2024-11-26T10:06:57.857+00:00</time>
      </trkpt>
      <trkpt lat="43.34164" lon="5.26093">
        <ele>15</ele>
        <time>2024-11-26T10:07:02.857+00:00</time>
      </trkpt>
      <trkpt lat="43.34165" lon="5.26093">
        <ele>15</ele>
        <time>2024-11-26T10:07:07.857+00:00</time>
      </trkpt>
      <trkpt lat="43.34164" lon="5.26093">
        <ele>15</ele>
        <time>2024-11-26T10:07:12.819+00:00</time>
      </trkpt>
      <trkpt lat="43.34161" lon="5.26094">
        <ele>15</ele>
        <time>2024-11-26T10:07:17.857+00:00</time>
      </trkpt>
      <trkpt lat="43.34156" lon="5.26095">
        <ele>15</ele>
        <time>2024-11-26T10:07:22.178+00:00</time>
      </trkpt>
      <trkpt lat="43.34151" lon="5.26098">
        <ele>10</ele>
        <time>2024-11-26T10:07:26.857+00:00</time>
      </trkpt>
      <trkpt lat="43.34144" lon="5.26103">
        <ele>10</ele>
        <time>2024-11-26T10:07:49.738+00:00</time>
      </trkpt>
      <trkpt lat="43.34142" lon="5.261">
        <ele>10</ele>
        <time>2024-11-26T10:07:53.817+00:00</time>
      </trkpt>
      <trkpt lat="43.34138" lon="5.26098">
        <ele>10</ele>
        <time>2024-11-26T10:07:58.178+00:00</time>
      </trkpt>
      <trkpt lat="43.34134" lon="5.26096">
        <ele>14</ele>
        <time>2024-11-26T10:08:02.471+00:00</time>
      </trkpt>
      <trkpt lat="43.34128" lon="5.261">
        <ele>10</ele>
        <time>2024-11-26T10:08:06.857+00:00</time>
      </trkpt>
      <trkpt lat="43.34127" lon="5.26106">
        <ele>10</ele>
        <time>2024-11-26T10:08:10.857+00:00</time>
      </trkpt>
      <trkpt lat="43.34126" lon="5.26108">
        <ele>10</ele>
        <time>2024-11-26T10:08:15.493+00:00</time>
      </trkpt>
      <trkpt lat="43.34125" lon="5.26108">
        <ele>10</ele>
        <time>2024-11-26T10:08:19.857+00:00</time>
      </trkpt>
      <trkpt lat="43.3412" lon="5.26107">
        <ele>8</ele>
        <time>2024-11-26T10:08:24.797+00:00</time>
      </trkpt>
      <trkpt lat="43.34114" lon="5.26105">
        <ele>8</ele>
        <time>2024-11-26T10:08:29.575+00:00</time>
      </trkpt>
      <trkpt lat="43.34109" lon="5.26103">
        <ele>8</ele>
        <time>2024-11-26T10:08:33.857+00:00</time>
      </trkpt>
      <trkpt lat="43.34103" lon="5.26102">
        <ele>8</ele>
        <time>2024-11-26T10:08:38.630+00:00</time>
      </trkpt>
      <trkpt lat="43.34097" lon="5.261">
        <ele>8</ele>
        <time>2024-11-26T10:08:43.297+00:00</time>
      </trkpt>
      <trkpt lat="43.34092" lon="5.26098">
        <ele>7</ele>
        <time>2024-11-26T10:08:47.711+00:00</time>
      </trkpt>
      <trkpt lat="43.34087" lon="5.26095">
        <ele>11</ele>
        <time>2024-11-26T10:08:51.857+00:00</time>
      </trkpt>
      <trkpt lat="43.34082" lon="5.26093">
        <ele>11</ele>
        <time>2024-11-26T10:08:56.552+00:00</time>
      </trkpt>
      <trkpt lat="43.34077" lon="5.26091">
        <ele>11</ele>
        <time>2024-11-26T10:09:00.857+00:00</time>
      </trkpt>
      <trkpt lat="43.34072" lon="5.26089">
        <ele>11</ele>
        <time>2024-11-26T10:09:05.009+00:00</time>
      </trkpt>
      <trkpt lat="43.34065" lon="5.26086">
        <ele>10</ele>
        <time>2024-11-26T10:09:09.857+00:00</time>
      </trkpt>
      <trkpt lat="43.3406" lon="5.26084">
        <ele>10</ele>
        <time>2024-11-26T10:09:14.438+00:00</time>
      </trkpt>
      <trkpt lat="43.34056" lon="5.2608">
        <ele>10</ele>
        <time>2024-11-26T10:09:18.673+00:00</time>
      </trkpt>
      <trkpt lat="43.34051" lon="5.26076">
        <ele>10</ele>
        <time>2024-11-26T10:09:22.857+00:00</time>
      </trkpt>
      <trkpt lat="43.34049" lon="5.26069">
        <ele>15</ele>
        <time>2024-11-26T10:09:27.078+00:00</time>
      </trkpt>
      <trkpt lat="43.34048" lon="5.26062">
        <ele>15</ele>
        <time>2024-11-26T10:09:31.857+00:00</time>
      </trkpt>
      <trkpt lat="43.34044" lon="5.26057">
        <ele>15</ele>
        <time>2024-11-26T10:09:36.695+00:00</time>
      </trkpt>
      <trkpt lat="43.34039" lon="5.26056">
        <ele>11</ele>
        <time>2024-11-26T10:09:40.857+00:00</time>
      </trkpt>
      <trkpt lat="43.34033" lon="5.26055">
        <ele>11</ele>
        <time>2024-11-26T10:09:45.475+00:00</time>
      </trkpt>
      <trkpt lat="43.34028" lon="5.2605">
        <ele>11</ele>
        <time>2024-11-26T10:09:50.302+00:00</time>
      </trkpt>
      <trkpt lat="43.3403" lon="5.26043">
        <ele>11</ele>
        <time>2024-11-26T10:09:54.615+00:00</time>
      </trkpt>
      <trkpt lat="43.34029" lon="5.2604">
        <ele>16</ele>
        <time>2024-11-26T10:09:58.618+00:00</time>
      </trkpt>
      <trkpt lat="43.34033" lon="5.26038">
        <ele>16</ele>
        <time>2024-11-26T10:10:02.731+00:00</time>
      </trkpt>
      <trkpt lat="43.34037" lon="5.26038">
        <ele>16</ele>
        <time>2024-11-26T10:10:06.775+00:00</time>
      </trkpt>
      <trkpt lat="43.34039" lon="5.26039">
        <ele>16</ele>
        <time>2024-11-26T10:10:10.857+00:00</time>
      </trkpt>
      <trkpt lat="43.34042" lon="5.26041">
        <ele>16</ele>
        <time>2024-11-26T10:10:15.857+00:00</time>
      </trkpt>
      <trkpt lat="43.34046" lon="5.26044">
        <ele>15</ele>
        <time>2024-11-26T10:10:35.857+00:00</time>
      </trkpt>
      <trkpt lat="43.34048" lon="5.26043">
        <ele>15</ele>
        <time>2024-11-26T10:10:40.698+00:00</time>
      </trkpt>
      <trkpt lat="43.3405" lon="5.26043">
        <ele>15</ele>
        <time>2024-11-26T10:10:44.880+00:00</time>
      </trkpt>
      <trkpt lat="43.34052" lon="5.26044">
        <ele>15</ele>
        <time>2024-11-26T10:10:49.358+00:00</time>
      </trkpt>
      <trkpt lat="43.34053" lon="5.26044">
        <ele>15</ele>
        <time>2024-11-26T10:10:53.615+00:00</time>
      </trkpt>
      <trkpt lat="43.34055" lon="5.26044">
        <ele>15</ele>
        <time>2024-11-26T10:10:57.651+00:00</time>
      </trkpt>
      <trkpt lat="43.34058" lon="5.26043">
        <ele>15</ele>
        <time>2024-11-26T10:11:01.857+00:00</time>
      </trkpt>
      <trkpt lat="43.3406" lon="5.2604">
        <ele>21</ele>
        <time>2024-11-26T10:11:06.655+00:00</time>
      </trkpt>
      <trkpt lat="43.34061" lon="5.26036">
        <ele>21</ele>
        <time>2024-11-26T10:11:10.691+00:00</time>
      </trkpt>
      <trkpt lat="43.34059" lon="5.2603">
        <ele>21</ele>
        <time>2024-11-26T10:11:15.856+00:00</time>
      </trkpt>
      <trkpt lat="43.34058" lon="5.26025">
        <ele>21</ele>
        <time>2024-11-26T10:11:20.470+00:00</time>
      </trkpt>
      <trkpt lat="43.34057" lon="5.2602">
        <ele>21</ele>
        <time>2024-11-26T10:11:24.857+00:00</time>
      </trkpt>
      <trkpt lat="43.34056" lon="5.26014">
        <ele>21</ele>
        <time>2024-11-26T10:11:29.601+00:00</time>
      </trkpt>
      <trkpt lat="43.34056" lon="5.26009">
        <ele>28</ele>
        <time>2024-11-26T10:11:33.791+00:00</time>
      </trkpt>
      <trkpt lat="43.34057" lon="5.26003">
        <ele>28</ele>
        <time>2024-11-26T10:11:38.153+00:00</time>
      </trkpt>
      <trkpt lat="43.34058" lon="5.25998">
        <ele>28</ele>
        <time>2024-11-26T10:11:42.538+00:00</time>
      </trkpt>
      <trkpt lat="43.34056" lon="5.25993">
        <ele>28</ele>
        <time>2024-11-26T10:11:46.857+00:00</time>
      </trkpt>
      <trkpt lat="43.34054" lon="5.25988">
        <ele>28</ele>
        <time>2024-11-26T10:11:51.831+00:00</time>
      </trkpt>
      <trkpt lat="43.34052" lon="5.25982">
        <ele>33</ele>
        <time>2024-11-26T10:11:56.857+00:00</time>
      </trkpt>
      <trkpt lat="43.34049" lon="5.25977">
        <ele>33</ele>
        <time>2024-11-26T10:12:01.456+00:00</time>
      </trkpt>
      <trkpt lat="43.34048" lon="5.25972">
        <ele>33</ele>
        <time>2024-11-26T10:12:05.856+00:00</time>
      </trkpt>
      <trkpt lat="43.34044" lon="5.25967">
        <ele>33</ele>
        <time>2024-11-26T10:12:10.732+00:00</time>
      </trkpt>
      <trkpt lat="43.34033" lon="5.25964">
        <ele>27</ele>
        <time>2024-11-26T10:12:32.857+00:00</time>
      </trkpt>
      <trkpt lat="43.34033" lon="5.25964">
        <ele>27</ele>
        <time>2024-11-26T10:12:37.856+00:00</time>
      </trkpt>
      <trkpt lat="43.34034" lon="5.25956">
        <ele>31</ele>
        <time>2024-11-26T10:12:41.856+00:00</time>
      </trkpt>
      <trkpt lat="43.34031" lon="5.25949">
        <ele>31</ele>
        <time>2024-11-26T10:12:46.857+00:00</time>
      </trkpt>
      <trkpt lat="43.34032" lon="5.25948">
        <ele>31</ele>
        <time>2024-11-26T10:12:51.856+00:00</time>
      </trkpt>
      <trkpt lat="43.34031" lon="5.25949">
        <ele>31</ele>
        <time>2024-11-26T10:13:26.856+00:00</time>
      </trkpt>
      <trkpt lat="43.3403" lon="5.25949">
        <ele>31</ele>
        <time>2024-11-26T10:13:32.856+00:00</time>
      </trkpt>
      <trkpt lat="43.3403" lon="5.25948">
        <ele>31</ele>
        <time>2024-11-26T10:13:37.100+00:00</time>
      </trkpt>
      <trkpt lat="43.34028" lon="5.25942">
        <ele>31</ele>
        <time>2024-11-26T10:13:41.477+00:00</time>
      </trkpt>
      <trkpt lat="43.34024" lon="5.25937">
        <ele>31</ele>
        <time>2024-11-26T10:13:45.856+00:00</time>
      </trkpt>
      <trkpt lat="43.34022" lon="5.25934">
        <ele>31</ele>
        <time>2024-11-26T10:13:50.719+00:00</time>
      </trkpt>
      <trkpt lat="43.3402" lon="5.25932">
        <ele>31</ele>
        <time>2024-11-26T10:13:54.856+00:00</time>
      </trkpt>
      <trkpt lat="43.34017" lon="5.25928">
        <ele>32</ele>
        <time>2024-11-26T10:13:59.739+00:00</time>
      </trkpt>
      <trkpt lat="43.34014" lon="5.25924">
        <ele>32</ele>
        <time>2024-11-26T10:14:04.297+00:00</time>
      </trkpt>
      <trkpt lat="43.34012" lon="5.2592">
        <ele>26</ele>
        <time>2024-11-26T10:14:08.536+00:00</time>
      </trkpt>
      <trkpt lat="43.34011" lon="5.25916">
        <ele>26</ele>
        <time>2024-11-26T10:14:12.856+00:00</time>
      </trkpt>
      <trkpt lat="43.34009" lon="5.25911">
        <ele>26</ele>
        <time>2024-11-26T10:14:17.377+00:00</time>
      </trkpt>
      <trkpt lat="43.34006" lon="5.25908">
        <ele>26</ele>
        <time>2024-11-26T10:14:21.876+00:00</time>
      </trkpt>
      <trkpt lat="43.34003" lon="5.25906">
        <ele>26</ele>
        <time>2024-11-26T10:14:26.574+00:00</time>
      </trkpt>
      <trkpt lat="43.34003" lon="5.25903">
        <ele>23</ele>
        <time>2024-11-26T10:14:30.855+00:00</time>
      </trkpt>
      <trkpt lat="43.34003" lon="5.25897">
        <ele>23</ele>
        <time>2024-11-26T10:14:35.759+00:00</time>
      </trkpt>
      <trkpt lat="43.34003" lon="5.25893">
        <ele>23</ele>
        <time>2024-11-26T10:14:39.856+00:00</time>
      </trkpt>
      <trkpt lat="43.34003" lon="5.25892">
        <ele>23</ele>
        <time>2024-11-26T10:14:44.719+00:00</time>
      </trkpt>
      <trkpt lat="43.34003" lon="5.25887">
        <ele>23</ele>
        <time>2024-11-26T10:14:48.856+00:00</time>
      </trkpt>
      <trkpt lat="43.34001" lon="5.25882">
        <ele>23</ele>
        <time>2024-11-26T10:14:52.952+00:00</time>
      </trkpt>
      <trkpt lat="43.33999" lon="5.25878">
        <ele>23</ele>
        <time>2024-11-26T10:14:57.253+00:00</time>
      </trkpt>
      <trkpt lat="43.33998" lon="5.25874">
        <ele>21</ele>
        <time>2024-11-26T10:15:01.793+00:00</time>
      </trkpt>
      <trkpt lat="43.33997" lon="5.25867">
        <ele>21</ele>
        <time>2024-11-26T10:15:06.159+00:00</time>
      </trkpt>
      <trkpt lat="43.33995" lon="5.25861">
        <ele>21</ele>
        <time>2024-11-26T10:15:10.651+00:00</time>
      </trkpt>
      <trkpt lat="43.33995" lon="5.25856">
        <ele>21</ele>
        <time>2024-11-26T10:15:15.113+00:00</time>
      </trkpt>
      <trkpt lat="43.33987" lon="5.25844">
        <ele>19</ele>
        <time>2024-11-26T10:16:52.692+00:00</time>
      </trkpt>
      <trkpt lat="43.33987" lon="5.25843">
        <ele>19</ele>
        <time>2024-11-26T10:16:56.856+00:00</time>
      </trkpt>
      <trkpt lat="43.33987" lon="5.25843">
        <ele>19</ele>
        <time>2024-11-26T10:17:00.856+00:00</time>
      </trkpt>
      <trkpt lat="43.33987" lon="5.25841">
        <ele>19</ele>
        <time>2024-11-26T10:17:05.416+00:00</time>
      </trkpt>
      <trkpt lat="43.33986" lon="5.25836">
        <ele>14</ele>
        <time>2024-11-26T10:17:09.856+00:00</time>
      </trkpt>
      <trkpt lat="43.33984" lon="5.2583">
        <ele>14</ele>
        <time>2024-11-26T10:17:14.255+00:00</time>
      </trkpt>
      <trkpt lat="43.33981" lon="5.25823">
        <ele>14</ele>
        <time>2024-11-26T10:17:18.838+00:00</time>
      </trkpt>
      <trkpt lat="43.33979" lon="5.25819">
        <ele>16</ele>
        <time>2024-11-26T10:17:22.856+00:00</time>
      </trkpt>
      <trkpt lat="43.33978" lon="5.25818">
        <ele>16</ele>
        <time>2024-11-26T10:17:27.576+00:00</time>
      </trkpt>
      <trkpt lat="43.33973" lon="5.25818">
        <ele>16</ele>
        <time>2024-11-26T10:18:29.855+00:00</time>
      </trkpt>
      <trkpt lat="43.33972" lon="5.25813">
        <ele>16</ele>
        <time>2024-11-26T10:18:33.856+00:00</time>
      </trkpt>
      <trkpt lat="43.33972" lon="5.25812">
        <ele>16</ele>
        <time>2024-11-26T10:18:39.856+00:00</time>
      </trkpt>
      <trkpt lat="43.33971" lon="5.2581">
        <ele>16</ele>
        <time>2024-11-26T10:18:44.856+00:00</time>
      </trkpt>
      <trkpt lat="43.33965" lon="5.25809">
        <ele>16</ele>
        <time>2024-11-26T10:18:49.643+00:00</time>
      </trkpt>
      <trkpt lat="43.33959" lon="5.2581">
        <ele>16</ele>
        <time>2024-11-26T10:18:54.212+00:00</time>
      </trkpt>
      <trkpt lat="43.33954" lon="5.25808">
        <ele>11</ele>
        <time>2024-11-26T10:18:58.498+00:00</time>
      </trkpt>
      <trkpt lat="43.33949" lon="5.25804">
        <ele>11</ele>
        <time>2024-11-26T10:19:02.855+00:00</time>
      </trkpt>
      <trkpt lat="43.33945" lon="5.25799">
        <ele>11</ele>
        <time>2024-11-26T10:19:07.774+00:00</time>
      </trkpt>
      <trkpt lat="43.3394" lon="5.25786">
        <ele>12</ele>
        <time>2024-11-26T10:19:42.855+00:00</time>
      </trkpt>
      <trkpt lat="43.33939" lon="5.25783">
        <ele>12</ele>
        <time>2024-11-26T10:19:46.854+00:00</time>
      </trkpt>
      <trkpt lat="43.33935" lon="5.25778">
        <ele>12</ele>
        <time>2024-11-26T10:19:51.855+00:00</time>
      </trkpt>
      <trkpt lat="43.33933" lon="5.25778">
        <ele>12</ele>
        <time>2024-11-26T10:19:55.854+00:00</time>
      </trkpt>
      <trkpt lat="43.33928" lon="5.25779">
        <ele>11</ele>
        <time>2024-11-26T10:20:00.855+00:00</time>
      </trkpt>
      <trkpt lat="43.33924" lon="5.2578">
        <ele>11</ele>
        <time>2024-11-26T10:20:04.855+00:00</time>
      </trkpt>
      <trkpt lat="43.33921" lon="5.25779">
        <ele>11</ele>
        <time>2024-11-26T10:20:09.014+00:00</time>
      </trkpt>
      <trkpt lat="43.33918" lon="5.25781">
        <ele>11</ele>
        <time>2024-11-26T10:20:13.855+00:00</time>
      </trkpt>
      <trkpt lat="43.33914" lon="5.25783">
        <ele>11</ele>
        <time>2024-11-26T10:20:18.438+00:00</time>
      </trkpt>
      <trkpt lat="43.33912" lon="5.25783">
        <ele>11</ele>
        <time>2024-11-26T10:20:22.575+00:00</time>
      </trkpt>
      <trkpt lat="43.33909" lon="5.25783">
        <ele>11</ele>
        <time>2024-11-26T10:20:26.855+00:00</time>
      </trkpt>
      <trkpt lat="43.33905" lon="5.25783">
        <ele>11</ele>
        <time>2024-11-26T10:20:31.365+00:00</time>
      </trkpt>
      <trkpt lat="43.33902" lon="5.2578">
        <ele>16</ele>
        <time>2024-11-26T10:20:35.438+00:00</time>
      </trkpt>
      <trkpt lat="43.33912" lon="5.25766">
        <ele>11</ele>
        <time>2024-11-26T10:21:29.855+00:00</time>
      </trkpt>
      <trkpt lat="43.33913" lon="5.25765">
        <ele>11</ele>
        <time>2024-11-26T10:21:34.389+00:00</time>
      </trkpt>
      <trkpt lat="43.33915" lon="5.25763">
        <ele>15</ele>
        <time>2024-11-26T10:21:38.656+00:00</time>
      </trkpt>
      <trkpt lat="43.33918" lon="5.2576">
        <ele>15</ele>
        <time>2024-11-26T10:21:42.873+00:00</time>
      </trkpt>
      <trkpt lat="43.3392" lon="5.25756">
        <ele>15</ele>
        <time>2024-11-26T10:21:47.412+00:00</time>
      </trkpt>
      <trkpt lat="43.33921" lon="5.25753">
        <ele>15</ele>
        <time>2024-11-26T10:21:51.855+00:00</time>
      </trkpt>
      <trkpt lat="43.33926" lon="5.25752">
        <ele>15</ele>
        <time>2024-11-26T10:21:56.357+00:00</time>
      </trkpt>
      <trkpt lat="43.33931" lon="5.25749">
        <ele>14</ele>
        <time>2024-11-26T10:22:00.767+00:00</time>
      </trkpt>
      <trkpt lat="43.33936" lon="5.25746">
        <ele>14</ele>
        <time>2024-11-26T10:22:04.855+00:00</time>
      </trkpt>
      <trkpt lat="43.3394" lon="5.25744">
        <ele>14</ele>
        <time>2024-11-26T10:22:09.174+00:00</time>
      </trkpt>
      <trkpt lat="43.33944" lon="5.25743">
        <ele>14</ele>
        <time>2024-11-26T10:22:13.655+00:00</time>
      </trkpt>
      <trkpt lat="43.33949" lon="5.2574">
        <ele>14</ele>
        <time>2024-11-26T10:22:17.752+00:00</time>
      </trkpt>
      <trkpt lat="43.33953" lon="5.25736">
        <ele>14</ele>
        <time>2024-11-26T10:22:21.831+00:00</time>
      </trkpt>
      <trkpt lat="43.33956" lon="5.25734">
        <ele>17</ele>
        <time>2024-11-26T10:22:25.855+00:00</time>
      </trkpt>
      <trkpt lat="43.3396" lon="5.25732">
        <ele>20</ele>
        <time>2024-11-26T10:22:30.133+00:00</time>
      </trkpt>
      <trkpt lat="43.33966" lon="5.2573">
        <ele>20</ele>
        <time>2024-11-26T10:22:34.855+00:00</time>
      </trkpt>
      <trkpt lat="43.3397" lon="5.25729">
        <ele>20</ele>
        <time>2024-11-26T10:22:38.854+00:00</time>
      </trkpt>
      <trkpt lat="43.33974" lon="5.25719">
        <ele>20</ele>
        <time>2024-11-26T10:22:52.553+00:00</time>
      </trkpt>
      <trkpt lat="43.33971" lon="5.25719">
        <ele>20</ele>
        <time>2024-11-26T10:22:56.854+00:00</time>
      </trkpt>
      <trkpt lat="43.33967" lon="5.2572">
        <ele>20</ele>
        <time>2024-11-26T10:23:01.470+00:00</time>
      </trkpt>
      <trkpt lat="43.33965" lon="5.25717">
        <ele>20</ele>
        <time>2024-11-26T10:23:05.855+00:00</time>
      </trkpt>
      <trkpt lat="43.33964" lon="5.25714">
        <ele>20</ele>
        <time>2024-11-26T10:23:10.593+00:00</time>
      </trkpt>
      <trkpt lat="43.33964" lon="5.25707">
        <ele>26</ele>
        <time>2024-11-26T10:23:14.674+00:00</time>
      </trkpt>
      <trkpt lat="43.33963" lon="5.257">
        <ele>26</ele>
        <time>2024-11-26T10:23:18.855+00:00</time>
      </trkpt>
      <trkpt lat="43.33962" lon="5.25693">
        <ele>26</ele>
        <time>2024-11-26T10:23:23.154+00:00</time>
      </trkpt>
      <trkpt lat="43.3396" lon="5.25689">
        <ele>26</ele>
        <time>2024-11-26T10:23:27.771+00:00</time>
      </trkpt>
      <trkpt lat="43.33958" lon="5.25683">
        <ele>23</ele>
        <time>2024-11-26T10:23:32.012+00:00</time>
      </trkpt>
      <trkpt lat="43.33955" lon="5.25677">
        <ele>26</ele>
        <time>2024-11-26T10:23:36.855+00:00</time>
      </trkpt>
      <trkpt lat="43.33953" lon="5.25671">
        <ele>26</ele>
        <time>2024-11-26T10:23:41.672+00:00</time>
      </trkpt>
      <trkpt lat="43.33951" lon="5.25666">
        <ele>26</ele>
        <time>2024-11-26T10:23:45.854+00:00</time>
      </trkpt>
      <trkpt lat="43.3395" lon="5.25662">
        <ele>26</ele>
        <time>2024-11-26T10:23:50.368+00:00</time>
      </trkpt>
      <trkpt lat="43.33947" lon="5.25656">
        <ele>26</ele>
        <time>2024-11-26T10:23:54.695+00:00</time>
      </trkpt>
      <trkpt lat="43.33947" lon="5.25651">
        <ele>28</ele>
        <time>2024-11-26T10:23:59.269+00:00</time>
      </trkpt>
      <trkpt lat="43.33948" lon="5.25645">
        <ele>28</ele>
        <time>2024-11-26T10:24:03.451+00:00</time>
      </trkpt>
      <trkpt lat="43.33951" lon="5.25642">
        <ele>28</ele>
        <time>2024-11-26T10:24:07.855+00:00</time>
      </trkpt>
      <trkpt lat="43.33954" lon="5.25639">
        <ele>28</ele>
        <time>2024-11-26T10:24:12.557+00:00</time>
      </trkpt>
      <trkpt lat="43.33957" lon="5.25635">
        <ele>28</ele>
        <time>2024-11-26T10:24:17.371+00:00</time>
      </trkpt>
      <trkpt lat="43.33959" lon="5.25633">
        <ele>34</ele>
        <time>2024-11-26T10:24:21.849+00:00</time>
      </trkpt>
      <trkpt lat="43.3396" lon="5.25628">
        <ele>34</ele>
        <time>2024-11-26T10:24:26.108+00:00</time>
      </trkpt>
      <trkpt lat="43.33963" lon="5.25624">
        <ele>38</ele>
        <time>2024-11-26T10:24:30.855+00:00</time>
      </trkpt>
      <trkpt lat="43.33964" lon="5.25619">
        <ele>38</ele>
        <time>2024-11-26T10:24:35.187+00:00</time>
      </trkpt>
      <trkpt lat="43.33966" lon="5.25613">
        <ele>38</ele>
        <time>2024-11-26T10:24:39.854+00:00</time>
      </trkpt>
      <trkpt lat="43.33971" lon="5.25607">
        <ele>38</ele>
        <time>2024-11-26T10:24:44.073+00:00</time>
      </trkpt>
      <trkpt lat="43.33972" lon="5.256">
        <ele>38</ele>
        <time>2024-11-26T10:24:48.552+00:00</time>
      </trkpt>
      <trkpt lat="43.33973" lon="5.25597">
        <ele>40</ele>
        <time>2024-11-26T10:24:52.854+00:00</time>
      </trkpt>
      <trkpt lat="43.33971" lon="5.25592">
        <ele>40</ele>
        <time>2024-11-26T10:24:57.231+00:00</time>
      </trkpt>
      <trkpt lat="43.33968" lon="5.25589">
        <ele>40</ele>
        <time>2024-11-26T10:25:01.531+00:00</time>
      </trkpt>
      <trkpt lat="43.33965" lon="5.25583">
        <ele>40</ele>
        <time>2024-11-26T10:25:05.772+00:00</time>
      </trkpt>
      <trkpt lat="43.33962" lon="5.25579">
        <ele>40</ele>
        <time>2024-11-26T10:25:09.852+00:00</time>
      </trkpt>
      <trkpt lat="43.33959" lon="5.25574">
        <ele>40</ele>
        <time>2024-11-26T10:25:14.033+00:00</time>
      </trkpt>
      <trkpt lat="43.33956" lon="5.25569">
        <ele>37</ele>
        <time>2024-11-26T10:25:18.411+00:00</time>
      </trkpt>
      <trkpt lat="43.33953" lon="5.25564">
        <ele>37</ele>
        <time>2024-11-26T10:25:22.515+00:00</time>
      </trkpt>
      <trkpt lat="43.33949" lon="5.25558">
        <ele>37</ele>
        <time>2024-11-26T10:25:26.854+00:00</time>
      </trkpt>
      <trkpt lat="43.33946" lon="5.25551">
        <ele>37</ele>
        <time>2024-11-26T10:25:31.091+00:00</time>
      </trkpt>
      <trkpt lat="43.33943" lon="5.25545">
        <ele>37</ele>
        <time>2024-11-26T10:25:35.349+00:00</time>
      </trkpt>
      <trkpt lat="43.33939" lon="5.25541">
        <ele>40</ele>
        <time>2024-11-26T10:25:39.488+00:00</time>
      </trkpt>
      <trkpt lat="43.33936" lon="5.25535">
        <ele>40</ele>
        <time>2024-11-26T10:25:43.640+00:00</time>
      </trkpt>
      <trkpt lat="43.33932" lon="5.2553">
        <ele>40</ele>
        <time>2024-11-26T10:25:47.851+00:00</time>
      </trkpt>
      <trkpt lat="43.33927" lon="5.25526">
        <ele>36</ele>
        <time>2024-11-26T10:25:52.194+00:00</time>
      </trkpt>
      <trkpt lat="43.33924" lon="5.25522">
        <ele>36</ele>
        <time>2024-11-26T10:25:56.529+00:00</time>
      </trkpt>
      <trkpt lat="43.33921" lon="5.25517">
        <ele>36</ele>
        <time>2024-11-26T10:26:00.854+00:00</time>
      </trkpt>
      <trkpt lat="43.33917" lon="5.25511">
        <ele>40</ele>
        <time>2024-11-26T10:26:05.854+00:00</time>
      </trkpt>
      <trkpt lat="43.33913" lon="5.25505">
        <ele>40</ele>
        <time>2024-11-26T10:26:10.575+00:00</time>
      </trkpt>
      <trkpt lat="43.33909" lon="5.255">
        <ele>40</ele>
        <time>2024-11-26T10:26:15.251+00:00</time>
      </trkpt>
      <trkpt lat="43.33905" lon="5.25495">
        <ele>40</ele>
        <time>2024-11-26T10:26:19.313+00:00</time>
      </trkpt>
      <trkpt lat="43.33902" lon="5.2549">
        <ele>35</ele>
        <time>2024-11-26T10:26:23.854+00:00</time>
      </trkpt>
      <trkpt lat="43.33899" lon="5.25485">
        <ele>41</ele>
        <time>2024-11-26T10:26:28.495+00:00</time>
      </trkpt>
      <trkpt lat="43.33895" lon="5.25482">
        <ele>41</ele>
        <time>2024-11-26T10:26:32.854+00:00</time>
      </trkpt>
      <trkpt lat="43.3389" lon="5.25477">
        <ele>41</ele>
        <time>2024-11-26T10:26:37.693+00:00</time>
      </trkpt>
      <trkpt lat="43.33885" lon="5.25476">
        <ele>41</ele>
        <time>2024-11-26T10:26:41.908+00:00</time>
      </trkpt>
      <trkpt lat="43.33883" lon="5.25471">
        <ele>41</ele>
        <time>2024-11-26T10:26:46.491+00:00</time>
      </trkpt>
      <trkpt lat="43.33879" lon="5.25466">
        <ele>41</ele>
        <time>2024-11-26T10:26:50.854+00:00</time>
      </trkpt>
      <trkpt lat="43.33876" lon="5.2546">
        <ele>41</ele>
        <time>2024-11-26T10:26:55.195+00:00</time>
      </trkpt>
      <trkpt lat="43.33874" lon="5.25454">
        <ele>44</ele>
        <time>2024-11-26T10:26:59.499+00:00</time>
      </trkpt>
      <trkpt lat="43.3387" lon="5.2545">
        <ele>44</ele>
        <time>2024-11-26T10:27:03.854+00:00</time>
      </trkpt>
      <trkpt lat="43.33866" lon="5.25445">
        <ele>44</ele>
        <time>2024-11-26T10:27:08.772+00:00</time>
      </trkpt>
      <trkpt lat="43.33861" lon="5.25442">
        <ele>44</ele>
        <time>2024-11-26T10:27:13.431+00:00</time>
      </trkpt>
      <trkpt lat="43.33857" lon="5.25437">
        <ele>44</ele>
        <time>2024-11-26T10:27:17.509+00:00</time>
      </trkpt>
      <trkpt lat="43.33853" lon="5.25433">
        <ele>44</ele>
        <time>2024-11-26T10:27:21.750+00:00</time>
      </trkpt>
      <trkpt lat="43.33849" lon="5.2543">
        <ele>56</ele>
        <time>2024-11-26T10:27:25.795+00:00</time>
      </trkpt>
      <trkpt lat="43.33845" lon="5.25427">
        <ele>45</ele>
        <time>2024-11-26T10:27:29.854+00:00</time>
      </trkpt>
      <trkpt lat="43.3384" lon="5.25424">
        <ele>45</ele>
        <time>2024-11-26T10:27:34.303+00:00</time>
      </trkpt>
      <trkpt lat="43.33836" lon="5.25419">
        <ele>45</ele>
        <time>2024-11-26T10:27:38.510+00:00</time>
      </trkpt>
      <trkpt lat="43.33832" lon="5.25416">
        <ele>45</ele>
        <time>2024-11-26T10:27:42.853+00:00</time>
      </trkpt>
      <trkpt lat="43.33828" lon="5.25411">
        <ele>45</ele>
        <time>2024-11-26T10:27:47.213+00:00</time>
      </trkpt>
      <trkpt lat="43.33824" lon="5.25405">
        <ele>45</ele>
        <time>2024-11-26T10:27:51.854+00:00</time>
      </trkpt>
      <trkpt lat="43.33821" lon="5.254">
        <ele>52</ele>
        <time>2024-11-26T10:27:56.796+00:00</time>
      </trkpt>
      <trkpt lat="43.33816" lon="5.25396">
        <ele>38</ele>
        <time>2024-11-26T10:28:01.693+00:00</time>
      </trkpt>
      <trkpt lat="43.33813" lon="5.25392">
        <ele>38</ele>
        <time>2024-11-26T10:28:05.854+00:00</time>
      </trkpt>
      <trkpt lat="43.33809" lon="5.25387">
        <ele>38</ele>
        <time>2024-11-26T10:28:10.551+00:00</time>
      </trkpt>
      <trkpt lat="43.33805" lon="5.25383">
        <ele>38</ele>
        <time>2024-11-26T10:28:14.854+00:00</time>
      </trkpt>
      <trkpt lat="43.33802" lon="5.25378">
        <ele>38</ele>
        <time>2024-11-26T10:28:19.460+00:00</time>
      </trkpt>
      <trkpt lat="43.33797" lon="5.25374">
        <ele>38</ele>
        <time>2024-11-26T10:28:23.853+00:00</time>
      </trkpt>
      <trkpt lat="43.33793" lon="5.25369">
        <ele>38</ele>
        <time>2024-11-26T10:28:28.795+00:00</time>
      </trkpt>
      <trkpt lat="43.33789" lon="5.25365">
        <ele>28</ele>
        <time>2024-11-26T10:28:32.854+00:00</time>
      </trkpt>
      <trkpt lat="43.33788" lon="5.25358">
        <ele>28</ele>
        <time>2024-11-26T10:28:37.854+00:00</time>
      </trkpt>
      <trkpt lat="43.3379" lon="5.25352">
        <ele>28</ele>
        <time>2024-11-26T10:28:42.854+00:00</time>
      </trkpt>
      <trkpt lat="43.33793" lon="5.25349">
        <ele>38</ele>
        <time>2024-11-26T10:28:47.535+00:00</time>
      </trkpt>
      <trkpt lat="43.33795" lon="5.25344">
        <ele>33</ele>
        <time>2024-11-26T10:28:51.854+00:00</time>
      </trkpt>
      <trkpt lat="43.33797" lon="5.25339">
        <ele>33</ele>
        <time>2024-11-26T10:28:56.853+00:00</time>
      </trkpt>
      <trkpt lat="43.33801" lon="5.25336">
        <ele>33</ele>
        <time>2024-11-26T10:29:01.229+00:00</time>
      </trkpt>
      <trkpt lat="43.33804" lon="5.25332">
        <ele>33</ele>
        <time>2024-11-26T10:29:05.853+00:00</time>
      </trkpt>
      <trkpt lat="43.33807" lon="5.25327">
        <ele>33</ele>
        <time>2024-11-26T10:29:10.590+00:00</time>
      </trkpt>
      <trkpt lat="43.33813" lon="5.25326">
        <ele>33</ele>
        <time>2024-11-26T10:29:14.854+00:00</time>
      </trkpt>
      <trkpt lat="43.33815" lon="5.2532">
        <ele>33</ele>
        <time>2024-11-26T10:29:19.697+00:00</time>
      </trkpt>
      <trkpt lat="43.33816" lon="5.25314">
        <ele>32</ele>
        <time>2024-11-26T10:29:23.854+00:00</time>
      </trkpt>
      <trkpt lat="43.33816" lon="5.25308">
        <ele>32</ele>
        <time>2024-11-26T10:29:28.450+00:00</time>
      </trkpt>
      <trkpt lat="43.33815" lon="5.25302">
        <ele>32</ele>
        <time>2024-11-26T10:29:33.271+00:00</time>
      </trkpt>
      <trkpt lat="43.33812" lon="5.25299">
        <ele>32</ele>
        <time>2024-11-26T10:29:37.469+00:00</time>
      </trkpt>
      <trkpt lat="43.33812" lon="5.25299">
        <ele>32</ele>
        <time>2024-11-26T10:29:38.177+00:00</time>
      </trkpt>
      <trkpt lat="43.33811" lon="5.25289">
        <ele>31</ele>
        <time>2024-11-26T10:29:47.637+00:00</time>
      </trkpt>
      <trkpt lat="43.33812" lon="5.25287">
        <ele>31</ele>
        <time>2024-11-26T10:29:52.193+00:00</time>
      </trkpt>
      <trkpt lat="43.33817" lon="5.25285">
        <ele>31</ele>
        <time>2024-11-26T10:29:56.511+00:00</time>
      </trkpt>
      <trkpt lat="43.33821" lon="5.25285">
        <ele>41</ele>
        <time>2024-11-26T10:30:00.589+00:00</time>
      </trkpt>
      <trkpt lat="43.33826" lon="5.25281">
        <ele>41</ele>
        <time>2024-11-26T10:30:04.854+00:00</time>
      </trkpt>
      <trkpt lat="43.33824" lon="5.25276">
        <ele>41</ele>
        <time>2024-11-26T10:30:14.854+00:00</time>
      </trkpt>
      <trkpt lat="43.33825" lon="5.25271">
        <ele>41</ele>
        <time>2024-11-26T10:30:19.174+00:00</time>
      </trkpt>
      <trkpt lat="43.33823" lon="5.25268">
        <ele>41</ele>
        <time>2024-11-26T10:30:23.854+00:00</time>
      </trkpt>
      <trkpt lat="43.33821" lon="5.25269">
        <ele>41</ele>
        <time>2024-11-26T10:30:28.793+00:00</time>
      </trkpt>
      <trkpt lat="43.33817" lon="5.25271">
        <ele>31</ele>
        <time>2024-11-26T10:30:33.135+00:00</time>
      </trkpt>
      <trkpt lat="43.33815" lon="5.2526">
        <ele>35</ele>
        <time>2024-11-26T10:30:50.854+00:00</time>
      </trkpt>
      <trkpt lat="43.33812" lon="5.25255">
        <ele>35</ele>
        <time>2024-11-26T10:30:55.357+00:00</time>
      </trkpt>
      <trkpt lat="43.33808" lon="5.25252">
        <ele>35</ele>
        <time>2024-11-26T10:30:59.411+00:00</time>
      </trkpt>
      <trkpt lat="43.33804" lon="5.25252">
        <ele>35</ele>
        <time>2024-11-26T10:31:03.693+00:00</time>
      </trkpt>
      <trkpt lat="43.33803" lon="5.25253">
        <ele>35</ele>
        <time>2024-11-26T10:31:07.854+00:00</time>
      </trkpt>
      <trkpt lat="43.33803" lon="5.25254">
        <ele>35</ele>
        <time>2024-11-26T10:31:12.269+00:00</time>
      </trkpt>
      <trkpt lat="43.33802" lon="5.25253">
        <ele>35</ele>
        <time>2024-11-26T10:31:16.415+00:00</time>
      </trkpt>
      <trkpt lat="43.33799" lon="5.25254">
        <ele>35</ele>
        <time>2024-11-26T10:31:20.614+00:00</time>
      </trkpt>
      <trkpt lat="43.33795" lon="5.25254">
        <ele>35</ele>
        <time>2024-11-26T10:31:24.693+00:00</time>
      </trkpt>
      <trkpt lat="43.33793" lon="5.25252">
        <ele>35</ele>
        <time>2024-11-26T10:31:28.853+00:00</time>
      </trkpt>
      <trkpt lat="43.33785" lon="5.25256">
        <ele>32</ele>
        <time>2024-11-26T10:31:59.853+00:00</time>
      </trkpt>
      <trkpt lat="43.33785" lon="5.25257">
        <ele>32</ele>
        <time>2024-11-26T10:32:04.853+00:00</time>
      </trkpt>
      <trkpt lat="43.33784" lon="5.25257">
        <ele>32</ele>
        <time>2024-11-26T10:32:09.312+00:00</time>
      </trkpt>
      <trkpt lat="43.33782" lon="5.25258">
        <ele>32</ele>
        <time>2024-11-26T10:32:13.494+00:00</time>
      </trkpt>
      <trkpt lat="43.3378" lon="5.25259">
        <ele>32</ele>
        <time>2024-11-26T10:32:18.853+00:00</time>
      </trkpt>
      <trkpt lat="43.33778" lon="5.25261">
        <ele>32</ele>
        <time>2024-11-26T10:32:42.853+00:00</time>
      </trkpt>
      <trkpt lat="43.33777" lon="5.25261">
        <ele>32</ele>
        <time>2024-11-26T10:32:43.853+00:00</time>
      </trkpt>
      <trkpt lat="43.33776" lon="5.25264">
        <ele>32</ele>
        <time>2024-11-26T10:32:51.853+00:00</time>
      </trkpt>
      <trkpt lat="43.33772" lon="5.25265">
        <ele>23</ele>
        <time>2024-11-26T10:32:56.853+00:00</time>
      </trkpt>
      <trkpt lat="43.33772" lon="5.25268">
        <ele>23</ele>
        <time>2024-11-26T10:33:01.853+00:00</time>
      </trkpt>
      <trkpt lat="43.33771" lon="5.25266">
        <ele>23</ele>
        <time>2024-11-26T10:33:22.853+00:00</time>
      </trkpt>
      <trkpt lat="43.3377" lon="5.25266">
        <ele>23</ele>
        <time>2024-11-26T10:33:27.576+00:00</time>
      </trkpt>
      <trkpt lat="43.33767" lon="5.25265">
        <ele>23</ele>
        <time>2024-11-26T10:33:31.853+00:00</time>
      </trkpt>
      <trkpt lat="43.33764" lon="5.25265">
        <ele>17</ele>
        <time>2024-11-26T10:33:36.655+00:00</time>
      </trkpt>
      <trkpt lat="43.3376" lon="5.25265">
        <ele>17</ele>
        <time>2024-11-26T10:33:40.769+00:00</time>
      </trkpt>
      <trkpt lat="43.33755" lon="5.25261">
        <ele>28</ele>
        <time>2024-11-26T10:33:45.709+00:00</time>
      </trkpt>
      <trkpt lat="43.33752" lon="5.25258">
        <ele>28</ele>
        <time>2024-11-26T10:33:49.853+00:00</time>
      </trkpt>
      <trkpt lat="43.33748" lon="5.25253">
        <ele>28</ele>
        <time>2024-11-26T10:33:54.414+00:00</time>
      </trkpt>
      <trkpt lat="43.33743" lon="5.25251">
        <ele>28</ele>
        <time>2024-11-26T10:33:58.835+00:00</time>
      </trkpt>
      <trkpt lat="43.33735" lon="5.25248">
        <ele>25</ele>
        <time>2024-11-26T10:34:21.853+00:00</time>
      </trkpt>
      <trkpt lat="43.33734" lon="5.25248">
        <ele>25</ele>
        <time>2024-11-26T10:34:27.853+00:00</time>
      </trkpt>
      <trkpt lat="43.33734" lon="5.25248">
        <ele>25</ele>
        <time>2024-11-26T10:34:31.996+00:00</time>
      </trkpt>
      <trkpt lat="43.33732" lon="5.25248">
        <ele>25</ele>
        <time>2024-11-26T10:34:36.272+00:00</time>
      </trkpt>
      <trkpt lat="43.33731" lon="5.25248">
        <ele>25</ele>
        <time>2024-11-26T10:34:37.458+00:00</time>
      </trkpt>
      <trkpt lat="43.3373" lon="5.25249">
        <ele>25</ele>
        <time>2024-11-26T10:34:48.394+00:00</time>
      </trkpt>
      <trkpt lat="43.33725" lon="5.25249">
        <ele>25</ele>
        <time>2024-11-26T10:34:52.491+00:00</time>
      </trkpt>
      <trkpt lat="43.33723" lon="5.25247">
        <ele>25</ele>
        <time>2024-11-26T10:34:56.630+00:00</time>
      </trkpt>
      <trkpt lat="43.33717" lon="5.25246">
        <ele>25</ele>
        <time>2024-11-26T10:35:00.853+00:00</time>
      </trkpt>
      <trkpt lat="43.33713" lon="5.25245">
        <ele>25</ele>
        <time>2024-11-26T10:35:05.785+00:00</time>
      </trkpt>
      <trkpt lat="43.33711" lon="5.25247">
        <ele>25</ele>
        <time>2024-11-26T10:35:09.805+00:00</time>
      </trkpt>
      <trkpt lat="43.33707" lon="5.25249">
        <ele>23</ele>
        <time>2024-11-26T10:35:14.686+00:00</time>
      </trkpt>
      <trkpt lat="43.33703" lon="5.25245">
        <ele>23</ele>
        <time>2024-11-26T10:35:19.047+00:00</time>
      </trkpt>
      <trkpt lat="43.337" lon="5.25243">
        <ele>23</ele>
        <time>2024-11-26T10:35:23.853+00:00</time>
      </trkpt>
      <trkpt lat="43.33698" lon="5.25241">
        <ele>23</ele>
        <time>2024-11-26T10:35:28.852+00:00</time>
      </trkpt>
      <trkpt lat="43.33692" lon="5.25246">
        <ele>23</ele>
        <time>2024-11-26T10:35:33.853+00:00</time>
      </trkpt>
      <trkpt lat="43.33688" lon="5.25245">
        <ele>23</ele>
        <time>2024-11-26T10:35:38.214+00:00</time>
      </trkpt>
      <trkpt lat="43.33685" lon="5.25248">
        <ele>23</ele>
        <time>2024-11-26T10:35:42.260+00:00</time>
      </trkpt>
      <trkpt lat="43.33685" lon="5.25254">
        <ele>23</ele>
        <time>2024-11-26T10:35:46.853+00:00</time>
      </trkpt>
      <trkpt lat="43.33685" lon="5.25254">
        <ele>23</ele>
        <time>2024-11-26T10:35:47.853+00:00</time>
      </trkpt>
      <trkpt lat="43.33687" lon="5.2526">
        <ele>23</ele>
        <time>2024-11-26T10:35:57.271+00:00</time>
      </trkpt>
      <trkpt lat="43.33684" lon="5.25264">
        <ele>15</ele>
        <time>2024-11-26T10:36:01.456+00:00</time>
      </trkpt>
      <trkpt lat="43.33678" lon="5.25268">
        <ele>12</ele>
        <time>2024-11-26T10:36:05.758+00:00</time>
      </trkpt>
      <trkpt lat="43.33673" lon="5.2527">
        <ele>12</ele>
        <time>2024-11-26T10:36:09.852+00:00</time>
      </trkpt>
      <trkpt lat="43.33668" lon="5.25269">
        <ele>12</ele>
        <time>2024-11-26T10:36:14.571+00:00</time>
      </trkpt>
      <trkpt lat="43.33664" lon="5.25264">
        <ele>21</ele>
        <time>2024-11-26T10:36:19.035+00:00</time>
      </trkpt>
      <trkpt lat="43.33661" lon="5.25257">
        <ele>21</ele>
        <time>2024-11-26T10:36:23.352+00:00</time>
      </trkpt>
      <trkpt lat="43.3366" lon="5.25252">
        <ele>21</ele>
        <time>2024-11-26T10:36:27.382+00:00</time>
      </trkpt>
      <trkpt lat="43.33656" lon="5.25246">
        <ele>21</ele>
        <time>2024-11-26T10:36:31.660+00:00</time>
      </trkpt>
      <trkpt lat="43.33654" lon="5.25238">
        <ele>21</ele>
        <time>2024-11-26T10:36:36.478+00:00</time>
      </trkpt>
      <trkpt lat="43.33652" lon="5.25235">
        <ele>23</ele>
        <time>2024-11-26T10:36:40.853+00:00</time>
      </trkpt>
      <trkpt lat="43.33649" lon="5.2523">
        <ele>23</ele>
        <time>2024-11-26T10:36:45.439+00:00</time>
      </trkpt>
      <trkpt lat="43.33647" lon="5.25225">
        <ele>23</ele>
        <time>2024-11-26T10:36:49.851+00:00</time>
      </trkpt>
      <trkpt lat="43.33646" lon="5.2522">
        <ele>23</ele>
        <time>2024-11-26T10:36:54.331+00:00</time>
      </trkpt>
      <trkpt lat="43.33644" lon="5.25214">
        <ele>23</ele>
        <time>2024-11-26T10:36:58.853+00:00</time>
      </trkpt>
      <trkpt lat="43.33643" lon="5.25208">
        <ele>23</ele>
        <time>2024-11-26T10:37:03.514+00:00</time>
      </trkpt>
      <trkpt lat="43.3364" lon="5.25204">
        <ele>28</ele>
        <time>2024-11-26T10:37:07.526+00:00</time>
      </trkpt>
      <trkpt lat="43.33636" lon="5.25199">
        <ele>28</ele>
        <time>2024-11-26T10:37:11.853+00:00</time>
      </trkpt>
      <trkpt lat="43.33634" lon="5.25192">
        <ele>28</ele>
        <time>2024-11-26T10:37:16.479+00:00</time>
      </trkpt>
      <trkpt lat="43.33631" lon="5.25186">
        <ele>28</ele>
        <time>2024-11-26T10:37:20.498+00:00</time>
      </trkpt>
      <trkpt lat="43.33627" lon="5.2518">
        <ele>33</ele>
        <time>2024-11-26T10:37:24.852+00:00</time>
      </trkpt>
      <trkpt lat="43.33625" lon="5.25176">
        <ele>33</ele>
        <time>2024-11-26T10:37:28.852+00:00</time>
      </trkpt>
      <trkpt lat="43.3362" lon="5.2517">
        <ele>21</ele>
        <time>2024-11-26T10:37:58.852+00:00</time>
      </trkpt>
      <trkpt lat="43.33619" lon="5.25169">
        <ele>21</ele>
        <time>2024-11-26T10:38:16.852+00:00</time>
      </trkpt>
      <trkpt lat="43.33616" lon="5.25167">
        <ele>21</ele>
        <time>2024-11-26T10:38:20.852+00:00</time>
      </trkpt>
      <trkpt lat="43.33613" lon="5.25164">
        <ele>21</ele>
        <time>2024-11-26T10:38:24.852+00:00</time>
      </trkpt>
      <trkpt lat="43.33608" lon="5.25162">
        <ele>21</ele>
        <time>2024-11-26T10:38:29.283+00:00</time>
      </trkpt>
      <trkpt lat="43.33605" lon="5.2516">
        <ele>21</ele>
        <time>2024-11-26T10:38:33.499+00:00</time>
      </trkpt>
      <trkpt lat="43.33603" lon="5.25155">
        <ele>21</ele>
        <time>2024-11-26T10:38:37.852+00:00</time>
      </trkpt>
      <trkpt lat="43.33599" lon="5.25152">
        <ele>25</ele>
        <time>2024-11-26T10:38:41.852+00:00</time>
      </trkpt>
      <trkpt lat="43.33598" lon="5.25146">
        <ele>25</ele>
        <time>2024-11-26T10:38:46.465+00:00</time>
      </trkpt>
      <trkpt lat="43.33597" lon="5.2514">
        <ele>25</ele>
        <time>2024-11-26T10:38:50.840+00:00</time>
      </trkpt>
      <trkpt lat="43.33597" lon="5.25135">
        <ele>13</ele>
        <time>2024-11-26T10:38:54.852+00:00</time>
      </trkpt>
      <trkpt lat="43.33595" lon="5.25129">
        <ele>13</ele>
        <time>2024-11-26T10:38:59.852+00:00</time>
      </trkpt>
      <trkpt lat="43.33593" lon="5.25124">
        <ele>18</ele>
        <time>2024-11-26T10:39:03.852+00:00</time>
      </trkpt>
      <trkpt lat="43.3359" lon="5.25121">
        <ele>18</ele>
        <time>2024-11-26T10:39:08.852+00:00</time>
      </trkpt>
      <trkpt lat="43.33588" lon="5.25116">
        <ele>18</ele>
        <time>2024-11-26T10:39:13.851+00:00</time>
      </trkpt>
      <trkpt lat="43.33583" lon="5.2511">
        <ele>18</ele>
        <time>2024-11-26T10:39:18.458+00:00</time>
      </trkpt>
      <trkpt lat="43.33582" lon="5.25102">
        <ele>18</ele>
        <time>2024-11-26T10:39:22.852+00:00</time>
      </trkpt>
      <trkpt lat="43.33581" lon="5.25095">
        <ele>24</ele>
        <time>2024-11-26T10:39:27.599+00:00</time>
      </trkpt>
      <trkpt lat="43.33581" lon="5.25089">
        <ele>24</ele>
        <time>2024-11-26T10:39:31.852+00:00</time>
      </trkpt>
      <trkpt lat="43.3358" lon="5.25083">
        <ele>24</ele>
        <time>2024-11-26T10:39:36.852+00:00</time>
      </trkpt>
      <trkpt lat="43.33578" lon="5.25077">
        <ele>24</ele>
        <time>2024-11-26T10:39:41.504+00:00</time>
      </trkpt>
      <trkpt lat="43.33574" lon="5.25074">
        <ele>24</ele>
        <time>2024-11-26T10:39:45.852+00:00</time>
      </trkpt>
      <trkpt lat="43.33571" lon="5.25069">
        <ele>28</ele>
        <time>2024-11-26T10:39:49.883+00:00</time>
      </trkpt>
      <trkpt lat="43.33569" lon="5.25064">
        <ele>18</ele>
        <time>2024-11-26T10:39:54.799+00:00</time>
      </trkpt>
      <trkpt lat="43.33569" lon="5.25058">
        <ele>18</ele>
        <time>2024-11-26T10:39:58.852+00:00</time>
      </trkpt>
      <trkpt lat="43.33568" lon="5.25053">
        <ele>18</ele>
        <time>2024-11-26T10:40:03.852+00:00</time>
      </trkpt>
      <trkpt lat="43.33568" lon="5.25047">
        <ele>18</ele>
        <time>2024-11-26T10:40:08.677+00:00</time>
      </trkpt>
      <trkpt lat="43.33564" lon="5.25044">
        <ele>18</ele>
        <time>2024-11-26T10:40:12.851+00:00</time>
      </trkpt>
      <trkpt lat="43.33563" lon="5.25041">
        <ele>21</ele>
        <time>2024-11-26T10:40:16.852+00:00</time>
      </trkpt>
      <trkpt lat="43.33563" lon="5.25036">
        <ele>21</ele>
        <time>2024-11-26T10:40:21.852+00:00</time>
      </trkpt>
      <trkpt lat="43.3356" lon="5.25031">
        <ele>21</ele>
        <time>2024-11-26T10:40:26.342+00:00</time>
      </trkpt>
      <trkpt lat="43.33559" lon="5.25028">
        <ele>21</ele>
        <time>2024-11-26T10:40:30.824+00:00</time>
      </trkpt>
      <trkpt lat="43.33558" lon="5.25024">
        <ele>21</ele>
        <time>2024-11-26T10:40:34.852+00:00</time>
      </trkpt>
      <trkpt lat="43.33557" lon="5.2502">
        <ele>21</ele>
        <time>2024-11-26T10:40:39.852+00:00</time>
      </trkpt>
      <trkpt lat="43.33555" lon="5.25016">
        <ele>21</ele>
        <time>2024-11-26T10:40:44.743+00:00</time>
      </trkpt>
      <trkpt lat="43.33553" lon="5.25012">
        <ele>24</ele>
        <time>2024-11-26T10:40:48.852+00:00</time>
      </trkpt>
      <trkpt lat="43.3355" lon="5.25008">
        <ele>24</ele>
        <time>2024-11-26T10:40:53.482+00:00</time>
      </trkpt>
      <trkpt lat="43.33549" lon="5.25003">
        <ele>24</ele>
        <time>2024-11-26T10:40:57.758+00:00</time>
      </trkpt>
      <trkpt lat="43.33548" lon="5.24998">
        <ele>24</ele>
        <time>2024-11-26T10:41:01.999+00:00</time>
      </trkpt>
      <trkpt lat="43.33548" lon="5.24993">
        <ele>24</ele>
        <time>2024-11-26T10:41:06.642+00:00</time>
      </trkpt>
      <trkpt lat="43.33547" lon="5.2499">
        <ele>24</ele>
        <time>2024-11-26T10:41:11.852+00:00</time>
      </trkpt>
      <trkpt lat="43.33547" lon="5.24986">
        <ele>24</ele>
        <time>2024-11-26T10:41:21.680+00:00</time>
      </trkpt>
      <trkpt lat="43.33547" lon="5.24983">
        <ele>27</ele>
        <time>2024-11-26T10:41:26.442+00:00</time>
      </trkpt>
      <trkpt lat="43.33546" lon="5.24979">
        <ele>27</ele>
        <time>2024-11-26T10:41:30.540+00:00</time>
      </trkpt>
      <trkpt lat="43.33546" lon="5.24978">
        <ele>27</ele>
        <time>2024-11-26T10:41:34.852+00:00</time>
      </trkpt>
      <trkpt lat="43.33545" lon="5.24975">
        <ele>27</ele>
        <time>2024-11-26T10:41:39.638+00:00</time>
      </trkpt>
      <trkpt lat="43.33544" lon="5.24972">
        <ele>27</ele>
        <time>2024-11-26T10:41:43.778+00:00</time>
      </trkpt>
      <trkpt lat="43.33544" lon="5.24969">
        <ele>27</ele>
        <time>2024-11-26T10:41:47.864+00:00</time>
      </trkpt>
      <trkpt lat="43.33543" lon="5.24962">
        <ele>27</ele>
        <time>2024-11-26T10:41:52.852+00:00</time>
      </trkpt>
      <trkpt lat="43.33545" lon="5.24958">
        <ele>31</ele>
        <time>2024-11-26T10:41:57.517+00:00</time>
      </trkpt>
      <trkpt lat="43.33545" lon="5.24954">
        <ele>31</ele>
        <time>2024-11-26T10:42:01.723+00:00</time>
      </trkpt>
      <trkpt lat="43.33546" lon="5.24952">
        <ele>31</ele>
        <time>2024-11-26T10:42:06.156+00:00</time>
      </trkpt>
      <trkpt lat="43.33548" lon="5.24951">
        <ele>31</ele>
        <time>2024-11-26T10:42:10.463+00:00</time>
      </trkpt>
      <trkpt lat="43.33549" lon="5.24948">
        <ele>31</ele>
        <time>2024-11-26T10:42:14.852+00:00</time>
      </trkpt>
      <trkpt lat="43.33551" lon="5.24943">
        <ele>31</ele>
        <time>2024-11-26T10:42:19.325+00:00</time>
      </trkpt>
      <trkpt lat="43.33553" lon="5.24939">
        <ele>31</ele>
        <time>2024-11-26T10:42:23.401+00:00</time>
      </trkpt>
      <trkpt lat="43.33554" lon="5.24933">
        <ele>31</ele>
        <time>2024-11-26T10:42:27.851+00:00</time>
      </trkpt>
      <trkpt lat="43.33554" lon="5.24928">
        <ele>36</ele>
        <time>2024-11-26T10:42:32.852+00:00</time>
      </trkpt>
      <trkpt lat="43.33553" lon="5.24926">
        <ele>36</ele>
        <time>2024-11-26T10:42:36.851+00:00</time>
      </trkpt>
      <trkpt lat="43.33547" lon="5.24913">
        <ele>36</ele>
        <time>2024-11-26T10:43:31.851+00:00</time>
      </trkpt>
      <trkpt lat="43.33545" lon="5.24913">
        <ele>36</ele>
        <time>2024-11-26T10:43:36.851+00:00</time>
      </trkpt>
      <trkpt lat="43.33544" lon="5.24913">
        <ele>36</ele>
        <time>2024-11-26T10:43:41.763+00:00</time>
      </trkpt>
      <trkpt lat="43.33542" lon="5.24912">
        <ele>36</ele>
        <time>2024-11-26T10:43:46.203+00:00</time>
      </trkpt>
      <trkpt lat="43.33541" lon="5.2491">
        <ele>21</ele>
        <time>2024-11-26T10:43:50.801+00:00</time>
      </trkpt>
      <trkpt lat="43.33539" lon="5.24908">
        <ele>21</ele>
        <time>2024-11-26T10:43:54.851+00:00</time>
      </trkpt>
      <trkpt lat="43.33535" lon="5.24902">
        <ele>26</ele>
        <time>2024-11-26T10:43:59.344+00:00</time>
      </trkpt>
      <trkpt lat="43.33531" lon="5.249">
        <ele>26</ele>
        <time>2024-11-26T10:44:03.851+00:00</time>
      </trkpt>
      <trkpt lat="43.33529" lon="5.24898">
        <ele>26</ele>
        <time>2024-11-26T10:44:08.323+00:00</time>
      </trkpt>
      <trkpt lat="43.33527" lon="5.24895">
        <ele>26</ele>
        <time>2024-11-26T10:44:12.599+00:00</time>
      </trkpt>
      <trkpt lat="43.33525" lon="5.24891">
        <ele>26</ele>
        <time>2024-11-26T10:44:16.851+00:00</time>
      </trkpt>
      <trkpt lat="43.33525" lon="5.24887">
        <ele>26</ele>
        <time>2024-11-26T10:44:21.410+00:00</time>
      </trkpt>
      <trkpt lat="43.33526" lon="5.24883">
        <ele>26</ele>
        <time>2024-11-26T10:44:25.784+00:00</time>
      </trkpt>
      <trkpt lat="43.33527" lon="5.24879">
        <ele>26</ele>
        <time>2024-11-26T10:44:30.850+00:00</time>
      </trkpt>
      <trkpt lat="43.33529" lon="5.24869">
        <ele>35</ele>
        <time>2024-11-26T10:44:49.851+00:00</time>
      </trkpt>
      <trkpt lat="43.3353" lon="5.24869">
        <ele>35</ele>
        <time>2024-11-26T10:44:55.851+00:00</time>
      </trkpt>
      <trkpt lat="43.3353" lon="5.24868">
        <ele>35</ele>
        <time>2024-11-26T10:44:59.851+00:00</time>
      </trkpt>
      <trkpt lat="43.3353" lon="5.24865">
        <ele>35</ele>
        <time>2024-11-26T10:45:04.851+00:00</time>
      </trkpt>
      <trkpt lat="43.3353" lon="5.24862">
        <ele>35</ele>
        <time>2024-11-26T10:45:09.497+00:00</time>
      </trkpt>
      <trkpt lat="43.33529" lon="5.24849">
        <ele>35</ele>
        <time>2024-11-26T10:46:17.851+00:00</time>
      </trkpt>
      <trkpt lat="43.3353" lon="5.24848">
        <ele>35</ele>
        <time>2024-11-26T10:46:22.398+00:00</time>
      </trkpt>
      <trkpt lat="43.33529" lon="5.24837">
        <ele>44</ele>
        <time>2024-11-26T10:46:26.742+00:00</time>
      </trkpt>
      <trkpt lat="43.33528" lon="5.24833">
        <ele>44</ele>
        <time>2024-11-26T10:46:30.851+00:00</time>
      </trkpt>
      <trkpt lat="43.33526" lon="5.24831">
        <ele>44</ele>
        <time>2024-11-26T10:46:35.337+00:00</time>
      </trkpt>
      <trkpt lat="43.33521" lon="5.24828">
        <ele>44</ele>
        <time>2024-11-26T10:46:39.850+00:00</time>
      </trkpt>
      <trkpt lat="43.3352" lon="5.24825">
        <ele>44</ele>
        <time>2024-11-26T10:46:44.400+00:00</time>
      </trkpt>
      <trkpt lat="43.33517" lon="5.24822">
        <ele>44</ele>
        <time>2024-11-26T10:46:48.761+00:00</time>
      </trkpt>
      <trkpt lat="43.33515" lon="5.24821">
        <ele>44</ele>
        <time>2024-11-26T10:46:52.851+00:00</time>
      </trkpt>
      <trkpt lat="43.33514" lon="5.24819">
        <ele>57</ele>
        <time>2024-11-26T10:46:57.560+00:00</time>
      </trkpt>
      <trkpt lat="43.33513" lon="5.24817">
        <ele>41</ele>
        <time>2024-11-26T10:47:01.849+00:00</time>
      </trkpt>
      <trkpt lat="43.33511" lon="5.2481">
        <ele>41</ele>
        <time>2024-11-26T10:47:06.851+00:00</time>
      </trkpt>
      <trkpt lat="43.33507" lon="5.24805">
        <ele>41</ele>
        <time>2024-11-26T10:47:11.600+00:00</time>
      </trkpt>
      <trkpt lat="43.33504" lon="5.248">
        <ele>41</ele>
        <time>2024-11-26T10:47:15.782+00:00</time>
      </trkpt>
      <trkpt lat="43.33501" lon="5.24797">
        <ele>41</ele>
        <time>2024-11-26T10:47:20.850+00:00</time>
      </trkpt>
      <trkpt lat="43.33498" lon="5.24791">
        <ele>54</ele>
        <time>2024-11-26T10:47:25.563+00:00</time>
      </trkpt>
      <trkpt lat="43.33494" lon="5.24787">
        <ele>54</ele>
        <time>2024-11-26T10:47:29.851+00:00</time>
      </trkpt>
      <trkpt lat="43.3349" lon="5.24784">
        <ele>54</ele>
        <time>2024-11-26T10:47:34.497+00:00</time>
      </trkpt>
      <trkpt lat="43.33478" lon="5.2478">
        <ele>39</ele>
        <time>2024-11-26T10:47:59.850+00:00</time>
      </trkpt>
      <trkpt lat="43.33478" lon="5.2478">
        <ele>39</ele>
        <time>2024-11-26T10:48:04.850+00:00</time>
      </trkpt>
      <trkpt lat="43.33475" lon="5.2478">
        <ele>39</ele>
        <time>2024-11-26T10:48:09.849+00:00</time>
      </trkpt>
      <trkpt lat="43.33473" lon="5.24781">
        <ele>39</ele>
        <time>2024-11-26T10:48:14.423+00:00</time>
      </trkpt>
      <trkpt lat="43.33468" lon="5.24779">
        <ele>39</ele>
        <time>2024-11-26T10:48:18.443+00:00</time>
      </trkpt>
      <trkpt lat="43.3346" lon="5.2478">
        <ele>39</ele>
        <time>2024-11-26T10:48:22.600+00:00</time>
      </trkpt>
      <trkpt lat="43.33456" lon="5.24768">
        <ele>23</ele>
        <time>2024-11-26T10:48:26.757+00:00</time>
      </trkpt>
      <trkpt lat="43.33454" lon="5.24767">
        <ele>23</ele>
        <time>2024-11-26T10:48:30.803+00:00</time>
      </trkpt>
      <trkpt lat="43.33454" lon="5.24763">
        <ele>36</ele>
        <time>2024-11-26T10:48:34.850+00:00</time>
      </trkpt>
      <trkpt lat="43.33454" lon="5.2476">
        <ele>36</ele>
        <time>2024-11-26T10:48:39.850+00:00</time>
      </trkpt>
      <trkpt lat="43.33453" lon="5.24758">
        <ele>36</ele>
        <time>2024-11-26T10:48:44.158+00:00</time>
      </trkpt>
      <trkpt lat="43.33453" lon="5.24753">
        <ele>36</ele>
        <time>2024-11-26T10:48:48.844+00:00</time>
      </trkpt>
      <trkpt lat="43.33454" lon="5.24749">
        <ele>36</ele>
        <time>2024-11-26T10:48:52.850+00:00</time>
      </trkpt>
      <trkpt lat="43.33454" lon="5.24744">
        <ele>36</ele>
        <time>2024-11-26T10:48:57.850+00:00</time>
      </trkpt>
      <trkpt lat="43.33455" lon="5.24738">
        <ele>36</ele>
        <time>2024-11-26T10:49:02.163+00:00</time>
      </trkpt>
      <trkpt lat="43.33453" lon="5.24732">
        <ele>44</ele>
        <time>2024-11-26T10:49:06.281+00:00</time>
      </trkpt>
      <trkpt lat="43.33451" lon="5.24728">
        <ele>44</ele>
        <time>2024-11-26T10:49:10.850+00:00</time>
      </trkpt>
      <trkpt lat="43.33449" lon="5.24729">
        <ele>44</ele>
        <time>2024-11-26T10:49:15.850+00:00</time>
      </trkpt>
      <trkpt lat="43.33449" lon="5.24728">
        <ele>44</ele>
        <time>2024-11-26T10:49:20.850+00:00</time>
      </trkpt>
      <trkpt lat="43.33446" lon="5.24722">
        <ele>44</ele>
        <time>2024-11-26T10:49:34.850+00:00</time>
      </trkpt>
      <trkpt lat="43.33446" lon="5.2472">
        <ele>44</ele>
        <time>2024-11-26T10:49:39.777+00:00</time>
      </trkpt>
      <trkpt lat="43.33446" lon="5.2472">
        <ele>44</ele>
        <time>2024-11-26T10:49:43.850+00:00</time>
      </trkpt>
      <trkpt lat="43.33445" lon="5.24717">
        <ele>44</ele>
        <time>2024-11-26T10:49:48.850+00:00</time>
      </trkpt>
      <trkpt lat="43.33443" lon="5.24713">
        <ele>44</ele>
        <time>2024-11-26T10:49:53.850+00:00</time>
      </trkpt>
      <trkpt lat="43.33436" lon="5.24707">
        <ele>47</ele>
        <time>2024-11-26T10:50:45.850+00:00</time>
      </trkpt>
      <trkpt lat="43.33436" lon="5.24706">
        <ele>47</ele>
        <time>2024-11-26T10:50:50.850+00:00</time>
      </trkpt>
      <trkpt lat="43.33436" lon="5.24705">
        <ele>47</ele>
        <time>2024-11-26T10:50:54.850+00:00</time>
      </trkpt>
      <trkpt lat="43.33435" lon="5.24704">
        <ele>47</ele>
        <time>2024-11-26T10:50:59.849+00:00</time>
      </trkpt>
      <trkpt lat="43.3343" lon="5.24703">
        <ele>32</ele>
        <time>2024-11-26T10:51:04.849+00:00</time>
      </trkpt>
      <trkpt lat="43.33428" lon="5.24701">
        <ele>32</ele>
        <time>2024-11-26T10:51:44.850+00:00</time>
      </trkpt>
      <trkpt lat="43.33428" lon="5.247">
        <ele>32</ele>
        <time>2024-11-26T10:52:02.850+00:00</time>
      </trkpt>
      <trkpt lat="43.33427" lon="5.24695">
        <ele>32</ele>
        <time>2024-11-26T10:52:07.850+00:00</time>
      </trkpt>
      <trkpt lat="43.33427" lon="5.24689">
        <ele>32</ele>
        <time>2024-11-26T10:52:11.850+00:00</time>
      </trkpt>
      <trkpt lat="43.33426" lon="5.24685">
        <ele>32</ele>
        <time>2024-11-26T10:52:16.168+00:00</time>
      </trkpt>
      <trkpt lat="43.33425" lon="5.24681">
        <ele>32</ele>
        <time>2024-11-26T10:52:20.325+00:00</time>
      </trkpt>
      <trkpt lat="43.33423" lon="5.24676">
        <ele>34</ele>
        <time>2024-11-26T10:52:24.387+00:00</time>
      </trkpt>
      <trkpt lat="43.3342" lon="5.24676">
        <ele>34</ele>
        <time>2024-11-26T10:52:28.450+00:00</time>
      </trkpt>
      <trkpt lat="43.33418" lon="5.24669">
        <ele>34</ele>
        <time>2024-11-26T10:52:32.850+00:00</time>
      </trkpt>
      <trkpt lat="43.33416" lon="5.24663">
        <ele>34</ele>
        <time>2024-11-26T10:52:37.727+00:00</time>
      </trkpt>
      <trkpt lat="43.33413" lon="5.24659">
        <ele>34</ele>
        <time>2024-11-26T10:52:41.850+00:00</time>
      </trkpt>
      <trkpt lat="43.33412" lon="5.24655">
        <ele>34</ele>
        <time>2024-11-26T10:52:46.809+00:00</time>
      </trkpt>
      <trkpt lat="43.33411" lon="5.24649">
        <ele>36</ele>
        <time>2024-11-26T10:52:51.588+00:00</time>
      </trkpt>
      <trkpt lat="43.3341" lon="5.24645">
        <ele>36</ele>
        <time>2024-11-26T10:52:55.625+00:00</time>
      </trkpt>
      <trkpt lat="43.33408" lon="5.24641">
        <ele>36</ele>
        <time>2024-11-26T10:52:59.850+00:00</time>
      </trkpt>
      <trkpt lat="43.33408" lon="5.24637">
        <ele>36</ele>
        <time>2024-11-26T10:53:04.849+00:00</time>
      </trkpt>
      <trkpt lat="43.33407" lon="5.24634">
        <ele>36</ele>
        <time>2024-11-26T10:53:09.849+00:00</time>
      </trkpt>
      <trkpt lat="43.33407" lon="5.24633">
        <ele>36</ele>
        <time>2024-11-26T10:53:15.768+00:00</time>
      </trkpt>
      <trkpt lat="43.33407" lon="5.2463">
        <ele>36</ele>
        <time>2024-11-26T10:53:24.850+00:00</time>
      </trkpt>
      <trkpt lat="43.33406" lon="5.24629">
        <ele>36</ele>
        <time>2024-11-26T10:53:29.849+00:00</time>
      </trkpt>
      <trkpt lat="43.33405" lon="5.24627">
        <ele>36</ele>
        <time>2024-11-26T10:53:34.849+00:00</time>
      </trkpt>
      <trkpt lat="43.33404" lon="5.24622">
        <ele>31</ele>
        <time>2024-11-26T10:53:39.665+00:00</time>
      </trkpt>
      <trkpt lat="43.33403" lon="5.2462">
        <ele>31</ele>
        <time>2024-11-26T10:53:43.771+00:00</time>
      </trkpt>
      <trkpt lat="43.33406" lon="5.24617">
        <ele>31</ele>
        <time>2024-11-26T10:53:58.853+00:00</time>
      </trkpt>
      <trkpt lat="43.33406" lon="5.24614">
        <ele>31</ele>
        <time>2024-11-26T10:54:03.848+00:00</time>
      </trkpt>
      <trkpt lat="43.33407" lon="5.24613">
        <ele>31</ele>
        <time>2024-11-26T10:54:08.428+00:00</time>
      </trkpt>
      <trkpt lat="43.33407" lon="5.2461">
        <ele>31</ele>
        <time>2024-11-26T10:54:13.849+00:00</time>
      </trkpt>
      <trkpt lat="43.33407" lon="5.24606">
        <ele>31</ele>
        <time>2024-11-26T10:54:18.287+00:00</time>
      </trkpt>
      <trkpt lat="43.33406" lon="5.24604">
        <ele>31</ele>
        <time>2024-11-26T10:54:27.848+00:00</time>
      </trkpt>
      <trkpt lat="43.33406" lon="5.24603">
        <ele>31</ele>
        <time>2024-11-26T10:54:32.847+00:00</time>
      </trkpt>
      <trkpt lat="43.33405" lon="5.24602">
        <ele>31</ele>
        <time>2024-11-26T10:54:36.849+00:00</time>
      </trkpt>
      <trkpt lat="43.33405" lon="5.24601">
        <ele>31</ele>
        <time>2024-11-26T10:54:41.305+00:00</time>
      </trkpt>
      <trkpt lat="43.33405" lon="5.24591">
        <ele>26</ele>
        <time>2024-11-26T10:54:45.849+00:00</time>
      </trkpt>
      <trkpt lat="43.33417" lon="5.24583">
        <ele>26</ele>
        <time>2024-11-26T10:55:02.526+00:00</time>
      </trkpt>
      <trkpt lat="43.33418" lon="5.24585">
        <ele>26</ele>
        <time>2024-11-26T10:55:11.605+00:00</time>
      </trkpt>
      <trkpt lat="43.33422" lon="5.24592">
        <ele>26</ele>
        <time>2024-11-26T10:55:15.849+00:00</time>
      </trkpt>
      <trkpt lat="43.33423" lon="5.24592">
        <ele>26</ele>
        <time>2024-11-26T10:55:21.429+00:00</time>
      </trkpt>
      <trkpt lat="43.33424" lon="5.24592">
        <ele>26</ele>
        <time>2024-11-26T10:55:25.765+00:00</time>
      </trkpt>
      <trkpt lat="43.33421" lon="5.24588">
        <ele>26</ele>
        <time>2024-11-26T10:55:34.849+00:00</time>
      </trkpt>
      <trkpt lat="43.33425" lon="5.24587">
        <ele>26</ele>
        <time>2024-11-26T10:55:39.651+00:00</time>
      </trkpt>
      <trkpt lat="43.33428" lon="5.24587">
        <ele>26</ele>
        <time>2024-11-26T10:55:44.090+00:00</time>
      </trkpt>
      <trkpt lat="43.3343" lon="5.24588">
        <ele>26</ele>
        <time>2024-11-26T10:55:48.366+00:00</time>
      </trkpt>
      <trkpt lat="43.33433" lon="5.2459">
        <ele>37</ele>
        <time>2024-11-26T10:55:52.595+00:00</time>
      </trkpt>
      <trkpt lat="43.33438" lon="5.24591">
        <ele>37</ele>
        <time>2024-11-26T10:55:56.746+00:00</time>
      </trkpt>
      <trkpt lat="43.33442" lon="5.24593">
        <ele>37</ele>
        <time>2024-11-26T10:56:01.092+00:00</time>
      </trkpt>
      <trkpt lat="43.33446" lon="5.24593">
        <ele>37</ele>
        <time>2024-11-26T10:56:05.308+00:00</time>
      </trkpt>
      <trkpt lat="43.33448" lon="5.24587">
        <ele>37</ele>
        <time>2024-11-26T10:56:09.849+00:00</time>
      </trkpt>
      <trkpt lat="43.33452" lon="5.24583">
        <ele>37</ele>
        <time>2024-11-26T10:56:14.029+00:00</time>
      </trkpt>
      <trkpt lat="43.33453" lon="5.24575">
        <ele>37</ele>
        <time>2024-11-26T10:56:18.486+00:00</time>
      </trkpt>
      <trkpt lat="43.33453" lon="5.24567">
        <ele>41</ele>
        <time>2024-11-26T10:56:22.848+00:00</time>
      </trkpt>
      <trkpt lat="43.3345" lon="5.24565">
        <ele>41</ele>
        <time>2024-11-26T10:56:27.849+00:00</time>
      </trkpt>
      <trkpt lat="43.3345" lon="5.24565">
        <ele>41</ele>
        <time>2024-11-26T10:56:31.975+00:00</time>
      </trkpt>
      <trkpt lat="43.33449" lon="5.24558">
        <ele>41</ele>
        <time>2024-11-26T10:56:36.456+00:00</time>
      </trkpt>
      <trkpt lat="43.33447" lon="5.2455">
        <ele>41</ele>
        <time>2024-11-26T10:56:41.466+00:00</time>
      </trkpt>
      <trkpt lat="43.33447" lon="5.24546">
        <ele>41</ele>
        <time>2024-11-26T10:56:46.493+00:00</time>
      </trkpt>
      <trkpt lat="43.33447" lon="5.24541">
        <ele>47</ele>
        <time>2024-11-26T10:56:50.849+00:00</time>
      </trkpt>
      <trkpt lat="43.33445" lon="5.24536">
        <ele>47</ele>
        <time>2024-11-26T10:56:55.652+00:00</time>
      </trkpt>
      <trkpt lat="43.33445" lon="5.24533">
        <ele>47</ele>
        <time>2024-11-26T10:56:59.808+00:00</time>
      </trkpt>
      <trkpt lat="43.33443" lon="5.24528">
        <ele>47</ele>
        <time>2024-11-26T10:57:03.872+00:00</time>
      </trkpt>
      <trkpt lat="43.3344" lon="5.24534">
        <ele>47</ele>
        <time>2024-11-26T10:57:27.768+00:00</time>
      </trkpt>
      <trkpt lat="43.33438" lon="5.24536">
        <ele>47</ele>
        <time>2024-11-26T10:57:32.666+00:00</time>
      </trkpt>
      <trkpt lat="43.33436" lon="5.24537">
        <ele>47</ele>
        <time>2024-11-26T10:57:36.679+00:00</time>
      </trkpt>
      <trkpt lat="43.33433" lon="5.24536">
        <ele>47</ele>
        <time>2024-11-26T10:57:40.849+00:00</time>
      </trkpt>
      <trkpt lat="43.3343" lon="5.24536">
        <ele>32</ele>
        <time>2024-11-26T10:57:45.844+00:00</time>
      </trkpt>
      <trkpt lat="43.33429" lon="5.24534">
        <ele>32</ele>
        <time>2024-11-26T10:57:50.052+00:00</time>
      </trkpt>
      <trkpt lat="43.33426" lon="5.24535">
        <ele>32</ele>
        <time>2024-11-26T10:57:54.789+00:00</time>
      </trkpt>
      <trkpt lat="43.33424" lon="5.24538">
        <ele>32</ele>
        <time>2024-11-26T10:57:59.807+00:00</time>
      </trkpt>
      <trkpt lat="43.33423" lon="5.24542">
        <ele>27</ele>
        <time>2024-11-26T10:58:03.849+00:00</time>
      </trkpt>
      <trkpt lat="43.3342" lon="5.24544">
        <ele>27</ele>
        <time>2024-11-26T10:58:08.848+00:00</time>
      </trkpt>
      <trkpt lat="43.33414" lon="5.24544">
        <ele>27</ele>
        <time>2024-11-26T10:58:13.565+00:00</time>
      </trkpt>
      <trkpt lat="43.3341" lon="5.24545">
        <ele>27</ele>
        <time>2024-11-26T10:58:17.626+00:00</time>
      </trkpt>
      <trkpt lat="43.33407" lon="5.24546">
        <ele>27</ele>
        <time>2024-11-26T10:58:21.848+00:00</time>
      </trkpt>
      <trkpt lat="43.33403" lon="5.24548">
        <ele>27</ele>
        <time>2024-11-26T10:58:26.247+00:00</time>
      </trkpt>
      <trkpt lat="43.334" lon="5.2455">
        <ele>17</ele>
        <time>2024-11-26T10:58:30.548+00:00</time>
      </trkpt>
      <trkpt lat="43.33397" lon="5.24546">
        <ele>17</ele>
        <time>2024-11-26T10:58:35.088+00:00</time>
      </trkpt>
      <trkpt lat="43.33393" lon="5.24543">
        <ele>17</ele>
        <time>2024-11-26T10:58:39.586+00:00</time>
      </trkpt>
      <trkpt lat="43.3339" lon="5.24538">
        <ele>20</ele>
        <time>2024-11-26T10:58:43.707+00:00</time>
      </trkpt>
      <trkpt lat="43.33387" lon="5.24535">
        <ele>20</ele>
        <time>2024-11-26T10:58:48.726+00:00</time>
      </trkpt>
      <trkpt lat="43.33387" lon="5.2453">
        <ele>20</ele>
        <time>2024-11-26T10:58:52.831+00:00</time>
      </trkpt>
      <trkpt lat="43.33387" lon="5.24525">
        <ele>20</ele>
        <time>2024-11-26T10:58:56.848+00:00</time>
      </trkpt>
      <trkpt lat="43.33384" lon="5.24519">
        <ele>20</ele>
        <time>2024-11-26T10:59:10.848+00:00</time>
      </trkpt>
      <trkpt lat="43.33383" lon="5.24517">
        <ele>20</ele>
        <time>2024-11-26T10:59:15.208+00:00</time>
      </trkpt>
      <trkpt lat="43.33383" lon="5.24513">
        <ele>30</ele>
        <time>2024-11-26T10:59:19.704+00:00</time>
      </trkpt>
      <trkpt lat="43.33384" lon="5.24511">
        <ele>30</ele>
        <time>2024-11-26T10:59:23.848+00:00</time>
      </trkpt>
      <trkpt lat="43.33384" lon="5.24507">
        <ele>30</ele>
        <time>2024-11-26T10:59:28.470+00:00</time>
      </trkpt>
      <trkpt lat="43.33387" lon="5.24495">
        <ele>30</ele>
        <time>2024-11-26T10:59:51.848+00:00</time>
      </trkpt>
      <trkpt lat="43.33387" lon="5.24495">
        <ele>30</ele>
        <time>2024-11-26T10:59:56.787+00:00</time>
      </trkpt>
      <trkpt lat="43.33388" lon="5.24493">
        <ele>30</ele>
        <time>2024-11-26T11:00:00.848+00:00</time>
      </trkpt>
      <trkpt lat="43.33389" lon="5.24492">
        <ele>30</ele>
        <time>2024-11-26T11:00:05.551+00:00</time>
      </trkpt>
      <trkpt lat="43.33389" lon="5.2449">
        <ele>30</ele>
        <time>2024-11-26T11:00:09.848+00:00</time>
      </trkpt>
      <trkpt lat="43.33389" lon="5.24485">
        <ele>41</ele>
        <time>2024-11-26T11:00:18.471+00:00</time>
      </trkpt>
      <trkpt lat="43.33391" lon="5.24482">
        <ele>41</ele>
        <time>2024-11-26T11:00:22.610+00:00</time>
      </trkpt>
      <trkpt lat="43.33391" lon="5.24479">
        <ele>41</ele>
        <time>2024-11-26T11:00:26.848+00:00</time>
      </trkpt>
      <trkpt lat="43.33392" lon="5.24478">
        <ele>41</ele>
        <time>2024-11-26T11:00:31.848+00:00</time>
      </trkpt>
      <trkpt lat="43.33394" lon="5.24471">
        <ele>41</ele>
        <time>2024-11-26T11:00:36.529+00:00</time>
      </trkpt>
      <trkpt lat="43.33396" lon="5.24468">
        <ele>41</ele>
        <time>2024-11-26T11:00:40.848+00:00</time>
      </trkpt>
      <trkpt lat="43.33398" lon="5.24466">
        <ele>41</ele>
        <time>2024-11-26T11:00:44.848+00:00</time>
      </trkpt>
      <trkpt lat="43.33401" lon="5.24463">
        <ele>41</ele>
        <time>2024-11-26T11:00:49.732+00:00</time>
      </trkpt>
      <trkpt lat="43.33401" lon="5.24458">
        <ele>47</ele>
        <time>2024-11-26T11:00:54.052+00:00</time>
      </trkpt>
      <trkpt lat="43.33398" lon="5.24453">
        <ele>47</ele>
        <time>2024-11-26T11:00:58.848+00:00</time>
      </trkpt>
      <trkpt lat="43.33397" lon="5.24448">
        <ele>47</ele>
        <time>2024-11-26T11:01:03.848+00:00</time>
      </trkpt>
      <trkpt lat="43.33394" lon="5.24444">
        <ele>47</ele>
        <time>2024-11-26T11:01:08.310+00:00</time>
      </trkpt>
      <trkpt lat="43.33391" lon="5.24442">
        <ele>47</ele>
        <time>2024-11-26T11:01:12.848+00:00</time>
      </trkpt>
      <trkpt lat="43.33388" lon="5.24441">
        <ele>47</ele>
        <time>2024-11-26T11:01:16.848+00:00</time>
      </trkpt>
      <trkpt lat="43.33387" lon="5.24441">
        <ele>47</ele>
        <time>2024-11-26T11:01:21.383+00:00</time>
      </trkpt>
      <trkpt lat="43.33385" lon="5.2444">
        <ele>47</ele>
        <time>2024-11-26T11:01:25.712+00:00</time>
      </trkpt>
      <trkpt lat="43.33382" lon="5.24439">
        <ele>47</ele>
        <time>2024-11-26T11:01:29.848+00:00</time>
      </trkpt>
      <trkpt lat="43.3338" lon="5.24438">
        <ele>47</ele>
        <time>2024-11-26T11:01:34.848+00:00</time>
      </trkpt>
      <trkpt lat="43.33377" lon="5.24438">
        <ele>47</ele>
        <time>2024-11-26T11:01:39.066+00:00</time>
      </trkpt>
      <trkpt lat="43.33374" lon="5.24438">
        <ele>34</ele>
        <time>2024-11-26T11:01:43.848+00:00</time>
      </trkpt>
      <trkpt lat="43.33372" lon="5.24437">
        <ele>34</ele>
        <time>2024-11-26T11:01:47.848+00:00</time>
      </trkpt>
      <trkpt lat="43.33371" lon="5.24437">
        <ele>34</ele>
        <time>2024-11-26T11:01:52.210+00:00</time>
      </trkpt>
      <trkpt lat="43.33369" lon="5.24436">
        <ele>34</ele>
        <time>2024-11-26T11:01:56.848+00:00</time>
      </trkpt>
      <trkpt lat="43.33365" lon="5.24437">
        <ele>34</ele>
        <time>2024-11-26T11:02:01.848+00:00</time>
      </trkpt>
      <trkpt lat="43.33361" lon="5.24436">
        <ele>34</ele>
        <time>2024-11-26T11:02:06.368+00:00</time>
      </trkpt>
      <trkpt lat="43.33358" lon="5.24434">
        <ele>34</ele>
        <time>2024-11-26T11:02:10.848+00:00</time>
      </trkpt>
      <trkpt lat="43.33355" lon="5.24432">
        <ele>34</ele>
        <time>2024-11-26T11:02:15.152+00:00</time>
      </trkpt>
      <trkpt lat="43.33355" lon="5.24426">
        <ele>38</ele>
        <time>2024-11-26T11:02:19.848+00:00</time>
      </trkpt>
      <trkpt lat="43.33352" lon="5.24421">
        <ele>38</ele>
        <time>2024-11-26T11:02:24.848+00:00</time>
      </trkpt>
      <trkpt lat="43.33348" lon="5.24416">
        <ele>38</ele>
        <time>2024-11-26T11:02:31.637+00:00</time>
      </trkpt>
      <trkpt lat="43.33347" lon="5.24411">
        <ele>38</ele>
        <time>2024-11-26T11:02:36.133+00:00</time>
      </trkpt>
      <trkpt lat="43.33348" lon="5.24408">
        <ele>38</ele>
        <time>2024-11-26T11:02:40.848+00:00</time>
      </trkpt>
      <trkpt lat="43.33348" lon="5.24405">
        <ele>38</ele>
        <time>2024-11-26T11:02:45.391+00:00</time>
      </trkpt>
      <trkpt lat="43.33348" lon="5.244">
        <ele>46</ele>
        <time>2024-11-26T11:02:49.848+00:00</time>
      </trkpt>
      <trkpt lat="43.33346" lon="5.24398">
        <ele>32</ele>
        <time>2024-11-26T11:02:54.267+00:00</time>
      </trkpt>
      <trkpt lat="43.33345" lon="5.24394">
        <ele>32</ele>
        <time>2024-11-26T11:02:58.690+00:00</time>
      </trkpt>
      <trkpt lat="43.33344" lon="5.24393">
        <ele>32</ele>
        <time>2024-11-26T11:03:02.848+00:00</time>
      </trkpt>
      <trkpt lat="43.33342" lon="5.2439">
        <ele>32</ele>
        <time>2024-11-26T11:03:07.848+00:00</time>
      </trkpt>
      <trkpt lat="43.3334" lon="5.24387">
        <ele>32</ele>
        <time>2024-11-26T11:03:12.429+00:00</time>
      </trkpt>
      <trkpt lat="43.33337" lon="5.24384">
        <ele>32</ele>
        <time>2024-11-26T11:03:16.847+00:00</time>
      </trkpt>
      <trkpt lat="43.33334" lon="5.2438">
        <ele>32</ele>
        <time>2024-11-26T11:03:21.847+00:00</time>
      </trkpt>
      <trkpt lat="43.33334" lon="5.24375">
        <ele>41</ele>
        <time>2024-11-26T11:03:26.708+00:00</time>
      </trkpt>
      <trkpt lat="43.33334" lon="5.24371">
        <ele>41</ele>
        <time>2024-11-26T11:03:30.829+00:00</time>
      </trkpt>
      <trkpt lat="43.33332" lon="5.24368">
        <ele>41</ele>
        <time>2024-11-26T11:03:34.847+00:00</time>
      </trkpt>
      <trkpt lat="43.33332" lon="5.24365">
        <ele>41</ele>
        <time>2024-11-26T11:03:38.847+00:00</time>
      </trkpt>
      <trkpt lat="43.33329" lon="5.24362">
        <ele>41</ele>
        <time>2024-11-26T11:03:43.333+00:00</time>
      </trkpt>
      <trkpt lat="43.33324" lon="5.24352">
        <ele>41</ele>
        <time>2024-11-26T11:04:04.847+00:00</time>
      </trkpt>
      <trkpt lat="43.33324" lon="5.24351">
        <ele>41</ele>
        <time>2024-11-26T11:04:09.387+00:00</time>
      </trkpt>
      <trkpt lat="43.33323" lon="5.2435">
        <ele>41</ele>
        <time>2024-11-26T11:04:13.442+00:00</time>
      </trkpt>
      <trkpt lat="43.33323" lon="5.24347">
        <ele>41</ele>
        <time>2024-11-26T11:04:17.847+00:00</time>
      </trkpt>
      <trkpt lat="43.33323" lon="5.24344">
        <ele>48</ele>
        <time>2024-11-26T11:04:22.686+00:00</time>
      </trkpt>
      <trkpt lat="43.33323" lon="5.2434">
        <ele>48</ele>
        <time>2024-11-26T11:04:37.490+00:00</time>
      </trkpt>
      <trkpt lat="43.33323" lon="5.24338">
        <ele>48</ele>
        <time>2024-11-26T11:04:41.847+00:00</time>
      </trkpt>
      <trkpt lat="43.33322" lon="5.24337">
        <ele>48</ele>
        <time>2024-11-26T11:04:46.068+00:00</time>
      </trkpt>
      <trkpt lat="43.33321" lon="5.24332">
        <ele>48</ele>
        <time>2024-11-26T11:04:50.591+00:00</time>
      </trkpt>
      <trkpt lat="43.33318" lon="5.24329">
        <ele>31</ele>
        <time>2024-11-26T11:04:54.790+00:00</time>
      </trkpt>
      <trkpt lat="43.33315" lon="5.24327">
        <ele>31</ele>
        <time>2024-11-26T11:04:59.847+00:00</time>
      </trkpt>
      <trkpt lat="43.33314" lon="5.24328">
        <ele>31</ele>
        <time>2024-11-26T11:05:04.184+00:00</time>
      </trkpt>
      <trkpt lat="43.33312" lon="5.2433">
        <ele>31</ele>
        <time>2024-11-26T11:05:08.725+00:00</time>
      </trkpt>
      <trkpt lat="43.33307" lon="5.2433">
        <ele>31</ele>
        <time>2024-11-26T11:05:12.847+00:00</time>
      </trkpt>
      <trkpt lat="43.33303" lon="5.24329">
        <ele>31</ele>
        <time>2024-11-26T11:05:18.779+00:00</time>
      </trkpt>
      <trkpt lat="43.333" lon="5.24326">
        <ele>31</ele>
        <time>2024-11-26T11:05:33.847+00:00</time>
      </trkpt>
      <trkpt lat="43.33299" lon="5.24325">
        <ele>31</ele>
        <time>2024-11-26T11:05:38.851+00:00</time>
      </trkpt>
      <trkpt lat="43.33297" lon="5.24323">
        <ele>31</ele>
        <time>2024-11-26T11:05:43.847+00:00</time>
      </trkpt>
      <trkpt lat="43.33297" lon="5.24322">
        <ele>31</ele>
        <time>2024-11-26T11:05:48.502+00:00</time>
      </trkpt>
      <trkpt lat="43.33295" lon="5.24322">
        <ele>31</ele>
        <time>2024-11-26T11:05:52.658+00:00</time>
      </trkpt>
      <trkpt lat="43.33288" lon="5.24315">
        <ele>22</ele>
        <time>2024-11-26T11:06:12.847+00:00</time>
      </trkpt>
      <trkpt lat="43.33288" lon="5.24313">
        <ele>22</ele>
        <time>2024-11-26T11:06:26.847+00:00</time>
      </trkpt>
      <trkpt lat="43.33288" lon="5.24313">
        <ele>22</ele>
        <time>2024-11-26T11:06:37.847+00:00</time>
      </trkpt>
      <trkpt lat="43.33288" lon="5.24312">
        <ele>22</ele>
        <time>2024-11-26T11:06:53.847+00:00</time>
      </trkpt>
      <trkpt lat="43.33288" lon="5.24312">
        <ele>22</ele>
        <time>2024-11-26T11:07:00.847+00:00</time>
      </trkpt>
      <trkpt lat="43.33287" lon="5.24306">
        <ele>22</ele>
        <time>2024-11-26T11:07:26.847+00:00</time>
      </trkpt>
      <trkpt lat="43.33286" lon="5.24305">
        <ele>22</ele>
        <time>2024-11-26T11:07:31.847+00:00</time>
      </trkpt>
      <trkpt lat="43.33285" lon="5.24303">
        <ele>22</ele>
        <time>2024-11-26T11:07:36.847+00:00</time>
      </trkpt>
      <trkpt lat="43.33284" lon="5.24299">
        <ele>22</ele>
        <time>2024-11-26T11:07:41.847+00:00</time>
      </trkpt>
      <trkpt lat="43.33284" lon="5.24296">
        <ele>22</ele>
        <time>2024-11-26T11:07:45.847+00:00</time>
      </trkpt>
      <trkpt lat="43.33285" lon="5.24292">
        <ele>28</ele>
        <time>2024-11-26T11:07:50.847+00:00</time>
      </trkpt>
      <trkpt lat="43.33284" lon="5.24292">
        <ele>22</ele>
        <time>2024-11-26T11:07:55.618+00:00</time>
      </trkpt>
      <trkpt lat="43.33286" lon="5.24296">
        <ele>22</ele>
        <time>2024-11-26T11:07:59.846+00:00</time>
      </trkpt>
      <trkpt lat="43.3328" lon="5.24282">
        <ele>28</ele>
        <time>2024-11-26T11:08:04.485+00:00</time>
      </trkpt>
      <trkpt lat="43.33279" lon="5.24274">
        <ele>28</ele>
        <time>2024-11-26T11:08:08.639+00:00</time>
      </trkpt>
      <trkpt lat="43.33275" lon="5.24269">
        <ele>28</ele>
        <time>2024-11-26T11:08:13.341+00:00</time>
      </trkpt>
      <trkpt lat="43.33272" lon="5.24266">
        <ele>28</ele>
        <time>2024-11-26T11:08:17.847+00:00</time>
      </trkpt>
      <trkpt lat="43.3327" lon="5.24267">
        <ele>28</ele>
        <time>2024-11-26T11:08:22.847+00:00</time>
      </trkpt>
      <trkpt lat="43.33267" lon="5.24267">
        <ele>28</ele>
        <time>2024-11-26T11:08:27.797+00:00</time>
      </trkpt>
      <trkpt lat="43.33264" lon="5.24266">
        <ele>28</ele>
        <time>2024-11-26T11:08:32.279+00:00</time>
      </trkpt>
      <trkpt lat="43.33262" lon="5.24264">
        <ele>23</ele>
        <time>2024-11-26T11:08:36.641+00:00</time>
      </trkpt>
      <trkpt lat="43.33259" lon="5.24261">
        <ele>23</ele>
        <time>2024-11-26T11:08:40.847+00:00</time>
      </trkpt>
      <trkpt lat="43.33257" lon="5.24257">
        <ele>23</ele>
        <time>2024-11-26T11:08:45.847+00:00</time>
      </trkpt>
      <trkpt lat="43.33258" lon="5.24255">
        <ele>23</ele>
        <time>2024-11-26T11:08:50.847+00:00</time>
      </trkpt>
      <trkpt lat="43.33254" lon="5.24253">
        <ele>23</ele>
        <time>2024-11-26T11:08:55.847+00:00</time>
      </trkpt>
      <trkpt lat="43.33251" lon="5.2425">
        <ele>23</ele>
        <time>2024-11-26T11:09:11.846+00:00</time>
      </trkpt>
      <trkpt lat="43.33251" lon="5.24249">
        <ele>23</ele>
        <time>2024-11-26T11:09:17.680+00:00</time>
      </trkpt>
      <trkpt lat="43.33248" lon="5.24245">
        <ele>23</ele>
        <time>2024-11-26T11:09:22.519+00:00</time>
      </trkpt>
      <trkpt lat="43.33247" lon="5.24243">
        <ele>23</ele>
        <time>2024-11-26T11:09:26.845+00:00</time>
      </trkpt>
      <trkpt lat="43.33246" lon="5.24242">
        <ele>23</ele>
        <time>2024-11-26T11:09:30.846+00:00</time>
      </trkpt>
      <trkpt lat="43.33246" lon="5.24242">
        <ele>23</ele>
        <time>2024-11-26T11:09:56.846+00:00</time>
      </trkpt>
      <trkpt lat="43.33245" lon="5.24241">
        <ele>23</ele>
        <time>2024-11-26T11:10:01.502+00:00</time>
      </trkpt>
      <trkpt lat="43.33243" lon="5.24239">
        <ele>23</ele>
        <time>2024-11-26T11:10:05.539+00:00</time>
      </trkpt>
      <trkpt lat="43.33242" lon="5.24235">
        <ele>28</ele>
        <time>2024-11-26T11:10:10.078+00:00</time>
      </trkpt>
      <trkpt lat="43.3324" lon="5.24233">
        <ele>28</ele>
        <time>2024-11-26T11:10:14.464+00:00</time>
      </trkpt>
      <trkpt lat="43.3324" lon="5.24227">
        <ele>28</ele>
        <time>2024-11-26T11:10:19.580+00:00</time>
      </trkpt>
      <trkpt lat="43.3324" lon="5.24223">
        <ele>28</ele>
        <time>2024-11-26T11:10:23.621+00:00</time>
      </trkpt>
      <trkpt lat="43.3324" lon="5.24218">
        <ele>28</ele>
        <time>2024-11-26T11:10:27.846+00:00</time>
      </trkpt>
      <trkpt lat="43.33238" lon="5.24214">
        <ele>28</ele>
        <time>2024-11-26T11:10:32.300+00:00</time>
      </trkpt>
      <trkpt lat="43.33236" lon="5.24204">
        <ele>23</ele>
        <time>2024-11-26T11:10:45.846+00:00</time>
      </trkpt>
      <trkpt lat="43.33236" lon="5.24203">
        <ele>23</ele>
        <time>2024-11-26T11:10:50.846+00:00</time>
      </trkpt>
      <trkpt lat="43.33236" lon="5.24201">
        <ele>23</ele>
        <time>2024-11-26T11:10:55.803+00:00</time>
      </trkpt>
      <trkpt lat="43.33236" lon="5.242">
        <ele>23</ele>
        <time>2024-11-26T11:11:00.122+00:00</time>
      </trkpt>
      <trkpt lat="43.33235" lon="5.24197">
        <ele>23</ele>
        <time>2024-11-26T11:11:04.399+00:00</time>
      </trkpt>
      <trkpt lat="43.33235" lon="5.24195">
        <ele>23</ele>
        <time>2024-11-26T11:11:08.638+00:00</time>
      </trkpt>
      <trkpt lat="43.33234" lon="5.24192">
        <ele>23</ele>
        <time>2024-11-26T11:11:12.846+00:00</time>
      </trkpt>
      <trkpt lat="43.33232" lon="5.24187">
        <ele>23</ele>
        <time>2024-11-26T11:11:17.258+00:00</time>
      </trkpt>
      <trkpt lat="43.33232" lon="5.24183">
        <ele>23</ele>
        <time>2024-11-26T11:11:21.398+00:00</time>
      </trkpt>
      <trkpt lat="43.3323" lon="5.2418">
        <ele>24</ele>
        <time>2024-11-26T11:11:25.783+00:00</time>
      </trkpt>
      <trkpt lat="43.3323" lon="5.24176">
        <ele>24</ele>
        <time>2024-11-26T11:11:30.177+00:00</time>
      </trkpt>
      <trkpt lat="43.33229" lon="5.2417">
        <ele>24</ele>
        <time>2024-11-26T11:11:34.581+00:00</time>
      </trkpt>
      <trkpt lat="43.3323" lon="5.24164">
        <ele>24</ele>
        <time>2024-11-26T11:11:38.846+00:00</time>
      </trkpt>
      <trkpt lat="43.33231" lon="5.24157">
        <ele>24</ele>
        <time>2024-11-26T11:11:43.244+00:00</time>
      </trkpt>
      <trkpt lat="43.33232" lon="5.24151">
        <ele>25</ele>
        <time>2024-11-26T11:11:47.846+00:00</time>
      </trkpt>
      <trkpt lat="43.33232" lon="5.24145">
        <ele>25</ele>
        <time>2024-11-26T11:11:52.699+00:00</time>
      </trkpt>
      <trkpt lat="43.33234" lon="5.24142">
        <ele>25</ele>
        <time>2024-11-26T11:11:56.845+00:00</time>
      </trkpt>
      <trkpt lat="43.33231" lon="5.24138">
        <ele>25</ele>
        <time>2024-11-26T11:12:05.845+00:00</time>
      </trkpt>
      <trkpt lat="43.3323" lon="5.24137">
        <ele>25</ele>
        <time>2024-11-26T11:12:10.374+00:00</time>
      </trkpt>
      <trkpt lat="43.33229" lon="5.24132">
        <ele>25</ele>
        <time>2024-11-26T11:12:14.846+00:00</time>
      </trkpt>
      <trkpt lat="43.3323" lon="5.24128">
        <ele>25</ele>
        <time>2024-11-26T11:12:19.180+00:00</time>
      </trkpt>
      <trkpt lat="43.33229" lon="5.24125">
        <ele>28</ele>
        <time>2024-11-26T11:12:23.845+00:00</time>
      </trkpt>
      <trkpt lat="43.33229" lon="5.24125">
        <ele>28</ele>
        <time>2024-11-26T11:12:28.846+00:00</time>
      </trkpt>
      <trkpt lat="43.33228" lon="5.24121">
        <ele>28</ele>
        <time>2024-11-26T11:12:33.483+00:00</time>
      </trkpt>
      <trkpt lat="43.33229" lon="5.24118">
        <ele>28</ele>
        <time>2024-11-26T11:12:37.818+00:00</time>
      </trkpt>
      <trkpt lat="43.33231" lon="5.24114">
        <ele>28</ele>
        <time>2024-11-26T11:12:41.845+00:00</time>
      </trkpt>
      <trkpt lat="43.33231" lon="5.24112">
        <ele>28</ele>
        <time>2024-11-26T11:12:46.361+00:00</time>
      </trkpt>
      <trkpt lat="43.33232" lon="5.24109">
        <ele>28</ele>
        <time>2024-11-26T11:12:50.518+00:00</time>
      </trkpt>
      <trkpt lat="43.33232" lon="5.24104">
        <ele>28</ele>
        <time>2024-11-26T11:12:54.845+00:00</time>
      </trkpt>
      <trkpt lat="43.33231" lon="5.24096">
        <ele>35</ele>
        <time>2024-11-26T11:12:59.699+00:00</time>
      </trkpt>
      <trkpt lat="43.33231" lon="5.24091">
        <ele>35</ele>
        <time>2024-11-26T11:13:03.846+00:00</time>
      </trkpt>
      <trkpt lat="43.3323" lon="5.24083">
        <ele>35</ele>
        <time>2024-11-26T11:13:17.846+00:00</time>
      </trkpt>
      <trkpt lat="43.3323" lon="5.24082">
        <ele>35</ele>
        <time>2024-11-26T11:13:22.846+00:00</time>
      </trkpt>
      <trkpt lat="43.33229" lon="5.24079">
        <ele>35</ele>
        <time>2024-11-26T11:13:27.846+00:00</time>
      </trkpt>
      <trkpt lat="43.33227" lon="5.24074">
        <ele>35</ele>
        <time>2024-11-26T11:13:32.462+00:00</time>
      </trkpt>
      <trkpt lat="43.33226" lon="5.24069">
        <ele>35</ele>
        <time>2024-11-26T11:13:36.858+00:00</time>
      </trkpt>
      <trkpt lat="43.33225" lon="5.24065">
        <ele>41</ele>
        <time>2024-11-26T11:13:41.321+00:00</time>
      </trkpt>
      <trkpt lat="43.33223" lon="5.24058">
        <ele>41</ele>
        <time>2024-11-26T11:13:45.640+00:00</time>
      </trkpt>
      <trkpt lat="43.3322" lon="5.24052">
        <ele>41</ele>
        <time>2024-11-26T11:13:50.698+00:00</time>
      </trkpt>
      <trkpt lat="43.33218" lon="5.24045">
        <ele>41</ele>
        <time>2024-11-26T11:13:54.846+00:00</time>
      </trkpt>
      <trkpt lat="43.33213" lon="5.24031">
        <ele>47</ele>
        <time>2024-11-26T11:14:28.846+00:00</time>
      </trkpt>
      <trkpt lat="43.33214" lon="5.24029">
        <ele>47</ele>
        <time>2024-11-26T11:14:33.846+00:00</time>
      </trkpt>
      <trkpt lat="43.33214" lon="5.24027">
        <ele>47</ele>
        <time>2024-11-26T11:14:37.846+00:00</time>
      </trkpt>
      <trkpt lat="43.33215" lon="5.24025">
        <ele>47</ele>
        <time>2024-11-26T11:14:42.845+00:00</time>
      </trkpt>
      <trkpt lat="43.33214" lon="5.24023">
        <ele>47</ele>
        <time>2024-11-26T11:14:46.846+00:00</time>
      </trkpt>
      <trkpt lat="43.33212" lon="5.24017">
        <ele>47</ele>
        <time>2024-11-26T11:14:51.718+00:00</time>
      </trkpt>
      <trkpt lat="43.33212" lon="5.24012">
        <ele>50</ele>
        <time>2024-11-26T11:14:55.845+00:00</time>
      </trkpt>
      <trkpt lat="43.3321" lon="5.24006">
        <ele>50</ele>
        <time>2024-11-26T11:15:00.524+00:00</time>
      </trkpt>
      <trkpt lat="43.3321" lon="5.24002">
        <ele>50</ele>
        <time>2024-11-26T11:15:04.842+00:00</time>
      </trkpt>
      <trkpt lat="43.33208" lon="5.23996">
        <ele>30</ele>
        <time>2024-11-26T11:15:08.845+00:00</time>
      </trkpt>
      <trkpt lat="43.33204" lon="5.23989">
        <ele>30</ele>
        <time>2024-11-26T11:15:13.504+00:00</time>
      </trkpt>
      <trkpt lat="43.33201" lon="5.23986">
        <ele>33</ele>
        <time>2024-11-26T11:15:17.845+00:00</time>
      </trkpt>
      <trkpt lat="43.332" lon="5.23982">
        <ele>33</ele>
        <time>2024-11-26T11:15:22.583+00:00</time>
      </trkpt>
      <trkpt lat="43.33199" lon="5.23976">
        <ele>33</ele>
        <time>2024-11-26T11:15:32.844+00:00</time>
      </trkpt>
      <trkpt lat="43.332" lon="5.23972">
        <ele>33</ele>
        <time>2024-11-26T11:15:37.845+00:00</time>
      </trkpt>
      <trkpt lat="43.332" lon="5.23968">
        <ele>33</ele>
        <time>2024-11-26T11:15:42.263+00:00</time>
      </trkpt>
      <trkpt lat="43.33199" lon="5.23965">
        <ele>33</ele>
        <time>2024-11-26T11:15:46.343+00:00</time>
      </trkpt>
      <trkpt lat="43.33198" lon="5.23961">
        <ele>33</ele>
        <time>2024-11-26T11:15:50.378+00:00</time>
      </trkpt>
      <trkpt lat="43.33196" lon="5.23957">
        <ele>33</ele>
        <time>2024-11-26T11:15:54.662+00:00</time>
      </trkpt>
      <trkpt lat="43.33195" lon="5.23951">
        <ele>33</ele>
        <time>2024-11-26T11:15:58.845+00:00</time>
      </trkpt>
      <trkpt lat="43.33193" lon="5.23946">
        <ele>33</ele>
        <time>2024-11-26T11:16:03.298+00:00</time>
      </trkpt>
      <trkpt lat="43.33192" lon="5.23939">
        <ele>33</ele>
        <time>2024-11-26T11:16:07.745+00:00</time>
      </trkpt>
      <trkpt lat="43.33192" lon="5.23905">
        <ele>34</ele>
        <time>2024-11-26T11:17:08.845+00:00</time>
      </trkpt>
      <trkpt lat="43.33192" lon="5.23903">
        <ele>34</ele>
        <time>2024-11-26T11:17:13.365+00:00</time>
      </trkpt>
      <trkpt lat="43.33192" lon="5.23901">
        <ele>35</ele>
        <time>2024-11-26T11:17:17.845+00:00</time>
      </trkpt>
      <trkpt lat="43.33192" lon="5.239">
        <ele>35</ele>
        <time>2024-11-26T11:17:22.844+00:00</time>
      </trkpt>
      <trkpt lat="43.33192" lon="5.23899">
        <ele>35</ele>
        <time>2024-11-26T11:17:27.845+00:00</time>
      </trkpt>
      <trkpt lat="43.33191" lon="5.23894">
        <ele>35</ele>
        <time>2024-11-26T11:18:02.807+00:00</time>
      </trkpt>
      <trkpt lat="43.3319" lon="5.23892">
        <ele>35</ele>
        <time>2024-11-26T11:18:06.845+00:00</time>
      </trkpt>
      <trkpt lat="43.3319" lon="5.23891">
        <ele>35</ele>
        <time>2024-11-26T11:18:10.846+00:00</time>
      </trkpt>
      <trkpt lat="43.3319" lon="5.23888">
        <ele>35</ele>
        <time>2024-11-26T11:18:15.845+00:00</time>
      </trkpt>
      <trkpt lat="43.3319" lon="5.23886">
        <ele>35</ele>
        <time>2024-11-26T11:18:20.845+00:00</time>
      </trkpt>
      <trkpt lat="43.33189" lon="5.23882">
        <ele>35</ele>
        <time>2024-11-26T11:18:44.668+00:00</time>
      </trkpt>
      <trkpt lat="43.33188" lon="5.23879">
        <ele>35</ele>
        <time>2024-11-26T11:18:49.542+00:00</time>
      </trkpt>
      <trkpt lat="43.3319" lon="5.23877">
        <ele>35</ele>
        <time>2024-11-26T11:18:53.845+00:00</time>
      </trkpt>
      <trkpt lat="43.3319" lon="5.23873">
        <ele>35</ele>
        <time>2024-11-26T11:18:58.844+00:00</time>
      </trkpt>
      <trkpt lat="43.33191" lon="5.23871">
        <ele>35</ele>
        <time>2024-11-26T11:19:03.845+00:00</time>
      </trkpt>
      <trkpt lat="43.33191" lon="5.2387">
        <ele>35</ele>
        <time>2024-11-26T11:19:08.141+00:00</time>
      </trkpt>
      <trkpt lat="43.33191" lon="5.23866">
        <ele>35</ele>
        <time>2024-11-26T11:19:12.667+00:00</time>
      </trkpt>
      <trkpt lat="43.3319" lon="5.23863">
        <ele>35</ele>
        <time>2024-11-26T11:19:16.845+00:00</time>
      </trkpt>
      <trkpt lat="43.33189" lon="5.23858">
        <ele>35</ele>
        <time>2024-11-26T11:19:21.845+00:00</time>
      </trkpt>
      <trkpt lat="43.33189" lon="5.23849">
        <ele>35</ele>
        <time>2024-11-26T11:19:40.588+00:00</time>
      </trkpt>
      <trkpt lat="43.33189" lon="5.23847">
        <ele>35</ele>
        <time>2024-11-26T11:19:44.967+00:00</time>
      </trkpt>
      <trkpt lat="43.3319" lon="5.23845">
        <ele>35</ele>
        <time>2024-11-26T11:19:49.623+00:00</time>
      </trkpt>
      <trkpt lat="43.33191" lon="5.23844">
        <ele>35</ele>
        <time>2024-11-26T11:19:54.198+00:00</time>
      </trkpt>
      <trkpt lat="43.3319" lon="5.2384">
        <ele>35</ele>
        <time>2024-11-26T11:19:58.845+00:00</time>
      </trkpt>
      <trkpt lat="43.33189" lon="5.2384">
        <ele>35</ele>
        <time>2024-11-26T11:20:16.844+00:00</time>
      </trkpt>
      <trkpt lat="43.3319" lon="5.238">
        <ele>32</ele>
        <time>2024-11-26T11:20:21.480+00:00</time>
      </trkpt>
      <trkpt lat="43.3319" lon="5.23799">
        <ele>32</ele>
        <time>2024-11-26T11:20:25.529+00:00</time>
      </trkpt>
      <trkpt lat="43.33191" lon="5.23794">
        <ele>32</ele>
        <time>2024-11-26T11:20:29.844+00:00</time>
      </trkpt>
      <trkpt lat="43.33191" lon="5.23789">
        <ele>28</ele>
        <time>2024-11-26T11:20:34.664+00:00</time>
      </trkpt>
      <trkpt lat="43.3319" lon="5.23779">
        <ele>28</ele>
        <time>2024-11-26T11:20:57.844+00:00</time>
      </trkpt>
      <trkpt lat="43.3319" lon="5.23778">
        <ele>28</ele>
        <time>2024-11-26T11:21:01.968+00:00</time>
      </trkpt>
      <trkpt lat="43.33189" lon="5.23774">
        <ele>28</ele>
        <time>2024-11-26T11:21:06.531+00:00</time>
      </trkpt>
      <trkpt lat="43.33188" lon="5.23771">
        <ele>28</ele>
        <time>2024-11-26T11:21:10.669+00:00</time>
      </trkpt>
      <trkpt lat="43.33189" lon="5.23765">
        <ele>28</ele>
        <time>2024-11-26T11:21:14.740+00:00</time>
      </trkpt>
      <trkpt lat="43.33188" lon="5.23757">
        <ele>28</ele>
        <time>2024-11-26T11:21:19.848+00:00</time>
      </trkpt>
      <trkpt lat="43.33186" lon="5.23753">
        <ele>28</ele>
        <time>2024-11-26T11:21:24.427+00:00</time>
      </trkpt>
      <trkpt lat="43.33185" lon="5.23749">
        <ele>28</ele>
        <time>2024-11-26T11:21:28.669+00:00</time>
      </trkpt>
      <trkpt lat="43.33184" lon="5.23745">
        <ele>28</ele>
        <time>2024-11-26T11:21:32.844+00:00</time>
      </trkpt>
      <trkpt lat="43.33187" lon="5.23743">
        <ele>28</ele>
        <time>2024-11-26T11:21:41.844+00:00</time>
      </trkpt>
      <trkpt lat="43.33188" lon="5.23742">
        <ele>28</ele>
        <time>2024-11-26T11:21:46.551+00:00</time>
      </trkpt>
      <trkpt lat="43.3319" lon="5.2374">
        <ele>28</ele>
        <time>2024-11-26T11:21:51.270+00:00</time>
      </trkpt>
      <trkpt lat="43.33191" lon="5.23739">
        <ele>28</ele>
        <time>2024-11-26T11:21:55.844+00:00</time>
      </trkpt>
      <trkpt lat="43.33195" lon="5.23737">
        <ele>28</ele>
        <time>2024-11-26T11:22:00.368+00:00</time>
      </trkpt>
      <trkpt lat="43.332" lon="5.23734">
        <ele>25</ele>
        <time>2024-11-26T11:22:22.669+00:00</time>
      </trkpt>
      <trkpt lat="43.33201" lon="5.23734">
        <ele>25</ele>
        <time>2024-11-26T11:22:26.843+00:00</time>
      </trkpt>
      <trkpt lat="43.33202" lon="5.23734">
        <ele>25</ele>
        <time>2024-11-26T11:22:31.665+00:00</time>
      </trkpt>
      <trkpt lat="43.33204" lon="5.23733">
        <ele>25</ele>
        <time>2024-11-26T11:22:35.844+00:00</time>
      </trkpt>
      <trkpt lat="43.33205" lon="5.23732">
        <ele>25</ele>
        <time>2024-11-26T11:22:39.843+00:00</time>
      </trkpt>
      <trkpt lat="43.33207" lon="5.23729">
        <ele>25</ele>
        <time>2024-11-26T11:22:52.548+00:00</time>
      </trkpt>
      <trkpt lat="43.33208" lon="5.23728">
        <ele>25</ele>
        <time>2024-11-26T11:22:56.844+00:00</time>
      </trkpt>
      <trkpt lat="43.33209" lon="5.23727">
        <ele>37</ele>
        <time>2024-11-26T11:23:01.797+00:00</time>
      </trkpt>
      <trkpt lat="43.3321" lon="5.23724">
        <ele>37</ele>
        <time>2024-11-26T11:23:05.811+00:00</time>
      </trkpt>
      <trkpt lat="43.33214" lon="5.23718">
        <ele>37</ele>
        <time>2024-11-26T11:23:10.103+00:00</time>
      </trkpt>
      <trkpt lat="43.33216" lon="5.23712">
        <ele>37</ele>
        <time>2024-11-26T11:23:18.844+00:00</time>
      </trkpt>
      <trkpt lat="43.33215" lon="5.23707">
        <ele>36</ele>
        <time>2024-11-26T11:23:23.323+00:00</time>
      </trkpt>
      <trkpt lat="43.33213" lon="5.23709">
        <ele>37</ele>
        <time>2024-11-26T11:23:27.844+00:00</time>
      </trkpt>
      <trkpt lat="43.33213" lon="5.23708">
        <ele>37</ele>
        <time>2024-11-26T11:23:31.968+00:00</time>
      </trkpt>
      <trkpt lat="43.33215" lon="5.23699">
        <ele>36</ele>
        <time>2024-11-26T11:23:36.687+00:00</time>
      </trkpt>
      <trkpt lat="43.33219" lon="5.23706">
        <ele>36</ele>
        <time>2024-11-26T11:26:23.843+00:00</time>
      </trkpt>
      <trkpt lat="43.33219" lon="5.23706">
        <ele>36</ele>
        <time>2024-11-26T11:26:29.843+00:00</time>
      </trkpt>
      <trkpt lat="43.33218" lon="5.23707">
        <ele>36</ele>
        <time>2024-11-26T11:26:34.843+00:00</time>
      </trkpt>
      <trkpt lat="43.33218" lon="5.23714">
        <ele>37</ele>
        <time>2024-11-26T11:26:39.843+00:00</time>
      </trkpt>
      <trkpt lat="43.3322" lon="5.23716">
        <ele>37</ele>
        <time>2024-11-26T11:26:43.843+00:00</time>
      </trkpt>
      <trkpt lat="43.3322" lon="5.23713">
        <ele>37</ele>
        <time>2024-11-26T11:26:47.843+00:00</time>
      </trkpt>
      <trkpt lat="43.33221" lon="5.23712">
        <ele>37</ele>
        <time>2024-11-26T11:26:52.843+00:00</time>
      </trkpt>
      <trkpt lat="43.33222" lon="5.23711">
        <ele>37</ele>
        <time>2024-11-26T11:26:57.844+00:00</time>
      </trkpt>
      <trkpt lat="43.33223" lon="5.23707">
        <ele>36</ele>
        <time>2024-11-26T11:27:02.427+00:00</time>
      </trkpt>
      <trkpt lat="43.33229" lon="5.23696">
        <ele>36</ele>
        <time>2024-11-26T11:27:06.843+00:00</time>
      </trkpt>
      <trkpt lat="43.33231" lon="5.2369">
        <ele>36</ele>
        <time>2024-11-26T11:27:11.269+00:00</time>
      </trkpt>
      <trkpt lat="43.33233" lon="5.23685">
        <ele>36</ele>
        <time>2024-11-26T11:27:15.843+00:00</time>
      </trkpt>
      <trkpt lat="43.33235" lon="5.23683">
        <ele>36</ele>
        <time>2024-11-26T11:27:20.263+00:00</time>
      </trkpt>
      <trkpt lat="43.33236" lon="5.23681">
        <ele>36</ele>
        <time>2024-11-26T11:27:24.843+00:00</time>
      </trkpt>
      <trkpt lat="43.33235" lon="5.23679">
        <ele>37</ele>
        <time>2024-11-26T11:27:29.206+00:00</time>
      </trkpt>
      <trkpt lat="43.3323" lon="5.23672">
        <ele>37</ele>
        <time>2024-11-26T11:27:47.008+00:00</time>
      </trkpt>
      <trkpt lat="43.3323" lon="5.23671">
        <ele>37</ele>
        <time>2024-11-26T11:27:52.291+00:00</time>
      </trkpt>
      <trkpt lat="43.33229" lon="5.23669">
        <ele>37</ele>
        <time>2024-11-26T11:27:57.411+00:00</time>
      </trkpt>
      <trkpt lat="43.33229" lon="5.23666">
        <ele>37</ele>
        <time>2024-11-26T11:28:01.703+00:00</time>
      </trkpt>
      <trkpt lat="43.3323" lon="5.2366">
        <ele>37</ele>
        <time>2024-11-26T11:28:05.843+00:00</time>
      </trkpt>
      <trkpt lat="43.33231" lon="5.23656">
        <ele>37</ele>
        <time>2024-11-26T11:28:10.246+00:00</time>
      </trkpt>
      <trkpt lat="43.33234" lon="5.23652">
        <ele>46</ele>
        <time>2024-11-26T11:28:14.843+00:00</time>
      </trkpt>
      <trkpt lat="43.33236" lon="5.23651">
        <ele>46</ele>
        <time>2024-11-26T11:28:19.565+00:00</time>
      </trkpt>
      <trkpt lat="43.33238" lon="5.23649">
        <ele>53</ele>
        <time>2024-11-26T11:28:23.843+00:00</time>
      </trkpt>
      <trkpt lat="43.33242" lon="5.2365">
        <ele>53</ele>
        <time>2024-11-26T11:28:28.305+00:00</time>
      </trkpt>
      <trkpt lat="43.33245" lon="5.23654">
        <ele>48</ele>
        <time>2024-11-26T11:28:32.647+00:00</time>
      </trkpt>
      <trkpt lat="43.33247" lon="5.2366">
        <ele>48</ele>
        <time>2024-11-26T11:28:36.676+00:00</time>
      </trkpt>
      <trkpt lat="43.33248" lon="5.23667">
        <ele>48</ele>
        <time>2024-11-26T11:28:40.843+00:00</time>
      </trkpt>
      <trkpt lat="43.3325" lon="5.23672">
        <ele>48</ele>
        <time>2024-11-26T11:28:45.389+00:00</time>
      </trkpt>
      <trkpt lat="43.33251" lon="5.23676">
        <ele>48</ele>
        <time>2024-11-26T11:28:49.843+00:00</time>
      </trkpt>
      <trkpt lat="43.33254" lon="5.2368">
        <ele>48</ele>
        <time>2024-11-26T11:28:54.349+00:00</time>
      </trkpt>
      <trkpt lat="43.33256" lon="5.23683">
        <ele>46</ele>
        <time>2024-11-26T11:28:58.684+00:00</time>
      </trkpt>
      <trkpt lat="43.33258" lon="5.23687">
        <ele>46</ele>
        <time>2024-11-26T11:29:02.843+00:00</time>
      </trkpt>
      <trkpt lat="43.33259" lon="5.23694">
        <ele>46</ele>
        <time>2024-11-26T11:29:12.843+00:00</time>
      </trkpt>
      <trkpt lat="43.33259" lon="5.23696">
        <ele>46</ele>
        <time>2024-11-26T11:29:17.851+00:00</time>
      </trkpt>
      <trkpt lat="43.33262" lon="5.237">
        <ele>46</ele>
        <time>2024-11-26T11:29:22.451+00:00</time>
      </trkpt>
      <trkpt lat="43.33262" lon="5.23704">
        <ele>46</ele>
        <time>2024-11-26T11:29:26.843+00:00</time>
      </trkpt>
      <trkpt lat="43.33267" lon="5.23705">
        <ele>54</ele>
        <time>2024-11-26T11:29:31.843+00:00</time>
      </trkpt>
      <trkpt lat="43.33278" lon="5.23695">
        <ele>54</ele>
        <time>2024-11-26T11:33:12.974+00:00</time>
      </trkpt>
      <trkpt lat="43.33279" lon="5.23696">
        <ele>54</ele>
        <time>2024-11-26T11:33:17.806+00:00</time>
      </trkpt>
      <trkpt lat="43.33284" lon="5.23696">
        <ele>54</ele>
        <time>2024-11-26T11:33:22.842+00:00</time>
      </trkpt>
      <trkpt lat="43.33287" lon="5.23693">
        <ele>54</ele>
        <time>2024-11-26T11:33:26.841+00:00</time>
      </trkpt>
      <trkpt lat="43.33291" lon="5.23689">
        <ele>54</ele>
        <time>2024-11-26T11:33:31.842+00:00</time>
      </trkpt>
      <trkpt lat="43.33291" lon="5.23674">
        <ele>53</ele>
        <time>2024-11-26T11:33:49.841+00:00</time>
      </trkpt>
      <trkpt lat="43.33291" lon="5.23673">
        <ele>53</ele>
        <time>2024-11-26T11:33:54.842+00:00</time>
      </trkpt>
      <trkpt lat="43.3329" lon="5.23672">
        <ele>53</ele>
        <time>2024-11-26T11:33:59.842+00:00</time>
      </trkpt>
      <trkpt lat="43.33288" lon="5.23669">
        <ele>53</ele>
        <time>2024-11-26T11:34:04.408+00:00</time>
      </trkpt>
      <trkpt lat="43.33284" lon="5.23666">
        <ele>53</ele>
        <time>2024-11-26T11:34:08.842+00:00</time>
      </trkpt>
      <trkpt lat="43.3328" lon="5.23664">
        <ele>53</ele>
        <time>2024-11-26T11:34:30.842+00:00</time>
      </trkpt>
      <trkpt lat="43.33279" lon="5.23663">
        <ele>53</ele>
        <time>2024-11-26T11:34:35.842+00:00</time>
      </trkpt>
      <trkpt lat="43.33277" lon="5.23662">
        <ele>53</ele>
        <time>2024-11-26T11:34:40.149+00:00</time>
      </trkpt>
      <trkpt lat="43.33273" lon="5.2366">
        <ele>53</ele>
        <time>2024-11-26T11:34:44.612+00:00</time>
      </trkpt>
      <trkpt lat="43.33269" lon="5.23658">
        <ele>53</ele>
        <time>2024-11-26T11:34:48.630+00:00</time>
      </trkpt>
      <trkpt lat="43.33265" lon="5.23656">
        <ele>53</ele>
        <time>2024-11-26T11:34:52.842+00:00</time>
      </trkpt>
      <trkpt lat="43.33262" lon="5.23655">
        <ele>48</ele>
        <time>2024-11-26T11:34:57.205+00:00</time>
      </trkpt>
      <trkpt lat="43.33258" lon="5.23653">
        <ele>53</ele>
        <time>2024-11-26T11:35:01.388+00:00</time>
      </trkpt>
      <trkpt lat="43.33253" lon="5.2365">
        <ele>53</ele>
        <time>2024-11-26T11:35:06.524+00:00</time>
      </trkpt>
      <trkpt lat="43.33228" lon="5.23637">
        <ele>46</ele>
        <time>2024-11-26T11:35:34.842+00:00</time>
      </trkpt>
      <trkpt lat="43.33224" lon="5.23638">
        <ele>46</ele>
        <time>2024-11-26T11:35:39.842+00:00</time>
      </trkpt>
      <trkpt lat="43.33218" lon="5.2364">
        <ele>46</ele>
        <time>2024-11-26T11:35:44.842+00:00</time>
      </trkpt>
      <trkpt lat="43.33216" lon="5.2364">
        <ele>46</ele>
        <time>2024-11-26T11:35:49.842+00:00</time>
      </trkpt>
      <trkpt lat="43.33215" lon="5.23638">
        <ele>46</ele>
        <time>2024-11-26T11:35:54.842+00:00</time>
      </trkpt>
      <trkpt lat="43.33208" lon="5.23639">
        <ele>35</ele>
        <time>2024-11-26T11:36:16.841+00:00</time>
      </trkpt>
      <trkpt lat="43.33207" lon="5.23635">
        <ele>35</ele>
        <time>2024-11-26T11:36:21.235+00:00</time>
      </trkpt>
      <trkpt lat="43.33206" lon="5.2363">
        <ele>35</ele>
        <time>2024-11-26T11:36:25.493+00:00</time>
      </trkpt>
      <trkpt lat="43.33204" lon="5.23624">
        <ele>45</ele>
        <time>2024-11-26T11:36:30.272+00:00</time>
      </trkpt>
      <trkpt lat="43.33202" lon="5.23617">
        <ele>45</ele>
        <time>2024-11-26T11:36:34.829+00:00</time>
      </trkpt>
      <trkpt lat="43.33201" lon="5.23611">
        <ele>45</ele>
        <time>2024-11-26T11:36:38.848+00:00</time>
      </trkpt>
      <trkpt lat="43.332" lon="5.23605">
        <ele>45</ele>
        <time>2024-11-26T11:36:43.493+00:00</time>
      </trkpt>
      <trkpt lat="43.33199" lon="5.23601">
        <ele>45</ele>
        <time>2024-11-26T11:36:47.570+00:00</time>
      </trkpt>
      <trkpt lat="43.33196" lon="5.23595">
        <ele>50</ele>
        <time>2024-11-26T11:36:52.197+00:00</time>
      </trkpt>
      <trkpt lat="43.33195" lon="5.23589">
        <ele>50</ele>
        <time>2024-11-26T11:36:56.769+00:00</time>
      </trkpt>
      <trkpt lat="43.33194" lon="5.23585">
        <ele>50</ele>
        <time>2024-11-26T11:37:00.842+00:00</time>
      </trkpt>
      <trkpt lat="43.33193" lon="5.23579">
        <ele>50</ele>
        <time>2024-11-26T11:37:05.173+00:00</time>
      </trkpt>
      <trkpt lat="43.33191" lon="5.23573">
        <ele>50</ele>
        <time>2024-11-26T11:37:09.842+00:00</time>
      </trkpt>
      <trkpt lat="43.33188" lon="5.23567">
        <ele>52</ele>
        <time>2024-11-26T11:37:14.612+00:00</time>
      </trkpt>
      <trkpt lat="43.33187" lon="5.23563">
        <ele>52</ele>
        <time>2024-11-26T11:37:19.169+00:00</time>
      </trkpt>
      <trkpt lat="43.33185" lon="5.23556">
        <ele>52</ele>
        <time>2024-11-26T11:37:23.811+00:00</time>
      </trkpt>
      <trkpt lat="43.33183" lon="5.23549">
        <ele>52</ele>
        <time>2024-11-26T11:37:28.590+00:00</time>
      </trkpt>
      <trkpt lat="43.33181" lon="5.23544">
        <ele>41</ele>
        <time>2024-11-26T11:37:32.842+00:00</time>
      </trkpt>
      <trkpt lat="43.33178" lon="5.23538">
        <ele>40</ele>
        <time>2024-11-26T11:37:37.532+00:00</time>
      </trkpt>
      <trkpt lat="43.33177" lon="5.23532">
        <ele>40</ele>
        <time>2024-11-26T11:37:41.749+00:00</time>
      </trkpt>
      <trkpt lat="43.33175" lon="5.23526">
        <ele>40</ele>
        <time>2024-11-26T11:37:45.841+00:00</time>
      </trkpt>
      <trkpt lat="43.33174" lon="5.23522">
        <ele>40</ele>
        <time>2024-11-26T11:37:50.231+00:00</time>
      </trkpt>
      <trkpt lat="43.33172" lon="5.23516">
        <ele>40</ele>
        <time>2024-11-26T11:37:54.489+00:00</time>
      </trkpt>
      <trkpt lat="43.33171" lon="5.2351">
        <ele>37</ele>
        <time>2024-11-26T11:37:58.807+00:00</time>
      </trkpt>
      <trkpt lat="43.33169" lon="5.23505">
        <ele>37</ele>
        <time>2024-11-26T11:38:03.841+00:00</time>
      </trkpt>
      <trkpt lat="43.33167" lon="5.23499">
        <ele>37</ele>
        <time>2024-11-26T11:38:08.031+00:00</time>
      </trkpt>
      <trkpt lat="43.33167" lon="5.23493">
        <ele>37</ele>
        <time>2024-11-26T11:38:12.615+00:00</time>
      </trkpt>
      <trkpt lat="43.33167" lon="5.23486">
        <ele>37</ele>
        <time>2024-11-26T11:38:17.350+00:00</time>
      </trkpt>
      <trkpt lat="43.33168" lon="5.23485">
        <ele>37</ele>
        <time>2024-11-26T11:38:21.841+00:00</time>
      </trkpt>
      <trkpt lat="43.33173" lon="5.23476">
        <ele>37</ele>
        <time>2024-11-26T12:16:11.835+00:00</time>
      </trkpt>
      <trkpt lat="43.33173" lon="5.23475">
        <ele>37</ele>
        <time>2024-11-26T12:16:16.834+00:00</time>
      </trkpt>
      <trkpt lat="43.33174" lon="5.23475">
        <ele>37</ele>
        <time>2024-11-26T12:16:20.835+00:00</time>
      </trkpt>
      <trkpt lat="43.33175" lon="5.23476">
        <ele>37</ele>
        <time>2024-11-26T12:16:25.675+00:00</time>
      </trkpt>
      <trkpt lat="43.33177" lon="5.23471">
        <ele>37</ele>
        <time>2024-11-26T12:16:29.835+00:00</time>
      </trkpt>
      <trkpt lat="43.33176" lon="5.23465">
        <ele>37</ele>
        <time>2024-11-26T12:16:34.294+00:00</time>
      </trkpt>
      <trkpt lat="43.33177" lon="5.23463">
        <ele>37</ele>
        <time>2024-11-26T12:16:38.569+00:00</time>
      </trkpt>
      <trkpt lat="43.33177" lon="5.23459">
        <ele>37</ele>
        <time>2024-11-26T12:16:42.632+00:00</time>
      </trkpt>
      <trkpt lat="43.33173" lon="5.23453">
        <ele>41</ele>
        <time>2024-11-26T12:16:47.513+00:00</time>
      </trkpt>
      <trkpt lat="43.33171" lon="5.23448">
        <ele>41</ele>
        <time>2024-11-26T12:16:51.835+00:00</time>
      </trkpt>
      <trkpt lat="43.33167" lon="5.23443">
        <ele>41</ele>
        <time>2024-11-26T12:16:56.312+00:00</time>
      </trkpt>
      <trkpt lat="43.33163" lon="5.23439">
        <ele>41</ele>
        <time>2024-11-26T12:17:00.835+00:00</time>
      </trkpt>
      <trkpt lat="43.33159" lon="5.23436">
        <ele>41</ele>
        <time>2024-11-26T12:17:05.835+00:00</time>
      </trkpt>
      <trkpt lat="43.33157" lon="5.23433">
        <ele>41</ele>
        <time>2024-11-26T12:17:10.538+00:00</time>
      </trkpt>
      <trkpt lat="43.33155" lon="5.23429">
        <ele>45</ele>
        <time>2024-11-26T12:17:14.768+00:00</time>
      </trkpt>
      <trkpt lat="43.33154" lon="5.23423">
        <ele>45</ele>
        <time>2024-11-26T12:17:18.835+00:00</time>
      </trkpt>
      <trkpt lat="43.33149" lon="5.23419">
        <ele>38</ele>
        <time>2024-11-26T12:17:23.338+00:00</time>
      </trkpt>
      <trkpt lat="43.33148" lon="5.23412">
        <ele>38</ele>
        <time>2024-11-26T12:17:27.533+00:00</time>
      </trkpt>
      <trkpt lat="43.33148" lon="5.23405">
        <ele>38</ele>
        <time>2024-11-26T12:17:31.673+00:00</time>
      </trkpt>
      <trkpt lat="43.3315" lon="5.23399">
        <ele>40</ele>
        <time>2024-11-26T12:17:36.110+00:00</time>
      </trkpt>
      <trkpt lat="43.33153" lon="5.23392">
        <ele>40</ele>
        <time>2024-11-26T12:17:40.633+00:00</time>
      </trkpt>
      <trkpt lat="43.33151" lon="5.23384">
        <ele>40</ele>
        <time>2024-11-26T12:17:44.835+00:00</time>
      </trkpt>
      <trkpt lat="43.33151" lon="5.23376">
        <ele>40</ele>
        <time>2024-11-26T12:17:49.532+00:00</time>
      </trkpt>
      <trkpt lat="43.33148" lon="5.23373">
        <ele>44</ele>
        <time>2024-11-26T12:17:53.835+00:00</time>
      </trkpt>
      <trkpt lat="43.33147" lon="5.23369">
        <ele>44</ele>
        <time>2024-11-26T12:17:58.348+00:00</time>
      </trkpt>
      <trkpt lat="43.33145" lon="5.23368">
        <ele>44</ele>
        <time>2024-11-26T12:18:02.853+00:00</time>
      </trkpt>
      <trkpt lat="43.33146" lon="5.23365">
        <ele>44</ele>
        <time>2024-11-26T12:18:07.589+00:00</time>
      </trkpt>
      <trkpt lat="43.33145" lon="5.2336">
        <ele>44</ele>
        <time>2024-11-26T12:18:11.835+00:00</time>
      </trkpt>
      <trkpt lat="43.33144" lon="5.23356">
        <ele>44</ele>
        <time>2024-11-26T12:18:16.071+00:00</time>
      </trkpt>
      <trkpt lat="43.33146" lon="5.23353">
        <ele>44</ele>
        <time>2024-11-26T12:18:20.235+00:00</time>
      </trkpt>
      <trkpt lat="43.33148" lon="5.23351">
        <ele>44</ele>
        <time>2024-11-26T12:18:24.834+00:00</time>
      </trkpt>
      <trkpt lat="43.33148" lon="5.23347">
        <ele>51</ele>
        <time>2024-11-26T12:18:29.110+00:00</time>
      </trkpt>
      <trkpt lat="43.33147" lon="5.23342">
        <ele>51</ele>
        <time>2024-11-26T12:18:33.351+00:00</time>
      </trkpt>
      <trkpt lat="43.33147" lon="5.23339">
        <ele>51</ele>
        <time>2024-11-26T12:18:37.515+00:00</time>
      </trkpt>
      <trkpt lat="43.33146" lon="5.23338">
        <ele>51</ele>
        <time>2024-11-26T12:18:41.835+00:00</time>
      </trkpt>
      <trkpt lat="43.33146" lon="5.23336">
        <ele>51</ele>
        <time>2024-11-26T12:18:46.509+00:00</time>
      </trkpt>
      <trkpt lat="43.33146" lon="5.23333">
        <ele>51</ele>
        <time>2024-11-26T12:18:50.835+00:00</time>
      </trkpt>
      <trkpt lat="43.33148" lon="5.23331">
        <ele>51</ele>
        <time>2024-11-26T12:18:55.272+00:00</time>
      </trkpt>
      <trkpt lat="43.33148" lon="5.23325">
        <ele>51</ele>
        <time>2024-11-26T12:18:59.811+00:00</time>
      </trkpt>
      <trkpt lat="43.33148" lon="5.23323">
        <ele>51</ele>
        <time>2024-11-26T12:19:04.834+00:00</time>
      </trkpt>
      <trkpt lat="43.33148" lon="5.2332">
        <ele>51</ele>
        <time>2024-11-26T12:19:09.835+00:00</time>
      </trkpt>
      <trkpt lat="43.33145" lon="5.23318">
        <ele>58</ele>
        <time>2024-11-26T12:19:14.835+00:00</time>
      </trkpt>
      <trkpt lat="43.33141" lon="5.2332">
        <ele>51</ele>
        <time>2024-11-26T12:19:19.531+00:00</time>
      </trkpt>
      <trkpt lat="43.33138" lon="5.23323">
        <ele>51</ele>
        <time>2024-11-26T12:19:23.835+00:00</time>
      </trkpt>
      <trkpt lat="43.33132" lon="5.23329">
        <ele>51</ele>
        <time>2024-11-26T12:19:38.835+00:00</time>
      </trkpt>
      <trkpt lat="43.33131" lon="5.23331">
        <ele>51</ele>
        <time>2024-11-26T12:19:43.595+00:00</time>
      </trkpt>
      <trkpt lat="43.3313" lon="5.23331">
        <ele>51</ele>
        <time>2024-11-26T12:19:47.835+00:00</time>
      </trkpt>
      <trkpt lat="43.33129" lon="5.23332">
        <ele>51</ele>
        <time>2024-11-26T12:19:52.315+00:00</time>
      </trkpt>
      <trkpt lat="43.33127" lon="5.2333">
        <ele>51</ele>
        <time>2024-11-26T12:19:56.835+00:00</time>
      </trkpt>
      <trkpt lat="43.33126" lon="5.23326">
        <ele>51</ele>
        <time>2024-11-26T12:20:01.368+00:00</time>
      </trkpt>
      <trkpt lat="43.33128" lon="5.23324">
        <ele>51</ele>
        <time>2024-11-26T12:20:05.669+00:00</time>
      </trkpt>
      <trkpt lat="43.33127" lon="5.2332">
        <ele>51</ele>
        <time>2024-11-26T12:20:09.835+00:00</time>
      </trkpt>
      <trkpt lat="43.33125" lon="5.23317">
        <ele>44</ele>
        <time>2024-11-26T12:20:14.032+00:00</time>
      </trkpt>
      <trkpt lat="43.33124" lon="5.23313">
        <ele>44</ele>
        <time>2024-11-26T12:20:18.214+00:00</time>
      </trkpt>
      <trkpt lat="43.33124" lon="5.23305">
        <ele>44</ele>
        <time>2024-11-26T12:20:22.795+00:00</time>
      </trkpt>
      <trkpt lat="43.33125" lon="5.23299">
        <ele>44</ele>
        <time>2024-11-26T12:20:27.046+00:00</time>
      </trkpt>
      <trkpt lat="43.33127" lon="5.23292">
        <ele>58</ele>
        <time>2024-11-26T12:20:31.226+00:00</time>
      </trkpt>
      <trkpt lat="43.33126" lon="5.23285">
        <ele>62</ele>
        <time>2024-11-26T12:20:35.835+00:00</time>
      </trkpt>
      <trkpt lat="43.33126" lon="5.23279">
        <ele>62</ele>
        <time>2024-11-26T12:20:40.084+00:00</time>
      </trkpt>
      <trkpt lat="43.33125" lon="5.23274">
        <ele>49</ele>
        <time>2024-11-26T12:20:44.835+00:00</time>
      </trkpt>
      <trkpt lat="43.33122" lon="5.2327">
        <ele>49</ele>
        <time>2024-11-26T12:20:49.802+00:00</time>
      </trkpt>
      <trkpt lat="43.3312" lon="5.23267">
        <ele>49</ele>
        <time>2024-11-26T12:20:54.171+00:00</time>
      </trkpt>
      <trkpt lat="43.33121" lon="5.23257">
        <ele>53</ele>
        <time>2024-11-26T12:21:07.687+00:00</time>
      </trkpt>
      <trkpt lat="43.3312" lon="5.23256">
        <ele>53</ele>
        <time>2024-11-26T12:21:11.834+00:00</time>
      </trkpt>
      <trkpt lat="43.33121" lon="5.23254">
        <ele>53</ele>
        <time>2024-11-26T12:21:16.835+00:00</time>
      </trkpt>
      <trkpt lat="43.33122" lon="5.23253">
        <ele>53</ele>
        <time>2024-11-26T12:21:21.110+00:00</time>
      </trkpt>
      <trkpt lat="43.33122" lon="5.23251">
        <ele>53</ele>
        <time>2024-11-26T12:21:25.726+00:00</time>
      </trkpt>
      <trkpt lat="43.33123" lon="5.23245">
        <ele>53</ele>
        <time>2024-11-26T12:21:29.835+00:00</time>
      </trkpt>
      <trkpt lat="43.33123" lon="5.2324">
        <ele>53</ele>
        <time>2024-11-26T12:21:34.310+00:00</time>
      </trkpt>
      <trkpt lat="43.33122" lon="5.23236">
        <ele>56</ele>
        <time>2024-11-26T12:21:38.747+00:00</time>
      </trkpt>
      <trkpt lat="43.33119" lon="5.23231">
        <ele>56</ele>
        <time>2024-11-26T12:21:43.270+00:00</time>
      </trkpt>
      <trkpt lat="43.33119" lon="5.23225">
        <ele>56</ele>
        <time>2024-11-26T12:21:47.835+00:00</time>
      </trkpt>
      <trkpt lat="43.33116" lon="5.23223">
        <ele>56</ele>
        <time>2024-11-26T12:21:52.443+00:00</time>
      </trkpt>
      <trkpt lat="43.33114" lon="5.23223">
        <ele>56</ele>
        <time>2024-11-26T12:21:56.835+00:00</time>
      </trkpt>
      <trkpt lat="43.33112" lon="5.23218">
        <ele>56</ele>
        <time>2024-11-26T12:22:01.684+00:00</time>
      </trkpt>
      <trkpt lat="43.33109" lon="5.23216">
        <ele>56</ele>
        <time>2024-11-26T12:22:05.790+00:00</time>
      </trkpt>
      <trkpt lat="43.33107" lon="5.23216">
        <ele>56</ele>
        <time>2024-11-26T12:22:09.834+00:00</time>
      </trkpt>
      <trkpt lat="43.33106" lon="5.23213">
        <ele>56</ele>
        <time>2024-11-26T12:22:14.552+00:00</time>
      </trkpt>
      <trkpt lat="43.33103" lon="5.23209">
        <ele>56</ele>
        <time>2024-11-26T12:22:19.424+00:00</time>
      </trkpt>
      <trkpt lat="43.33099" lon="5.23206">
        <ele>61</ele>
        <time>2024-11-26T12:22:24.262+00:00</time>
      </trkpt>
      <trkpt lat="43.33098" lon="5.23204">
        <ele>61</ele>
        <time>2024-11-26T12:22:28.682+00:00</time>
      </trkpt>
      <trkpt lat="43.33095" lon="5.23199">
        <ele>42</ele>
        <time>2024-11-26T12:22:33.231+00:00</time>
      </trkpt>
      <trkpt lat="43.33092" lon="5.23195">
        <ele>42</ele>
        <time>2024-11-26T12:22:37.651+00:00</time>
      </trkpt>
      <trkpt lat="43.33089" lon="5.23192">
        <ele>42</ele>
        <time>2024-11-26T12:22:41.833+00:00</time>
      </trkpt>
      <trkpt lat="43.33086" lon="5.23187">
        <ele>42</ele>
        <time>2024-11-26T12:22:46.834+00:00</time>
      </trkpt>
      <trkpt lat="43.33083" lon="5.23181">
        <ele>42</ele>
        <time>2024-11-26T12:22:51.545+00:00</time>
      </trkpt>
      <trkpt lat="43.3308" lon="5.23176">
        <ele>48</ele>
        <time>2024-11-26T12:22:55.834+00:00</time>
      </trkpt>
      <trkpt lat="43.33077" lon="5.23171">
        <ele>48</ele>
        <time>2024-11-26T12:23:00.834+00:00</time>
      </trkpt>
      <trkpt lat="43.33076" lon="5.2317">
        <ele>48</ele>
        <time>2024-11-26T12:23:04.834+00:00</time>
      </trkpt>
      <trkpt lat="43.33076" lon="5.23171">
        <ele>48</ele>
        <time>2024-11-26T12:23:10.834+00:00</time>
      </trkpt>
      <trkpt lat="43.33074" lon="5.23166">
        <ele>48</ele>
        <time>2024-11-26T12:23:15.195+00:00</time>
      </trkpt>
      <trkpt lat="43.3307" lon="5.23159">
        <ele>48</ele>
        <time>2024-11-26T12:23:19.833+00:00</time>
      </trkpt>
      <trkpt lat="43.33068" lon="5.23151">
        <ele>41</ele>
        <time>2024-11-26T12:23:24.028+00:00</time>
      </trkpt>
      <trkpt lat="43.33066" lon="5.23143">
        <ele>41</ele>
        <time>2024-11-26T12:23:28.468+00:00</time>
      </trkpt>
      <trkpt lat="43.33064" lon="5.23135">
        <ele>41</ele>
        <time>2024-11-26T12:23:32.546+00:00</time>
      </trkpt>
      <trkpt lat="43.33059" lon="5.23134">
        <ele>41</ele>
        <time>2024-11-26T12:23:36.833+00:00</time>
      </trkpt>
      <trkpt lat="43.33056" lon="5.23135">
        <ele>41</ele>
        <time>2024-11-26T12:23:41.833+00:00</time>
      </trkpt>
      <trkpt lat="43.3305" lon="5.23136">
        <ele>41</ele>
        <time>2024-11-26T12:23:46.265+00:00</time>
      </trkpt>
      <trkpt lat="43.33046" lon="5.23136">
        <ele>41</ele>
        <time>2024-11-26T12:23:50.682+00:00</time>
      </trkpt>
      <trkpt lat="43.33042" lon="5.23133">
        <ele>41</ele>
        <time>2024-11-26T12:23:54.727+00:00</time>
      </trkpt>
      <trkpt lat="43.33039" lon="5.23129">
        <ele>29</ele>
        <time>2024-11-26T12:23:58.834+00:00</time>
      </trkpt>
      <trkpt lat="43.33037" lon="5.23124">
        <ele>35</ele>
        <time>2024-11-26T12:24:03.834+00:00</time>
      </trkpt>
      <trkpt lat="43.33036" lon="5.23115">
        <ele>35</ele>
        <time>2024-11-26T12:24:08.783+00:00</time>
      </trkpt>
      <trkpt lat="43.33035" lon="5.23108">
        <ele>35</ele>
        <time>2024-11-26T12:24:12.833+00:00</time>
      </trkpt>
      <trkpt lat="43.33034" lon="5.23098">
        <ele>35</ele>
        <time>2024-11-26T12:24:17.402+00:00</time>
      </trkpt>
      <trkpt lat="43.33033" lon="5.2309">
        <ele>35</ele>
        <time>2024-11-26T12:24:21.643+00:00</time>
      </trkpt>
      <trkpt lat="43.33033" lon="5.23084">
        <ele>35</ele>
        <time>2024-11-26T12:24:25.689+00:00</time>
      </trkpt>
      <trkpt lat="43.33031" lon="5.23076">
        <ele>35</ele>
        <time>2024-11-26T12:24:29.834+00:00</time>
      </trkpt>
      <trkpt lat="43.33027" lon="5.23071">
        <ele>35</ele>
        <time>2024-11-26T12:24:33.834+00:00</time>
      </trkpt>
      <trkpt lat="43.33023" lon="5.23066">
        <ele>36</ele>
        <time>2024-11-26T12:24:38.284+00:00</time>
      </trkpt>
      <trkpt lat="43.33019" lon="5.23059">
        <ele>36</ele>
        <time>2024-11-26T12:24:42.730+00:00</time>
      </trkpt>
      <trkpt lat="43.33019" lon="5.23055">
        <ele>36</ele>
        <time>2024-11-26T12:24:47.125+00:00</time>
      </trkpt>
      <trkpt lat="43.33019" lon="5.23051">
        <ele>36</ele>
        <time>2024-11-26T12:24:51.426+00:00</time>
      </trkpt>
      <trkpt lat="43.33019" lon="5.23047">
        <ele>36</ele>
        <time>2024-11-26T12:24:55.608+00:00</time>
      </trkpt>
      <trkpt lat="43.33019" lon="5.23043">
        <ele>36</ele>
        <time>2024-11-26T12:24:59.834+00:00</time>
      </trkpt>
      <trkpt lat="43.33018" lon="5.23037">
        <ele>36</ele>
        <time>2024-11-26T12:25:04.585+00:00</time>
      </trkpt>
      <trkpt lat="43.33018" lon="5.23032">
        <ele>36</ele>
        <time>2024-11-26T12:25:08.646+00:00</time>
      </trkpt>
      <trkpt lat="43.33021" lon="5.23026">
        <ele>36</ele>
        <time>2024-11-26T12:25:13.528+00:00</time>
      </trkpt>
      <trkpt lat="43.33022" lon="5.23019">
        <ele>36</ele>
        <time>2024-11-26T12:25:17.834+00:00</time>
      </trkpt>
      <trkpt lat="43.33022" lon="5.23012">
        <ele>36</ele>
        <time>2024-11-26T12:25:22.250+00:00</time>
      </trkpt>
      <trkpt lat="43.33024" lon="5.23005">
        <ele>36</ele>
        <time>2024-11-26T12:25:26.687+00:00</time>
      </trkpt>
      <trkpt lat="43.33026" lon="5.22999">
        <ele>36</ele>
        <time>2024-11-26T12:25:30.834+00:00</time>
      </trkpt>
      <trkpt lat="43.33029" lon="5.22994">
        <ele>36</ele>
        <time>2024-11-26T12:25:34.834+00:00</time>
      </trkpt>
      <trkpt lat="43.33032" lon="5.22988">
        <ele>36</ele>
        <time>2024-11-26T12:25:39.769+00:00</time>
      </trkpt>
      <trkpt lat="43.33034" lon="5.22983">
        <ele>38</ele>
        <time>2024-11-26T12:25:44.326+00:00</time>
      </trkpt>
      <trkpt lat="43.33031" lon="5.22978">
        <ele>38</ele>
        <time>2024-11-26T12:25:48.541+00:00</time>
      </trkpt>
      <trkpt lat="43.33028" lon="5.22974">
        <ele>38</ele>
        <time>2024-11-26T12:25:52.833+00:00</time>
      </trkpt>
      <trkpt lat="43.33026" lon="5.22971">
        <ele>38</ele>
        <time>2024-11-26T12:25:57.425+00:00</time>
      </trkpt>
      <trkpt lat="43.33024" lon="5.22968">
        <ele>38</ele>
        <time>2024-11-26T12:26:01.834+00:00</time>
      </trkpt>
      <trkpt lat="43.33021" lon="5.22965">
        <ele>38</ele>
        <time>2024-11-26T12:26:06.155+00:00</time>
      </trkpt>
      <trkpt lat="43.33019" lon="5.22961">
        <ele>38</ele>
        <time>2024-11-26T12:26:10.670+00:00</time>
      </trkpt>
      <trkpt lat="43.33016" lon="5.22959">
        <ele>38</ele>
        <time>2024-11-26T12:26:14.834+00:00</time>
      </trkpt>
      <trkpt lat="43.33012" lon="5.22957">
        <ele>36</ele>
        <time>2024-11-26T12:26:19.766+00:00</time>
      </trkpt>
      <trkpt lat="43.33009" lon="5.22958">
        <ele>36</ele>
        <time>2024-11-26T12:26:23.834+00:00</time>
      </trkpt>
      <trkpt lat="43.33005" lon="5.22959">
        <ele>28</ele>
        <time>2024-11-26T12:26:27.834+00:00</time>
      </trkpt>
      <trkpt lat="43.33002" lon="5.22958">
        <ele>36</ele>
        <time>2024-11-26T12:26:32.601+00:00</time>
      </trkpt>
      <trkpt lat="43.32998" lon="5.22954">
        <ele>36</ele>
        <time>2024-11-26T12:26:36.834+00:00</time>
      </trkpt>
      <trkpt lat="43.32996" lon="5.22949">
        <ele>36</ele>
        <time>2024-11-26T12:26:41.407+00:00</time>
      </trkpt>
      <trkpt lat="43.32994" lon="5.22946">
        <ele>36</ele>
        <time>2024-11-26T12:26:45.742+00:00</time>
      </trkpt>
      <trkpt lat="43.3299" lon="5.22947">
        <ele>36</ele>
        <time>2024-11-26T12:26:50.247+00:00</time>
      </trkpt>
      <trkpt lat="43.32988" lon="5.22948">
        <ele>36</ele>
        <time>2024-11-26T12:26:54.834+00:00</time>
      </trkpt>
      <trkpt lat="43.32987" lon="5.2295">
        <ele>36</ele>
        <time>2024-11-26T12:26:58.971+00:00</time>
      </trkpt>
      <trkpt lat="43.3298" lon="5.22948">
        <ele>31</ele>
        <time>2024-11-26T12:27:03.602+00:00</time>
      </trkpt>
      <trkpt lat="43.32976" lon="5.22944">
        <ele>31</ele>
        <time>2024-11-26T12:27:07.724+00:00</time>
      </trkpt>
      <trkpt lat="43.32971" lon="5.2294">
        <ele>31</ele>
        <time>2024-11-26T12:27:12.246+00:00</time>
      </trkpt>
      <trkpt lat="43.32968" lon="5.22933">
        <ele>31</ele>
        <time>2024-11-26T12:27:16.834+00:00</time>
      </trkpt>
      <trkpt lat="43.32964" lon="5.22932">
        <ele>31</ele>
        <time>2024-11-26T12:27:21.833+00:00</time>
      </trkpt>
      <trkpt lat="43.32961" lon="5.22928">
        <ele>43</ele>
        <time>2024-11-26T12:27:26.290+00:00</time>
      </trkpt>
      <trkpt lat="43.3296" lon="5.22922">
        <ele>43</ele>
        <time>2024-11-26T12:27:30.465+00:00</time>
      </trkpt>
      <trkpt lat="43.32959" lon="5.22917">
        <ele>43</ele>
        <time>2024-11-26T12:27:34.813+00:00</time>
      </trkpt>
      <trkpt lat="43.32958" lon="5.22913">
        <ele>30</ele>
        <time>2024-11-26T12:27:38.833+00:00</time>
      </trkpt>
      <trkpt lat="43.32957" lon="5.22908">
        <ele>30</ele>
        <time>2024-11-26T12:27:43.834+00:00</time>
      </trkpt>
      <trkpt lat="43.32955" lon="5.22902">
        <ele>34</ele>
        <time>2024-11-26T12:27:48.346+00:00</time>
      </trkpt>
      <trkpt lat="43.32956" lon="5.22897">
        <ele>34</ele>
        <time>2024-11-26T12:27:52.435+00:00</time>
      </trkpt>
      <trkpt lat="43.32956" lon="5.22892">
        <ele>34</ele>
        <time>2024-11-26T12:27:57.095+00:00</time>
      </trkpt>
      <trkpt lat="43.32956" lon="5.22891">
        <ele>34</ele>
        <time>2024-11-26T12:28:01.268+00:00</time>
      </trkpt>
      <trkpt lat="43.32957" lon="5.22889">
        <ele>34</ele>
        <time>2024-11-26T12:28:05.367+00:00</time>
      </trkpt>
      <trkpt lat="43.32957" lon="5.2288">
        <ele>34</ele>
        <time>2024-11-26T12:28:09.834+00:00</time>
      </trkpt>
      <trkpt lat="43.32955" lon="5.22871">
        <ele>38</ele>
        <time>2024-11-26T12:28:14.831+00:00</time>
      </trkpt>
      <trkpt lat="43.32952" lon="5.22869">
        <ele>38</ele>
        <time>2024-11-26T12:28:18.833+00:00</time>
      </trkpt>
      <trkpt lat="43.3295" lon="5.2287">
        <ele>38</ele>
        <time>2024-11-26T12:28:23.833+00:00</time>
      </trkpt>
      <trkpt lat="43.32947" lon="5.2287">
        <ele>38</ele>
        <time>2024-11-26T12:28:28.833+00:00</time>
      </trkpt>
      <trkpt lat="43.32945" lon="5.22871">
        <ele>38</ele>
        <time>2024-11-26T12:28:33.833+00:00</time>
      </trkpt>
      <trkpt lat="43.32942" lon="5.22869">
        <ele>38</ele>
        <time>2024-11-26T12:28:38.749+00:00</time>
      </trkpt>
      <trkpt lat="43.32939" lon="5.22869">
        <ele>38</ele>
        <time>2024-11-26T12:28:42.833+00:00</time>
      </trkpt>
      <trkpt lat="43.32936" lon="5.22867">
        <ele>38</ele>
        <time>2024-11-26T12:28:47.392+00:00</time>
      </trkpt>
      <trkpt lat="43.32933" lon="5.22856">
        <ele>38</ele>
        <time>2024-11-26T12:29:28.833+00:00</time>
      </trkpt>
      <trkpt lat="43.32934" lon="5.22852">
        <ele>38</ele>
        <time>2024-11-26T12:29:33.548+00:00</time>
      </trkpt>
      <trkpt lat="43.32935" lon="5.22847">
        <ele>43</ele>
        <time>2024-11-26T12:29:37.748+00:00</time>
      </trkpt>
      <trkpt lat="43.32937" lon="5.2284">
        <ele>43</ele>
        <time>2024-11-26T12:29:41.833+00:00</time>
      </trkpt>
      <trkpt lat="43.32937" lon="5.22831">
        <ele>43</ele>
        <time>2024-11-26T12:29:46.409+00:00</time>
      </trkpt>
      <trkpt lat="43.32937" lon="5.22824">
        <ele>43</ele>
        <time>2024-11-26T12:29:50.462+00:00</time>
      </trkpt>
      <trkpt lat="43.3294" lon="5.22817">
        <ele>45</ele>
        <time>2024-11-26T12:29:54.833+00:00</time>
      </trkpt>
      <trkpt lat="43.32942" lon="5.22812">
        <ele>45</ele>
        <time>2024-11-26T12:29:59.832+00:00</time>
      </trkpt>
      <trkpt lat="43.32941" lon="5.22806">
        <ele>45</ele>
        <time>2024-11-26T12:30:04.365+00:00</time>
      </trkpt>
      <trkpt lat="43.3294" lon="5.22801">
        <ele>45</ele>
        <time>2024-11-26T12:30:08.496+00:00</time>
      </trkpt>
      <trkpt lat="43.32938" lon="5.22795">
        <ele>45</ele>
        <time>2024-11-26T12:30:13.310+00:00</time>
      </trkpt>
      <trkpt lat="43.3294" lon="5.22789">
        <ele>48</ele>
        <time>2024-11-26T12:30:17.671+00:00</time>
      </trkpt>
      <trkpt lat="43.32941" lon="5.22785">
        <ele>48</ele>
        <time>2024-11-26T12:30:22.833+00:00</time>
      </trkpt>
      <trkpt lat="43.32941" lon="5.22786">
        <ele>48</ele>
        <time>2024-11-26T12:30:27.323+00:00</time>
      </trkpt>
      <trkpt lat="43.32941" lon="5.22781">
        <ele>48</ele>
        <time>2024-11-26T12:30:31.833+00:00</time>
      </trkpt>
      <trkpt lat="43.32942" lon="5.22777">
        <ele>48</ele>
        <time>2024-11-26T12:30:36.547+00:00</time>
      </trkpt>
      <trkpt lat="43.32945" lon="5.22775">
        <ele>48</ele>
        <time>2024-11-26T12:30:40.833+00:00</time>
      </trkpt>
      <trkpt lat="43.32948" lon="5.22775">
        <ele>48</ele>
        <time>2024-11-26T12:30:45.833+00:00</time>
      </trkpt>
      <trkpt lat="43.32951" lon="5.22771">
        <ele>48</ele>
        <time>2024-11-26T12:30:49.963+00:00</time>
      </trkpt>
      <trkpt lat="43.3295" lon="5.22763">
        <ele>47</ele>
        <time>2024-11-26T12:30:54.247+00:00</time>
      </trkpt>
      <trkpt lat="43.32952" lon="5.22758">
        <ele>47</ele>
        <time>2024-11-26T12:30:58.367+00:00</time>
      </trkpt>
      <trkpt lat="43.32951" lon="5.2275">
        <ele>47</ele>
        <time>2024-11-26T12:31:03.150+00:00</time>
      </trkpt>
      <trkpt lat="43.32949" lon="5.22744">
        <ele>47</ele>
        <time>2024-11-26T12:31:07.525+00:00</time>
      </trkpt>
      <trkpt lat="43.32946" lon="5.22738">
        <ele>47</ele>
        <time>2024-11-26T12:31:12.047+00:00</time>
      </trkpt>
      <trkpt lat="43.32943" lon="5.22733">
        <ele>47</ele>
        <time>2024-11-26T12:31:16.622+00:00</time>
      </trkpt>
      <trkpt lat="43.32941" lon="5.22728">
        <ele>47</ele>
        <time>2024-11-26T12:31:20.786+00:00</time>
      </trkpt>
      <trkpt lat="43.3294" lon="5.2272">
        <ele>47</ele>
        <time>2024-11-26T12:31:24.833+00:00</time>
      </trkpt>
      <trkpt lat="43.32941" lon="5.22718">
        <ele>47</ele>
        <time>2024-11-26T12:31:29.644+00:00</time>
      </trkpt>
      <trkpt lat="43.32941" lon="5.22714">
        <ele>47</ele>
        <time>2024-11-26T12:31:34.646+00:00</time>
      </trkpt>
      <trkpt lat="43.32942" lon="5.22711">
        <ele>47</ele>
        <time>2024-11-26T12:31:38.833+00:00</time>
      </trkpt>
      <trkpt lat="43.32943" lon="5.22708">
        <ele>51</ele>
        <time>2024-11-26T12:31:43.837+00:00</time>
      </trkpt>
      <trkpt lat="43.32943" lon="5.22704">
        <ele>51</ele>
        <time>2024-11-26T12:31:48.833+00:00</time>
      </trkpt>
      <trkpt lat="43.32943" lon="5.22701">
        <ele>51</ele>
        <time>2024-11-26T12:31:52.833+00:00</time>
      </trkpt>
      <trkpt lat="43.32943" lon="5.22698">
        <ele>51</ele>
        <time>2024-11-26T12:31:57.833+00:00</time>
      </trkpt>
      <trkpt lat="43.32944" lon="5.22696">
        <ele>51</ele>
        <time>2024-11-26T12:32:01.944+00:00</time>
      </trkpt>
      <trkpt lat="43.32946" lon="5.22692">
        <ele>51</ele>
        <time>2024-11-26T12:32:06.664+00:00</time>
      </trkpt>
      <trkpt lat="43.32947" lon="5.22688">
        <ele>51</ele>
        <time>2024-11-26T12:32:10.833+00:00</time>
      </trkpt>
      <trkpt lat="43.32948" lon="5.22682">
        <ele>51</ele>
        <time>2024-11-26T12:32:15.427+00:00</time>
      </trkpt>
      <trkpt lat="43.32949" lon="5.22677">
        <ele>58</ele>
        <time>2024-11-26T12:32:19.746+00:00</time>
      </trkpt>
      <trkpt lat="43.32949" lon="5.22672">
        <ele>58</ele>
        <time>2024-11-26T12:32:23.833+00:00</time>
      </trkpt>
      <trkpt lat="43.32945" lon="5.22665">
        <ele>58</ele>
        <time>2024-11-26T12:32:37.833+00:00</time>
      </trkpt>
      <trkpt lat="43.32944" lon="5.22662">
        <ele>58</ele>
        <time>2024-11-26T12:32:42.744+00:00</time>
      </trkpt>
      <trkpt lat="43.32943" lon="5.22657">
        <ele>58</ele>
        <time>2024-11-26T12:32:47.729+00:00</time>
      </trkpt>
      <trkpt lat="43.32942" lon="5.22652">
        <ele>62</ele>
        <time>2024-11-26T12:32:52.833+00:00</time>
      </trkpt>
      <trkpt lat="43.3294" lon="5.22647">
        <ele>62</ele>
        <time>2024-11-26T12:32:57.482+00:00</time>
      </trkpt>
      <trkpt lat="43.32937" lon="5.22643">
        <ele>62</ele>
        <time>2024-11-26T12:33:01.833+00:00</time>
      </trkpt>
      <trkpt lat="43.32933" lon="5.22641">
        <ele>62</ele>
        <time>2024-11-26T12:33:06.529+00:00</time>
      </trkpt>
      <trkpt lat="43.3293" lon="5.22638">
        <ele>42</ele>
        <time>2024-11-26T12:33:11.009+00:00</time>
      </trkpt>
      <trkpt lat="43.32927" lon="5.22635">
        <ele>42</ele>
        <time>2024-11-26T12:33:15.429+00:00</time>
      </trkpt>
      <trkpt lat="43.32924" lon="5.22633">
        <ele>42</ele>
        <time>2024-11-26T12:33:19.628+00:00</time>
      </trkpt>
      <trkpt lat="43.3292" lon="5.22631">
        <ele>42</ele>
        <time>2024-11-26T12:33:23.810+00:00</time>
      </trkpt>
      <trkpt lat="43.32918" lon="5.22627">
        <ele>42</ele>
        <time>2024-11-26T12:33:28.367+00:00</time>
      </trkpt>
      <trkpt lat="43.32915" lon="5.22624">
        <ele>43</ele>
        <time>2024-11-26T12:33:32.608+00:00</time>
      </trkpt>
      <trkpt lat="43.32913" lon="5.22623">
        <ele>43</ele>
        <time>2024-11-26T12:33:36.645+00:00</time>
      </trkpt>
      <trkpt lat="43.32912" lon="5.22622">
        <ele>43</ele>
        <time>2024-11-26T12:33:40.833+00:00</time>
      </trkpt>
      <trkpt lat="43.32911" lon="5.2262">
        <ele>43</ele>
        <time>2024-11-26T12:33:45.767+00:00</time>
      </trkpt>
      <trkpt lat="43.32909" lon="5.22617">
        <ele>43</ele>
        <time>2024-11-26T12:33:49.983+00:00</time>
      </trkpt>
      <trkpt lat="43.32906" lon="5.22612">
        <ele>43</ele>
        <time>2024-11-26T12:33:54.200+00:00</time>
      </trkpt>
      <trkpt lat="43.32905" lon="5.22605">
        <ele>43</ele>
        <time>2024-11-26T12:33:58.832+00:00</time>
      </trkpt>
      <trkpt lat="43.32905" lon="5.22601">
        <ele>43</ele>
        <time>2024-11-26T12:34:02.832+00:00</time>
      </trkpt>
      <trkpt lat="43.32903" lon="5.22597">
        <ele>34</ele>
        <time>2024-11-26T12:34:07.428+00:00</time>
      </trkpt>
      <trkpt lat="43.32903" lon="5.22594">
        <ele>34</ele>
        <time>2024-11-26T12:34:11.763+00:00</time>
      </trkpt>
      <trkpt lat="43.32901" lon="5.22588">
        <ele>34</ele>
        <time>2024-11-26T12:34:16.004+00:00</time>
      </trkpt>
      <trkpt lat="43.32899" lon="5.22583">
        <ele>34</ele>
        <time>2024-11-26T12:34:20.365+00:00</time>
      </trkpt>
      <trkpt lat="43.32897" lon="5.22576">
        <ele>34</ele>
        <time>2024-11-26T12:34:24.831+00:00</time>
      </trkpt>
      <trkpt lat="43.32895" lon="5.22572">
        <ele>34</ele>
        <time>2024-11-26T12:34:28.832+00:00</time>
      </trkpt>
      <trkpt lat="43.32893" lon="5.22567">
        <ele>39</ele>
        <time>2024-11-26T12:34:33.585+00:00</time>
      </trkpt>
      <trkpt lat="43.32893" lon="5.22563">
        <ele>39</ele>
        <time>2024-11-26T12:34:37.648+00:00</time>
      </trkpt>
      <trkpt lat="43.32893" lon="5.22559">
        <ele>39</ele>
        <time>2024-11-26T12:34:41.832+00:00</time>
      </trkpt>
      <trkpt lat="43.32893" lon="5.22555">
        <ele>39</ele>
        <time>2024-11-26T12:34:46.403+00:00</time>
      </trkpt>
      <trkpt lat="43.32892" lon="5.22551">
        <ele>39</ele>
        <time>2024-11-26T12:34:50.832+00:00</time>
      </trkpt>
      <trkpt lat="43.32892" lon="5.22546">
        <ele>39</ele>
        <time>2024-11-26T12:34:55.406+00:00</time>
      </trkpt>
      <trkpt lat="43.32892" lon="5.22542">
        <ele>39</ele>
        <time>2024-11-26T12:34:59.435+00:00</time>
      </trkpt>
      <trkpt lat="43.32891" lon="5.22537">
        <ele>39</ele>
        <time>2024-11-26T12:35:03.727+00:00</time>
      </trkpt>
      <trkpt lat="43.32892" lon="5.22534">
        <ele>39</ele>
        <time>2024-11-26T12:35:07.832+00:00</time>
      </trkpt>
      <trkpt lat="43.32894" lon="5.22529">
        <ele>39</ele>
        <time>2024-11-26T12:35:12.832+00:00</time>
      </trkpt>
      <trkpt lat="43.32893" lon="5.22523">
        <ele>39</ele>
        <time>2024-11-26T12:35:17.487+00:00</time>
      </trkpt>
      <trkpt lat="43.32892" lon="5.22517">
        <ele>39</ele>
        <time>2024-11-26T12:35:21.742+00:00</time>
      </trkpt>
      <trkpt lat="43.3289" lon="5.22513">
        <ele>38</ele>
        <time>2024-11-26T12:35:25.832+00:00</time>
      </trkpt>
      <trkpt lat="43.32887" lon="5.22508">
        <ele>38</ele>
        <time>2024-11-26T12:35:30.532+00:00</time>
      </trkpt>
      <trkpt lat="43.32886" lon="5.22503">
        <ele>38</ele>
        <time>2024-11-26T12:35:34.832+00:00</time>
      </trkpt>
      <trkpt lat="43.32884" lon="5.225">
        <ele>38</ele>
        <time>2024-11-26T12:35:39.681+00:00</time>
      </trkpt>
      <trkpt lat="43.32883" lon="5.22497">
        <ele>38</ele>
        <time>2024-11-26T12:35:44.237+00:00</time>
      </trkpt>
      <trkpt lat="43.32884" lon="5.2249">
        <ele>38</ele>
        <time>2024-11-26T12:35:48.795+00:00</time>
      </trkpt>
      <trkpt lat="43.32881" lon="5.22486">
        <ele>40</ele>
        <time>2024-11-26T12:35:53.438+00:00</time>
      </trkpt>
      <trkpt lat="43.3288" lon="5.22481">
        <ele>40</ele>
        <time>2024-11-26T12:35:57.670+00:00</time>
      </trkpt>
      <trkpt lat="43.32881" lon="5.22475">
        <ele>40</ele>
        <time>2024-11-26T12:36:02.671+00:00</time>
      </trkpt>
      <trkpt lat="43.32884" lon="5.22475">
        <ele>40</ele>
        <time>2024-11-26T12:36:06.832+00:00</time>
      </trkpt>
      <trkpt lat="43.32884" lon="5.22468">
        <ele>40</ele>
        <time>2024-11-26T12:36:11.573+00:00</time>
      </trkpt>
      <trkpt lat="43.32883" lon="5.22461">
        <ele>40</ele>
        <time>2024-11-26T12:36:16.454+00:00</time>
      </trkpt>
      <trkpt lat="43.32881" lon="5.22455">
        <ele>44</ele>
        <time>2024-11-26T12:36:21.617+00:00</time>
      </trkpt>
      <trkpt lat="43.32881" lon="5.22451">
        <ele>44</ele>
        <time>2024-11-26T12:36:25.832+00:00</time>
      </trkpt>
      <trkpt lat="43.3288" lon="5.22446">
        <ele>44</ele>
        <time>2024-11-26T12:36:30.414+00:00</time>
      </trkpt>
      <trkpt lat="43.32879" lon="5.22442">
        <ele>44</ele>
        <time>2024-11-26T12:36:34.434+00:00</time>
      </trkpt>
      <trkpt lat="43.3288" lon="5.22439">
        <ele>44</ele>
        <time>2024-11-26T12:36:38.832+00:00</time>
      </trkpt>
      <trkpt lat="43.3288" lon="5.22436">
        <ele>44</ele>
        <time>2024-11-26T12:36:42.832+00:00</time>
      </trkpt>
      <trkpt lat="43.3288" lon="5.22433">
        <ele>44</ele>
        <time>2024-11-26T12:36:47.831+00:00</time>
      </trkpt>
      <trkpt lat="43.3288" lon="5.2243">
        <ele>42</ele>
        <time>2024-11-26T12:36:52.832+00:00</time>
      </trkpt>
      <trkpt lat="43.32879" lon="5.22422">
        <ele>42</ele>
        <time>2024-11-26T12:37:06.719+00:00</time>
      </trkpt>
      <trkpt lat="43.32879" lon="5.2242">
        <ele>42</ele>
        <time>2024-11-26T12:37:10.832+00:00</time>
      </trkpt>
      <trkpt lat="43.32878" lon="5.22417">
        <ele>42</ele>
        <time>2024-11-26T12:37:15.679+00:00</time>
      </trkpt>
      <trkpt lat="43.32877" lon="5.22415">
        <ele>42</ele>
        <time>2024-11-26T12:37:20.104+00:00</time>
      </trkpt>
      <trkpt lat="43.32878" lon="5.22413">
        <ele>42</ele>
        <time>2024-11-26T12:37:24.655+00:00</time>
      </trkpt>
      <trkpt lat="43.32878" lon="5.2241">
        <ele>42</ele>
        <time>2024-11-26T12:37:28.692+00:00</time>
      </trkpt>
      <trkpt lat="43.32879" lon="5.22407">
        <ele>42</ele>
        <time>2024-11-26T12:37:33.558+00:00</time>
      </trkpt>
      <trkpt lat="43.3288" lon="5.22403">
        <ele>42</ele>
        <time>2024-11-26T12:37:37.831+00:00</time>
      </trkpt>
      <trkpt lat="43.3288" lon="5.22399">
        <ele>37</ele>
        <time>2024-11-26T12:37:42.518+00:00</time>
      </trkpt>
      <trkpt lat="43.32881" lon="5.22395">
        <ele>37</ele>
        <time>2024-11-26T12:37:46.832+00:00</time>
      </trkpt>
      <trkpt lat="43.32882" lon="5.22391">
        <ele>37</ele>
        <time>2024-11-26T12:37:51.832+00:00</time>
      </trkpt>
      <trkpt lat="43.32883" lon="5.22389">
        <ele>37</ele>
        <time>2024-11-26T12:37:56.375+00:00</time>
      </trkpt>
      <trkpt lat="43.32884" lon="5.22385">
        <ele>37</ele>
        <time>2024-11-26T12:38:00.532+00:00</time>
      </trkpt>
      <trkpt lat="43.32884" lon="5.22382">
        <ele>37</ele>
        <time>2024-11-26T12:38:04.714+00:00</time>
      </trkpt>
      <trkpt lat="43.32886" lon="5.22378">
        <ele>37</ele>
        <time>2024-11-26T12:38:09.595+00:00</time>
      </trkpt>
      <trkpt lat="43.32885" lon="5.22367">
        <ele>33</ele>
        <time>2024-11-26T12:38:24.436+00:00</time>
      </trkpt>
      <trkpt lat="43.32885" lon="5.22363">
        <ele>33</ele>
        <time>2024-11-26T12:38:28.831+00:00</time>
      </trkpt>
      <trkpt lat="43.32885" lon="5.22362">
        <ele>33</ele>
        <time>2024-11-26T12:38:33.832+00:00</time>
      </trkpt>
      <trkpt lat="43.32885" lon="5.22361">
        <ele>33</ele>
        <time>2024-11-26T12:38:38.831+00:00</time>
      </trkpt>
      <trkpt lat="43.32886" lon="5.2236">
        <ele>33</ele>
        <time>2024-11-26T12:38:43.831+00:00</time>
      </trkpt>
      <trkpt lat="43.32891" lon="5.22356">
        <ele>33</ele>
        <time>2024-11-26T12:39:06.499+00:00</time>
      </trkpt>
      <trkpt lat="43.32892" lon="5.22359">
        <ele>33</ele>
        <time>2024-11-26T12:39:10.552+00:00</time>
      </trkpt>
      <trkpt lat="43.32893" lon="5.2236">
        <ele>33</ele>
        <time>2024-11-26T12:39:14.776+00:00</time>
      </trkpt>
      <trkpt lat="43.32894" lon="5.22361">
        <ele>33</ele>
        <time>2024-11-26T12:39:18.832+00:00</time>
      </trkpt>
      <trkpt lat="43.32896" lon="5.22363">
        <ele>33</ele>
        <time>2024-11-26T12:39:23.319+00:00</time>
      </trkpt>
      <trkpt lat="43.329" lon="5.22362">
        <ele>33</ele>
        <time>2024-11-26T12:39:27.399+00:00</time>
      </trkpt>
      <trkpt lat="43.329" lon="5.22354">
        <ele>33</ele>
        <time>2024-11-26T12:39:31.832+00:00</time>
      </trkpt>
      <trkpt lat="43.32897" lon="5.22348">
        <ele>33</ele>
        <time>2024-11-26T12:39:35.973+00:00</time>
      </trkpt>
      <trkpt lat="43.32895" lon="5.22343">
        <ele>33</ele>
        <time>2024-11-26T12:39:40.470+00:00</time>
      </trkpt>
      <trkpt lat="43.32891" lon="5.22341">
        <ele>33</ele>
        <time>2024-11-26T12:39:44.832+00:00</time>
      </trkpt>
      <trkpt lat="43.32892" lon="5.22337">
        <ele>33</ele>
        <time>2024-11-26T12:39:49.159+00:00</time>
      </trkpt>
      <trkpt lat="43.32893" lon="5.22333">
        <ele>33</ele>
        <time>2024-11-26T12:39:53.818+00:00</time>
      </trkpt>
      <trkpt lat="43.32892" lon="5.2233">
        <ele>33</ele>
        <time>2024-11-26T12:39:58.179+00:00</time>
      </trkpt>
      <trkpt lat="43.32891" lon="5.22327">
        <ele>33</ele>
        <time>2024-11-26T12:40:02.831+00:00</time>
      </trkpt>
      <trkpt lat="43.32891" lon="5.22318">
        <ele>36</ele>
        <time>2024-11-26T12:40:15.831+00:00</time>
      </trkpt>
      <trkpt lat="43.32891" lon="5.22317">
        <ele>36</ele>
        <time>2024-11-26T12:40:20.831+00:00</time>
      </trkpt>
      <trkpt lat="43.3289" lon="5.22315">
        <ele>36</ele>
        <time>2024-11-26T12:40:24.831+00:00</time>
      </trkpt>
      <trkpt lat="43.3289" lon="5.22311">
        <ele>36</ele>
        <time>2024-11-26T12:40:29.830+00:00</time>
      </trkpt>
      <trkpt lat="43.32889" lon="5.22307">
        <ele>36</ele>
        <time>2024-11-26T12:40:34.830+00:00</time>
      </trkpt>
      <trkpt lat="43.32889" lon="5.22302">
        <ele>36</ele>
        <time>2024-11-26T12:40:39.831+00:00</time>
      </trkpt>
      <trkpt lat="43.32888" lon="5.22297">
        <ele>36</ele>
        <time>2024-11-26T12:40:44.797+00:00</time>
      </trkpt>
      <trkpt lat="43.32886" lon="5.22293">
        <ele>36</ele>
        <time>2024-11-26T12:40:48.831+00:00</time>
      </trkpt>
      <trkpt lat="43.32884" lon="5.22289">
        <ele>39</ele>
        <time>2024-11-26T12:40:53.833+00:00</time>
      </trkpt>
      <trkpt lat="43.3288" lon="5.2228">
        <ele>39</ele>
        <time>2024-11-26T12:41:06.831+00:00</time>
      </trkpt>
      <trkpt lat="43.3288" lon="5.22278">
        <ele>39</ele>
        <time>2024-11-26T12:41:11.831+00:00</time>
      </trkpt>
      <trkpt lat="43.3288" lon="5.22277">
        <ele>39</ele>
        <time>2024-11-26T12:41:16.055+00:00</time>
      </trkpt>
      <trkpt lat="43.32881" lon="5.22273">
        <ele>39</ele>
        <time>2024-11-26T12:41:20.398+00:00</time>
      </trkpt>
      <trkpt lat="43.32881" lon="5.22268">
        <ele>39</ele>
        <time>2024-11-26T12:41:24.435+00:00</time>
      </trkpt>
      <trkpt lat="43.32882" lon="5.22264">
        <ele>38</ele>
        <time>2024-11-26T12:41:28.831+00:00</time>
      </trkpt>
      <trkpt lat="43.32884" lon="5.2226">
        <ele>38</ele>
        <time>2024-11-26T12:41:33.753+00:00</time>
      </trkpt>
      <trkpt lat="43.32885" lon="5.22256">
        <ele>38</ele>
        <time>2024-11-26T12:41:37.830+00:00</time>
      </trkpt>
      <trkpt lat="43.32885" lon="5.22252">
        <ele>38</ele>
        <time>2024-11-26T12:41:42.830+00:00</time>
      </trkpt>
      <trkpt lat="43.32886" lon="5.22252">
        <ele>38</ele>
        <time>2024-11-26T12:41:47.295+00:00</time>
      </trkpt>
      <trkpt lat="43.32888" lon="5.22251">
        <ele>38</ele>
        <time>2024-11-26T12:41:51.750+00:00</time>
      </trkpt>
      <trkpt lat="43.32889" lon="5.2225">
        <ele>38</ele>
        <time>2024-11-26T12:41:55.831+00:00</time>
      </trkpt>
      <trkpt lat="43.32892" lon="5.22248">
        <ele>38</ele>
        <time>2024-11-26T12:42:00.293+00:00</time>
      </trkpt>
      <trkpt lat="43.32895" lon="5.22244">
        <ele>38</ele>
        <time>2024-11-26T12:42:04.831+00:00</time>
      </trkpt>
      <trkpt lat="43.32898" lon="5.22239">
        <ele>38</ele>
        <time>2024-11-26T12:42:09.594+00:00</time>
      </trkpt>
      <trkpt lat="43.32899" lon="5.22235">
        <ele>37</ele>
        <time>2024-11-26T12:42:14.014+00:00</time>
      </trkpt>
      <trkpt lat="43.32899" lon="5.22231">
        <ele>37</ele>
        <time>2024-11-26T12:42:18.135+00:00</time>
      </trkpt>
      <trkpt lat="43.32901" lon="5.22226">
        <ele>37</ele>
        <time>2024-11-26T12:42:22.831+00:00</time>
      </trkpt>
      <trkpt lat="43.32903" lon="5.22223">
        <ele>53</ele>
        <time>2024-11-26T12:42:27.831+00:00</time>
      </trkpt>
      <trkpt lat="43.32904" lon="5.22216">
        <ele>53</ele>
        <time>2024-11-26T12:42:32.737+00:00</time>
      </trkpt>
      <trkpt lat="43.32904" lon="5.22214">
        <ele>53</ele>
        <time>2024-11-26T12:42:34.836+00:00</time>
      </trkpt>
      <trkpt lat="43.32904" lon="5.22204">
        <ele>48</ele>
        <time>2024-11-26T12:42:43.831+00:00</time>
      </trkpt>
      <trkpt lat="43.32906" lon="5.22197">
        <ele>48</ele>
        <time>2024-11-26T12:42:48.695+00:00</time>
      </trkpt>
      <trkpt lat="43.32906" lon="5.22192">
        <ele>48</ele>
        <time>2024-11-26T12:42:53.335+00:00</time>
      </trkpt>
      <trkpt lat="43.32909" lon="5.22185">
        <ele>48</ele>
        <time>2024-11-26T12:42:57.830+00:00</time>
      </trkpt>
      <trkpt lat="43.32909" lon="5.22181">
        <ele>42</ele>
        <time>2024-11-26T12:43:02.284+00:00</time>
      </trkpt>
      <trkpt lat="43.3291" lon="5.22174">
        <ele>42</ele>
        <time>2024-11-26T12:43:06.467+00:00</time>
      </trkpt>
      <trkpt lat="43.32906" lon="5.2217">
        <ele>42</ele>
        <time>2024-11-26T12:43:15.830+00:00</time>
      </trkpt>
      <trkpt lat="43.32906" lon="5.22169">
        <ele>42</ele>
        <time>2024-11-26T12:43:20.831+00:00</time>
      </trkpt>
      <trkpt lat="43.32906" lon="5.22168">
        <ele>42</ele>
        <time>2024-11-26T12:43:25.830+00:00</time>
      </trkpt>
      <trkpt lat="43.32906" lon="5.22163">
        <ele>42</ele>
        <time>2024-11-26T12:43:30.792+00:00</time>
      </trkpt>
      <trkpt lat="43.32905" lon="5.2216">
        <ele>42</ele>
        <time>2024-11-26T12:43:35.253+00:00</time>
      </trkpt>
      <trkpt lat="43.329" lon="5.22144">
        <ele>23</ele>
        <time>2024-11-26T12:44:01.353+00:00</time>
      </trkpt>
      <trkpt lat="43.329" lon="5.22144">
        <ele>23</ele>
        <time>2024-11-26T12:44:05.518+00:00</time>
      </trkpt>
      <trkpt lat="43.329" lon="5.22139">
        <ele>23</ele>
        <time>2024-11-26T12:44:09.857+00:00</time>
      </trkpt>
      <trkpt lat="43.329" lon="5.22133">
        <ele>23</ele>
        <time>2024-11-26T12:44:13.831+00:00</time>
      </trkpt>
      <trkpt lat="43.32898" lon="5.22127">
        <ele>23</ele>
        <time>2024-11-26T12:44:18.200+00:00</time>
      </trkpt>
      <trkpt lat="43.32897" lon="5.22122">
        <ele>23</ele>
        <time>2024-11-26T12:44:22.515+00:00</time>
      </trkpt>
      <trkpt lat="43.32894" lon="5.2212">
        <ele>23</ele>
        <time>2024-11-26T12:44:26.612+00:00</time>
      </trkpt>
      <trkpt lat="43.32893" lon="5.22118">
        <ele>23</ele>
        <time>2024-11-26T12:44:28.831+00:00</time>
      </trkpt>
      <trkpt lat="43.3289" lon="5.22115">
        <ele>23</ele>
        <time>2024-11-26T12:44:36.831+00:00</time>
      </trkpt>
      <trkpt lat="43.3289" lon="5.22108">
        <ele>23</ele>
        <time>2024-11-26T12:44:41.831+00:00</time>
      </trkpt>
      <trkpt lat="43.3289" lon="5.22106">
        <ele>23</ele>
        <time>2024-11-26T12:44:45.831+00:00</time>
      </trkpt>
      <trkpt lat="43.32888" lon="5.22099">
        <ele>23</ele>
        <time>2024-11-26T12:44:50.358+00:00</time>
      </trkpt>
      <trkpt lat="43.32884" lon="5.22092">
        <ele>21</ele>
        <time>2024-11-26T12:44:54.831+00:00</time>
      </trkpt>
      <trkpt lat="43.32882" lon="5.22092">
        <ele>21</ele>
        <time>2024-11-26T12:44:59.831+00:00</time>
      </trkpt>
      <trkpt lat="43.32882" lon="5.22091">
        <ele>21</ele>
        <time>2024-11-26T12:45:04.831+00:00</time>
      </trkpt>
      <trkpt lat="43.32883" lon="5.22088">
        <ele>21</ele>
        <time>2024-11-26T12:45:09.111+00:00</time>
      </trkpt>
      <trkpt lat="43.32883" lon="5.22082">
        <ele>21</ele>
        <time>2024-11-26T12:45:13.454+00:00</time>
      </trkpt>
      <trkpt lat="43.32884" lon="5.22077">
        <ele>21</ele>
        <time>2024-11-26T12:45:17.755+00:00</time>
      </trkpt>
      <trkpt lat="43.32883" lon="5.22074">
        <ele>21</ele>
        <time>2024-11-26T12:45:21.831+00:00</time>
      </trkpt>
      <trkpt lat="43.32882" lon="5.22071">
        <ele>21</ele>
        <time>2024-11-26T12:45:26.315+00:00</time>
      </trkpt>
      <trkpt lat="43.32881" lon="5.22066">
        <ele>14</ele>
        <time>2024-11-26T12:45:30.558+00:00</time>
      </trkpt>
      <trkpt lat="43.32881" lon="5.22062">
        <ele>14</ele>
        <time>2024-11-26T12:45:34.830+00:00</time>
      </trkpt>
      <trkpt lat="43.32882" lon="5.22058">
        <ele>14</ele>
        <time>2024-11-26T12:45:39.672+00:00</time>
      </trkpt>
      <trkpt lat="43.32884" lon="5.22057">
        <ele>14</ele>
        <time>2024-11-26T12:46:03.398+00:00</time>
      </trkpt>
      <trkpt lat="43.32886" lon="5.22057">
        <ele>14</ele>
        <time>2024-11-26T12:46:07.732+00:00</time>
      </trkpt>
      <trkpt lat="43.32888" lon="5.22057">
        <ele>14</ele>
        <time>2024-11-26T12:46:11.829+00:00</time>
      </trkpt>
      <trkpt lat="43.32891" lon="5.22056">
        <ele>14</ele>
        <time>2024-11-26T12:46:15.830+00:00</time>
      </trkpt>
      <trkpt lat="43.32892" lon="5.22055">
        <ele>14</ele>
        <time>2024-11-26T12:46:18.754+00:00</time>
      </trkpt>
      <trkpt lat="43.32896" lon="5.22053">
        <ele>14</ele>
        <time>2024-11-26T12:46:47.274+00:00</time>
      </trkpt>
      <trkpt lat="43.32899" lon="5.22055">
        <ele>14</ele>
        <time>2024-11-26T12:46:51.417+00:00</time>
      </trkpt>
      <trkpt lat="43.329" lon="5.22058">
        <ele>14</ele>
        <time>2024-11-26T12:46:55.830+00:00</time>
      </trkpt>
      <trkpt lat="43.32901" lon="5.22059">
        <ele>14</ele>
        <time>2024-11-26T12:47:00.830+00:00</time>
      </trkpt>
      <trkpt lat="43.32901" lon="5.22058">
        <ele>14</ele>
        <time>2024-11-26T12:47:05.358+00:00</time>
      </trkpt>
      <trkpt lat="43.32906" lon="5.22058">
        <ele>17</ele>
        <time>2024-11-26T12:47:09.830+00:00</time>
      </trkpt>
      <trkpt lat="43.32909" lon="5.22059">
        <ele>17</ele>
        <time>2024-11-26T12:47:14.337+00:00</time>
      </trkpt>
      <trkpt lat="43.32914" lon="5.2206">
        <ele>17</ele>
        <time>2024-11-26T12:47:18.714+00:00</time>
      </trkpt>
      <trkpt lat="43.32919" lon="5.2206">
        <ele>17</ele>
        <time>2024-11-26T12:47:22.830+00:00</time>
      </trkpt>
      <trkpt lat="43.32928" lon="5.22065">
        <ele>17</ele>
        <time>2024-11-26T12:47:39.830+00:00</time>
      </trkpt>
      <trkpt lat="43.32928" lon="5.22065">
        <ele>17</ele>
        <time>2024-11-26T12:47:44.393+00:00</time>
      </trkpt>
      <trkpt lat="43.32931" lon="5.22065">
        <ele>14</ele>
        <time>2024-11-26T12:47:48.830+00:00</time>
      </trkpt>
      <trkpt lat="43.32933" lon="5.22065">
        <ele>14</ele>
        <time>2024-11-26T12:47:53.455+00:00</time>
      </trkpt>
      <trkpt lat="43.32936" lon="5.22066">
        <ele>14</ele>
        <time>2024-11-26T12:47:57.578+00:00</time>
      </trkpt>
      <trkpt lat="43.32941" lon="5.2207">
        <ele>20</ele>
        <time>2024-11-26T12:48:10.830+00:00</time>
      </trkpt>
      <trkpt lat="43.32942" lon="5.22071">
        <ele>20</ele>
        <time>2024-11-26T12:48:15.292+00:00</time>
      </trkpt>
      <trkpt lat="43.32944" lon="5.22073">
        <ele>20</ele>
        <time>2024-11-26T12:48:19.830+00:00</time>
      </trkpt>
      <trkpt lat="43.32944" lon="5.22075">
        <ele>20</ele>
        <time>2024-11-26T12:48:23.830+00:00</time>
      </trkpt>
      <trkpt lat="43.32946" lon="5.22078">
        <ele>20</ele>
        <time>2024-11-26T12:48:28.078+00:00</time>
      </trkpt>
      <trkpt lat="43.3295" lon="5.22084">
        <ele>20</ele>
        <time>2024-11-26T12:48:32.635+00:00</time>
      </trkpt>
      <trkpt lat="43.32955" lon="5.22088">
        <ele>20</ele>
        <time>2024-11-26T12:48:36.830+00:00</time>
      </trkpt>
      <trkpt lat="43.3296" lon="5.22091">
        <ele>18</ele>
        <time>2024-11-26T12:48:41.474+00:00</time>
      </trkpt>
      <trkpt lat="43.32966" lon="5.22092">
        <ele>18</ele>
        <time>2024-11-26T12:48:45.818+00:00</time>
      </trkpt>
      <trkpt lat="43.32971" lon="5.22086">
        <ele>18</ele>
        <time>2024-11-26T12:48:50.630+00:00</time>
      </trkpt>
      <trkpt lat="43.32974" lon="5.2208">
        <ele>18</ele>
        <time>2024-11-26T12:48:54.830+00:00</time>
      </trkpt>
      <trkpt lat="43.32978" lon="5.22073">
        <ele>18</ele>
        <time>2024-11-26T12:48:59.830+00:00</time>
      </trkpt>
      <trkpt lat="43.32982" lon="5.22069">
        <ele>11</ele>
        <time>2024-11-26T12:49:04.830+00:00</time>
      </trkpt>
      <trkpt lat="43.32988" lon="5.22071">
        <ele>15</ele>
        <time>2024-11-26T12:49:09.830+00:00</time>
      </trkpt>
      <trkpt lat="43.32991" lon="5.22077">
        <ele>15</ele>
        <time>2024-11-26T12:49:14.158+00:00</time>
      </trkpt>
      <trkpt lat="43.32995" lon="5.22078">
        <ele>15</ele>
        <time>2024-11-26T12:49:18.830+00:00</time>
      </trkpt>
      <trkpt lat="43.33001" lon="5.2208">
        <ele>15</ele>
        <time>2024-11-26T12:49:23.414+00:00</time>
      </trkpt>
      <trkpt lat="43.33005" lon="5.22082">
        <ele>15</ele>
        <time>2024-11-26T12:49:27.830+00:00</time>
      </trkpt>
      <trkpt lat="43.33011" lon="5.22081">
        <ele>15</ele>
        <time>2024-11-26T12:49:32.478+00:00</time>
      </trkpt>
      <trkpt lat="43.33015" lon="5.22081">
        <ele>12</ele>
        <time>2024-11-26T12:49:36.497+00:00</time>
      </trkpt>
      <trkpt lat="43.3302" lon="5.22083">
        <ele>12</ele>
        <time>2024-11-26T12:49:40.830+00:00</time>
      </trkpt>
      <trkpt lat="43.33024" lon="5.22086">
        <ele>12</ele>
        <time>2024-11-26T12:49:45.830+00:00</time>
      </trkpt>
      <trkpt lat="43.33028" lon="5.22089">
        <ele>12</ele>
        <time>2024-11-26T12:49:50.141+00:00</time>
      </trkpt>
      <trkpt lat="43.33033" lon="5.22093">
        <ele>12</ele>
        <time>2024-11-26T12:49:54.639+00:00</time>
      </trkpt>
      <trkpt lat="43.33036" lon="5.22096">
        <ele>12</ele>
        <time>2024-11-26T12:49:59.392+00:00</time>
      </trkpt>
      <trkpt lat="43.3305" lon="5.22094">
        <ele>11</ele>
        <time>2024-11-26T12:50:57.830+00:00</time>
      </trkpt>
      <trkpt lat="43.3305" lon="5.22093">
        <ele>11</ele>
        <time>2024-11-26T12:51:01.830+00:00</time>
      </trkpt>
      <trkpt lat="43.33055" lon="5.22089">
        <ele>11</ele>
        <time>2024-11-26T12:51:06.314+00:00</time>
      </trkpt>
      <trkpt lat="43.3306" lon="5.22088">
        <ele>11</ele>
        <time>2024-11-26T12:51:10.820+00:00</time>
      </trkpt>
      <trkpt lat="43.33065" lon="5.22089">
        <ele>11</ele>
        <time>2024-11-26T12:51:15.302+00:00</time>
      </trkpt>
      <trkpt lat="43.33067" lon="5.2209">
        <ele>11</ele>
        <time>2024-11-26T12:51:19.830+00:00</time>
      </trkpt>
      <trkpt lat="43.3307" lon="5.22089">
        <ele>17</ele>
        <time>2024-11-26T12:51:24.558+00:00</time>
      </trkpt>
      <trkpt lat="43.33073" lon="5.2209">
        <ele>17</ele>
        <time>2024-11-26T12:51:29.039+00:00</time>
      </trkpt>
      <trkpt lat="43.33076" lon="5.2209">
        <ele>17</ele>
        <time>2024-11-26T12:51:33.596+00:00</time>
      </trkpt>
      <trkpt lat="43.33078" lon="5.22084">
        <ele>17</ele>
        <time>2024-11-26T12:51:37.830+00:00</time>
      </trkpt>
      <trkpt lat="43.33078" lon="5.22076">
        <ele>17</ele>
        <time>2024-11-26T12:51:42.829+00:00</time>
      </trkpt>
      <trkpt lat="43.33079" lon="5.22067">
        <ele>14</ele>
        <time>2024-11-26T12:51:47.828+00:00</time>
      </trkpt>
      <trkpt lat="43.33078" lon="5.22059">
        <ele>14</ele>
        <time>2024-11-26T12:51:52.829+00:00</time>
      </trkpt>
      <trkpt lat="43.33079" lon="5.22051">
        <ele>14</ele>
        <time>2024-11-26T12:51:57.539+00:00</time>
      </trkpt>
      <trkpt lat="43.3308" lon="5.22046">
        <ele>14</ele>
        <time>2024-11-26T12:52:01.829+00:00</time>
      </trkpt>
      <trkpt lat="43.33081" lon="5.22039">
        <ele>12</ele>
        <time>2024-11-26T12:52:06.518+00:00</time>
      </trkpt>
      <trkpt lat="43.33081" lon="5.22035">
        <ele>12</ele>
        <time>2024-11-26T12:52:10.681+00:00</time>
      </trkpt>
      <trkpt lat="43.3308" lon="5.22031">
        <ele>12</ele>
        <time>2024-11-26T12:52:14.829+00:00</time>
      </trkpt>
      <trkpt lat="43.33084" lon="5.22027">
        <ele>12</ele>
        <time>2024-11-26T12:52:19.299+00:00</time>
      </trkpt>
      <trkpt lat="43.33084" lon="5.22022">
        <ele>12</ele>
        <time>2024-11-26T12:52:23.829+00:00</time>
      </trkpt>
      <trkpt lat="43.3308" lon="5.22017">
        <ele>12</ele>
        <time>2024-11-26T12:52:28.829+00:00</time>
      </trkpt>
      <trkpt lat="43.33076" lon="5.22013">
        <ele>11</ele>
        <time>2024-11-26T12:52:33.829+00:00</time>
      </trkpt>
      <trkpt lat="43.33073" lon="5.22011">
        <ele>11</ele>
        <time>2024-11-26T12:52:38.281+00:00</time>
      </trkpt>
      <trkpt lat="43.33074" lon="5.22005">
        <ele>11</ele>
        <time>2024-11-26T12:52:42.829+00:00</time>
      </trkpt>
      <trkpt lat="43.33074" lon="5.21999">
        <ele>11</ele>
        <time>2024-11-26T12:52:47.377+00:00</time>
      </trkpt>
      <trkpt lat="43.33077" lon="5.21997">
        <ele>11</ele>
        <time>2024-11-26T12:52:51.430+00:00</time>
      </trkpt>
      <trkpt lat="43.3308" lon="5.21995">
        <ele>11</ele>
        <time>2024-11-26T12:52:55.994+00:00</time>
      </trkpt>
      <trkpt lat="43.33084" lon="5.21992">
        <ele>11</ele>
        <time>2024-11-26T12:53:00.828+00:00</time>
      </trkpt>
      <trkpt lat="43.33088" lon="5.2199">
        <ele>11</ele>
        <time>2024-11-26T12:53:05.058+00:00</time>
      </trkpt>
      <trkpt lat="43.33091" lon="5.21988">
        <ele>11</ele>
        <time>2024-11-26T12:53:09.682+00:00</time>
      </trkpt>
      <trkpt lat="43.33091" lon="5.21987">
        <ele>11</ele>
        <time>2024-11-26T12:53:13.794+00:00</time>
      </trkpt>
      <trkpt lat="43.33095" lon="5.21988">
        <ele>11</ele>
        <time>2024-11-26T12:53:18.829+00:00</time>
      </trkpt>
      <trkpt lat="43.33099" lon="5.21987">
        <ele>18</ele>
        <time>2024-11-26T12:53:23+00:00</time>
      </trkpt>
      <trkpt lat="43.33102" lon="5.21979">
        <ele>14</ele>
        <time>2024-11-26T12:53:27.515+00:00</time>
      </trkpt>
      <trkpt lat="43.33101" lon="5.21972">
        <ele>14</ele>
        <time>2024-11-26T12:53:31.782+00:00</time>
      </trkpt>
      <trkpt lat="43.331" lon="5.21965">
        <ele>14</ele>
        <time>2024-11-26T12:53:35.829+00:00</time>
      </trkpt>
      <trkpt lat="43.33099" lon="5.21959">
        <ele>14</ele>
        <time>2024-11-26T12:53:40.741+00:00</time>
      </trkpt>
      <trkpt lat="43.331" lon="5.21956">
        <ele>12</ele>
        <time>2024-11-26T12:53:45.238+00:00</time>
      </trkpt>
      <trkpt lat="43.33097" lon="5.21942">
        <ele>8</ele>
        <time>2024-11-26T12:54:08.054+00:00</time>
      </trkpt>
      <trkpt lat="43.33094" lon="5.21939">
        <ele>8</ele>
        <time>2024-11-26T12:54:12.620+00:00</time>
      </trkpt>
      <trkpt lat="43.33091" lon="5.21935">
        <ele>8</ele>
        <time>2024-11-26T12:54:16.829+00:00</time>
      </trkpt>
      <trkpt lat="43.33089" lon="5.2193">
        <ele>7</ele>
        <time>2024-11-26T12:54:21.341+00:00</time>
      </trkpt>
      <trkpt lat="43.3309" lon="5.21923">
        <ele>7</ele>
        <time>2024-11-26T12:54:25.581+00:00</time>
      </trkpt>
      <trkpt lat="43.33093" lon="5.2192">
        <ele>7</ele>
        <time>2024-11-26T12:54:29.829+00:00</time>
      </trkpt>
      <trkpt lat="43.33096" lon="5.21918">
        <ele>7</ele>
        <time>2024-11-26T12:54:34.780+00:00</time>
      </trkpt>
      <trkpt lat="43.331" lon="5.21914">
        <ele>10</ele>
        <time>2024-11-26T12:54:39.412+00:00</time>
      </trkpt>
      <trkpt lat="43.33103" lon="5.21912">
        <ele>10</ele>
        <time>2024-11-26T12:54:43.500+00:00</time>
      </trkpt>
      <trkpt lat="43.33105" lon="5.21909">
        <ele>10</ele>
        <time>2024-11-26T12:54:48.829+00:00</time>
      </trkpt>
      <trkpt lat="43.33107" lon="5.21909">
        <ele>10</ele>
        <time>2024-11-26T12:54:50.828+00:00</time>
      </trkpt>
      <trkpt lat="43.33112" lon="5.21907">
        <ele>10</ele>
        <time>2024-11-26T12:54:57.829+00:00</time>
      </trkpt>
      <trkpt lat="43.33116" lon="5.21906">
        <ele>10</ele>
        <time>2024-11-26T12:55:02.674+00:00</time>
      </trkpt>
      <trkpt lat="43.33119" lon="5.21904">
        <ele>10</ele>
        <time>2024-11-26T12:55:06.958+00:00</time>
      </trkpt>
      <trkpt lat="43.33124" lon="5.21903">
        <ele>8</ele>
        <time>2024-11-26T12:55:11.498+00:00</time>
      </trkpt>
      <trkpt lat="43.33128" lon="5.21902">
        <ele>9</ele>
        <time>2024-11-26T12:55:15.829+00:00</time>
      </trkpt>
      <trkpt lat="43.33132" lon="5.21901">
        <ele>9</ele>
        <time>2024-11-26T12:55:19.829+00:00</time>
      </trkpt>
      <trkpt lat="43.33137" lon="5.219">
        <ele>9</ele>
        <time>2024-11-26T12:55:24.374+00:00</time>
      </trkpt>
      <trkpt lat="43.33141" lon="5.21898">
        <ele>9</ele>
        <time>2024-11-26T12:55:28.829+00:00</time>
      </trkpt>
      <trkpt lat="43.33142" lon="5.21901">
        <ele>9</ele>
        <time>2024-11-26T12:55:33.359+00:00</time>
      </trkpt>
      <trkpt lat="43.33145" lon="5.21905">
        <ele>12</ele>
        <time>2024-11-26T12:55:37.798+00:00</time>
      </trkpt>
      <trkpt lat="43.33149" lon="5.21901">
        <ele>9</ele>
        <time>2024-11-26T12:55:42.828+00:00</time>
      </trkpt>
      <trkpt lat="43.33147" lon="5.21891">
        <ele>9</ele>
        <time>2024-11-26T12:56:26.829+00:00</time>
      </trkpt>
      <trkpt lat="43.33147" lon="5.21891">
        <ele>9</ele>
        <time>2024-11-26T12:56:31.829+00:00</time>
      </trkpt>
      <trkpt lat="43.33149" lon="5.21889">
        <ele>9</ele>
        <time>2024-11-26T12:56:36.435+00:00</time>
      </trkpt>
      <trkpt lat="43.3315" lon="5.21888">
        <ele>9</ele>
        <time>2024-11-26T12:56:40.480+00:00</time>
      </trkpt>
      <trkpt lat="43.33153" lon="5.21888">
        <ele>12</ele>
        <time>2024-11-26T12:56:44.592+00:00</time>
      </trkpt>
      <trkpt lat="43.33158" lon="5.21888">
        <ele>12</ele>
        <time>2024-11-26T12:56:48.829+00:00</time>
      </trkpt>
      <trkpt lat="43.33163" lon="5.21886">
        <ele>12</ele>
        <time>2024-11-26T12:56:53.074+00:00</time>
      </trkpt>
      <trkpt lat="43.33169" lon="5.21882">
        <ele>12</ele>
        <time>2024-11-26T12:56:57.317+00:00</time>
      </trkpt>
      <trkpt lat="43.33174" lon="5.21876">
        <ele>12</ele>
        <time>2024-11-26T12:57:01.618+00:00</time>
      </trkpt>
      <trkpt lat="43.33179" lon="5.21868">
        <ele>7</ele>
        <time>2024-11-26T12:57:05.829+00:00</time>
      </trkpt>
      <trkpt lat="43.33183" lon="5.21859">
        <ele>12</ele>
        <time>2024-11-26T12:57:10.637+00:00</time>
      </trkpt>
      <trkpt lat="43.33184" lon="5.21851">
        <ele>12</ele>
        <time>2024-11-26T12:57:14.829+00:00</time>
      </trkpt>
      <trkpt lat="43.33184" lon="5.21842">
        <ele>8</ele>
        <time>2024-11-26T12:57:19.373+00:00</time>
      </trkpt>
      <trkpt lat="43.33186" lon="5.21835">
        <ele>8</ele>
        <time>2024-11-26T12:57:23.777+00:00</time>
      </trkpt>
      <trkpt lat="43.33188" lon="5.21828">
        <ele>8</ele>
        <time>2024-11-26T12:57:27.796+00:00</time>
      </trkpt>
      <trkpt lat="43.3319" lon="5.21825">
        <ele>8</ele>
        <time>2024-11-26T12:57:31.829+00:00</time>
      </trkpt>
      <trkpt lat="43.3319" lon="5.21822">
        <ele>8</ele>
        <time>2024-11-26T12:57:36.338+00:00</time>
      </trkpt>
      <trkpt lat="43.3319" lon="5.2182">
        <ele>8</ele>
        <time>2024-11-26T12:57:40.829+00:00</time>
      </trkpt>
      <trkpt lat="43.33189" lon="5.21817">
        <ele>10</ele>
        <time>2024-11-26T12:57:44.829+00:00</time>
      </trkpt>
      <trkpt lat="43.33184" lon="5.21811">
        <ele>10</ele>
        <time>2024-11-26T12:57:49.154+00:00</time>
      </trkpt>
      <trkpt lat="43.33179" lon="5.21812">
        <ele>9</ele>
        <time>2024-11-26T12:57:53.599+00:00</time>
      </trkpt>
      <trkpt lat="43.33169" lon="5.21815">
        <ele>9</ele>
        <time>2024-11-26T12:59:03.827+00:00</time>
      </trkpt>
      <trkpt lat="43.33169" lon="5.21817">
        <ele>9</ele>
        <time>2024-11-26T12:59:08.828+00:00</time>
      </trkpt>
      <trkpt lat="43.33169" lon="5.21817">
        <ele>9</ele>
        <time>2024-11-26T12:59:13.827+00:00</time>
      </trkpt>
      <trkpt lat="43.33169" lon="5.21818">
        <ele>9</ele>
        <time>2024-11-26T12:59:18.828+00:00</time>
      </trkpt>
      <trkpt lat="43.33164" lon="5.21817">
        <ele>9</ele>
        <time>2024-11-26T12:59:26.828+00:00</time>
      </trkpt>
      <trkpt lat="43.33166" lon="5.2182">
        <ele>7</ele>
        <time>2024-11-26T12:59:31.779+00:00</time>
      </trkpt>
      <trkpt lat="43.33165" lon="5.21819">
        <ele>9</ele>
        <time>2024-11-26T12:59:35.841+00:00</time>
      </trkpt>
      <trkpt lat="43.3316" lon="5.21816">
        <ele>9</ele>
        <time>2024-11-26T12:59:40.697+00:00</time>
      </trkpt>
      <trkpt lat="43.33151" lon="5.21825">
        <ele>6</ele>
        <time>2024-11-26T12:59:44.828+00:00</time>
      </trkpt>
      <trkpt lat="43.33152" lon="5.21827">
        <ele>6</ele>
        <time>2024-11-26T12:59:49.828+00:00</time>
      </trkpt>
      <trkpt lat="43.33153" lon="5.21828">
        <ele>6</ele>
        <time>2024-11-26T12:59:54.828+00:00</time>
      </trkpt>
      <trkpt lat="43.33153" lon="5.21828">
        <ele>6</ele>
        <time>2024-11-26T12:59:58.828+00:00</time>
      </trkpt>
      <trkpt lat="43.33153" lon="5.2183">
        <ele>7</ele>
        <time>2024-11-26T13:00:03.828+00:00</time>
      </trkpt>
      <trkpt lat="43.33156" lon="5.21839">
        <ele>7</ele>
        <time>2024-11-26T13:00:08.734+00:00</time>
      </trkpt>
      <trkpt lat="43.33166" lon="5.21819">
        <ele>9</ele>
        <time>2024-11-26T13:00:31.828+00:00</time>
      </trkpt>
      <trkpt lat="43.33167" lon="5.21817">
        <ele>9</ele>
        <time>2024-11-26T13:00:36.828+00:00</time>
      </trkpt>
      <trkpt lat="43.33167" lon="5.21818">
        <ele>9</ele>
        <time>2024-11-26T13:00:43.828+00:00</time>
      </trkpt>
      <trkpt lat="43.33167" lon="5.21818">
        <ele>9</ele>
        <time>2024-11-26T13:00:48.828+00:00</time>
      </trkpt>
      <trkpt lat="43.33167" lon="5.21817">
        <ele>9</ele>
        <time>2024-11-26T13:00:53.828+00:00</time>
      </trkpt>
      <trkpt lat="43.33166" lon="5.21819">
        <ele>9</ele>
        <time>2024-11-26T13:05:21.828+00:00</time>
      </trkpt>
      <trkpt lat="43.33166" lon="5.2182">
        <ele>7</ele>
        <time>2024-11-26T13:05:28.833+00:00</time>
      </trkpt>
      <trkpt lat="43.33165" lon="5.2182">
        <ele>7</ele>
        <time>2024-11-26T13:05:33.322+00:00</time>
      </trkpt>
      <trkpt lat="43.33161" lon="5.21822">
        <ele>7</ele>
        <time>2024-11-26T13:05:37.828+00:00</time>
      </trkpt>
      <trkpt lat="43.33157" lon="5.21825">
        <ele>7</ele>
        <time>2024-11-26T13:05:42.169+00:00</time>
      </trkpt>
      <trkpt lat="43.33153" lon="5.21828">
        <ele>6</ele>
        <time>2024-11-26T13:05:47.212+00:00</time>
      </trkpt>
      <trkpt lat="43.33149" lon="5.2183">
        <ele>6</ele>
        <time>2024-11-26T13:05:51.590+00:00</time>
      </trkpt>
      <trkpt lat="43.33145" lon="5.2183">
        <ele>6</ele>
        <time>2024-11-26T13:05:55.828+00:00</time>
      </trkpt>
      <trkpt lat="43.33141" lon="5.21832">
        <ele>6</ele>
        <time>2024-11-26T13:05:59.828+00:00</time>
      </trkpt>
      <trkpt lat="43.33138" lon="5.21833">
        <ele>6</ele>
        <time>2024-11-26T13:06:22.827+00:00</time>
      </trkpt>
      <trkpt lat="43.3314" lon="5.21833">
        <ele>6</ele>
        <time>2024-11-26T13:06:27.393+00:00</time>
      </trkpt>
      <trkpt lat="43.33143" lon="5.21833">
        <ele>6</ele>
        <time>2024-11-26T13:06:31.827+00:00</time>
      </trkpt>
      <trkpt lat="43.33145" lon="5.21833">
        <ele>6</ele>
        <time>2024-11-26T13:06:35.827+00:00</time>
      </trkpt>
      <trkpt lat="43.33148" lon="5.21833">
        <ele>6</ele>
        <time>2024-11-26T13:06:40.827+00:00</time>
      </trkpt>
      <trkpt lat="43.33153" lon="5.21831">
        <ele>7</ele>
        <time>2024-11-26T13:06:45.827+00:00</time>
      </trkpt>
      <trkpt lat="43.33158" lon="5.21828">
        <ele>7</ele>
        <time>2024-11-26T13:06:50.826+00:00</time>
      </trkpt>
      <trkpt lat="43.33162" lon="5.21825">
        <ele>7</ele>
        <time>2024-11-26T13:06:55.413+00:00</time>
      </trkpt>
      <trkpt lat="43.33166" lon="5.21822">
        <ele>7</ele>
        <time>2024-11-26T13:06:59.791+00:00</time>
      </trkpt>
      <trkpt lat="43.33169" lon="5.21821">
        <ele>7</ele>
        <time>2024-11-26T13:07:03.827+00:00</time>
      </trkpt>
      <trkpt lat="43.33174" lon="5.21822">
        <ele>7</ele>
        <time>2024-11-26T13:07:08.451+00:00</time>
      </trkpt>
      <trkpt lat="43.33178" lon="5.21822">
        <ele>7</ele>
        <time>2024-11-26T13:07:12.826+00:00</time>
      </trkpt>
      <trkpt lat="43.33181" lon="5.21821">
        <ele>8</ele>
        <time>2024-11-26T13:07:17.249+00:00</time>
      </trkpt>
      <trkpt lat="43.33179" lon="5.21815">
        <ele>9</ele>
        <time>2024-11-26T13:07:21.827+00:00</time>
      </trkpt>
      <trkpt lat="43.33174" lon="5.21812">
        <ele>9</ele>
        <time>2024-11-26T13:07:26.514+00:00</time>
      </trkpt>
      <trkpt lat="43.33169" lon="5.21809">
        <ele>9</ele>
        <time>2024-11-26T13:07:31.148+00:00</time>
      </trkpt>
      <trkpt lat="43.33165" lon="5.21809">
        <ele>9</ele>
        <time>2024-11-26T13:07:35.508+00:00</time>
      </trkpt>
      <trkpt lat="43.33162" lon="5.21809">
        <ele>9</ele>
        <time>2024-11-26T13:07:39.826+00:00</time>
      </trkpt>
      <trkpt lat="43.33158" lon="5.2181">
        <ele>9</ele>
        <time>2024-11-26T13:07:44.477+00:00</time>
      </trkpt>
      <trkpt lat="43.33158" lon="5.21811">
        <ele>9</ele>
        <time>2024-11-26T13:07:48.612+00:00</time>
      </trkpt>
      <trkpt lat="43.33153" lon="5.21812">
        <ele>9</ele>
        <time>2024-11-26T13:07:52.692+00:00</time>
      </trkpt>
      <trkpt lat="43.33149" lon="5.21811">
        <ele>7</ele>
        <time>2024-11-26T13:07:56.827+00:00</time>
      </trkpt>
      <trkpt lat="43.33147" lon="5.2181">
        <ele>7</ele>
        <time>2024-11-26T13:08:01.352+00:00</time>
      </trkpt>
      <trkpt lat="43.33143" lon="5.21809">
        <ele>7</ele>
        <time>2024-11-26T13:08:05.533+00:00</time>
      </trkpt>
      <trkpt lat="43.3314" lon="5.21806">
        <ele>7</ele>
        <time>2024-11-26T13:08:09.834+00:00</time>
      </trkpt>
      <trkpt lat="43.33136" lon="5.21801">
        <ele>7</ele>
        <time>2024-11-26T13:08:14.588+00:00</time>
      </trkpt>
      <trkpt lat="43.33131" lon="5.21796">
        <ele>7</ele>
        <time>2024-11-26T13:08:19.589+00:00</time>
      </trkpt>
      <trkpt lat="43.3313" lon="5.21789">
        <ele>7</ele>
        <time>2024-11-26T13:08:23.827+00:00</time>
      </trkpt>
      <trkpt lat="43.33131" lon="5.2178">
        <ele>7</ele>
        <time>2024-11-26T13:08:28.573+00:00</time>
      </trkpt>
      <trkpt lat="43.33134" lon="5.21773">
        <ele>7</ele>
        <time>2024-11-26T13:08:32.827+00:00</time>
      </trkpt>
      <trkpt lat="43.33137" lon="5.21766">
        <ele>7</ele>
        <time>2024-11-26T13:08:37.396+00:00</time>
      </trkpt>
      <trkpt lat="43.33141" lon="5.2176">
        <ele>6</ele>
        <time>2024-11-26T13:08:41.827+00:00</time>
      </trkpt>
      <trkpt lat="43.33145" lon="5.21756">
        <ele>6</ele>
        <time>2024-11-26T13:08:45.826+00:00</time>
      </trkpt>
      <trkpt lat="43.33148" lon="5.21751">
        <ele>6</ele>
        <time>2024-11-26T13:08:50.100+00:00</time>
      </trkpt>
      <trkpt lat="43.33151" lon="5.21746">
        <ele>6</ele>
        <time>2024-11-26T13:08:54.495+00:00</time>
      </trkpt>
      <trkpt lat="43.33154" lon="5.21741">
        <ele>11</ele>
        <time>2024-11-26T13:08:58.514+00:00</time>
      </trkpt>
      <trkpt lat="43.33156" lon="5.21736">
        <ele>10</ele>
        <time>2024-11-26T13:09:02.772+00:00</time>
      </trkpt>
      <trkpt lat="43.33157" lon="5.21728">
        <ele>10</ele>
        <time>2024-11-26T13:09:07.773+00:00</time>
      </trkpt>
      <trkpt lat="43.33155" lon="5.21722">
        <ele>10</ele>
        <time>2024-11-26T13:09:12.252+00:00</time>
      </trkpt>
      <trkpt lat="43.33152" lon="5.21716">
        <ele>8</ele>
        <time>2024-11-26T13:09:16.792+00:00</time>
      </trkpt>
      <trkpt lat="43.33149" lon="5.21712">
        <ele>8</ele>
        <time>2024-11-26T13:09:20.827+00:00</time>
      </trkpt>
      <trkpt lat="43.33144" lon="5.21709">
        <ele>8</ele>
        <time>2024-11-26T13:09:25.273+00:00</time>
      </trkpt>
      <trkpt lat="43.3314" lon="5.21706">
        <ele>12</ele>
        <time>2024-11-26T13:09:29.650+00:00</time>
      </trkpt>
      <trkpt lat="43.33137" lon="5.21702">
        <ele>12</ele>
        <time>2024-11-26T13:09:33.826+00:00</time>
      </trkpt>
      <trkpt lat="43.33135" lon="5.21701">
        <ele>12</ele>
        <time>2024-11-26T13:09:38.827+00:00</time>
      </trkpt>
      <trkpt lat="43.33131" lon="5.217">
        <ele>12</ele>
        <time>2024-11-26T13:09:43.827+00:00</time>
      </trkpt>
      <trkpt lat="43.33126" lon="5.21696">
        <ele>12</ele>
        <time>2024-11-26T13:09:48.827+00:00</time>
      </trkpt>
      <trkpt lat="43.3312" lon="5.21695">
        <ele>13</ele>
        <time>2024-11-26T13:09:52.992+00:00</time>
      </trkpt>
      <trkpt lat="43.33114" lon="5.21694">
        <ele>13</ele>
        <time>2024-11-26T13:09:57.356+00:00</time>
      </trkpt>
      <trkpt lat="43.3311" lon="5.21694">
        <ele>13</ele>
        <time>2024-11-26T13:10:01.490+00:00</time>
      </trkpt>
      <trkpt lat="43.33105" lon="5.21694">
        <ele>13</ele>
        <time>2024-11-26T13:10:05.892+00:00</time>
      </trkpt>
      <trkpt lat="43.331" lon="5.21694">
        <ele>13</ele>
        <time>2024-11-26T13:10:10.827+00:00</time>
      </trkpt>
      <trkpt lat="43.33094" lon="5.21691">
        <ele>13</ele>
        <time>2024-11-26T13:10:15.133+00:00</time>
      </trkpt>
      <trkpt lat="43.33091" lon="5.21687">
        <ele>13</ele>
        <time>2024-11-26T13:10:19.374+00:00</time>
      </trkpt>
      <trkpt lat="43.33087" lon="5.21684">
        <ele>13</ele>
        <time>2024-11-26T13:10:23.495+00:00</time>
      </trkpt>
      <trkpt lat="43.33084" lon="5.21679">
        <ele>21</ele>
        <time>2024-11-26T13:10:27.827+00:00</time>
      </trkpt>
      <trkpt lat="43.33081" lon="5.21674">
        <ele>21</ele>
        <time>2024-11-26T13:10:32.634+00:00</time>
      </trkpt>
      <trkpt lat="43.33078" lon="5.21669">
        <ele>21</ele>
        <time>2024-11-26T13:10:37.233+00:00</time>
      </trkpt>
      <trkpt lat="43.33076" lon="5.21664">
        <ele>21</ele>
        <time>2024-11-26T13:10:41.652+00:00</time>
      </trkpt>
      <trkpt lat="43.33074" lon="5.21658">
        <ele>21</ele>
        <time>2024-11-26T13:10:45.715+00:00</time>
      </trkpt>
      <trkpt lat="43.33075" lon="5.21653">
        <ele>21</ele>
        <time>2024-11-26T13:10:49.827+00:00</time>
      </trkpt>
      <trkpt lat="43.33076" lon="5.21648">
        <ele>28</ele>
        <time>2024-11-26T13:10:54.675+00:00</time>
      </trkpt>
      <trkpt lat="43.33079" lon="5.21644">
        <ele>28</ele>
        <time>2024-11-26T13:10:58.827+00:00</time>
      </trkpt>
      <trkpt lat="43.33084" lon="5.21643">
        <ele>28</ele>
        <time>2024-11-26T13:11:03.412+00:00</time>
      </trkpt>
      <trkpt lat="43.33087" lon="5.21642">
        <ele>28</ele>
        <time>2024-11-26T13:11:07.827+00:00</time>
      </trkpt>
      <trkpt lat="43.33092" lon="5.21642">
        <ele>28</ele>
        <time>2024-11-26T13:11:12.755+00:00</time>
      </trkpt>
      <trkpt lat="43.33095" lon="5.21643">
        <ele>28</ele>
        <time>2024-11-26T13:11:16.827+00:00</time>
      </trkpt>
      <trkpt lat="43.33099" lon="5.21644">
        <ele>27</ele>
        <time>2024-11-26T13:11:21.355+00:00</time>
      </trkpt>
      <trkpt lat="43.33103" lon="5.21645">
        <ele>27</ele>
        <time>2024-11-26T13:11:25.383+00:00</time>
      </trkpt>
      <trkpt lat="43.33107" lon="5.21646">
        <ele>27</ele>
        <time>2024-11-26T13:11:29.827+00:00</time>
      </trkpt>
      <trkpt lat="43.33112" lon="5.21646">
        <ele>27</ele>
        <time>2024-11-26T13:11:34.171+00:00</time>
      </trkpt>
      <trkpt lat="43.33117" lon="5.21645">
        <ele>27</ele>
        <time>2024-11-26T13:11:38.830+00:00</time>
      </trkpt>
      <trkpt lat="43.33121" lon="5.21642">
        <ele>27</ele>
        <time>2024-11-26T13:11:43.309+00:00</time>
      </trkpt>
      <trkpt lat="43.33125" lon="5.21639">
        <ele>27</ele>
        <time>2024-11-26T13:11:47.491+00:00</time>
      </trkpt>
      <trkpt lat="43.33129" lon="5.21636">
        <ele>26</ele>
        <time>2024-11-26T13:11:52.269+00:00</time>
      </trkpt>
      <trkpt lat="43.33133" lon="5.21633">
        <ele>26</ele>
        <time>2024-11-26T13:11:56.672+00:00</time>
      </trkpt>
      <trkpt lat="43.33137" lon="5.21632">
        <ele>26</ele>
        <time>2024-11-26T13:12:00.972+00:00</time>
      </trkpt>
      <trkpt lat="43.33142" lon="5.2163">
        <ele>26</ele>
        <time>2024-11-26T13:12:05.570+00:00</time>
      </trkpt>
      <trkpt lat="43.33146" lon="5.21629">
        <ele>26</ele>
        <time>2024-11-26T13:12:09.827+00:00</time>
      </trkpt>
      <trkpt lat="43.33151" lon="5.21627">
        <ele>26</ele>
        <time>2024-11-26T13:12:14.333+00:00</time>
      </trkpt>
      <trkpt lat="43.33156" lon="5.21625">
        <ele>25</ele>
        <time>2024-11-26T13:12:18.831+00:00</time>
      </trkpt>
      <trkpt lat="43.33159" lon="5.21621">
        <ele>33</ele>
        <time>2024-11-26T13:12:23.430+00:00</time>
      </trkpt>
      <trkpt lat="43.33162" lon="5.21615">
        <ele>33</ele>
        <time>2024-11-26T13:12:27.729+00:00</time>
      </trkpt>
      <trkpt lat="43.33164" lon="5.21609">
        <ele>33</ele>
        <time>2024-11-26T13:12:32.431+00:00</time>
      </trkpt>
      <trkpt lat="43.33166" lon="5.21602">
        <ele>33</ele>
        <time>2024-11-26T13:12:36.792+00:00</time>
      </trkpt>
      <trkpt lat="43.33167" lon="5.21596">
        <ele>41</ele>
        <time>2024-11-26T13:12:41.433+00:00</time>
      </trkpt>
      <trkpt lat="43.33168" lon="5.21591">
        <ele>41</ele>
        <time>2024-11-26T13:12:45.827+00:00</time>
      </trkpt>
      <trkpt lat="43.33169" lon="5.21584">
        <ele>41</ele>
        <time>2024-11-26T13:12:50.512+00:00</time>
      </trkpt>
      <trkpt lat="43.3317" lon="5.21578">
        <ele>41</ele>
        <time>2024-11-26T13:12:54.827+00:00</time>
      </trkpt>
      <trkpt lat="43.3317" lon="5.21571">
        <ele>41</ele>
        <time>2024-11-26T13:12:59.795+00:00</time>
      </trkpt>
      <trkpt lat="43.33168" lon="5.21565">
        <ele>45</ele>
        <time>2024-11-26T13:13:04.352+00:00</time>
      </trkpt>
      <trkpt lat="43.33168" lon="5.21558">
        <ele>45</ele>
        <time>2024-11-26T13:13:08.827+00:00</time>
      </trkpt>
      <trkpt lat="43.33166" lon="5.21553">
        <ele>45</ele>
        <time>2024-11-26T13:13:13.130+00:00</time>
      </trkpt>
      <trkpt lat="43.33165" lon="5.21548">
        <ele>45</ele>
        <time>2024-11-26T13:13:17.475+00:00</time>
      </trkpt>
      <trkpt lat="43.33163" lon="5.21544">
        <ele>45</ele>
        <time>2024-11-26T13:13:21.612+00:00</time>
      </trkpt>
      <trkpt lat="43.33162" lon="5.2154">
        <ele>48</ele>
        <time>2024-11-26T13:13:25.827+00:00</time>
      </trkpt>
      <trkpt lat="43.3316" lon="5.21533">
        <ele>48</ele>
        <time>2024-11-26T13:13:30.673+00:00</time>
      </trkpt>
      <trkpt lat="43.33158" lon="5.21527">
        <ele>48</ele>
        <time>2024-11-26T13:13:34.834+00:00</time>
      </trkpt>
      <trkpt lat="43.33157" lon="5.21521">
        <ele>48</ele>
        <time>2024-11-26T13:13:39.573+00:00</time>
      </trkpt>
      <trkpt lat="43.33155" lon="5.21515">
        <ele>48</ele>
        <time>2024-11-26T13:13:43.831+00:00</time>
      </trkpt>
      <trkpt lat="43.33154" lon="5.2151">
        <ele>51</ele>
        <time>2024-11-26T13:13:48.053+00:00</time>
      </trkpt>
      <trkpt lat="43.33153" lon="5.21505">
        <ele>51</ele>
        <time>2024-11-26T13:13:52.329+00:00</time>
      </trkpt>
      <trkpt lat="43.33151" lon="5.21498">
        <ele>55</ele>
        <time>2024-11-26T13:13:56.510+00:00</time>
      </trkpt>
      <trkpt lat="43.33149" lon="5.21493">
        <ele>55</ele>
        <time>2024-11-26T13:14:00.810+00:00</time>
      </trkpt>
      <trkpt lat="43.33148" lon="5.21487">
        <ele>55</ele>
        <time>2024-11-26T13:14:05.631+00:00</time>
      </trkpt>
      <trkpt lat="43.33145" lon="5.21481">
        <ele>61</ele>
        <time>2024-11-26T13:14:10.111+00:00</time>
      </trkpt>
      <trkpt lat="43.33145" lon="5.21475">
        <ele>61</ele>
        <time>2024-11-26T13:14:14.591+00:00</time>
      </trkpt>
      <trkpt lat="43.33146" lon="5.2147">
        <ele>61</ele>
        <time>2024-11-26T13:14:18.669+00:00</time>
      </trkpt>
      <trkpt lat="43.33146" lon="5.21463">
        <ele>61</ele>
        <time>2024-11-26T13:14:22.772+00:00</time>
      </trkpt>
      <trkpt lat="43.33147" lon="5.21457">
        <ele>65</ele>
        <time>2024-11-26T13:14:26.826+00:00</time>
      </trkpt>
      <trkpt lat="43.33149" lon="5.21451">
        <ele>65</ele>
        <time>2024-11-26T13:14:31.220+00:00</time>
      </trkpt>
      <trkpt lat="43.3315" lon="5.21446">
        <ele>65</ele>
        <time>2024-11-26T13:14:35.571+00:00</time>
      </trkpt>
      <trkpt lat="43.33153" lon="5.21442">
        <ele>65</ele>
        <time>2024-11-26T13:14:39.826+00:00</time>
      </trkpt>
      <trkpt lat="43.33156" lon="5.21436">
        <ele>56</ele>
        <time>2024-11-26T13:14:44.495+00:00</time>
      </trkpt>
      <trkpt lat="43.33158" lon="5.2143">
        <ele>59</ele>
        <time>2024-11-26T13:14:48.549+00:00</time>
      </trkpt>
      <trkpt lat="43.33159" lon="5.21423">
        <ele>59</ele>
        <time>2024-11-26T13:14:52.826+00:00</time>
      </trkpt>
      <trkpt lat="43.33161" lon="5.21417">
        <ele>59</ele>
        <time>2024-11-26T13:14:57.175+00:00</time>
      </trkpt>
      <trkpt lat="43.33162" lon="5.21411">
        <ele>59</ele>
        <time>2024-11-26T13:15:01.194+00:00</time>
      </trkpt>
      <trkpt lat="43.33164" lon="5.21404">
        <ele>59</ele>
        <time>2024-11-26T13:15:05.750+00:00</time>
      </trkpt>
      <trkpt lat="43.33165" lon="5.21397">
        <ele>61</ele>
        <time>2024-11-26T13:15:10.553+00:00</time>
      </trkpt>
      <trkpt lat="43.33167" lon="5.21391">
        <ele>61</ele>
        <time>2024-11-26T13:15:14.826+00:00</time>
      </trkpt>
      <trkpt lat="43.33169" lon="5.21384">
        <ele>61</ele>
        <time>2024-11-26T13:15:19.351+00:00</time>
      </trkpt>
      <trkpt lat="43.33167" lon="5.21377">
        <ele>61</ele>
        <time>2024-11-26T13:15:38.826+00:00</time>
      </trkpt>
      <trkpt lat="43.3317" lon="5.21372">
        <ele>60</ele>
        <time>2024-11-26T13:15:43.812+00:00</time>
      </trkpt>
      <trkpt lat="43.33173" lon="5.21366">
        <ele>60</ele>
        <time>2024-11-26T13:15:47.825+00:00</time>
      </trkpt>
      <trkpt lat="43.33176" lon="5.21358">
        <ele>60</ele>
        <time>2024-11-26T13:15:52.389+00:00</time>
      </trkpt>
      <trkpt lat="43.33177" lon="5.2135">
        <ele>60</ele>
        <time>2024-11-26T13:15:56.826+00:00</time>
      </trkpt>
      <trkpt lat="43.33177" lon="5.21345">
        <ele>56</ele>
        <time>2024-11-26T13:16:01.082+00:00</time>
      </trkpt>
      <trkpt lat="43.33178" lon="5.21338">
        <ele>56</ele>
        <time>2024-11-26T13:16:05.826+00:00</time>
      </trkpt>
      <trkpt lat="43.33179" lon="5.21332">
        <ele>56</ele>
        <time>2024-11-26T13:16:09.932+00:00</time>
      </trkpt>
      <trkpt lat="43.3318" lon="5.21326">
        <ele>56</ele>
        <time>2024-11-26T13:16:14.826+00:00</time>
      </trkpt>
      <trkpt lat="43.33183" lon="5.21316">
        <ele>46</ele>
        <time>2024-11-26T13:16:28.039+00:00</time>
      </trkpt>
      <trkpt lat="43.3318" lon="5.2131">
        <ele>50</ele>
        <time>2024-11-26T13:16:32.418+00:00</time>
      </trkpt>
      <trkpt lat="43.33179" lon="5.21304">
        <ele>50</ele>
        <time>2024-11-26T13:16:36.631+00:00</time>
      </trkpt>
      <trkpt lat="43.33179" lon="5.21302">
        <ele>50</ele>
        <time>2024-11-26T13:16:37.595+00:00</time>
      </trkpt>
      <trkpt lat="43.3318" lon="5.21289">
        <ele>44</ele>
        <time>2024-11-26T13:16:47.032+00:00</time>
      </trkpt>
      <trkpt lat="43.33183" lon="5.21286">
        <ele>41</ele>
        <time>2024-11-26T13:16:51.826+00:00</time>
      </trkpt>
      <trkpt lat="43.33182" lon="5.21286">
        <ele>41</ele>
        <time>2024-11-26T13:16:56.826+00:00</time>
      </trkpt>
      <trkpt lat="43.3318" lon="5.21282">
        <ele>44</ele>
        <time>2024-11-26T13:17:01.441+00:00</time>
      </trkpt>
      <trkpt lat="43.33179" lon="5.21273">
        <ele>44</ele>
        <time>2024-11-26T13:17:05.813+00:00</time>
      </trkpt>
      <trkpt lat="43.33181" lon="5.21265">
        <ele>41</ele>
        <time>2024-11-26T13:17:10.157+00:00</time>
      </trkpt>
      <trkpt lat="43.33182" lon="5.21256">
        <ele>37</ele>
        <time>2024-11-26T13:17:14.674+00:00</time>
      </trkpt>
      <trkpt lat="43.33182" lon="5.2125">
        <ele>37</ele>
        <time>2024-11-26T13:17:18.716+00:00</time>
      </trkpt>
      <trkpt lat="43.33183" lon="5.21243">
        <ele>37</ele>
        <time>2024-11-26T13:17:23.257+00:00</time>
      </trkpt>
      <trkpt lat="43.33185" lon="5.21237">
        <ele>37</ele>
        <time>2024-11-26T13:17:27.513+00:00</time>
      </trkpt>
      <trkpt lat="43.33185" lon="5.2123">
        <ele>33</ele>
        <time>2024-11-26T13:17:31.826+00:00</time>
      </trkpt>
      <trkpt lat="43.33185" lon="5.21223">
        <ele>33</ele>
        <time>2024-11-26T13:17:36.233+00:00</time>
      </trkpt>
      <trkpt lat="43.33184" lon="5.21216">
        <ele>33</ele>
        <time>2024-11-26T13:17:40.713+00:00</time>
      </trkpt>
      <trkpt lat="43.33184" lon="5.2121">
        <ele>33</ele>
        <time>2024-11-26T13:17:45.192+00:00</time>
      </trkpt>
      <trkpt lat="43.33183" lon="5.21203">
        <ele>31</ele>
        <time>2024-11-26T13:17:49.654+00:00</time>
      </trkpt>
      <trkpt lat="43.33183" lon="5.21198">
        <ele>31</ele>
        <time>2024-11-26T13:17:53.826+00:00</time>
      </trkpt>
      <trkpt lat="43.33184" lon="5.2119">
        <ele>31</ele>
        <time>2024-11-26T13:17:58.620+00:00</time>
      </trkpt>
      <trkpt lat="43.33184" lon="5.21183">
        <ele>31</ele>
        <time>2024-11-26T13:18:02.826+00:00</time>
      </trkpt>
      <trkpt lat="43.33184" lon="5.21175">
        <ele>30</ele>
        <time>2024-11-26T13:18:07.651+00:00</time>
      </trkpt>
      <trkpt lat="43.33183" lon="5.2117">
        <ele>30</ele>
        <time>2024-11-26T13:18:11.826+00:00</time>
      </trkpt>
      <trkpt lat="43.33181" lon="5.21164">
        <ele>30</ele>
        <time>2024-11-26T13:18:16.268+00:00</time>
      </trkpt>
      <trkpt lat="43.3318" lon="5.21157">
        <ele>30</ele>
        <time>2024-11-26T13:18:20.356+00:00</time>
      </trkpt>
      <trkpt lat="43.33179" lon="5.21149">
        <ele>29</ele>
        <time>2024-11-26T13:18:24.834+00:00</time>
      </trkpt>
      <trkpt lat="43.3318" lon="5.21142">
        <ele>29</ele>
        <time>2024-11-26T13:18:28.826+00:00</time>
      </trkpt>
      <trkpt lat="43.33181" lon="5.21139">
        <ele>30</ele>
        <time>2024-11-26T13:18:33.495+00:00</time>
      </trkpt>
      <trkpt lat="43.33186" lon="5.21139">
        <ele>30</ele>
        <time>2024-11-26T13:18:38.555+00:00</time>
      </trkpt>
      <trkpt lat="43.33191" lon="5.21141">
        <ele>30</ele>
        <time>2024-11-26T13:18:42.711+00:00</time>
      </trkpt>
      <trkpt lat="43.33197" lon="5.21143">
        <ele>30</ele>
        <time>2024-11-26T13:18:46.813+00:00</time>
      </trkpt>
      <trkpt lat="43.33201" lon="5.21143">
        <ele>30</ele>
        <time>2024-11-26T13:18:51.294+00:00</time>
      </trkpt>
      <trkpt lat="43.33205" lon="5.2114">
        <ele>30</ele>
        <time>2024-11-26T13:18:55.722+00:00</time>
      </trkpt>
      <trkpt lat="43.33208" lon="5.21132">
        <ele>32</ele>
        <time>2024-11-26T13:19:00.329+00:00</time>
      </trkpt>
      <trkpt lat="43.33206" lon="5.21126">
        <ele>30</ele>
        <time>2024-11-26T13:19:04.835+00:00</time>
      </trkpt>
      <trkpt lat="43.33208" lon="5.21118">
        <ele>31</ele>
        <time>2024-11-26T13:19:09.552+00:00</time>
      </trkpt>
      <trkpt lat="43.33209" lon="5.21112">
        <ele>34</ele>
        <time>2024-11-26T13:19:13.826+00:00</time>
      </trkpt>
      <trkpt lat="43.3321" lon="5.21106">
        <ele>34</ele>
        <time>2024-11-26T13:19:18.230+00:00</time>
      </trkpt>
      <trkpt lat="43.33212" lon="5.211">
        <ele>34</ele>
        <time>2024-11-26T13:19:22.556+00:00</time>
      </trkpt>
      <trkpt lat="43.33214" lon="5.21095">
        <ele>36</ele>
        <time>2024-11-26T13:19:26.826+00:00</time>
      </trkpt>
      <trkpt lat="43.33216" lon="5.21088">
        <ele>36</ele>
        <time>2024-11-26T13:19:31.352+00:00</time>
      </trkpt>
      <trkpt lat="43.33218" lon="5.21082">
        <ele>36</ele>
        <time>2024-11-26T13:19:35.789+00:00</time>
      </trkpt>
      <trkpt lat="43.3322" lon="5.21076">
        <ele>36</ele>
        <time>2024-11-26T13:19:39.815+00:00</time>
      </trkpt>
      <trkpt lat="43.33221" lon="5.21073">
        <ele>36</ele>
        <time>2024-11-26T13:19:43.826+00:00</time>
      </trkpt>
      <trkpt lat="43.33223" lon="5.21068">
        <ele>36</ele>
        <time>2024-11-26T13:19:48.171+00:00</time>
      </trkpt>
      <trkpt lat="43.33225" lon="5.21063">
        <ele>36</ele>
        <time>2024-11-26T13:19:52.528+00:00</time>
      </trkpt>
      <trkpt lat="43.33226" lon="5.21058">
        <ele>36</ele>
        <time>2024-11-26T13:19:56.615+00:00</time>
      </trkpt>
      <trkpt lat="43.33228" lon="5.21053">
        <ele>36</ele>
        <time>2024-11-26T13:20:00.753+00:00</time>
      </trkpt>
      <trkpt lat="43.33228" lon="5.21047">
        <ele>36</ele>
        <time>2024-11-26T13:20:04.826+00:00</time>
      </trkpt>
      <trkpt lat="43.3323" lon="5.21042">
        <ele>36</ele>
        <time>2024-11-26T13:20:09.012+00:00</time>
      </trkpt>
      <trkpt lat="43.33232" lon="5.21036">
        <ele>36</ele>
        <time>2024-11-26T13:20:13.169+00:00</time>
      </trkpt>
      <trkpt lat="43.33233" lon="5.2103">
        <ele>36</ele>
        <time>2024-11-26T13:20:17.289+00:00</time>
      </trkpt>
      <trkpt lat="43.33233" lon="5.21023">
        <ele>36</ele>
        <time>2024-11-26T13:20:21.733+00:00</time>
      </trkpt>
      <trkpt lat="43.33233" lon="5.21018">
        <ele>36</ele>
        <time>2024-11-26T13:20:26.128+00:00</time>
      </trkpt>
      <trkpt lat="43.33233" lon="5.21011">
        <ele>38</ele>
        <time>2024-11-26T13:20:30.826+00:00</time>
      </trkpt>
      <trkpt lat="43.33233" lon="5.21004">
        <ele>38</ele>
        <time>2024-11-26T13:20:35.479+00:00</time>
      </trkpt>
      <trkpt lat="43.33233" lon="5.20998">
        <ele>38</ele>
        <time>2024-11-26T13:20:39.826+00:00</time>
      </trkpt>
      <trkpt lat="43.33233" lon="5.20991">
        <ele>38</ele>
        <time>2024-11-26T13:20:44.430+00:00</time>
      </trkpt>
      <trkpt lat="43.33233" lon="5.20987">
        <ele>38</ele>
        <time>2024-11-26T13:20:48.826+00:00</time>
      </trkpt>
      <trkpt lat="43.33232" lon="5.20981">
        <ele>41</ele>
        <time>2024-11-26T13:20:53.456+00:00</time>
      </trkpt>
      <trkpt lat="43.33227" lon="5.20969">
        <ele>41</ele>
        <time>2024-11-26T13:23:00.825+00:00</time>
      </trkpt>
      <trkpt lat="43.33227" lon="5.20969">
        <ele>41</ele>
        <time>2024-11-26T13:23:05.825+00:00</time>
      </trkpt>
      <trkpt lat="43.33227" lon="5.20968">
        <ele>41</ele>
        <time>2024-11-26T13:23:11.825+00:00</time>
      </trkpt>
      <trkpt lat="43.33227" lon="5.20968">
        <ele>41</ele>
        <time>2024-11-26T13:23:16.825+00:00</time>
      </trkpt>
      <trkpt lat="43.33228" lon="5.20964">
        <ele>41</ele>
        <time>2024-11-26T13:23:21.672+00:00</time>
      </trkpt>
      <trkpt lat="43.3323" lon="5.20959">
        <ele>41</ele>
        <time>2024-11-26T13:23:25.775+00:00</time>
      </trkpt>
      <trkpt lat="43.33233" lon="5.20953">
        <ele>50</ele>
        <time>2024-11-26T13:23:29.825+00:00</time>
      </trkpt>
      <trkpt lat="43.33235" lon="5.20948">
        <ele>50</ele>
        <time>2024-11-26T13:23:34.257+00:00</time>
      </trkpt>
      <trkpt lat="43.33236" lon="5.20942">
        <ele>50</ele>
        <time>2024-11-26T13:23:38.710+00:00</time>
      </trkpt>
      <trkpt lat="43.33236" lon="5.20935">
        <ele>50</ele>
        <time>2024-11-26T13:23:43.249+00:00</time>
      </trkpt>
      <trkpt lat="43.33236" lon="5.2093">
        <ele>52</ele>
        <time>2024-11-26T13:23:47.371+00:00</time>
      </trkpt>
      <trkpt lat="43.33237" lon="5.20923">
        <ele>52</ele>
        <time>2024-11-26T13:23:51.712+00:00</time>
      </trkpt>
      <trkpt lat="43.33238" lon="5.20918">
        <ele>52</ele>
        <time>2024-11-26T13:23:55.970+00:00</time>
      </trkpt>
      <trkpt lat="43.33238" lon="5.20912">
        <ele>52</ele>
        <time>2024-11-26T13:24:00.312+00:00</time>
      </trkpt>
      <trkpt lat="43.33238" lon="5.20906">
        <ele>52</ele>
        <time>2024-11-26T13:24:04.433+00:00</time>
      </trkpt>
      <trkpt lat="43.33239" lon="5.209">
        <ele>53</ele>
        <time>2024-11-26T13:24:08.824+00:00</time>
      </trkpt>
      <trkpt lat="43.3324" lon="5.20894">
        <ele>53</ele>
        <time>2024-11-26T13:24:13.170+00:00</time>
      </trkpt>
      <trkpt lat="43.3324" lon="5.20888">
        <ele>53</ele>
        <time>2024-11-26T13:24:17.231+00:00</time>
      </trkpt>
      <trkpt lat="43.33241" lon="5.20881">
        <ele>53</ele>
        <time>2024-11-26T13:24:21.514+00:00</time>
      </trkpt>
      <trkpt lat="43.33243" lon="5.20875">
        <ele>52</ele>
        <time>2024-11-26T13:24:26.274+00:00</time>
      </trkpt>
      <trkpt lat="43.33244" lon="5.20867">
        <ele>52</ele>
        <time>2024-11-26T13:24:30.831+00:00</time>
      </trkpt>
      <trkpt lat="43.33245" lon="5.20861">
        <ele>52</ele>
        <time>2024-11-26T13:24:34.825+00:00</time>
      </trkpt>
      <trkpt lat="43.33246" lon="5.20853">
        <ele>52</ele>
        <time>2024-11-26T13:24:39.694+00:00</time>
      </trkpt>
      <trkpt lat="43.33247" lon="5.20847">
        <ele>52</ele>
        <time>2024-11-26T13:24:43.825+00:00</time>
      </trkpt>
      <trkpt lat="43.33248" lon="5.20839">
        <ele>52</ele>
        <time>2024-11-26T13:24:48.755+00:00</time>
      </trkpt>
      <trkpt lat="43.33248" lon="5.20832">
        <ele>52</ele>
        <time>2024-11-26T13:24:53.132+00:00</time>
      </trkpt>
      <trkpt lat="43.33248" lon="5.20824">
        <ele>52</ele>
        <time>2024-11-26T13:24:57.508+00:00</time>
      </trkpt>
      <trkpt lat="43.33249" lon="5.20817">
        <ele>48</ele>
        <time>2024-11-26T13:25:02.132+00:00</time>
      </trkpt>
      <trkpt lat="43.33251" lon="5.20812">
        <ele>48</ele>
        <time>2024-11-26T13:25:06.253+00:00</time>
      </trkpt>
      <trkpt lat="43.33252" lon="5.20805">
        <ele>48</ele>
        <time>2024-11-26T13:25:10.750+00:00</time>
      </trkpt>
      <trkpt lat="43.33254" lon="5.20798">
        <ele>48</ele>
        <time>2024-11-26T13:25:15.253+00:00</time>
      </trkpt>
      <trkpt lat="43.33254" lon="5.20791">
        <ele>45</ele>
        <time>2024-11-26T13:25:19.777+00:00</time>
      </trkpt>
      <trkpt lat="43.33254" lon="5.20784">
        <ele>45</ele>
        <time>2024-11-26T13:25:24.756+00:00</time>
      </trkpt>
      <trkpt lat="43.33255" lon="5.20777">
        <ele>45</ele>
        <time>2024-11-26T13:25:29.289+00:00</time>
      </trkpt>
      <trkpt lat="43.33255" lon="5.2077">
        <ele>45</ele>
        <time>2024-11-26T13:25:33.512+00:00</time>
      </trkpt>
      <trkpt lat="43.33256" lon="5.20764">
        <ele>45</ele>
        <time>2024-11-26T13:25:37.675+00:00</time>
      </trkpt>
      <trkpt lat="43.33258" lon="5.20757">
        <ele>45</ele>
        <time>2024-11-26T13:25:41.711+00:00</time>
      </trkpt>
      <trkpt lat="43.33258" lon="5.2075">
        <ele>45</ele>
        <time>2024-11-26T13:25:45.824+00:00</time>
      </trkpt>
      <trkpt lat="43.33259" lon="5.20743">
        <ele>45</ele>
        <time>2024-11-26T13:25:50.217+00:00</time>
      </trkpt>
      <trkpt lat="43.3326" lon="5.20735">
        <ele>46</ele>
        <time>2024-11-26T13:25:54.652+00:00</time>
      </trkpt>
      <trkpt lat="43.33261" lon="5.20729">
        <ele>46</ele>
        <time>2024-11-26T13:25:58.825+00:00</time>
      </trkpt>
      <trkpt lat="43.33262" lon="5.20721">
        <ele>46</ele>
        <time>2024-11-26T13:26:03.295+00:00</time>
      </trkpt>
      <trkpt lat="43.33263" lon="5.20714">
        <ele>46</ele>
        <time>2024-11-26T13:26:07.630+00:00</time>
      </trkpt>
      <trkpt lat="43.33264" lon="5.20707">
        <ele>41</ele>
        <time>2024-11-26T13:26:12.178+00:00</time>
      </trkpt>
      <trkpt lat="43.33265" lon="5.20699">
        <ele>41</ele>
        <time>2024-11-26T13:26:16.825+00:00</time>
      </trkpt>
      <trkpt lat="43.33267" lon="5.20693">
        <ele>41</ele>
        <time>2024-11-26T13:26:21.135+00:00</time>
      </trkpt>
      <trkpt lat="43.33268" lon="5.20687">
        <ele>41</ele>
        <time>2024-11-26T13:26:25.333+00:00</time>
      </trkpt>
      <trkpt lat="43.33269" lon="5.2068">
        <ele>40</ele>
        <time>2024-11-26T13:26:29.529+00:00</time>
      </trkpt>
      <trkpt lat="43.33269" lon="5.20672">
        <ele>40</ele>
        <time>2024-11-26T13:26:34.589+00:00</time>
      </trkpt>
      <trkpt lat="43.33269" lon="5.20664">
        <ele>40</ele>
        <time>2024-11-26T13:26:39.171+00:00</time>
      </trkpt>
      <trkpt lat="43.33269" lon="5.20657">
        <ele>40</ele>
        <time>2024-11-26T13:26:43.615+00:00</time>
      </trkpt>
      <trkpt lat="43.3327" lon="5.2065">
        <ele>37</ele>
        <time>2024-11-26T13:26:48.103+00:00</time>
      </trkpt>
      <trkpt lat="43.33271" lon="5.20643">
        <ele>37</ele>
        <time>2024-11-26T13:26:52.514+00:00</time>
      </trkpt>
      <trkpt lat="43.33272" lon="5.20636">
        <ele>37</ele>
        <time>2024-11-26T13:26:56.825+00:00</time>
      </trkpt>
      <trkpt lat="43.33272" lon="5.20627">
        <ele>37</ele>
        <time>2024-11-26T13:27:01.693+00:00</time>
      </trkpt>
      <trkpt lat="43.33272" lon="5.20619">
        <ele>36</ele>
        <time>2024-11-26T13:27:06.097+00:00</time>
      </trkpt>
      <trkpt lat="43.33272" lon="5.20612">
        <ele>36</ele>
        <time>2024-11-26T13:27:10.592+00:00</time>
      </trkpt>
      <trkpt lat="43.33272" lon="5.20604">
        <ele>36</ele>
        <time>2024-11-26T13:27:15.609+00:00</time>
      </trkpt>
      <trkpt lat="43.33272" lon="5.20597">
        <ele>37</ele>
        <time>2024-11-26T13:27:19.825+00:00</time>
      </trkpt>
      <trkpt lat="43.33272" lon="5.20589">
        <ele>37</ele>
        <time>2024-11-26T13:27:24.192+00:00</time>
      </trkpt>
      <trkpt lat="43.33273" lon="5.20581">
        <ele>37</ele>
        <time>2024-11-26T13:27:28.432+00:00</time>
      </trkpt>
      <trkpt lat="43.33274" lon="5.20574">
        <ele>37</ele>
        <time>2024-11-26T13:27:32.732+00:00</time>
      </trkpt>
      <trkpt lat="43.33273" lon="5.20566">
        <ele>36</ele>
        <time>2024-11-26T13:27:36.825+00:00</time>
      </trkpt>
      <trkpt lat="43.33274" lon="5.20558">
        <ele>36</ele>
        <time>2024-11-26T13:27:40.825+00:00</time>
      </trkpt>
      <trkpt lat="43.33274" lon="5.20549">
        <ele>36</ele>
        <time>2024-11-26T13:27:45.571+00:00</time>
      </trkpt>
      <trkpt lat="43.33275" lon="5.20541">
        <ele>35</ele>
        <time>2024-11-26T13:27:49.825+00:00</time>
      </trkpt>
      <trkpt lat="43.3328" lon="5.20536">
        <ele>35</ele>
        <time>2024-11-26T13:27:54.854+00:00</time>
      </trkpt>
      <trkpt lat="43.33278" lon="5.20527">
        <ele>35</ele>
        <time>2024-11-26T13:27:59.615+00:00</time>
      </trkpt>
      <trkpt lat="43.33277" lon="5.2052">
        <ele>35</ele>
        <time>2024-11-26T13:28:03.752+00:00</time>
      </trkpt>
      <trkpt lat="43.33277" lon="5.20512">
        <ele>33</ele>
        <time>2024-11-26T13:28:08.069+00:00</time>
      </trkpt>
      <trkpt lat="43.33278" lon="5.20504">
        <ele>33</ele>
        <time>2024-11-26T13:28:12.825+00:00</time>
      </trkpt>
      <trkpt lat="43.33283" lon="5.20499">
        <ele>33</ele>
        <time>2024-11-26T13:28:17.497+00:00</time>
      </trkpt>
      <trkpt lat="43.33283" lon="5.20492">
        <ele>33</ele>
        <time>2024-11-26T13:28:21.825+00:00</time>
      </trkpt>
      <trkpt lat="43.33282" lon="5.20483">
        <ele>30</ele>
        <time>2024-11-26T13:28:26.617+00:00</time>
      </trkpt>
      <trkpt lat="43.33283" lon="5.20475">
        <ele>30</ele>
        <time>2024-11-26T13:28:31.172+00:00</time>
      </trkpt>
      <trkpt lat="43.33284" lon="5.20468">
        <ele>30</ele>
        <time>2024-11-26T13:28:35.693+00:00</time>
      </trkpt>
      <trkpt lat="43.33284" lon="5.2046">
        <ele>30</ele>
        <time>2024-11-26T13:28:40.275+00:00</time>
      </trkpt>
      <trkpt lat="43.33286" lon="5.20454">
        <ele>28</ele>
        <time>2024-11-26T13:28:44.574+00:00</time>
      </trkpt>
      <trkpt lat="43.33289" lon="5.20447">
        <ele>28</ele>
        <time>2024-11-26T13:28:49.549+00:00</time>
      </trkpt>
      <trkpt lat="43.33291" lon="5.20439">
        <ele>28</ele>
        <time>2024-11-26T13:28:54.693+00:00</time>
      </trkpt>
      <trkpt lat="43.33293" lon="5.20433">
        <ele>34</ele>
        <time>2024-11-26T13:28:59.070+00:00</time>
      </trkpt>
      <trkpt lat="43.33296" lon="5.20428">
        <ele>36</ele>
        <time>2024-11-26T13:29:03.276+00:00</time>
      </trkpt>
      <trkpt lat="43.33298" lon="5.20422">
        <ele>36</ele>
        <time>2024-11-26T13:29:07.575+00:00</time>
      </trkpt>
      <trkpt lat="43.33301" lon="5.20418">
        <ele>36</ele>
        <time>2024-11-26T13:29:11.825+00:00</time>
      </trkpt>
      <trkpt lat="43.33303" lon="5.20413">
        <ele>36</ele>
        <time>2024-11-26T13:29:16.235+00:00</time>
      </trkpt>
      <trkpt lat="43.33305" lon="5.20408">
        <ele>36</ele>
        <time>2024-11-26T13:29:20.569+00:00</time>
      </trkpt>
      <trkpt lat="43.33307" lon="5.20404">
        <ele>36</ele>
        <time>2024-11-26T13:29:24.825+00:00</time>
      </trkpt>
      <trkpt lat="43.33308" lon="5.20398">
        <ele>37</ele>
        <time>2024-11-26T13:29:29.475+00:00</time>
      </trkpt>
      <trkpt lat="43.33309" lon="5.20392">
        <ele>37</ele>
        <time>2024-11-26T13:29:34.595+00:00</time>
      </trkpt>
      <trkpt lat="43.3331" lon="5.20386">
        <ele>37</ele>
        <time>2024-11-26T13:29:38.809+00:00</time>
      </trkpt>
      <trkpt lat="43.33311" lon="5.20381">
        <ele>37</ele>
        <time>2024-11-26T13:29:42.825+00:00</time>
      </trkpt>
      <trkpt lat="43.33313" lon="5.20377">
        <ele>37</ele>
        <time>2024-11-26T13:29:47.426+00:00</time>
      </trkpt>
      <trkpt lat="43.33315" lon="5.2037">
        <ele>41</ele>
        <time>2024-11-26T13:29:51.778+00:00</time>
      </trkpt>
      <trkpt lat="43.33315" lon="5.20364">
        <ele>41</ele>
        <time>2024-11-26T13:29:56.394+00:00</time>
      </trkpt>
      <trkpt lat="43.33316" lon="5.20358">
        <ele>41</ele>
        <time>2024-11-26T13:30:00.650+00:00</time>
      </trkpt>
      <trkpt lat="43.33315" lon="5.20352">
        <ele>41</ele>
        <time>2024-11-26T13:30:05.214+00:00</time>
      </trkpt>
      <trkpt lat="43.33314" lon="5.20346">
        <ele>45</ele>
        <time>2024-11-26T13:30:09.257+00:00</time>
      </trkpt>
      <trkpt lat="43.33312" lon="5.20341">
        <ele>45</ele>
        <time>2024-11-26T13:30:13.825+00:00</time>
      </trkpt>
      <trkpt lat="43.33309" lon="5.20335">
        <ele>45</ele>
        <time>2024-11-26T13:30:18.433+00:00</time>
      </trkpt>
      <trkpt lat="43.33308" lon="5.20331">
        <ele>45</ele>
        <time>2024-11-26T13:30:22.595+00:00</time>
      </trkpt>
      <trkpt lat="43.33307" lon="5.20325">
        <ele>45</ele>
        <time>2024-11-26T13:30:26.702+00:00</time>
      </trkpt>
      <trkpt lat="43.33306" lon="5.20318">
        <ele>48</ele>
        <time>2024-11-26T13:30:31.337+00:00</time>
      </trkpt>
      <trkpt lat="43.33305" lon="5.20312">
        <ele>48</ele>
        <time>2024-11-26T13:30:35.825+00:00</time>
      </trkpt>
      <trkpt lat="43.33304" lon="5.20306">
        <ele>48</ele>
        <time>2024-11-26T13:30:40.340+00:00</time>
      </trkpt>
      <trkpt lat="43.33304" lon="5.20301">
        <ele>48</ele>
        <time>2024-11-26T13:30:44.433+00:00</time>
      </trkpt>
      <trkpt lat="43.33304" lon="5.20296">
        <ele>48</ele>
        <time>2024-11-26T13:30:48.732+00:00</time>
      </trkpt>
      <trkpt lat="43.33305" lon="5.20291">
        <ele>50</ele>
        <time>2024-11-26T13:30:53.095+00:00</time>
      </trkpt>
      <trkpt lat="43.33304" lon="5.20285">
        <ele>50</ele>
        <time>2024-11-26T13:30:57.460+00:00</time>
      </trkpt>
      <trkpt lat="43.33303" lon="5.20279">
        <ele>50</ele>
        <time>2024-11-26T13:31:01.803+00:00</time>
      </trkpt>
      <trkpt lat="43.33304" lon="5.20274">
        <ele>50</ele>
        <time>2024-11-26T13:31:05.825+00:00</time>
      </trkpt>
      <trkpt lat="43.33305" lon="5.2027">
        <ele>50</ele>
        <time>2024-11-26T13:31:10.331+00:00</time>
      </trkpt>
      <trkpt lat="43.33304" lon="5.20265">
        <ele>50</ele>
        <time>2024-11-26T13:31:14.620+00:00</time>
      </trkpt>
      <trkpt lat="43.33304" lon="5.20262">
        <ele>49</ele>
        <time>2024-11-26T13:31:18.825+00:00</time>
      </trkpt>
      <trkpt lat="43.33305" lon="5.20262">
        <ele>49</ele>
        <time>2024-11-26T13:31:23.413+00:00</time>
      </trkpt>
      <trkpt lat="43.33306" lon="5.20258">
        <ele>49</ele>
        <time>2024-11-26T13:31:27.658+00:00</time>
      </trkpt>
      <trkpt lat="43.33302" lon="5.20254">
        <ele>49</ele>
        <time>2024-11-26T13:31:31.720+00:00</time>
      </trkpt>
      <trkpt lat="43.33297" lon="5.20252">
        <ele>49</ele>
        <time>2024-11-26T13:31:35.801+00:00</time>
      </trkpt>
      <trkpt lat="43.33293" lon="5.20249">
        <ele>49</ele>
        <time>2024-11-26T13:31:40.478+00:00</time>
      </trkpt>
      <trkpt lat="43.3329" lon="5.20245">
        <ele>50</ele>
        <time>2024-11-26T13:31:45.141+00:00</time>
      </trkpt>
      <trkpt lat="43.33287" lon="5.20241">
        <ele>50</ele>
        <time>2024-11-26T13:31:49.825+00:00</time>
      </trkpt>
      <trkpt lat="43.33285" lon="5.20236">
        <ele>50</ele>
        <time>2024-11-26T13:31:54.824+00:00</time>
      </trkpt>
      <trkpt lat="43.3328" lon="5.20226">
        <ele>51</ele>
        <time>2024-11-26T13:32:12.824+00:00</time>
      </trkpt>
      <trkpt lat="43.33278" lon="5.2023">
        <ele>51</ele>
        <time>2024-11-26T13:32:17.439+00:00</time>
      </trkpt>
      <trkpt lat="43.33275" lon="5.20208">
        <ele>51</ele>
        <time>2024-11-26T13:32:21.825+00:00</time>
      </trkpt>
      <trkpt lat="43.33275" lon="5.20196">
        <ele>49</ele>
        <time>2024-11-26T13:32:26.757+00:00</time>
      </trkpt>
      <trkpt lat="43.33273" lon="5.20188">
        <ele>49</ele>
        <time>2024-11-26T13:32:30.954+00:00</time>
      </trkpt>
      <trkpt lat="43.33272" lon="5.20178">
        <ele>45</ele>
        <time>2024-11-26T13:32:35.825+00:00</time>
      </trkpt>
      <trkpt lat="43.33271" lon="5.20172">
        <ele>45</ele>
        <time>2024-11-26T13:32:40.230+00:00</time>
      </trkpt>
      <trkpt lat="43.33273" lon="5.20168">
        <ele>45</ele>
        <time>2024-11-26T13:32:44.699+00:00</time>
      </trkpt>
      <trkpt lat="43.33274" lon="5.20164">
        <ele>45</ele>
        <time>2024-11-26T13:32:48.825+00:00</time>
      </trkpt>
      <trkpt lat="43.33274" lon="5.20165">
        <ele>45</ele>
        <time>2024-11-26T13:32:53.825+00:00</time>
      </trkpt>
      <trkpt lat="43.33273" lon="5.20165">
        <ele>45</ele>
        <time>2024-11-26T13:32:58.394+00:00</time>
      </trkpt>
      <trkpt lat="43.33272" lon="5.20164">
        <ele>45</ele>
        <time>2024-11-26T13:33:02.825+00:00</time>
      </trkpt>
      <trkpt lat="43.3327" lon="5.20157">
        <ele>45</ele>
        <time>2024-11-26T13:33:07.799+00:00</time>
      </trkpt>
      <trkpt lat="43.33266" lon="5.20154">
        <ele>45</ele>
        <time>2024-11-26T13:33:12.134+00:00</time>
      </trkpt>
      <trkpt lat="43.33259" lon="5.20154">
        <ele>52</ele>
        <time>2024-11-26T13:33:16.825+00:00</time>
      </trkpt>
      <trkpt lat="43.33252" lon="5.20149">
        <ele>48</ele>
        <time>2024-11-26T13:33:21.578+00:00</time>
      </trkpt>
      <trkpt lat="43.33247" lon="5.20146">
        <ele>48</ele>
        <time>2024-11-26T13:33:26.260+00:00</time>
      </trkpt>
      <trkpt lat="43.33242" lon="5.20142">
        <ele>48</ele>
        <time>2024-11-26T13:33:30.825+00:00</time>
      </trkpt>
      <trkpt lat="43.33237" lon="5.20138">
        <ele>48</ele>
        <time>2024-11-26T13:33:34.939+00:00</time>
      </trkpt>
      <trkpt lat="43.33233" lon="5.20131">
        <ele>51</ele>
        <time>2024-11-26T13:33:39.456+00:00</time>
      </trkpt>
      <trkpt lat="43.33232" lon="5.20125">
        <ele>51</ele>
        <time>2024-11-26T13:33:43.824+00:00</time>
      </trkpt>
      <trkpt lat="43.33234" lon="5.20122">
        <ele>47</ele>
        <time>2024-11-26T13:33:48.097+00:00</time>
      </trkpt>
      <trkpt lat="43.3323" lon="5.20106">
        <ele>47</ele>
        <time>2024-11-26T13:34:10.823+00:00</time>
      </trkpt>
      <trkpt lat="43.33229" lon="5.20105">
        <ele>47</ele>
        <time>2024-11-26T13:34:14.824+00:00</time>
      </trkpt>
      <trkpt lat="43.33225" lon="5.20106">
        <ele>47</ele>
        <time>2024-11-26T13:34:19.050+00:00</time>
      </trkpt>
      <trkpt lat="43.33222" lon="5.20101">
        <ele>47</ele>
        <time>2024-11-26T13:34:23.173+00:00</time>
      </trkpt>
      <trkpt lat="43.3322" lon="5.20095">
        <ele>40</ele>
        <time>2024-11-26T13:34:27.771+00:00</time>
      </trkpt>
      <trkpt lat="43.33216" lon="5.20081">
        <ele>40</ele>
        <time>2024-11-26T13:34:46.824+00:00</time>
      </trkpt>
      <trkpt lat="43.33215" lon="5.2008">
        <ele>40</ele>
        <time>2024-11-26T13:34:51.075+00:00</time>
      </trkpt>
      <trkpt lat="43.33214" lon="5.2008">
        <ele>40</ele>
        <time>2024-11-26T13:34:55.116+00:00</time>
      </trkpt>
      <trkpt lat="43.33211" lon="5.20082">
        <ele>40</ele>
        <time>2024-11-26T13:34:59.303+00:00</time>
      </trkpt>
      <trkpt lat="43.33209" lon="5.20083">
        <ele>40</ele>
        <time>2024-11-26T13:35:03.824+00:00</time>
      </trkpt>
      <trkpt lat="43.33207" lon="5.20084">
        <ele>36</ele>
        <time>2024-11-26T13:36:13.270+00:00</time>
      </trkpt>
      <trkpt lat="43.33203" lon="5.20089">
        <ele>36</ele>
        <time>2024-11-26T13:36:17.511+00:00</time>
      </trkpt>
      <trkpt lat="43.33199" lon="5.20096">
        <ele>36</ele>
        <time>2024-11-26T13:36:21.811+00:00</time>
      </trkpt>
      <trkpt lat="43.33197" lon="5.20103">
        <ele>42</ele>
        <time>2024-11-26T13:36:26.086+00:00</time>
      </trkpt>
      <trkpt lat="43.33192" lon="5.20109">
        <ele>42</ele>
        <time>2024-11-26T13:36:30.291+00:00</time>
      </trkpt>
      <trkpt lat="43.33189" lon="5.20117">
        <ele>42</ele>
        <time>2024-11-26T13:36:34.310+00:00</time>
      </trkpt>
      <trkpt lat="43.33188" lon="5.20126">
        <ele>45</ele>
        <time>2024-11-26T13:36:38.525+00:00</time>
      </trkpt>
      <trkpt lat="43.33185" lon="5.20133">
        <ele>45</ele>
        <time>2024-11-26T13:36:42.748+00:00</time>
      </trkpt>
      <trkpt lat="43.33184" lon="5.20141">
        <ele>45</ele>
        <time>2024-11-26T13:36:47.236+00:00</time>
      </trkpt>
      <trkpt lat="43.33177" lon="5.20148">
        <ele>35</ele>
        <time>2024-11-26T13:37:13.787+00:00</time>
      </trkpt>
      <trkpt lat="43.33174" lon="5.20146">
        <ele>35</ele>
        <time>2024-11-26T13:37:18.148+00:00</time>
      </trkpt>
      <trkpt lat="43.33176" lon="5.2014">
        <ele>35</ele>
        <time>2024-11-26T13:37:22.490+00:00</time>
      </trkpt>
      <trkpt lat="43.33174" lon="5.20141">
        <ele>35</ele>
        <time>2024-11-26T13:37:26.823+00:00</time>
      </trkpt>
      <trkpt lat="43.33172" lon="5.20143">
        <ele>35</ele>
        <time>2024-11-26T13:37:31.392+00:00</time>
      </trkpt>
      <trkpt lat="43.33169" lon="5.20135">
        <ele>35</ele>
        <time>2024-11-26T13:37:44.450+00:00</time>
      </trkpt>
      <trkpt lat="43.33164" lon="5.20138">
        <ele>35</ele>
        <time>2024-11-26T13:37:49.211+00:00</time>
      </trkpt>
      <trkpt lat="43.33162" lon="5.20136">
        <ele>35</ele>
        <time>2024-11-26T13:37:53.247+00:00</time>
      </trkpt>
      <trkpt lat="43.33163" lon="5.20132">
        <ele>35</ele>
        <time>2024-11-26T13:37:57.591+00:00</time>
      </trkpt>
      <trkpt lat="43.33162" lon="5.20131">
        <ele>35</ele>
        <time>2024-11-26T13:38:01.824+00:00</time>
      </trkpt>
      <trkpt lat="43.33161" lon="5.20127">
        <ele>35</ele>
        <time>2024-11-26T13:38:06.446+00:00</time>
      </trkpt>
      <trkpt lat="43.33158" lon="5.20131">
        <ele>35</ele>
        <time>2024-11-26T13:38:10.824+00:00</time>
      </trkpt>
      <trkpt lat="43.33158" lon="5.20138">
        <ele>35</ele>
        <time>2024-11-26T13:38:15.164+00:00</time>
      </trkpt>
      <trkpt lat="43.33157" lon="5.20143">
        <ele>35</ele>
        <time>2024-11-26T13:38:19.824+00:00</time>
      </trkpt>
      <trkpt lat="43.33155" lon="5.2014">
        <ele>35</ele>
        <time>2024-11-26T13:38:24.526+00:00</time>
      </trkpt>
      <trkpt lat="43.33157" lon="5.20135">
        <ele>35</ele>
        <time>2024-11-26T13:38:28.807+00:00</time>
      </trkpt>
      <trkpt lat="43.33158" lon="5.20131">
        <ele>35</ele>
        <time>2024-11-26T13:38:33.183+00:00</time>
      </trkpt>
      <trkpt lat="43.33161" lon="5.20127">
        <ele>35</ele>
        <time>2024-11-26T13:38:37.791+00:00</time>
      </trkpt>
      <trkpt lat="43.33166" lon="5.20123">
        <ele>31</ele>
        <time>2024-11-26T13:38:42.077+00:00</time>
      </trkpt>
      <trkpt lat="43.33166" lon="5.20115">
        <ele>31</ele>
        <time>2024-11-26T13:38:46.132+00:00</time>
      </trkpt>
      <trkpt lat="43.33168" lon="5.20108">
        <ele>31</ele>
        <time>2024-11-26T13:38:50.192+00:00</time>
      </trkpt>
      <trkpt lat="43.3317" lon="5.20101">
        <ele>31</ele>
        <time>2024-11-26T13:38:54.687+00:00</time>
      </trkpt>
      <trkpt lat="43.33172" lon="5.20092">
        <ele>27</ele>
        <time>2024-11-26T13:38:59.243+00:00</time>
      </trkpt>
      <trkpt lat="43.33175" lon="5.20086">
        <ele>27</ele>
        <time>2024-11-26T13:39:03.706+00:00</time>
      </trkpt>
      <trkpt lat="43.33177" lon="5.20079">
        <ele>27</ele>
        <time>2024-11-26T13:39:07.809+00:00</time>
      </trkpt>
      <trkpt lat="43.3318" lon="5.20075">
        <ele>27</ele>
        <time>2024-11-26T13:39:11.824+00:00</time>
      </trkpt>
      <trkpt lat="43.33183" lon="5.20071">
        <ele>36</ele>
        <time>2024-11-26T13:39:16.108+00:00</time>
      </trkpt>
      <trkpt lat="43.33183" lon="5.20063">
        <ele>29</ele>
        <time>2024-11-26T13:39:20.291+00:00</time>
      </trkpt>
      <trkpt lat="43.33184" lon="5.20055">
        <ele>29</ele>
        <time>2024-11-26T13:39:24.824+00:00</time>
      </trkpt>
      <trkpt lat="43.33186" lon="5.20049">
        <ele>29</ele>
        <time>2024-11-26T13:39:29.548+00:00</time>
      </trkpt>
      <trkpt lat="43.3319" lon="5.20048">
        <ele>29</ele>
        <time>2024-11-26T13:39:33.643+00:00</time>
      </trkpt>
      <trkpt lat="43.33192" lon="5.20042">
        <ele>29</ele>
        <time>2024-11-26T13:39:37.705+00:00</time>
      </trkpt>
      <trkpt lat="43.33192" lon="5.20032">
        <ele>24</ele>
        <time>2024-11-26T13:39:42.269+00:00</time>
      </trkpt>
      <trkpt lat="43.33192" lon="5.20024">
        <ele>24</ele>
        <time>2024-11-26T13:39:46.823+00:00</time>
      </trkpt>
      <trkpt lat="43.33194" lon="5.20018">
        <ele>24</ele>
        <time>2024-11-26T13:39:52.527+00:00</time>
      </trkpt>
      <trkpt lat="43.33202" lon="5.20013">
        <ele>20</ele>
        <time>2024-11-26T13:39:56.823+00:00</time>
      </trkpt>
      <trkpt lat="43.33205" lon="5.20004">
        <ele>20</ele>
        <time>2024-11-26T13:40:01.824+00:00</time>
      </trkpt>
      <trkpt lat="43.33208" lon="5.19996">
        <ele>22</ele>
        <time>2024-11-26T13:40:06.572+00:00</time>
      </trkpt>
      <trkpt lat="43.3321" lon="5.1999">
        <ele>22</ele>
        <time>2024-11-26T13:40:10.651+00:00</time>
      </trkpt>
      <trkpt lat="43.33215" lon="5.19985">
        <ele>15</ele>
        <time>2024-11-26T13:40:15.188+00:00</time>
      </trkpt>
      <trkpt lat="43.33221" lon="5.19988">
        <ele>22</ele>
        <time>2024-11-26T13:40:19.830+00:00</time>
      </trkpt>
      <trkpt lat="43.33226" lon="5.19993">
        <ele>22</ele>
        <time>2024-11-26T13:40:24.369+00:00</time>
      </trkpt>
      <trkpt lat="43.33229" lon="5.19997">
        <ele>22</ele>
        <time>2024-11-26T13:40:28.430+00:00</time>
      </trkpt>
      <trkpt lat="43.33231" lon="5.20002">
        <ele>22</ele>
        <time>2024-11-26T13:40:32.824+00:00</time>
      </trkpt>
      <trkpt lat="43.33236" lon="5.20005">
        <ele>22</ele>
        <time>2024-11-26T13:40:37.328+00:00</time>
      </trkpt>
      <trkpt lat="43.33241" lon="5.20008">
        <ele>18</ele>
        <time>2024-11-26T13:40:41.704+00:00</time>
      </trkpt>
      <trkpt lat="43.33244" lon="5.20013">
        <ele>18</ele>
        <time>2024-11-26T13:40:46.167+00:00</time>
      </trkpt>
      <trkpt lat="43.33248" lon="5.20016">
        <ele>26</ele>
        <time>2024-11-26T13:40:50.571+00:00</time>
      </trkpt>
      <trkpt lat="43.33252" lon="5.20019">
        <ele>26</ele>
        <time>2024-11-26T13:40:54.988+00:00</time>
      </trkpt>
      <trkpt lat="43.33257" lon="5.20024">
        <ele>26</ele>
        <time>2024-11-26T13:40:59.367+00:00</time>
      </trkpt>
      <trkpt lat="43.33262" lon="5.20027">
        <ele>26</ele>
        <time>2024-11-26T13:41:03.786+00:00</time>
      </trkpt>
      <trkpt lat="43.33266" lon="5.20031">
        <ele>17</ele>
        <time>2024-11-26T13:41:08.173+00:00</time>
      </trkpt>
      <trkpt lat="43.3327" lon="5.20035">
        <ele>17</ele>
        <time>2024-11-26T13:41:12.504+00:00</time>
      </trkpt>
      <trkpt lat="43.33273" lon="5.20039">
        <ele>17</ele>
        <time>2024-11-26T13:41:16.824+00:00</time>
      </trkpt>
      <trkpt lat="43.33276" lon="5.20044">
        <ele>24</ele>
        <time>2024-11-26T13:41:21.327+00:00</time>
      </trkpt>
      <trkpt lat="43.33278" lon="5.2005">
        <ele>24</ele>
        <time>2024-11-26T13:41:25.668+00:00</time>
      </trkpt>
      <trkpt lat="43.33281" lon="5.20055">
        <ele>24</ele>
        <time>2024-11-26T13:41:29.951+00:00</time>
      </trkpt>
      <trkpt lat="43.33285" lon="5.20058">
        <ele>24</ele>
        <time>2024-11-26T13:41:33.971+00:00</time>
      </trkpt>
      <trkpt lat="43.33289" lon="5.20063">
        <ele>24</ele>
        <time>2024-11-26T13:41:38.526+00:00</time>
      </trkpt>
      <trkpt lat="43.33292" lon="5.20066">
        <ele>16</ele>
        <time>2024-11-26T13:41:43.113+00:00</time>
      </trkpt>
      <trkpt lat="43.33298" lon="5.20068">
        <ele>16</ele>
        <time>2024-11-26T13:41:47.824+00:00</time>
      </trkpt>
      <trkpt lat="43.33303" lon="5.20063">
        <ele>16</ele>
        <time>2024-11-26T13:41:52.211+00:00</time>
      </trkpt>
      <trkpt lat="43.33307" lon="5.20056">
        <ele>16</ele>
        <time>2024-11-26T13:41:56.766+00:00</time>
      </trkpt>
      <trkpt lat="43.3331" lon="5.20049">
        <ele>16</ele>
        <time>2024-11-26T13:42:00.988+00:00</time>
      </trkpt>
      <trkpt lat="43.33311" lon="5.20041">
        <ele>11</ele>
        <time>2024-11-26T13:42:05.408+00:00</time>
      </trkpt>
      <trkpt lat="43.3331" lon="5.20032">
        <ele>11</ele>
        <time>2024-11-26T13:42:09.768+00:00</time>
      </trkpt>
      <trkpt lat="43.33309" lon="5.20027">
        <ele>11</ele>
        <time>2024-11-26T13:42:14.588+00:00</time>
      </trkpt>
      <trkpt lat="43.33308" lon="5.20018">
        <ele>11</ele>
        <time>2024-11-26T13:42:18.824+00:00</time>
      </trkpt>
      <trkpt lat="43.33307" lon="5.20011">
        <ele>6</ele>
        <time>2024-11-26T13:42:23.349+00:00</time>
      </trkpt>
      <trkpt lat="43.33311" lon="5.20006">
        <ele>6</ele>
        <time>2024-11-26T13:42:27.824+00:00</time>
      </trkpt>
      <trkpt lat="43.33317" lon="5.20003">
        <ele>6</ele>
        <time>2024-11-26T13:42:32.448+00:00</time>
      </trkpt>
      <trkpt lat="43.33322" lon="5.2">
        <ele>6</ele>
        <time>2024-11-26T13:42:36.949+00:00</time>
      </trkpt>
      <trkpt lat="43.33326" lon="5.19995">
        <ele>6</ele>
        <time>2024-11-26T13:42:41.308+00:00</time>
      </trkpt>
      <trkpt lat="43.33331" lon="5.1999">
        <ele>6</ele>
        <time>2024-11-26T13:42:45.804+00:00</time>
      </trkpt>
      <trkpt lat="43.33335" lon="5.19987">
        <ele>6</ele>
        <time>2024-11-26T13:42:50.309+00:00</time>
      </trkpt>
      <trkpt lat="43.3334" lon="5.19983">
        <ele>3</ele>
        <time>2024-11-26T13:42:54.720+00:00</time>
      </trkpt>
      <trkpt lat="43.33344" lon="5.19979">
        <ele>3</ele>
        <time>2024-11-26T13:42:59.342+00:00</time>
      </trkpt>
      <trkpt lat="43.33348" lon="5.19974">
        <ele>5</ele>
        <time>2024-11-26T13:43:03.824+00:00</time>
      </trkpt>
      <trkpt lat="43.33348" lon="5.19968">
        <ele>5</ele>
        <time>2024-11-26T13:43:08.403+00:00</time>
      </trkpt>
      <trkpt lat="43.33347" lon="5.19967">
        <ele>3</ele>
        <time>2024-11-26T13:43:09.697+00:00</time>
      </trkpt>
      <trkpt lat="43.3335" lon="5.19959">
        <ele>5</ele>
        <time>2024-11-26T13:43:17.824+00:00</time>
      </trkpt>
      <trkpt lat="43.3335" lon="5.19957">
        <ele>4</ele>
        <time>2024-11-26T13:43:22.587+00:00</time>
      </trkpt>
      <trkpt lat="43.3335" lon="5.19951">
        <ele>4</ele>
        <time>2024-11-26T13:43:26.767+00:00</time>
      </trkpt>
      <trkpt lat="43.33352" lon="5.19943">
        <ele>4</ele>
        <time>2024-11-26T13:43:31.784+00:00</time>
      </trkpt>
      <trkpt lat="43.33354" lon="5.19935">
        <ele>4</ele>
        <time>2024-11-26T13:43:35.824+00:00</time>
      </trkpt>
      <trkpt lat="43.33352" lon="5.19928">
        <ele>3</ele>
        <time>2024-11-26T13:43:39.992+00:00</time>
      </trkpt>
      <trkpt lat="43.33351" lon="5.19922">
        <ele>3</ele>
        <time>2024-11-26T13:43:44.824+00:00</time>
      </trkpt>
      <trkpt lat="43.3335" lon="5.19922">
        <ele>3</ele>
        <time>2024-11-26T13:43:49.529+00:00</time>
      </trkpt>
      <trkpt lat="43.33344" lon="5.19917">
        <ele>1</ele>
        <time>2024-11-26T13:43:54.823+00:00</time>
      </trkpt>
      <trkpt lat="43.33342" lon="5.19919">
        <ele>1</ele>
        <time>2024-11-26T13:43:59.823+00:00</time>
      </trkpt>
      <trkpt lat="43.33342" lon="5.1992">
        <ele>1</ele>
        <time>2024-11-26T13:44:04.823+00:00</time>
      </trkpt>
      <trkpt lat="43.33341" lon="5.19916">
        <ele>1</ele>
        <time>2024-11-26T13:44:09.412+00:00</time>
      </trkpt>
      <trkpt lat="43.33342" lon="5.19911">
        <ele>1</ele>
        <time>2024-11-26T13:44:13.823+00:00</time>
      </trkpt>
      <trkpt lat="43.33342" lon="5.19906">
        <ele>1</ele>
        <time>2024-11-26T13:44:18.763+00:00</time>
      </trkpt>
      <trkpt lat="43.33337" lon="5.19902">
        <ele>2</ele>
        <time>2024-11-26T13:44:23.174+00:00</time>
      </trkpt>
      <trkpt lat="43.33337" lon="5.19896">
        <ele>2</ele>
        <time>2024-11-26T13:44:27.433+00:00</time>
      </trkpt>
      <trkpt lat="43.33336" lon="5.19891">
        <ele>2</ele>
        <time>2024-11-26T13:44:51.651+00:00</time>
      </trkpt>
      <trkpt lat="43.33337" lon="5.19899">
        <ele>2</ele>
        <time>2024-11-26T13:44:56.828+00:00</time>
      </trkpt>
      <trkpt lat="43.33344" lon="5.19902">
        <ele>2</ele>
        <time>2024-11-26T13:45:01.623+00:00</time>
      </trkpt>
      <trkpt lat="43.33349" lon="5.19896">
        <ele>4</ele>
        <time>2024-11-26T13:45:05.823+00:00</time>
      </trkpt>
      <trkpt lat="43.3335" lon="5.19891">
        <ele>4</ele>
        <time>2024-11-26T13:45:10.823+00:00</time>
      </trkpt>
      <trkpt lat="43.33348" lon="5.19895">
        <ele>4</ele>
        <time>2024-11-26T13:46:57.823+00:00</time>
      </trkpt>
      <trkpt lat="43.33347" lon="5.19896">
        <ele>4</ele>
        <time>2024-11-26T13:47:12.823+00:00</time>
      </trkpt>
      <trkpt lat="43.3335" lon="5.19897">
        <ele>4</ele>
        <time>2024-11-26T13:47:16.822+00:00</time>
      </trkpt>
      <trkpt lat="43.33355" lon="5.19898">
        <ele>4</ele>
        <time>2024-11-26T13:47:21.684+00:00</time>
      </trkpt>
      <trkpt lat="43.33358" lon="5.19898">
        <ele>4</ele>
        <time>2024-11-26T13:47:26.104+00:00</time>
      </trkpt>
      <trkpt lat="43.33362" lon="5.19895">
        <ele>4</ele>
        <time>2024-11-26T13:47:30.431+00:00</time>
      </trkpt>
      <trkpt lat="43.33363" lon="5.1989">
        <ele>4</ele>
        <time>2024-11-26T13:47:34.529+00:00</time>
      </trkpt>
      <trkpt lat="43.33366" lon="5.19889">
        <ele>4</ele>
        <time>2024-11-26T13:47:38.628+00:00</time>
      </trkpt>
      <trkpt lat="43.33368" lon="5.19885">
        <ele>4</ele>
        <time>2024-11-26T13:47:42.689+00:00</time>
      </trkpt>
      <trkpt lat="43.3337" lon="5.1988">
        <ele>4</ele>
        <time>2024-11-26T13:47:46.823+00:00</time>
      </trkpt>
      <trkpt lat="43.33373" lon="5.19876">
        <ele>4</ele>
        <time>2024-11-26T13:47:51.271+00:00</time>
      </trkpt>
      <trkpt lat="43.33375" lon="5.19872">
        <ele>7</ele>
        <time>2024-11-26T13:47:55.823+00:00</time>
      </trkpt>
      <trkpt lat="43.33379" lon="5.1987">
        <ele>12</ele>
        <time>2024-11-26T13:48:00.707+00:00</time>
      </trkpt>
      <trkpt lat="43.33381" lon="5.19867">
        <ele>12</ele>
        <time>2024-11-26T13:48:05.289+00:00</time>
      </trkpt>
      <trkpt lat="43.33384" lon="5.19866">
        <ele>12</ele>
        <time>2024-11-26T13:48:09.691+00:00</time>
      </trkpt>
      <trkpt lat="43.33387" lon="5.1987">
        <ele>12</ele>
        <time>2024-11-26T13:48:14.289+00:00</time>
      </trkpt>
      <trkpt lat="43.33389" lon="5.19874">
        <ele>12</ele>
        <time>2024-11-26T13:48:18.823+00:00</time>
      </trkpt>
      <trkpt lat="43.33392" lon="5.19877">
        <ele>9</ele>
        <time>2024-11-26T13:48:23.009+00:00</time>
      </trkpt>
      <trkpt lat="43.33396" lon="5.19879">
        <ele>9</ele>
        <time>2024-11-26T13:48:27.308+00:00</time>
      </trkpt>
      <trkpt lat="43.33399" lon="5.1988">
        <ele>9</ele>
        <time>2024-11-26T13:48:31.369+00:00</time>
      </trkpt>
      <trkpt lat="43.33403" lon="5.19878">
        <ele>19</ele>
        <time>2024-11-26T13:48:35.524+00:00</time>
      </trkpt>
      <trkpt lat="43.33406" lon="5.19878">
        <ele>19</ele>
        <time>2024-11-26T13:48:39.730+00:00</time>
      </trkpt>
      <trkpt lat="43.33409" lon="5.19876">
        <ele>19</ele>
        <time>2024-11-26T13:48:43.823+00:00</time>
      </trkpt>
      <trkpt lat="43.33413" lon="5.19876">
        <ele>19</ele>
        <time>2024-11-26T13:48:48.313+00:00</time>
      </trkpt>
      <trkpt lat="43.33418" lon="5.19875">
        <ele>21</ele>
        <time>2024-11-26T13:48:52.823+00:00</time>
      </trkpt>
      <trkpt lat="43.33422" lon="5.19875">
        <ele>19</ele>
        <time>2024-11-26T13:48:57.331+00:00</time>
      </trkpt>
      <trkpt lat="43.33425" lon="5.19878">
        <ele>19</ele>
        <time>2024-11-26T13:49:01.365+00:00</time>
      </trkpt>
      <trkpt lat="43.33428" lon="5.19881">
        <ele>19</ele>
        <time>2024-11-26T13:49:05.708+00:00</time>
      </trkpt>
      <trkpt lat="43.3343" lon="5.19885">
        <ele>19</ele>
        <time>2024-11-26T13:49:09.823+00:00</time>
      </trkpt>
      <trkpt lat="43.33433" lon="5.19889">
        <ele>33</ele>
        <time>2024-11-26T13:49:14.410+00:00</time>
      </trkpt>
      <trkpt lat="43.33433" lon="5.19895">
        <ele>33</ele>
        <time>2024-11-26T13:49:18.823+00:00</time>
      </trkpt>
      <trkpt lat="43.33434" lon="5.19901">
        <ele>33</ele>
        <time>2024-11-26T13:49:23.530+00:00</time>
      </trkpt>
      <trkpt lat="43.33437" lon="5.19906">
        <ele>29</ele>
        <time>2024-11-26T13:49:28.409+00:00</time>
      </trkpt>
      <trkpt lat="43.33439" lon="5.19912">
        <ele>29</ele>
        <time>2024-11-26T13:49:32.823+00:00</time>
      </trkpt>
      <trkpt lat="43.33445" lon="5.19917">
        <ele>29</ele>
        <time>2024-11-26T13:49:37.692+00:00</time>
      </trkpt>
      <trkpt lat="43.33449" lon="5.19921">
        <ele>29</ele>
        <time>2024-11-26T13:49:41.803+00:00</time>
      </trkpt>
      <trkpt lat="43.33452" lon="5.19925">
        <ele>29</ele>
        <time>2024-11-26T13:49:45.830+00:00</time>
      </trkpt>
      <trkpt lat="43.33457" lon="5.19919">
        <ele>29</ele>
        <time>2024-11-26T13:50:08.823+00:00</time>
      </trkpt>
      <trkpt lat="43.33457" lon="5.1991">
        <ele>29</ele>
        <time>2024-11-26T13:50:13.429+00:00</time>
      </trkpt>
      <trkpt lat="43.33456" lon="5.19905">
        <ele>29</ele>
        <time>2024-11-26T13:50:17.446+00:00</time>
      </trkpt>
      <trkpt lat="43.33455" lon="5.199">
        <ele>33</ele>
        <time>2024-11-26T13:50:21.823+00:00</time>
      </trkpt>
      <trkpt lat="43.33453" lon="5.19895">
        <ele>33</ele>
        <time>2024-11-26T13:50:26.285+00:00</time>
      </trkpt>
      <trkpt lat="43.33452" lon="5.19888">
        <ele>33</ele>
        <time>2024-11-26T13:50:30.823+00:00</time>
      </trkpt>
      <trkpt lat="43.33451" lon="5.19882">
        <ele>33</ele>
        <time>2024-11-26T13:50:35.251+00:00</time>
      </trkpt>
      <trkpt lat="43.33451" lon="5.19877">
        <ele>33</ele>
        <time>2024-11-26T13:50:39.825+00:00</time>
      </trkpt>
      <trkpt lat="43.33451" lon="5.19872">
        <ele>33</ele>
        <time>2024-11-26T13:50:43.823+00:00</time>
      </trkpt>
      <trkpt lat="43.33452" lon="5.19867">
        <ele>33</ele>
        <time>2024-11-26T13:50:48.244+00:00</time>
      </trkpt>
      <trkpt lat="43.33453" lon="5.19859">
        <ele>33</ele>
        <time>2024-11-26T13:50:52.823+00:00</time>
      </trkpt>
      <trkpt lat="43.33454" lon="5.19856">
        <ele>33</ele>
        <time>2024-11-26T13:50:57.201+00:00</time>
      </trkpt>
      <trkpt lat="43.33452" lon="5.1985">
        <ele>33</ele>
        <time>2024-11-26T13:51:01.442+00:00</time>
      </trkpt>
      <trkpt lat="43.33452" lon="5.19843">
        <ele>34</ele>
        <time>2024-11-26T13:51:06.023+00:00</time>
      </trkpt>
      <trkpt lat="43.33453" lon="5.19836">
        <ele>34</ele>
        <time>2024-11-26T13:51:10.381+00:00</time>
      </trkpt>
      <trkpt lat="43.33454" lon="5.19831">
        <ele>34</ele>
        <time>2024-11-26T13:51:14.539+00:00</time>
      </trkpt>
      <trkpt lat="43.33456" lon="5.19827">
        <ele>34</ele>
        <time>2024-11-26T13:51:18.629+00:00</time>
      </trkpt>
      <trkpt lat="43.33459" lon="5.19823">
        <ele>42</ele>
        <time>2024-11-26T13:51:22.657+00:00</time>
      </trkpt>
      <trkpt lat="43.33459" lon="5.19816">
        <ele>45</ele>
        <time>2024-11-26T13:51:27.240+00:00</time>
      </trkpt>
      <trkpt lat="43.33459" lon="5.1981">
        <ele>45</ele>
        <time>2024-11-26T13:51:31.839+00:00</time>
      </trkpt>
      <trkpt lat="43.3346" lon="5.19802">
        <ele>45</ele>
        <time>2024-11-26T13:51:36.760+00:00</time>
      </trkpt>
      <trkpt lat="43.3346" lon="5.19795">
        <ele>45</ele>
        <time>2024-11-26T13:51:41.179+00:00</time>
      </trkpt>
      <trkpt lat="43.33459" lon="5.19788">
        <ele>49</ele>
        <time>2024-11-26T13:51:45.580+00:00</time>
      </trkpt>
      <trkpt lat="43.33457" lon="5.19783">
        <ele>37</ele>
        <time>2024-11-26T13:51:49.803+00:00</time>
      </trkpt>
      <trkpt lat="43.33456" lon="5.19778">
        <ele>37</ele>
        <time>2024-11-26T13:51:54.142+00:00</time>
      </trkpt>
    </trkseg>
  </trk>
</gpx>